<?xml version="1.0" encoding="UTF-8" standalone="no" ?>
<gpx xmlns="http://www.topografix.com/GPX/1/1" xmlns:xsi="http://www.w3.org/2001/XMLSchema-instance" xsi:schemaLocation="http://www.topografix.com/GPX/1/1 http://www.topografix.com/GPX/1/1/gpx.xsd" version="1.1" creator="VisuGPX - https://www.visugpx.com">
  <metadata>
    <name>VTT XC / rando st jean de la Blaquiere 2017</name>
    <desc><![CDATA[VTT XC la trace de la rando de st Jean..]]></desc>
  </metadata>
  <trk>
    <name><![CDATA[VTT XC / rando st jean de la Blaquiere 2017_1]]></name>
    <trkseg>
      <trkpt lat="43.71457" lon="3.41993">
        <ele>214.3</ele>
        <time>2017-05-07T05:56:09Z</time>
      </trkpt>
      <trkpt lat="43.71457" lon="3.41993">
        <ele>214.3</ele>
        <time>2017-05-07T05:56:17Z</time>
      </trkpt>
      <trkpt lat="43.71448" lon="3.41989">
        <ele>206.9</ele>
        <time>2017-05-07T05:56:22Z</time>
      </trkpt>
      <trkpt lat="43.71439" lon="3.41984">
        <ele>215.8</ele>
        <time>2017-05-07T05:56:35Z</time>
      </trkpt>
      <trkpt lat="43.71443" lon="3.41986">
        <ele>220.3</ele>
        <time>2017-05-07T06:02:20Z</time>
      </trkpt>
      <trkpt lat="43.71441" lon="3.41987">
        <ele>223.7</ele>
        <time>2017-05-07T06:05:15Z</time>
      </trkpt>
      <trkpt lat="43.71439" lon="3.41985">
        <ele>224.1</ele>
        <time>2017-05-07T06:06:10Z</time>
      </trkpt>
      <trkpt lat="43.71435" lon="3.41987">
        <ele>223.6</ele>
        <time>2017-05-07T06:08:50Z</time>
      </trkpt>
      <trkpt lat="43.7143" lon="3.41985">
        <ele>223.9</ele>
        <time>2017-05-07T06:09:08Z</time>
      </trkpt>
      <trkpt lat="43.7143" lon="3.41985">
        <ele>223.2</ele>
        <time>2017-05-07T06:10:23Z</time>
      </trkpt>
      <trkpt lat="43.71429" lon="3.41987">
        <ele>223.2</ele>
        <time>2017-05-07T06:10:30Z</time>
      </trkpt>
      <trkpt lat="43.71432" lon="3.41987">
        <ele>222.8</ele>
        <time>2017-05-07T06:10:39Z</time>
      </trkpt>
      <trkpt lat="43.71433" lon="3.41985">
        <ele>223.3</ele>
        <time>2017-05-07T06:10:53Z</time>
      </trkpt>
      <trkpt lat="43.71428" lon="3.41978">
        <ele>223</ele>
        <time>2017-05-07T06:10:58Z</time>
      </trkpt>
      <trkpt lat="43.71427" lon="3.41981">
        <ele>222.9</ele>
        <time>2017-05-07T06:11:05Z</time>
      </trkpt>
      <trkpt lat="43.71429" lon="3.41982">
        <ele>222.8</ele>
        <time>2017-05-07T06:11:12Z</time>
      </trkpt>
      <trkpt lat="43.71429" lon="3.41987">
        <ele>222.8</ele>
        <time>2017-05-07T06:11:34Z</time>
      </trkpt>
      <trkpt lat="43.71428" lon="3.41985">
        <ele>223</ele>
        <time>2017-05-07T06:11:41Z</time>
      </trkpt>
      <trkpt lat="43.71426" lon="3.41982">
        <ele>222.4</ele>
        <time>2017-05-07T06:11:57Z</time>
      </trkpt>
      <trkpt lat="43.71421" lon="3.41982">
        <ele>222.1</ele>
        <time>2017-05-07T06:12:04Z</time>
      </trkpt>
      <trkpt lat="43.71418" lon="3.41981">
        <ele>222.4</ele>
        <time>2017-05-07T06:12:11Z</time>
      </trkpt>
      <trkpt lat="43.71415" lon="3.41977">
        <ele>223.3</ele>
        <time>2017-05-07T06:12:18Z</time>
      </trkpt>
      <trkpt lat="43.71418" lon="3.41974">
        <ele>224</ele>
        <time>2017-05-07T06:12:25Z</time>
      </trkpt>
      <trkpt lat="43.71422" lon="3.41978">
        <ele>224.1</ele>
        <time>2017-05-07T06:12:32Z</time>
      </trkpt>
      <trkpt lat="43.71423" lon="3.41982">
        <ele>224.3</ele>
        <time>2017-05-07T06:12:39Z</time>
      </trkpt>
      <trkpt lat="43.71423" lon="3.4198">
        <ele>224.4</ele>
        <time>2017-05-07T06:14:26Z</time>
      </trkpt>
      <trkpt lat="43.71423" lon="3.41976">
        <ele>226.5</ele>
        <time>2017-05-07T06:15:57Z</time>
      </trkpt>
      <trkpt lat="43.71423" lon="3.41981">
        <ele>227.2</ele>
        <time>2017-05-07T06:16:17Z</time>
      </trkpt>
      <trkpt lat="43.71423" lon="3.41981">
        <ele>227.6</ele>
        <time>2017-05-07T06:16:24Z</time>
      </trkpt>
      <trkpt lat="43.71425" lon="3.41982">
        <ele>227.9</ele>
        <time>2017-05-07T06:16:49Z</time>
      </trkpt>
      <trkpt lat="43.71427" lon="3.41982">
        <ele>227.9</ele>
        <time>2017-05-07T06:16:58Z</time>
      </trkpt>
      <trkpt lat="43.71428" lon="3.41982">
        <ele>227.8</ele>
        <time>2017-05-07T06:17:05Z</time>
      </trkpt>
      <trkpt lat="43.71429" lon="3.4198">
        <ele>227.1</ele>
        <time>2017-05-07T06:16:53Z</time>
      </trkpt>
      <trkpt lat="43.71429" lon="3.41984">
        <ele>227.2</ele>
        <time>2017-05-07T06:17:03Z</time>
      </trkpt>
      <trkpt lat="43.71426" lon="3.41982">
        <ele>227.5</ele>
        <time>2017-05-07T06:17:29Z</time>
      </trkpt>
      <trkpt lat="43.71427" lon="3.41984">
        <ele>226.7</ele>
        <time>2017-05-07T06:18:42Z</time>
      </trkpt>
      <trkpt lat="43.71427" lon="3.41972">
        <ele>226.2</ele>
        <time>2017-05-07T06:18:49Z</time>
      </trkpt>
      <trkpt lat="43.7143" lon="3.41963">
        <ele>226.2</ele>
        <time>2017-05-07T06:18:56Z</time>
      </trkpt>
      <trkpt lat="43.7143" lon="3.41953">
        <ele>226.3</ele>
        <time>2017-05-07T06:19:01Z</time>
      </trkpt>
      <trkpt lat="43.71432" lon="3.41943">
        <ele>226.4</ele>
        <time>2017-05-07T06:19:07Z</time>
      </trkpt>
      <trkpt lat="43.71433" lon="3.41934">
        <ele>226.4</ele>
        <time>2017-05-07T06:19:14Z</time>
      </trkpt>
      <trkpt lat="43.71432" lon="3.41933">
        <ele>226.4</ele>
        <time>2017-05-07T06:19:21Z</time>
      </trkpt>
      <trkpt lat="43.71432" lon="3.41939">
        <ele>226.3</ele>
        <time>2017-05-07T06:19:35Z</time>
      </trkpt>
      <trkpt lat="43.7143" lon="3.41937">
        <ele>226.3</ele>
        <time>2017-05-07T06:19:59Z</time>
      </trkpt>
      <trkpt lat="43.7143" lon="3.41936">
        <ele>226.6</ele>
        <time>2017-05-07T06:20:06Z</time>
      </trkpt>
      <trkpt lat="43.7143" lon="3.41938">
        <ele>226.9</ele>
        <time>2017-05-07T06:20:58Z</time>
      </trkpt>
      <trkpt lat="43.7143" lon="3.41934">
        <ele>226.7</ele>
        <time>2017-05-07T06:21:20Z</time>
      </trkpt>
      <trkpt lat="43.71432" lon="3.41938">
        <ele>226.6</ele>
        <time>2017-05-07T06:21:27Z</time>
      </trkpt>
      <trkpt lat="43.7143" lon="3.41938">
        <ele>226.5</ele>
        <time>2017-05-07T06:21:40Z</time>
      </trkpt>
      <trkpt lat="43.7143" lon="3.41947">
        <ele>226.3</ele>
        <time>2017-05-07T06:21:08Z</time>
      </trkpt>
      <trkpt lat="43.7143" lon="3.41958">
        <ele>226.1</ele>
        <time>2017-05-07T06:22:20Z</time>
      </trkpt>
      <trkpt lat="43.7143" lon="3.41963">
        <ele>225.7</ele>
        <time>2017-05-07T06:22:27Z</time>
      </trkpt>
      <trkpt lat="43.71432" lon="3.41962">
        <ele>226</ele>
        <time>2017-05-07T06:22:34Z</time>
      </trkpt>
      <trkpt lat="43.71429" lon="3.41971">
        <ele>227.1</ele>
        <time>2017-05-07T06:22:55Z</time>
      </trkpt>
      <trkpt lat="43.71426" lon="3.41981">
        <ele>226.9</ele>
        <time>2017-05-07T06:23:01Z</time>
      </trkpt>
      <trkpt lat="43.71423" lon="3.41988">
        <ele>226.6</ele>
        <time>2017-05-07T06:23:08Z</time>
      </trkpt>
      <trkpt lat="43.71419" lon="3.41998">
        <ele>226.4</ele>
        <time>2017-05-07T06:23:10Z</time>
      </trkpt>
      <trkpt lat="43.71414" lon="3.42009">
        <ele>225.1</ele>
        <time>2017-05-07T06:23:12Z</time>
      </trkpt>
      <trkpt lat="43.71407" lon="3.42019">
        <ele>223.9</ele>
        <time>2017-05-07T06:23:14Z</time>
      </trkpt>
      <trkpt lat="43.71399" lon="3.42027">
        <ele>223.6</ele>
        <time>2017-05-07T06:23:16Z</time>
      </trkpt>
      <trkpt lat="43.71392" lon="3.42033">
        <ele>223.5</ele>
        <time>2017-05-07T06:23:20Z</time>
      </trkpt>
      <trkpt lat="43.71396" lon="3.42046">
        <ele>223.2</ele>
        <time>2017-05-07T06:23:24Z</time>
      </trkpt>
      <trkpt lat="43.714" lon="3.42054">
        <ele>222.9</ele>
        <time>2017-05-07T06:23:27Z</time>
      </trkpt>
      <trkpt lat="43.71404" lon="3.42065">
        <ele>222.7</ele>
        <time>2017-05-07T06:23:30Z</time>
      </trkpt>
      <trkpt lat="43.71408" lon="3.42074">
        <ele>222.6</ele>
        <time>2017-05-07T06:23:33Z</time>
      </trkpt>
      <trkpt lat="43.71413" lon="3.42081">
        <ele>222.4</ele>
        <time>2017-05-07T06:23:36Z</time>
      </trkpt>
      <trkpt lat="43.71419" lon="3.4209">
        <ele>222.3</ele>
        <time>2017-05-07T06:23:40Z</time>
      </trkpt>
      <trkpt lat="43.71423" lon="3.42097">
        <ele>222.5</ele>
        <time>2017-05-07T06:23:43Z</time>
      </trkpt>
      <trkpt lat="43.7143" lon="3.42106">
        <ele>222.6</ele>
        <time>2017-05-07T06:23:46Z</time>
      </trkpt>
      <trkpt lat="43.71435" lon="3.42115">
        <ele>222.6</ele>
        <time>2017-05-07T06:23:49Z</time>
      </trkpt>
      <trkpt lat="43.71439" lon="3.42126">
        <ele>222.8</ele>
        <time>2017-05-07T06:23:53Z</time>
      </trkpt>
      <trkpt lat="43.71442" lon="3.42136">
        <ele>222.8</ele>
        <time>2017-05-07T06:23:56Z</time>
      </trkpt>
      <trkpt lat="43.71443" lon="3.42148">
        <ele>222.9</ele>
        <time>2017-05-07T06:24:00Z</time>
      </trkpt>
      <trkpt lat="43.71441" lon="3.4216">
        <ele>223</ele>
        <time>2017-05-07T06:24:04Z</time>
      </trkpt>
      <trkpt lat="43.71445" lon="3.42171">
        <ele>223.2</ele>
        <time>2017-05-07T06:24:08Z</time>
      </trkpt>
      <trkpt lat="43.71452" lon="3.42178">
        <ele>223.3</ele>
        <time>2017-05-07T06:24:11Z</time>
      </trkpt>
      <trkpt lat="43.71455" lon="3.42187">
        <ele>223.6</ele>
        <time>2017-05-07T06:24:14Z</time>
      </trkpt>
      <trkpt lat="43.71456" lon="3.422">
        <ele>224</ele>
        <time>2017-05-07T06:24:17Z</time>
      </trkpt>
      <trkpt lat="43.71458" lon="3.42213">
        <ele>224.3</ele>
        <time>2017-05-07T06:24:20Z</time>
      </trkpt>
      <trkpt lat="43.71459" lon="3.42227">
        <ele>224.6</ele>
        <time>2017-05-07T06:24:23Z</time>
      </trkpt>
      <trkpt lat="43.7146" lon="3.42238">
        <ele>225.7</ele>
        <time>2017-05-07T06:24:25Z</time>
      </trkpt>
      <trkpt lat="43.71461" lon="3.42252">
        <ele>225.8</ele>
        <time>2017-05-07T06:24:28Z</time>
      </trkpt>
      <trkpt lat="43.71463" lon="3.42263">
        <ele>226.5</ele>
        <time>2017-05-07T06:24:30Z</time>
      </trkpt>
      <trkpt lat="43.71465" lon="3.42274">
        <ele>227.5</ele>
        <time>2017-05-07T06:24:32Z</time>
      </trkpt>
      <trkpt lat="43.71467" lon="3.42287">
        <ele>228.1</ele>
        <time>2017-05-07T06:24:34Z</time>
      </trkpt>
      <trkpt lat="43.71468" lon="3.42298">
        <ele>229.2</ele>
        <time>2017-05-07T06:24:36Z</time>
      </trkpt>
      <trkpt lat="43.71472" lon="3.42312">
        <ele>228.7</ele>
        <time>2017-05-07T06:24:39Z</time>
      </trkpt>
      <trkpt lat="43.71474" lon="3.42325">
        <ele>229.2</ele>
        <time>2017-05-07T06:24:41Z</time>
      </trkpt>
      <trkpt lat="43.71475" lon="3.42341">
        <ele>230.4</ele>
        <time>2017-05-07T06:24:43Z</time>
      </trkpt>
      <trkpt lat="43.71476" lon="3.42359">
        <ele>231</ele>
        <time>2017-05-07T06:24:45Z</time>
      </trkpt>
      <trkpt lat="43.71475" lon="3.42377">
        <ele>231.7</ele>
        <time>2017-05-07T06:24:47Z</time>
      </trkpt>
      <trkpt lat="43.71475" lon="3.4239">
        <ele>231.3</ele>
        <time>2017-05-07T06:24:49Z</time>
      </trkpt>
      <trkpt lat="43.71475" lon="3.42405">
        <ele>230.9</ele>
        <time>2017-05-07T06:24:52Z</time>
      </trkpt>
      <trkpt lat="43.71477" lon="3.42418">
        <ele>230.3</ele>
        <time>2017-05-07T06:24:55Z</time>
      </trkpt>
      <trkpt lat="43.71475" lon="3.42433">
        <ele>225.4</ele>
        <time>2017-05-07T06:24:57Z</time>
      </trkpt>
      <trkpt lat="43.71474" lon="3.42446">
        <ele>222.2</ele>
        <time>2017-05-07T06:24:59Z</time>
      </trkpt>
      <trkpt lat="43.71473" lon="3.42459">
        <ele>219.6</ele>
        <time>2017-05-07T06:25:01Z</time>
      </trkpt>
      <trkpt lat="43.71473" lon="3.42474">
        <ele>217.5</ele>
        <time>2017-05-07T06:25:03Z</time>
      </trkpt>
      <trkpt lat="43.71473" lon="3.42491">
        <ele>215.4</ele>
        <time>2017-05-07T06:25:05Z</time>
      </trkpt>
      <trkpt lat="43.71475" lon="3.42507">
        <ele>213.4</ele>
        <time>2017-05-07T06:25:07Z</time>
      </trkpt>
      <trkpt lat="43.71475" lon="3.42521">
        <ele>211.7</ele>
        <time>2017-05-07T06:25:09Z</time>
      </trkpt>
      <trkpt lat="43.71475" lon="3.42536">
        <ele>210.3</ele>
        <time>2017-05-07T06:25:11Z</time>
      </trkpt>
      <trkpt lat="43.71474" lon="3.42548">
        <ele>210.5</ele>
        <time>2017-05-07T06:25:13Z</time>
      </trkpt>
      <trkpt lat="43.71473" lon="3.4256">
        <ele>210.8</ele>
        <time>2017-05-07T06:25:15Z</time>
      </trkpt>
      <trkpt lat="43.71473" lon="3.42571">
        <ele>211.1</ele>
        <time>2017-05-07T06:25:17Z</time>
      </trkpt>
      <trkpt lat="43.71471" lon="3.42582">
        <ele>211.1</ele>
        <time>2017-05-07T06:25:19Z</time>
      </trkpt>
      <trkpt lat="43.71466" lon="3.42592">
        <ele>210.9</ele>
        <time>2017-05-07T06:25:21Z</time>
      </trkpt>
      <trkpt lat="43.71459" lon="3.42599">
        <ele>210.6</ele>
        <time>2017-05-07T06:25:23Z</time>
      </trkpt>
      <trkpt lat="43.71451" lon="3.42603">
        <ele>211.2</ele>
        <time>2017-05-07T06:25:25Z</time>
      </trkpt>
      <trkpt lat="43.71444" lon="3.42609">
        <ele>212.1</ele>
        <time>2017-05-07T06:25:27Z</time>
      </trkpt>
      <trkpt lat="43.71437" lon="3.42617">
        <ele>212.3</ele>
        <time>2017-05-07T06:25:29Z</time>
      </trkpt>
      <trkpt lat="43.7143" lon="3.42626">
        <ele>212.3</ele>
        <time>2017-05-07T06:25:31Z</time>
      </trkpt>
      <trkpt lat="43.71426" lon="3.42637">
        <ele>212.1</ele>
        <time>2017-05-07T06:25:33Z</time>
      </trkpt>
      <trkpt lat="43.71421" lon="3.42646">
        <ele>212.9</ele>
        <time>2017-05-07T06:25:35Z</time>
      </trkpt>
      <trkpt lat="43.71417" lon="3.42656">
        <ele>213.4</ele>
        <time>2017-05-07T06:25:37Z</time>
      </trkpt>
      <trkpt lat="43.71413" lon="3.42665">
        <ele>213.6</ele>
        <time>2017-05-07T06:25:39Z</time>
      </trkpt>
      <trkpt lat="43.7141" lon="3.42678">
        <ele>213.6</ele>
        <time>2017-05-07T06:25:41Z</time>
      </trkpt>
      <trkpt lat="43.71407" lon="3.42691">
        <ele>213.5</ele>
        <time>2017-05-07T06:25:43Z</time>
      </trkpt>
      <trkpt lat="43.71404" lon="3.42705">
        <ele>213</ele>
        <time>2017-05-07T06:25:45Z</time>
      </trkpt>
      <trkpt lat="43.71401" lon="3.42721">
        <ele>212.2</ele>
        <time>2017-05-07T06:25:47Z</time>
      </trkpt>
      <trkpt lat="43.71398" lon="3.42735">
        <ele>210.6</ele>
        <time>2017-05-07T06:25:49Z</time>
      </trkpt>
      <trkpt lat="43.71394" lon="3.42751">
        <ele>210.1</ele>
        <time>2017-05-07T06:25:51Z</time>
      </trkpt>
      <trkpt lat="43.71391" lon="3.42767">
        <ele>209.8</ele>
        <time>2017-05-07T06:25:53Z</time>
      </trkpt>
      <trkpt lat="43.71388" lon="3.4278">
        <ele>209.2</ele>
        <time>2017-05-07T06:25:55Z</time>
      </trkpt>
      <trkpt lat="43.71385" lon="3.4279">
        <ele>208.4</ele>
        <time>2017-05-07T06:25:57Z</time>
      </trkpt>
      <trkpt lat="43.71383" lon="3.42804">
        <ele>208.3</ele>
        <time>2017-05-07T06:26:00Z</time>
      </trkpt>
      <trkpt lat="43.7138" lon="3.42815">
        <ele>208.3</ele>
        <time>2017-05-07T06:26:03Z</time>
      </trkpt>
      <trkpt lat="43.71377" lon="3.42826">
        <ele>208.5</ele>
        <time>2017-05-07T06:26:07Z</time>
      </trkpt>
      <trkpt lat="43.71375" lon="3.42839">
        <ele>208.9</ele>
        <time>2017-05-07T06:26:11Z</time>
      </trkpt>
      <trkpt lat="43.71376" lon="3.42852">
        <ele>209.4</ele>
        <time>2017-05-07T06:26:15Z</time>
      </trkpt>
      <trkpt lat="43.71377" lon="3.42862">
        <ele>209.8</ele>
        <time>2017-05-07T06:26:18Z</time>
      </trkpt>
      <trkpt lat="43.7138" lon="3.42873">
        <ele>210.2</ele>
        <time>2017-05-07T06:26:21Z</time>
      </trkpt>
      <trkpt lat="43.71383" lon="3.42885">
        <ele>210.6</ele>
        <time>2017-05-07T06:26:24Z</time>
      </trkpt>
      <trkpt lat="43.71387" lon="3.42896">
        <ele>211</ele>
        <time>2017-05-07T06:26:27Z</time>
      </trkpt>
      <trkpt lat="43.71392" lon="3.42907">
        <ele>211.4</ele>
        <time>2017-05-07T06:26:30Z</time>
      </trkpt>
      <trkpt lat="43.71397" lon="3.42917">
        <ele>211.9</ele>
        <time>2017-05-07T06:26:33Z</time>
      </trkpt>
      <trkpt lat="43.71401" lon="3.42927">
        <ele>212.3</ele>
        <time>2017-05-07T06:26:36Z</time>
      </trkpt>
      <trkpt lat="43.71405" lon="3.42937">
        <ele>212.8</ele>
        <time>2017-05-07T06:26:39Z</time>
      </trkpt>
      <trkpt lat="43.71408" lon="3.42947">
        <ele>213.3</ele>
        <time>2017-05-07T06:26:42Z</time>
      </trkpt>
      <trkpt lat="43.71411" lon="3.42958">
        <ele>213.8</ele>
        <time>2017-05-07T06:26:45Z</time>
      </trkpt>
      <trkpt lat="43.71414" lon="3.42969">
        <ele>214.3</ele>
        <time>2017-05-07T06:26:48Z</time>
      </trkpt>
      <trkpt lat="43.71415" lon="3.42982">
        <ele>214.7</ele>
        <time>2017-05-07T06:26:51Z</time>
      </trkpt>
      <trkpt lat="43.71418" lon="3.42993">
        <ele>215.2</ele>
        <time>2017-05-07T06:26:54Z</time>
      </trkpt>
      <trkpt lat="43.7142" lon="3.43005">
        <ele>215.7</ele>
        <time>2017-05-07T06:26:57Z</time>
      </trkpt>
      <trkpt lat="43.71421" lon="3.43018">
        <ele>216.1</ele>
        <time>2017-05-07T06:27:00Z</time>
      </trkpt>
      <trkpt lat="43.71422" lon="3.43032">
        <ele>216.6</ele>
        <time>2017-05-07T06:27:03Z</time>
      </trkpt>
      <trkpt lat="43.71422" lon="3.43044">
        <ele>217</ele>
        <time>2017-05-07T06:27:06Z</time>
      </trkpt>
      <trkpt lat="43.71421" lon="3.43057">
        <ele>217.4</ele>
        <time>2017-05-07T06:27:09Z</time>
      </trkpt>
      <trkpt lat="43.71421" lon="3.43068">
        <ele>217.7</ele>
        <time>2017-05-07T06:27:12Z</time>
      </trkpt>
      <trkpt lat="43.7142" lon="3.43081">
        <ele>218.1</ele>
        <time>2017-05-07T06:27:15Z</time>
      </trkpt>
      <trkpt lat="43.71421" lon="3.43094">
        <ele>218.5</ele>
        <time>2017-05-07T06:27:18Z</time>
      </trkpt>
      <trkpt lat="43.7142" lon="3.43108">
        <ele>220</ele>
        <time>2017-05-07T06:27:21Z</time>
      </trkpt>
      <trkpt lat="43.71419" lon="3.43121">
        <ele>221.7</ele>
        <time>2017-05-07T06:27:23Z</time>
      </trkpt>
      <trkpt lat="43.71419" lon="3.43134">
        <ele>223.2</ele>
        <time>2017-05-07T06:27:25Z</time>
      </trkpt>
      <trkpt lat="43.71423" lon="3.43147">
        <ele>223.8</ele>
        <time>2017-05-07T06:27:27Z</time>
      </trkpt>
      <trkpt lat="43.71433" lon="3.43152">
        <ele>223.4</ele>
        <time>2017-05-07T06:27:29Z</time>
      </trkpt>
      <trkpt lat="43.71442" lon="3.43155">
        <ele>223.5</ele>
        <time>2017-05-07T06:27:31Z</time>
      </trkpt>
      <trkpt lat="43.71451" lon="3.43156">
        <ele>224.2</ele>
        <time>2017-05-07T06:27:33Z</time>
      </trkpt>
      <trkpt lat="43.71459" lon="3.43154">
        <ele>224.3</ele>
        <time>2017-05-07T06:27:36Z</time>
      </trkpt>
      <trkpt lat="43.71467" lon="3.43153">
        <ele>224.5</ele>
        <time>2017-05-07T06:27:39Z</time>
      </trkpt>
      <trkpt lat="43.71477" lon="3.43154">
        <ele>224.7</ele>
        <time>2017-05-07T06:27:42Z</time>
      </trkpt>
      <trkpt lat="43.71486" lon="3.43153">
        <ele>224.8</ele>
        <time>2017-05-07T06:27:45Z</time>
      </trkpt>
      <trkpt lat="43.71495" lon="3.43148">
        <ele>225</ele>
        <time>2017-05-07T06:27:48Z</time>
      </trkpt>
      <trkpt lat="43.71501" lon="3.4314">
        <ele>225</ele>
        <time>2017-05-07T06:27:51Z</time>
      </trkpt>
      <trkpt lat="43.71505" lon="3.43129">
        <ele>225.1</ele>
        <time>2017-05-07T06:27:54Z</time>
      </trkpt>
      <trkpt lat="43.71506" lon="3.43117">
        <ele>225.2</ele>
        <time>2017-05-07T06:27:57Z</time>
      </trkpt>
      <trkpt lat="43.71508" lon="3.43104">
        <ele>225.4</ele>
        <time>2017-05-07T06:28:01Z</time>
      </trkpt>
      <trkpt lat="43.71511" lon="3.43092">
        <ele>225.5</ele>
        <time>2017-05-07T06:28:05Z</time>
      </trkpt>
      <trkpt lat="43.71516" lon="3.43081">
        <ele>225.7</ele>
        <time>2017-05-07T06:28:09Z</time>
      </trkpt>
      <trkpt lat="43.71522" lon="3.43071">
        <ele>225.7</ele>
        <time>2017-05-07T06:28:13Z</time>
      </trkpt>
      <trkpt lat="43.7153" lon="3.43064">
        <ele>226</ele>
        <time>2017-05-07T06:28:17Z</time>
      </trkpt>
      <trkpt lat="43.71537" lon="3.43065">
        <ele>226.4</ele>
        <time>2017-05-07T06:28:21Z</time>
      </trkpt>
      <trkpt lat="43.71547" lon="3.43068">
        <ele>227</ele>
        <time>2017-05-07T06:28:26Z</time>
      </trkpt>
      <trkpt lat="43.71556" lon="3.43073">
        <ele>227.4</ele>
        <time>2017-05-07T06:28:30Z</time>
      </trkpt>
      <trkpt lat="43.71563" lon="3.43076">
        <ele>227.9</ele>
        <time>2017-05-07T06:28:33Z</time>
      </trkpt>
      <trkpt lat="43.7157" lon="3.43081">
        <ele>228.5</ele>
        <time>2017-05-07T06:28:37Z</time>
      </trkpt>
      <trkpt lat="43.71577" lon="3.43086">
        <ele>229</ele>
        <time>2017-05-07T06:28:40Z</time>
      </trkpt>
      <trkpt lat="43.71585" lon="3.43093">
        <ele>229.7</ele>
        <time>2017-05-07T06:28:44Z</time>
      </trkpt>
      <trkpt lat="43.71592" lon="3.43098">
        <ele>230.4</ele>
        <time>2017-05-07T06:28:47Z</time>
      </trkpt>
      <trkpt lat="43.71598" lon="3.43103">
        <ele>231</ele>
        <time>2017-05-07T06:28:50Z</time>
      </trkpt>
      <trkpt lat="43.71606" lon="3.43111">
        <ele>231.8</ele>
        <time>2017-05-07T06:28:54Z</time>
      </trkpt>
      <trkpt lat="43.71612" lon="3.43119">
        <ele>232.5</ele>
        <time>2017-05-07T06:28:58Z</time>
      </trkpt>
      <trkpt lat="43.71619" lon="3.43126">
        <ele>233.1</ele>
        <time>2017-05-07T06:29:01Z</time>
      </trkpt>
      <trkpt lat="43.71625" lon="3.43133">
        <ele>233.5</ele>
        <time>2017-05-07T06:29:04Z</time>
      </trkpt>
      <trkpt lat="43.71629" lon="3.4314">
        <ele>234</ele>
        <time>2017-05-07T06:29:07Z</time>
      </trkpt>
      <trkpt lat="43.71635" lon="3.43148">
        <ele>234.4</ele>
        <time>2017-05-07T06:29:10Z</time>
      </trkpt>
      <trkpt lat="43.71641" lon="3.43156">
        <ele>234.9</ele>
        <time>2017-05-07T06:29:13Z</time>
      </trkpt>
      <trkpt lat="43.71647" lon="3.43163">
        <ele>235.3</ele>
        <time>2017-05-07T06:29:16Z</time>
      </trkpt>
      <trkpt lat="43.71648" lon="3.43173">
        <ele>235.9</ele>
        <time>2017-05-07T06:29:20Z</time>
      </trkpt>
      <trkpt lat="43.71642" lon="3.43181">
        <ele>236.4</ele>
        <time>2017-05-07T06:29:23Z</time>
      </trkpt>
      <trkpt lat="43.71636" lon="3.43189">
        <ele>236.7</ele>
        <time>2017-05-07T06:29:26Z</time>
      </trkpt>
      <trkpt lat="43.71629" lon="3.43196">
        <ele>236.8</ele>
        <time>2017-05-07T06:29:28Z</time>
      </trkpt>
      <trkpt lat="43.7162" lon="3.43204">
        <ele>238.7</ele>
        <time>2017-05-07T06:29:31Z</time>
      </trkpt>
      <trkpt lat="43.71615" lon="3.43212">
        <ele>239</ele>
        <time>2017-05-07T06:29:32Z</time>
      </trkpt>
      <trkpt lat="43.71609" lon="3.43218">
        <ele>239</ele>
        <time>2017-05-07T06:29:34Z</time>
      </trkpt>
      <trkpt lat="43.71604" lon="3.43228">
        <ele>239.1</ele>
        <time>2017-05-07T06:29:37Z</time>
      </trkpt>
      <trkpt lat="43.716" lon="3.43237">
        <ele>239.3</ele>
        <time>2017-05-07T06:29:40Z</time>
      </trkpt>
      <trkpt lat="43.71596" lon="3.43246">
        <ele>239.5</ele>
        <time>2017-05-07T06:29:43Z</time>
      </trkpt>
      <trkpt lat="43.71593" lon="3.43256">
        <ele>239.6</ele>
        <time>2017-05-07T06:29:46Z</time>
      </trkpt>
      <trkpt lat="43.71592" lon="3.43268">
        <ele>240</ele>
        <time>2017-05-07T06:29:50Z</time>
      </trkpt>
      <trkpt lat="43.71591" lon="3.43279">
        <ele>240.4</ele>
        <time>2017-05-07T06:29:54Z</time>
      </trkpt>
      <trkpt lat="43.71589" lon="3.43291">
        <ele>240.9</ele>
        <time>2017-05-07T06:29:58Z</time>
      </trkpt>
      <trkpt lat="43.71587" lon="3.43303">
        <ele>241.5</ele>
        <time>2017-05-07T06:30:02Z</time>
      </trkpt>
      <trkpt lat="43.71588" lon="3.43313">
        <ele>242.1</ele>
        <time>2017-05-07T06:30:06Z</time>
      </trkpt>
      <trkpt lat="43.71594" lon="3.43321">
        <ele>242.6</ele>
        <time>2017-05-07T06:30:10Z</time>
      </trkpt>
      <trkpt lat="43.71601" lon="3.43329">
        <ele>243.2</ele>
        <time>2017-05-07T06:30:14Z</time>
      </trkpt>
      <trkpt lat="43.71608" lon="3.43336">
        <ele>243.8</ele>
        <time>2017-05-07T06:30:18Z</time>
      </trkpt>
      <trkpt lat="43.71615" lon="3.43343">
        <ele>244.4</ele>
        <time>2017-05-07T06:30:22Z</time>
      </trkpt>
      <trkpt lat="43.71622" lon="3.43351">
        <ele>245.1</ele>
        <time>2017-05-07T06:30:26Z</time>
      </trkpt>
      <trkpt lat="43.71622" lon="3.43364">
        <ele>245.8</ele>
        <time>2017-05-07T06:30:30Z</time>
      </trkpt>
      <trkpt lat="43.71619" lon="3.43376">
        <ele>246.5</ele>
        <time>2017-05-07T06:30:34Z</time>
      </trkpt>
      <trkpt lat="43.71618" lon="3.43386">
        <ele>247</ele>
        <time>2017-05-07T06:30:37Z</time>
      </trkpt>
      <trkpt lat="43.71622" lon="3.43395">
        <ele>247.4</ele>
        <time>2017-05-07T06:30:40Z</time>
      </trkpt>
      <trkpt lat="43.71629" lon="3.43404">
        <ele>247.8</ele>
        <time>2017-05-07T06:30:44Z</time>
      </trkpt>
      <trkpt lat="43.71635" lon="3.4341">
        <ele>248</ele>
        <time>2017-05-07T06:30:47Z</time>
      </trkpt>
      <trkpt lat="43.7164" lon="3.43417">
        <ele>248.3</ele>
        <time>2017-05-07T06:30:50Z</time>
      </trkpt>
      <trkpt lat="43.71646" lon="3.43422">
        <ele>248.7</ele>
        <time>2017-05-07T06:30:53Z</time>
      </trkpt>
      <trkpt lat="43.71653" lon="3.43428">
        <ele>249.1</ele>
        <time>2017-05-07T06:30:56Z</time>
      </trkpt>
      <trkpt lat="43.7166" lon="3.43433">
        <ele>249.6</ele>
        <time>2017-05-07T06:30:59Z</time>
      </trkpt>
      <trkpt lat="43.71667" lon="3.43438">
        <ele>249.9</ele>
        <time>2017-05-07T06:31:02Z</time>
      </trkpt>
      <trkpt lat="43.71674" lon="3.43444">
        <ele>250.5</ele>
        <time>2017-05-07T06:31:06Z</time>
      </trkpt>
      <trkpt lat="43.71681" lon="3.43451">
        <ele>251.3</ele>
        <time>2017-05-07T06:31:10Z</time>
      </trkpt>
      <trkpt lat="43.71686" lon="3.4346">
        <ele>252</ele>
        <time>2017-05-07T06:31:14Z</time>
      </trkpt>
      <trkpt lat="43.71689" lon="3.43471">
        <ele>252.7</ele>
        <time>2017-05-07T06:31:18Z</time>
      </trkpt>
      <trkpt lat="43.71688" lon="3.43484">
        <ele>253.4</ele>
        <time>2017-05-07T06:31:22Z</time>
      </trkpt>
      <trkpt lat="43.71687" lon="3.43494">
        <ele>254</ele>
        <time>2017-05-07T06:31:26Z</time>
      </trkpt>
      <trkpt lat="43.71686" lon="3.43506">
        <ele>254.6</ele>
        <time>2017-05-07T06:31:28Z</time>
      </trkpt>
      <trkpt lat="43.71685" lon="3.43517">
        <ele>255.1</ele>
        <time>2017-05-07T06:31:32Z</time>
      </trkpt>
      <trkpt lat="43.71687" lon="3.43531">
        <ele>255.6</ele>
        <time>2017-05-07T06:31:36Z</time>
      </trkpt>
      <trkpt lat="43.71689" lon="3.43541">
        <ele>256</ele>
        <time>2017-05-07T06:31:39Z</time>
      </trkpt>
      <trkpt lat="43.71693" lon="3.4355">
        <ele>256.5</ele>
        <time>2017-05-07T06:31:42Z</time>
      </trkpt>
      <trkpt lat="43.71696" lon="3.43559">
        <ele>257</ele>
        <time>2017-05-07T06:31:45Z</time>
      </trkpt>
      <trkpt lat="43.717" lon="3.43569">
        <ele>257.4</ele>
        <time>2017-05-07T06:31:48Z</time>
      </trkpt>
      <trkpt lat="43.71703" lon="3.43579">
        <ele>257.9</ele>
        <time>2017-05-07T06:31:51Z</time>
      </trkpt>
      <trkpt lat="43.71707" lon="3.43588">
        <ele>258.3</ele>
        <time>2017-05-07T06:31:54Z</time>
      </trkpt>
      <trkpt lat="43.71711" lon="3.43598">
        <ele>258.8</ele>
        <time>2017-05-07T06:31:57Z</time>
      </trkpt>
      <trkpt lat="43.71715" lon="3.43606">
        <ele>259.2</ele>
        <time>2017-05-07T06:32:00Z</time>
      </trkpt>
      <trkpt lat="43.71719" lon="3.43615">
        <ele>259.6</ele>
        <time>2017-05-07T06:32:03Z</time>
      </trkpt>
      <trkpt lat="43.71725" lon="3.43624">
        <ele>260</ele>
        <time>2017-05-07T06:32:06Z</time>
      </trkpt>
      <trkpt lat="43.71731" lon="3.43631">
        <ele>260.4</ele>
        <time>2017-05-07T06:32:09Z</time>
      </trkpt>
      <trkpt lat="43.71737" lon="3.43639">
        <ele>260.8</ele>
        <time>2017-05-07T06:32:12Z</time>
      </trkpt>
      <trkpt lat="43.71743" lon="3.43647">
        <ele>261.1</ele>
        <time>2017-05-07T06:32:15Z</time>
      </trkpt>
      <trkpt lat="43.71747" lon="3.43656">
        <ele>261.5</ele>
        <time>2017-05-07T06:32:18Z</time>
      </trkpt>
      <trkpt lat="43.71749" lon="3.43667">
        <ele>261.7</ele>
        <time>2017-05-07T06:32:21Z</time>
      </trkpt>
      <trkpt lat="43.71749" lon="3.4368">
        <ele>262.1</ele>
        <time>2017-05-07T06:32:25Z</time>
      </trkpt>
      <trkpt lat="43.7175" lon="3.43691">
        <ele>262.3</ele>
        <time>2017-05-07T06:32:28Z</time>
      </trkpt>
      <trkpt lat="43.7175" lon="3.43703">
        <ele>262.6</ele>
        <time>2017-05-07T06:32:31Z</time>
      </trkpt>
      <trkpt lat="43.71752" lon="3.43713">
        <ele>262.9</ele>
        <time>2017-05-07T06:32:34Z</time>
      </trkpt>
      <trkpt lat="43.71754" lon="3.43725">
        <ele>263.2</ele>
        <time>2017-05-07T06:32:38Z</time>
      </trkpt>
      <trkpt lat="43.71757" lon="3.43734">
        <ele>263.4</ele>
        <time>2017-05-07T06:32:41Z</time>
      </trkpt>
      <trkpt lat="43.71764" lon="3.43744">
        <ele>263.8</ele>
        <time>2017-05-07T06:32:45Z</time>
      </trkpt>
      <trkpt lat="43.71773" lon="3.43749">
        <ele>264.5</ele>
        <time>2017-05-07T06:32:49Z</time>
      </trkpt>
      <trkpt lat="43.71781" lon="3.4375">
        <ele>265.1</ele>
        <time>2017-05-07T06:32:53Z</time>
      </trkpt>
      <trkpt lat="43.71789" lon="3.43754">
        <ele>265.8</ele>
        <time>2017-05-07T06:32:57Z</time>
      </trkpt>
      <trkpt lat="43.71797" lon="3.43756">
        <ele>266.6</ele>
        <time>2017-05-07T06:33:01Z</time>
      </trkpt>
      <trkpt lat="43.71805" lon="3.43758">
        <ele>267.5</ele>
        <time>2017-05-07T06:33:05Z</time>
      </trkpt>
      <trkpt lat="43.71813" lon="3.43758">
        <ele>268.3</ele>
        <time>2017-05-07T06:33:09Z</time>
      </trkpt>
      <trkpt lat="43.71821" lon="3.4376">
        <ele>269</ele>
        <time>2017-05-07T06:33:12Z</time>
      </trkpt>
      <trkpt lat="43.71829" lon="3.43761">
        <ele>269.8</ele>
        <time>2017-05-07T06:33:16Z</time>
      </trkpt>
      <trkpt lat="43.71836" lon="3.43764">
        <ele>270.6</ele>
        <time>2017-05-07T06:33:20Z</time>
      </trkpt>
      <trkpt lat="43.71845" lon="3.43767">
        <ele>271.3</ele>
        <time>2017-05-07T06:33:24Z</time>
      </trkpt>
      <trkpt lat="43.71853" lon="3.43769">
        <ele>271.8</ele>
        <time>2017-05-07T06:33:27Z</time>
      </trkpt>
      <trkpt lat="43.71859" lon="3.43776">
        <ele>272.2</ele>
        <time>2017-05-07T06:33:30Z</time>
      </trkpt>
      <trkpt lat="43.71867" lon="3.43783">
        <ele>272.7</ele>
        <time>2017-05-07T06:33:34Z</time>
      </trkpt>
      <trkpt lat="43.71874" lon="3.43787">
        <ele>273.1</ele>
        <time>2017-05-07T06:33:37Z</time>
      </trkpt>
      <trkpt lat="43.71881" lon="3.43787">
        <ele>273.6</ele>
        <time>2017-05-07T06:33:40Z</time>
      </trkpt>
      <trkpt lat="43.7189" lon="3.43783">
        <ele>274.2</ele>
        <time>2017-05-07T06:33:44Z</time>
      </trkpt>
      <trkpt lat="43.71897" lon="3.43776">
        <ele>274.8</ele>
        <time>2017-05-07T06:33:48Z</time>
      </trkpt>
      <trkpt lat="43.71905" lon="3.43769">
        <ele>275.2</ele>
        <time>2017-05-07T06:33:52Z</time>
      </trkpt>
      <trkpt lat="43.71912" lon="3.43765">
        <ele>275.6</ele>
        <time>2017-05-07T06:33:56Z</time>
      </trkpt>
      <trkpt lat="43.7192" lon="3.43763">
        <ele>276.2</ele>
        <time>2017-05-07T06:34:00Z</time>
      </trkpt>
      <trkpt lat="43.71928" lon="3.43765">
        <ele>276.7</ele>
        <time>2017-05-07T06:34:04Z</time>
      </trkpt>
      <trkpt lat="43.7193" lon="3.43775">
        <ele>277.5</ele>
        <time>2017-05-07T06:34:09Z</time>
      </trkpt>
      <trkpt lat="43.71927" lon="3.43785">
        <ele>278.2</ele>
        <time>2017-05-07T06:34:13Z</time>
      </trkpt>
      <trkpt lat="43.71919" lon="3.43791">
        <ele>279.2</ele>
        <time>2017-05-07T06:34:18Z</time>
      </trkpt>
      <trkpt lat="43.71908" lon="3.43796">
        <ele>282.6</ele>
        <time>2017-05-07T06:34:21Z</time>
      </trkpt>
      <trkpt lat="43.71898" lon="3.43802">
        <ele>283.8</ele>
        <time>2017-05-07T06:34:23Z</time>
      </trkpt>
      <trkpt lat="43.71886" lon="3.43808">
        <ele>284</ele>
        <time>2017-05-07T06:34:25Z</time>
      </trkpt>
      <trkpt lat="43.71873" lon="3.43814">
        <ele>283.4</ele>
        <time>2017-05-07T06:34:27Z</time>
      </trkpt>
      <trkpt lat="43.71862" lon="3.4382">
        <ele>282.4</ele>
        <time>2017-05-07T06:34:29Z</time>
      </trkpt>
      <trkpt lat="43.71852" lon="3.43825">
        <ele>281.8</ele>
        <time>2017-05-07T06:34:32Z</time>
      </trkpt>
      <trkpt lat="43.71842" lon="3.43831">
        <ele>282.2</ele>
        <time>2017-05-07T06:34:35Z</time>
      </trkpt>
      <trkpt lat="43.71835" lon="3.43836">
        <ele>282.5</ele>
        <time>2017-05-07T06:34:37Z</time>
      </trkpt>
      <trkpt lat="43.71826" lon="3.43837">
        <ele>282.6</ele>
        <time>2017-05-07T06:34:40Z</time>
      </trkpt>
      <trkpt lat="43.71819" lon="3.43843">
        <ele>283</ele>
        <time>2017-05-07T06:34:45Z</time>
      </trkpt>
      <trkpt lat="43.71815" lon="3.43854">
        <ele>283.5</ele>
        <time>2017-05-07T06:34:49Z</time>
      </trkpt>
      <trkpt lat="43.71815" lon="3.43866">
        <ele>284</ele>
        <time>2017-05-07T06:34:53Z</time>
      </trkpt>
      <trkpt lat="43.71817" lon="3.43879">
        <ele>284.4</ele>
        <time>2017-05-07T06:34:57Z</time>
      </trkpt>
      <trkpt lat="43.7182" lon="3.43891">
        <ele>285</ele>
        <time>2017-05-07T06:35:02Z</time>
      </trkpt>
      <trkpt lat="43.71823" lon="3.43902">
        <ele>285.6</ele>
        <time>2017-05-07T06:35:06Z</time>
      </trkpt>
      <trkpt lat="43.71826" lon="3.43911">
        <ele>286.2</ele>
        <time>2017-05-07T06:35:09Z</time>
      </trkpt>
      <trkpt lat="43.71831" lon="3.4392">
        <ele>287</ele>
        <time>2017-05-07T06:35:14Z</time>
      </trkpt>
      <trkpt lat="43.71838" lon="3.43926">
        <ele>287.7</ele>
        <time>2017-05-07T06:35:18Z</time>
      </trkpt>
      <trkpt lat="43.71841" lon="3.43935">
        <ele>288.2</ele>
        <time>2017-05-07T06:35:21Z</time>
      </trkpt>
      <trkpt lat="43.71836" lon="3.43944">
        <ele>288.7</ele>
        <time>2017-05-07T06:35:24Z</time>
      </trkpt>
      <trkpt lat="43.71828" lon="3.4395">
        <ele>289.1</ele>
        <time>2017-05-07T06:35:27Z</time>
      </trkpt>
      <trkpt lat="43.71819" lon="3.43956">
        <ele>290.8</ele>
        <time>2017-05-07T06:35:30Z</time>
      </trkpt>
      <trkpt lat="43.71813" lon="3.43964">
        <ele>291.7</ele>
        <time>2017-05-07T06:35:32Z</time>
      </trkpt>
      <trkpt lat="43.71807" lon="3.43976">
        <ele>291.9</ele>
        <time>2017-05-07T06:35:35Z</time>
      </trkpt>
      <trkpt lat="43.71802" lon="3.43987">
        <ele>292.1</ele>
        <time>2017-05-07T06:35:38Z</time>
      </trkpt>
      <trkpt lat="43.71798" lon="3.43995">
        <ele>292.6</ele>
        <time>2017-05-07T06:35:40Z</time>
      </trkpt>
      <trkpt lat="43.71791" lon="3.44006">
        <ele>292.6</ele>
        <time>2017-05-07T06:35:42Z</time>
      </trkpt>
      <trkpt lat="43.71781" lon="3.44022">
        <ele>291.7</ele>
        <time>2017-05-07T06:35:44Z</time>
      </trkpt>
      <trkpt lat="43.71776" lon="3.44028">
        <ele>291.2</ele>
        <time>2017-05-07T06:35:45Z</time>
      </trkpt>
      <trkpt lat="43.71767" lon="3.44033">
        <ele>290.6</ele>
        <time>2017-05-07T06:35:47Z</time>
      </trkpt>
      <trkpt lat="43.71758" lon="3.44028">
        <ele>289.6</ele>
        <time>2017-05-07T06:35:49Z</time>
      </trkpt>
      <trkpt lat="43.71752" lon="3.44024">
        <ele>288.8</ele>
        <time>2017-05-07T06:35:51Z</time>
      </trkpt>
      <trkpt lat="43.71743" lon="3.44026">
        <ele>288.5</ele>
        <time>2017-05-07T06:35:53Z</time>
      </trkpt>
      <trkpt lat="43.71746" lon="3.44036">
        <ele>288.5</ele>
        <time>2017-05-07T06:35:57Z</time>
      </trkpt>
      <trkpt lat="43.71753" lon="3.44043">
        <ele>288.5</ele>
        <time>2017-05-07T06:36:00Z</time>
      </trkpt>
      <trkpt lat="43.71759" lon="3.44051">
        <ele>288.6</ele>
        <time>2017-05-07T06:36:03Z</time>
      </trkpt>
      <trkpt lat="43.71768" lon="3.44055">
        <ele>288.8</ele>
        <time>2017-05-07T06:36:06Z</time>
      </trkpt>
      <trkpt lat="43.71776" lon="3.44057">
        <ele>289</ele>
        <time>2017-05-07T06:36:09Z</time>
      </trkpt>
      <trkpt lat="43.71785" lon="3.44059">
        <ele>289.4</ele>
        <time>2017-05-07T06:36:12Z</time>
      </trkpt>
      <trkpt lat="43.71791" lon="3.44067">
        <ele>289.9</ele>
        <time>2017-05-07T06:36:16Z</time>
      </trkpt>
      <trkpt lat="43.71788" lon="3.44077">
        <ele>290.4</ele>
        <time>2017-05-07T06:36:20Z</time>
      </trkpt>
      <trkpt lat="43.71781" lon="3.44081">
        <ele>290.7</ele>
        <time>2017-05-07T06:36:23Z</time>
      </trkpt>
      <trkpt lat="43.71773" lon="3.44081">
        <ele>291</ele>
        <time>2017-05-07T06:36:26Z</time>
      </trkpt>
      <trkpt lat="43.71765" lon="3.44082">
        <ele>291.3</ele>
        <time>2017-05-07T06:36:29Z</time>
      </trkpt>
      <trkpt lat="43.71757" lon="3.44083">
        <ele>291.6</ele>
        <time>2017-05-07T06:36:32Z</time>
      </trkpt>
      <trkpt lat="43.71748" lon="3.44086">
        <ele>292</ele>
        <time>2017-05-07T06:36:36Z</time>
      </trkpt>
      <trkpt lat="43.71741" lon="3.4409">
        <ele>292.4</ele>
        <time>2017-05-07T06:36:40Z</time>
      </trkpt>
      <trkpt lat="43.71733" lon="3.44095">
        <ele>292.7</ele>
        <time>2017-05-07T06:36:42Z</time>
      </trkpt>
      <trkpt lat="43.71726" lon="3.441">
        <ele>293.1</ele>
        <time>2017-05-07T06:36:45Z</time>
      </trkpt>
      <trkpt lat="43.71717" lon="3.44105">
        <ele>293.7</ele>
        <time>2017-05-07T06:36:49Z</time>
      </trkpt>
      <trkpt lat="43.71709" lon="3.44107">
        <ele>294.2</ele>
        <time>2017-05-07T06:36:52Z</time>
      </trkpt>
      <trkpt lat="43.717" lon="3.44111">
        <ele>294.6</ele>
        <time>2017-05-07T06:36:56Z</time>
      </trkpt>
      <trkpt lat="43.71692" lon="3.44115">
        <ele>294.9</ele>
        <time>2017-05-07T06:36:59Z</time>
      </trkpt>
      <trkpt lat="43.71685" lon="3.4412">
        <ele>295.4</ele>
        <time>2017-05-07T06:37:02Z</time>
      </trkpt>
      <trkpt lat="43.71678" lon="3.44126">
        <ele>295.7</ele>
        <time>2017-05-07T06:37:05Z</time>
      </trkpt>
      <trkpt lat="43.71671" lon="3.4413">
        <ele>296.1</ele>
        <time>2017-05-07T06:37:08Z</time>
      </trkpt>
      <trkpt lat="43.71662" lon="3.44133">
        <ele>296.5</ele>
        <time>2017-05-07T06:37:11Z</time>
      </trkpt>
      <trkpt lat="43.71653" lon="3.44136">
        <ele>297.2</ele>
        <time>2017-05-07T06:37:15Z</time>
      </trkpt>
      <trkpt lat="43.71653" lon="3.44148">
        <ele>298</ele>
        <time>2017-05-07T06:37:20Z</time>
      </trkpt>
      <trkpt lat="43.71661" lon="3.44149">
        <ele>298.7</ele>
        <time>2017-05-07T06:37:24Z</time>
      </trkpt>
      <trkpt lat="43.71669" lon="3.4415">
        <ele>299.3</ele>
        <time>2017-05-07T06:37:27Z</time>
      </trkpt>
      <trkpt lat="43.71677" lon="3.44149">
        <ele>300.1</ele>
        <time>2017-05-07T06:37:30Z</time>
      </trkpt>
      <trkpt lat="43.71686" lon="3.44148">
        <ele>301</ele>
        <time>2017-05-07T06:37:34Z</time>
      </trkpt>
      <trkpt lat="43.71694" lon="3.44148">
        <ele>301.6</ele>
        <time>2017-05-07T06:37:37Z</time>
      </trkpt>
      <trkpt lat="43.71702" lon="3.44147">
        <ele>302.4</ele>
        <time>2017-05-07T06:37:41Z</time>
      </trkpt>
      <trkpt lat="43.71711" lon="3.44146">
        <ele>303.2</ele>
        <time>2017-05-07T06:37:45Z</time>
      </trkpt>
      <trkpt lat="43.71721" lon="3.44147">
        <ele>304.1</ele>
        <time>2017-05-07T06:37:49Z</time>
      </trkpt>
      <trkpt lat="43.7173" lon="3.44147">
        <ele>304.8</ele>
        <time>2017-05-07T06:37:53Z</time>
      </trkpt>
      <trkpt lat="43.71739" lon="3.44147">
        <ele>305.5</ele>
        <time>2017-05-07T06:37:57Z</time>
      </trkpt>
      <trkpt lat="43.71746" lon="3.44149">
        <ele>306</ele>
        <time>2017-05-07T06:38:00Z</time>
      </trkpt>
      <trkpt lat="43.71755" lon="3.44149">
        <ele>306.8</ele>
        <time>2017-05-07T06:38:04Z</time>
      </trkpt>
      <trkpt lat="43.71764" lon="3.44153">
        <ele>307.6</ele>
        <time>2017-05-07T06:38:08Z</time>
      </trkpt>
      <trkpt lat="43.71773" lon="3.44156">
        <ele>308.2</ele>
        <time>2017-05-07T06:38:12Z</time>
      </trkpt>
      <trkpt lat="43.71781" lon="3.44162">
        <ele>308.8</ele>
        <time>2017-05-07T06:38:15Z</time>
      </trkpt>
      <trkpt lat="43.71787" lon="3.44171">
        <ele>309.6</ele>
        <time>2017-05-07T06:38:19Z</time>
      </trkpt>
      <trkpt lat="43.71791" lon="3.44179">
        <ele>310.1</ele>
        <time>2017-05-07T06:38:22Z</time>
      </trkpt>
      <trkpt lat="43.71795" lon="3.44191">
        <ele>310.7</ele>
        <time>2017-05-07T06:38:26Z</time>
      </trkpt>
      <trkpt lat="43.71798" lon="3.442">
        <ele>311.2</ele>
        <time>2017-05-07T06:38:29Z</time>
      </trkpt>
      <trkpt lat="43.71802" lon="3.44209">
        <ele>311.7</ele>
        <time>2017-05-07T06:38:32Z</time>
      </trkpt>
      <trkpt lat="43.7181" lon="3.44208">
        <ele>312.7</ele>
        <time>2017-05-07T06:38:37Z</time>
      </trkpt>
      <trkpt lat="43.71816" lon="3.44201">
        <ele>313.4</ele>
        <time>2017-05-07T06:38:40Z</time>
      </trkpt>
      <trkpt lat="43.71821" lon="3.4419">
        <ele>314</ele>
        <time>2017-05-07T06:38:43Z</time>
      </trkpt>
      <trkpt lat="43.71826" lon="3.44184">
        <ele>314.6</ele>
        <time>2017-05-07T06:38:46Z</time>
      </trkpt>
      <trkpt lat="43.71831" lon="3.44177">
        <ele>315.2</ele>
        <time>2017-05-07T06:38:49Z</time>
      </trkpt>
      <trkpt lat="43.71837" lon="3.44169">
        <ele>315.8</ele>
        <time>2017-05-07T06:38:52Z</time>
      </trkpt>
      <trkpt lat="43.71844" lon="3.44162">
        <ele>316.6</ele>
        <time>2017-05-07T06:38:56Z</time>
      </trkpt>
      <trkpt lat="43.71852" lon="3.4416">
        <ele>317.2</ele>
        <time>2017-05-07T06:39:00Z</time>
      </trkpt>
      <trkpt lat="43.71861" lon="3.44156">
        <ele>318.3</ele>
        <time>2017-05-07T06:39:03Z</time>
      </trkpt>
      <trkpt lat="43.71868" lon="3.44154">
        <ele>318.9</ele>
        <time>2017-05-07T06:39:06Z</time>
      </trkpt>
      <trkpt lat="43.71876" lon="3.44153">
        <ele>319.3</ele>
        <time>2017-05-07T06:39:09Z</time>
      </trkpt>
      <trkpt lat="43.71884" lon="3.44148">
        <ele>319.9</ele>
        <time>2017-05-07T06:39:12Z</time>
      </trkpt>
      <trkpt lat="43.71893" lon="3.44146">
        <ele>320.5</ele>
        <time>2017-05-07T06:39:16Z</time>
      </trkpt>
      <trkpt lat="43.719" lon="3.44144">
        <ele>320.9</ele>
        <time>2017-05-07T06:39:19Z</time>
      </trkpt>
      <trkpt lat="43.71907" lon="3.44151">
        <ele>321.7</ele>
        <time>2017-05-07T06:39:24Z</time>
      </trkpt>
      <trkpt lat="43.71899" lon="3.44156">
        <ele>322.5</ele>
        <time>2017-05-07T06:39:29Z</time>
      </trkpt>
      <trkpt lat="43.71892" lon="3.44159">
        <ele>322.8</ele>
        <time>2017-05-07T06:39:32Z</time>
      </trkpt>
      <trkpt lat="43.71885" lon="3.44163">
        <ele>323.2</ele>
        <time>2017-05-07T06:39:35Z</time>
      </trkpt>
      <trkpt lat="43.71879" lon="3.44169">
        <ele>323.7</ele>
        <time>2017-05-07T06:39:38Z</time>
      </trkpt>
      <trkpt lat="43.71873" lon="3.44176">
        <ele>324.3</ele>
        <time>2017-05-07T06:39:41Z</time>
      </trkpt>
      <trkpt lat="43.71866" lon="3.44185">
        <ele>325</ele>
        <time>2017-05-07T06:39:45Z</time>
      </trkpt>
      <trkpt lat="43.7186" lon="3.44192">
        <ele>325.6</ele>
        <time>2017-05-07T06:39:48Z</time>
      </trkpt>
      <trkpt lat="43.71854" lon="3.442">
        <ele>326.1</ele>
        <time>2017-05-07T06:39:51Z</time>
      </trkpt>
      <trkpt lat="43.71849" lon="3.44209">
        <ele>326.8</ele>
        <time>2017-05-07T06:39:54Z</time>
      </trkpt>
      <trkpt lat="43.71845" lon="3.4422">
        <ele>327.4</ele>
        <time>2017-05-07T06:39:57Z</time>
      </trkpt>
      <trkpt lat="43.71841" lon="3.4423">
        <ele>328.1</ele>
        <time>2017-05-07T06:40:00Z</time>
      </trkpt>
      <trkpt lat="43.71835" lon="3.44241">
        <ele>329</ele>
        <time>2017-05-07T06:40:04Z</time>
      </trkpt>
      <trkpt lat="43.71831" lon="3.4425">
        <ele>329.7</ele>
        <time>2017-05-07T06:40:07Z</time>
      </trkpt>
      <trkpt lat="43.71824" lon="3.4426">
        <ele>330.2</ele>
        <time>2017-05-07T06:40:10Z</time>
      </trkpt>
      <trkpt lat="43.7182" lon="3.44267">
        <ele>330.7</ele>
        <time>2017-05-07T06:40:13Z</time>
      </trkpt>
      <trkpt lat="43.71812" lon="3.4427">
        <ele>331.3</ele>
        <time>2017-05-07T06:40:16Z</time>
      </trkpt>
      <trkpt lat="43.71804" lon="3.44271">
        <ele>331.7</ele>
        <time>2017-05-07T06:40:19Z</time>
      </trkpt>
      <trkpt lat="43.71796" lon="3.44272">
        <ele>332.2</ele>
        <time>2017-05-07T06:40:22Z</time>
      </trkpt>
      <trkpt lat="43.71788" lon="3.44272">
        <ele>332.6</ele>
        <time>2017-05-07T06:40:25Z</time>
      </trkpt>
      <trkpt lat="43.71778" lon="3.44271">
        <ele>332.9</ele>
        <time>2017-05-07T06:40:28Z</time>
      </trkpt>
      <trkpt lat="43.71769" lon="3.4427">
        <ele>333.5</ele>
        <time>2017-05-07T06:40:32Z</time>
      </trkpt>
      <trkpt lat="43.7176" lon="3.4427">
        <ele>333.8</ele>
        <time>2017-05-07T06:40:35Z</time>
      </trkpt>
      <trkpt lat="43.71752" lon="3.44275">
        <ele>334.1</ele>
        <time>2017-05-07T06:40:38Z</time>
      </trkpt>
      <trkpt lat="43.71746" lon="3.44283">
        <ele>334.4</ele>
        <time>2017-05-07T06:40:41Z</time>
      </trkpt>
      <trkpt lat="43.71741" lon="3.44293">
        <ele>334.8</ele>
        <time>2017-05-07T06:40:44Z</time>
      </trkpt>
      <trkpt lat="43.71736" lon="3.44302">
        <ele>335.3</ele>
        <time>2017-05-07T06:40:47Z</time>
      </trkpt>
      <trkpt lat="43.71733" lon="3.44311">
        <ele>335.9</ele>
        <time>2017-05-07T06:40:50Z</time>
      </trkpt>
      <trkpt lat="43.71729" lon="3.44323">
        <ele>336.4</ele>
        <time>2017-05-07T06:40:53Z</time>
      </trkpt>
      <trkpt lat="43.71724" lon="3.44332">
        <ele>337.1</ele>
        <time>2017-05-07T06:40:57Z</time>
      </trkpt>
      <trkpt lat="43.71719" lon="3.44341">
        <ele>337.7</ele>
        <time>2017-05-07T06:41:00Z</time>
      </trkpt>
      <trkpt lat="43.71715" lon="3.44351">
        <ele>338.4</ele>
        <time>2017-05-07T06:41:03Z</time>
      </trkpt>
      <trkpt lat="43.71712" lon="3.44362">
        <ele>338.9</ele>
        <time>2017-05-07T06:41:06Z</time>
      </trkpt>
      <trkpt lat="43.71709" lon="3.44374">
        <ele>339.2</ele>
        <time>2017-05-07T06:41:09Z</time>
      </trkpt>
      <trkpt lat="43.71705" lon="3.44386">
        <ele>339.7</ele>
        <time>2017-05-07T06:41:13Z</time>
      </trkpt>
      <trkpt lat="43.71701" lon="3.44395">
        <ele>340.2</ele>
        <time>2017-05-07T06:41:16Z</time>
      </trkpt>
      <trkpt lat="43.71696" lon="3.44405">
        <ele>340.8</ele>
        <time>2017-05-07T06:41:20Z</time>
      </trkpt>
      <trkpt lat="43.7169" lon="3.44416">
        <ele>341.5</ele>
        <time>2017-05-07T06:41:24Z</time>
      </trkpt>
      <trkpt lat="43.71693" lon="3.44425">
        <ele>342.4</ele>
        <time>2017-05-07T06:41:29Z</time>
      </trkpt>
      <trkpt lat="43.717" lon="3.44421">
        <ele>343</ele>
        <time>2017-05-07T06:41:32Z</time>
      </trkpt>
      <trkpt lat="43.71708" lon="3.44416">
        <ele>343.6</ele>
        <time>2017-05-07T06:41:35Z</time>
      </trkpt>
      <trkpt lat="43.71715" lon="3.4441">
        <ele>344.1</ele>
        <time>2017-05-07T06:41:38Z</time>
      </trkpt>
      <trkpt lat="43.71721" lon="3.44404">
        <ele>344.7</ele>
        <time>2017-05-07T06:41:41Z</time>
      </trkpt>
      <trkpt lat="43.71728" lon="3.44397">
        <ele>345.2</ele>
        <time>2017-05-07T06:41:44Z</time>
      </trkpt>
      <trkpt lat="43.71734" lon="3.44391">
        <ele>345.8</ele>
        <time>2017-05-07T06:41:47Z</time>
      </trkpt>
      <trkpt lat="43.71741" lon="3.44386">
        <ele>346.5</ele>
        <time>2017-05-07T06:41:51Z</time>
      </trkpt>
      <trkpt lat="43.71749" lon="3.44383">
        <ele>347.1</ele>
        <time>2017-05-07T06:41:54Z</time>
      </trkpt>
      <trkpt lat="43.71757" lon="3.44379">
        <ele>347.7</ele>
        <time>2017-05-07T06:41:57Z</time>
      </trkpt>
      <trkpt lat="43.71764" lon="3.44375">
        <ele>348.3</ele>
        <time>2017-05-07T06:42:00Z</time>
      </trkpt>
      <trkpt lat="43.71774" lon="3.44371">
        <ele>349</ele>
        <time>2017-05-07T06:42:04Z</time>
      </trkpt>
      <trkpt lat="43.71781" lon="3.44368">
        <ele>349.5</ele>
        <time>2017-05-07T06:42:07Z</time>
      </trkpt>
      <trkpt lat="43.7179" lon="3.44366">
        <ele>350.1</ele>
        <time>2017-05-07T06:42:10Z</time>
      </trkpt>
      <trkpt lat="43.71799" lon="3.44364">
        <ele>350.8</ele>
        <time>2017-05-07T06:42:13Z</time>
      </trkpt>
      <trkpt lat="43.71806" lon="3.44359">
        <ele>351.5</ele>
        <time>2017-05-07T06:42:16Z</time>
      </trkpt>
      <trkpt lat="43.71813" lon="3.44356">
        <ele>352.1</ele>
        <time>2017-05-07T06:42:19Z</time>
      </trkpt>
      <trkpt lat="43.71821" lon="3.44354">
        <ele>352.8</ele>
        <time>2017-05-07T06:42:22Z</time>
      </trkpt>
      <trkpt lat="43.71831" lon="3.44352">
        <ele>353.8</ele>
        <time>2017-05-07T06:42:26Z</time>
      </trkpt>
      <trkpt lat="43.7184" lon="3.4435">
        <ele>354.5</ele>
        <time>2017-05-07T06:42:29Z</time>
      </trkpt>
      <trkpt lat="43.71848" lon="3.44344">
        <ele>355.3</ele>
        <time>2017-05-07T06:42:32Z</time>
      </trkpt>
      <trkpt lat="43.71855" lon="3.44339">
        <ele>356.1</ele>
        <time>2017-05-07T06:42:35Z</time>
      </trkpt>
      <trkpt lat="43.71861" lon="3.44333">
        <ele>356.9</ele>
        <time>2017-05-07T06:42:38Z</time>
      </trkpt>
      <trkpt lat="43.71868" lon="3.44329">
        <ele>357.7</ele>
        <time>2017-05-07T06:42:41Z</time>
      </trkpt>
      <trkpt lat="43.71875" lon="3.44325">
        <ele>358.5</ele>
        <time>2017-05-07T06:42:44Z</time>
      </trkpt>
      <trkpt lat="43.71883" lon="3.44323">
        <ele>359.1</ele>
        <time>2017-05-07T06:42:47Z</time>
      </trkpt>
      <trkpt lat="43.7189" lon="3.44322">
        <ele>359.4</ele>
        <time>2017-05-07T06:42:50Z</time>
      </trkpt>
      <trkpt lat="43.71897" lon="3.4432">
        <ele>359.9</ele>
        <time>2017-05-07T06:42:53Z</time>
      </trkpt>
      <trkpt lat="43.71907" lon="3.44318">
        <ele>360.6</ele>
        <time>2017-05-07T06:42:57Z</time>
      </trkpt>
      <trkpt lat="43.71915" lon="3.44317">
        <ele>361.1</ele>
        <time>2017-05-07T06:43:01Z</time>
      </trkpt>
      <trkpt lat="43.71923" lon="3.44317">
        <ele>361.6</ele>
        <time>2017-05-07T06:43:05Z</time>
      </trkpt>
      <trkpt lat="43.71931" lon="3.44316">
        <ele>362.1</ele>
        <time>2017-05-07T06:43:10Z</time>
      </trkpt>
      <trkpt lat="43.71938" lon="3.44314">
        <ele>362.4</ele>
        <time>2017-05-07T06:43:14Z</time>
      </trkpt>
      <trkpt lat="43.71946" lon="3.44314">
        <ele>362.6</ele>
        <time>2017-05-07T06:43:17Z</time>
      </trkpt>
      <trkpt lat="43.71954" lon="3.44316">
        <ele>363</ele>
        <time>2017-05-07T06:43:20Z</time>
      </trkpt>
      <trkpt lat="43.71961" lon="3.44319">
        <ele>363.4</ele>
        <time>2017-05-07T06:43:23Z</time>
      </trkpt>
      <trkpt lat="43.7197" lon="3.44323">
        <ele>363.9</ele>
        <time>2017-05-07T06:43:27Z</time>
      </trkpt>
      <trkpt lat="43.71978" lon="3.44327">
        <ele>364.4</ele>
        <time>2017-05-07T06:43:30Z</time>
      </trkpt>
      <trkpt lat="43.71986" lon="3.44331">
        <ele>365.1</ele>
        <time>2017-05-07T06:43:33Z</time>
      </trkpt>
      <trkpt lat="43.71994" lon="3.44331">
        <ele>365.8</ele>
        <time>2017-05-07T06:43:36Z</time>
      </trkpt>
      <trkpt lat="43.72002" lon="3.44328">
        <ele>366.6</ele>
        <time>2017-05-07T06:43:39Z</time>
      </trkpt>
      <trkpt lat="43.7201" lon="3.44323">
        <ele>367.3</ele>
        <time>2017-05-07T06:43:42Z</time>
      </trkpt>
      <trkpt lat="43.72017" lon="3.44317">
        <ele>368.1</ele>
        <time>2017-05-07T06:43:45Z</time>
      </trkpt>
      <trkpt lat="43.72023" lon="3.44312">
        <ele>369</ele>
        <time>2017-05-07T06:43:48Z</time>
      </trkpt>
      <trkpt lat="43.72031" lon="3.44308">
        <ele>369.9</ele>
        <time>2017-05-07T06:43:51Z</time>
      </trkpt>
      <trkpt lat="43.7204" lon="3.44305">
        <ele>371.2</ele>
        <time>2017-05-07T06:43:55Z</time>
      </trkpt>
      <trkpt lat="43.72048" lon="3.44302">
        <ele>372.2</ele>
        <time>2017-05-07T06:43:58Z</time>
      </trkpt>
      <trkpt lat="43.72055" lon="3.44298">
        <ele>373</ele>
        <time>2017-05-07T06:44:01Z</time>
      </trkpt>
      <trkpt lat="43.72061" lon="3.44294">
        <ele>373.8</ele>
        <time>2017-05-07T06:44:04Z</time>
      </trkpt>
      <trkpt lat="43.72068" lon="3.44287">
        <ele>374.5</ele>
        <time>2017-05-07T06:44:07Z</time>
      </trkpt>
      <trkpt lat="43.72077" lon="3.44282">
        <ele>375.2</ele>
        <time>2017-05-07T06:44:10Z</time>
      </trkpt>
      <trkpt lat="43.72083" lon="3.44277">
        <ele>375.9</ele>
        <time>2017-05-07T06:44:13Z</time>
      </trkpt>
      <trkpt lat="43.7209" lon="3.4427">
        <ele>376.7</ele>
        <time>2017-05-07T06:44:17Z</time>
      </trkpt>
      <trkpt lat="43.72097" lon="3.44262">
        <ele>377.1</ele>
        <time>2017-05-07T06:44:20Z</time>
      </trkpt>
      <trkpt lat="43.72104" lon="3.44255">
        <ele>377.6</ele>
        <time>2017-05-07T06:44:23Z</time>
      </trkpt>
      <trkpt lat="43.7211" lon="3.44248">
        <ele>378.1</ele>
        <time>2017-05-07T06:44:26Z</time>
      </trkpt>
      <trkpt lat="43.72116" lon="3.44241">
        <ele>378.7</ele>
        <time>2017-05-07T06:44:29Z</time>
      </trkpt>
      <trkpt lat="43.72122" lon="3.44234">
        <ele>379.3</ele>
        <time>2017-05-07T06:44:32Z</time>
      </trkpt>
      <trkpt lat="43.72128" lon="3.44227">
        <ele>379.8</ele>
        <time>2017-05-07T06:44:35Z</time>
      </trkpt>
      <trkpt lat="43.72134" lon="3.44219">
        <ele>380.5</ele>
        <time>2017-05-07T06:44:39Z</time>
      </trkpt>
      <trkpt lat="43.72141" lon="3.44209">
        <ele>381.5</ele>
        <time>2017-05-07T06:44:43Z</time>
      </trkpt>
      <trkpt lat="43.72148" lon="3.442">
        <ele>382.2</ele>
        <time>2017-05-07T06:44:47Z</time>
      </trkpt>
      <trkpt lat="43.72154" lon="3.44193">
        <ele>382.8</ele>
        <time>2017-05-07T06:44:50Z</time>
      </trkpt>
      <trkpt lat="43.72161" lon="3.44188">
        <ele>383.5</ele>
        <time>2017-05-07T06:44:53Z</time>
      </trkpt>
      <trkpt lat="43.72169" lon="3.44184">
        <ele>384.1</ele>
        <time>2017-05-07T06:44:56Z</time>
      </trkpt>
      <trkpt lat="43.72178" lon="3.4418">
        <ele>384.7</ele>
        <time>2017-05-07T06:45:00Z</time>
      </trkpt>
      <trkpt lat="43.72185" lon="3.44177">
        <ele>385.1</ele>
        <time>2017-05-07T06:45:03Z</time>
      </trkpt>
      <trkpt lat="43.72194" lon="3.44171">
        <ele>385.8</ele>
        <time>2017-05-07T06:45:07Z</time>
      </trkpt>
      <trkpt lat="43.72203" lon="3.44167">
        <ele>386.7</ele>
        <time>2017-05-07T06:45:11Z</time>
      </trkpt>
      <trkpt lat="43.7221" lon="3.44166">
        <ele>387.2</ele>
        <time>2017-05-07T06:45:14Z</time>
      </trkpt>
      <trkpt lat="43.72213" lon="3.44176">
        <ele>388.2</ele>
        <time>2017-05-07T06:45:20Z</time>
      </trkpt>
      <trkpt lat="43.72209" lon="3.44186">
        <ele>389</ele>
        <time>2017-05-07T06:45:24Z</time>
      </trkpt>
      <trkpt lat="43.72206" lon="3.44195">
        <ele>389.6</ele>
        <time>2017-05-07T06:45:27Z</time>
      </trkpt>
      <trkpt lat="43.72201" lon="3.44206">
        <ele>390.4</ele>
        <time>2017-05-07T06:45:31Z</time>
      </trkpt>
      <trkpt lat="43.72197" lon="3.44215">
        <ele>390.8</ele>
        <time>2017-05-07T06:45:34Z</time>
      </trkpt>
      <trkpt lat="43.72192" lon="3.44223">
        <ele>391.4</ele>
        <time>2017-05-07T06:45:37Z</time>
      </trkpt>
      <trkpt lat="43.72185" lon="3.44229">
        <ele>392.3</ele>
        <time>2017-05-07T06:45:41Z</time>
      </trkpt>
      <trkpt lat="43.72179" lon="3.44235">
        <ele>392.9</ele>
        <time>2017-05-07T06:45:44Z</time>
      </trkpt>
      <trkpt lat="43.72171" lon="3.44243">
        <ele>393.4</ele>
        <time>2017-05-07T06:45:47Z</time>
      </trkpt>
      <trkpt lat="43.72167" lon="3.44252">
        <ele>394</ele>
        <time>2017-05-07T06:45:51Z</time>
      </trkpt>
      <trkpt lat="43.72163" lon="3.44263">
        <ele>394.7</ele>
        <time>2017-05-07T06:45:55Z</time>
      </trkpt>
      <trkpt lat="43.72158" lon="3.44273">
        <ele>395.4</ele>
        <time>2017-05-07T06:45:58Z</time>
      </trkpt>
      <trkpt lat="43.72155" lon="3.44282">
        <ele>396</ele>
        <time>2017-05-07T06:46:01Z</time>
      </trkpt>
      <trkpt lat="43.7215" lon="3.44292">
        <ele>397</ele>
        <time>2017-05-07T06:46:05Z</time>
      </trkpt>
      <trkpt lat="43.72144" lon="3.44301">
        <ele>397.8</ele>
        <time>2017-05-07T06:46:09Z</time>
      </trkpt>
      <trkpt lat="43.72139" lon="3.4431">
        <ele>398.2</ele>
        <time>2017-05-07T06:46:12Z</time>
      </trkpt>
      <trkpt lat="43.72135" lon="3.44319">
        <ele>398.7</ele>
        <time>2017-05-07T06:46:15Z</time>
      </trkpt>
      <trkpt lat="43.72132" lon="3.44328">
        <ele>399.2</ele>
        <time>2017-05-07T06:46:18Z</time>
      </trkpt>
      <trkpt lat="43.7213" lon="3.44338">
        <ele>399.7</ele>
        <time>2017-05-07T06:46:21Z</time>
      </trkpt>
      <trkpt lat="43.72127" lon="3.44348">
        <ele>400.2</ele>
        <time>2017-05-07T06:46:24Z</time>
      </trkpt>
      <trkpt lat="43.72123" lon="3.4436">
        <ele>400.7</ele>
        <time>2017-05-07T06:46:28Z</time>
      </trkpt>
      <trkpt lat="43.72119" lon="3.4437">
        <ele>401.2</ele>
        <time>2017-05-07T06:46:31Z</time>
      </trkpt>
      <trkpt lat="43.72114" lon="3.44379">
        <ele>401.6</ele>
        <time>2017-05-07T06:46:34Z</time>
      </trkpt>
      <trkpt lat="43.7211" lon="3.44387">
        <ele>402.1</ele>
        <time>2017-05-07T06:46:37Z</time>
      </trkpt>
      <trkpt lat="43.72104" lon="3.44395">
        <ele>402.5</ele>
        <time>2017-05-07T06:46:40Z</time>
      </trkpt>
      <trkpt lat="43.72099" lon="3.44403">
        <ele>403</ele>
        <time>2017-05-07T06:46:43Z</time>
      </trkpt>
      <trkpt lat="43.72093" lon="3.4441">
        <ele>403.6</ele>
        <time>2017-05-07T06:46:46Z</time>
      </trkpt>
      <trkpt lat="43.72087" lon="3.44419">
        <ele>404.3</ele>
        <time>2017-05-07T06:46:49Z</time>
      </trkpt>
      <trkpt lat="43.72082" lon="3.44425">
        <ele>404.9</ele>
        <time>2017-05-07T06:46:52Z</time>
      </trkpt>
      <trkpt lat="43.72077" lon="3.44433">
        <ele>405.4</ele>
        <time>2017-05-07T06:46:55Z</time>
      </trkpt>
      <trkpt lat="43.72071" lon="3.44441">
        <ele>405.9</ele>
        <time>2017-05-07T06:46:58Z</time>
      </trkpt>
      <trkpt lat="43.72066" lon="3.44449">
        <ele>406.5</ele>
        <time>2017-05-07T06:47:01Z</time>
      </trkpt>
      <trkpt lat="43.72059" lon="3.44456">
        <ele>407.1</ele>
        <time>2017-05-07T06:47:04Z</time>
      </trkpt>
      <trkpt lat="43.72052" lon="3.44464">
        <ele>407.6</ele>
        <time>2017-05-07T06:47:07Z</time>
      </trkpt>
      <trkpt lat="43.72044" lon="3.44467">
        <ele>408.1</ele>
        <time>2017-05-07T06:47:10Z</time>
      </trkpt>
      <trkpt lat="43.72036" lon="3.44471">
        <ele>408.6</ele>
        <time>2017-05-07T06:47:13Z</time>
      </trkpt>
      <trkpt lat="43.72028" lon="3.44476">
        <ele>409.1</ele>
        <time>2017-05-07T06:47:17Z</time>
      </trkpt>
      <trkpt lat="43.7202" lon="3.44481">
        <ele>409.5</ele>
        <time>2017-05-07T06:47:20Z</time>
      </trkpt>
      <trkpt lat="43.72012" lon="3.44483">
        <ele>409.9</ele>
        <time>2017-05-07T06:47:23Z</time>
      </trkpt>
      <trkpt lat="43.72005" lon="3.44483">
        <ele>410.3</ele>
        <time>2017-05-07T06:47:26Z</time>
      </trkpt>
      <trkpt lat="43.71997" lon="3.44481">
        <ele>410.6</ele>
        <time>2017-05-07T06:47:29Z</time>
      </trkpt>
      <trkpt lat="43.71987" lon="3.44478">
        <ele>411.1</ele>
        <time>2017-05-07T06:47:33Z</time>
      </trkpt>
      <trkpt lat="43.7198" lon="3.44473">
        <ele>411.8</ele>
        <time>2017-05-07T06:47:36Z</time>
      </trkpt>
      <trkpt lat="43.71973" lon="3.44468">
        <ele>412.4</ele>
        <time>2017-05-07T06:47:39Z</time>
      </trkpt>
      <trkpt lat="43.71964" lon="3.44463">
        <ele>413.2</ele>
        <time>2017-05-07T06:47:43Z</time>
      </trkpt>
      <trkpt lat="43.71956" lon="3.4446">
        <ele>413.8</ele>
        <time>2017-05-07T06:47:46Z</time>
      </trkpt>
      <trkpt lat="43.71946" lon="3.44461">
        <ele>414.6</ele>
        <time>2017-05-07T06:47:51Z</time>
      </trkpt>
      <trkpt lat="43.71937" lon="3.44466">
        <ele>415</ele>
        <time>2017-05-07T06:47:53Z</time>
      </trkpt>
      <trkpt lat="43.71929" lon="3.44472">
        <ele>415.4</ele>
        <time>2017-05-07T06:47:57Z</time>
      </trkpt>
      <trkpt lat="43.71923" lon="3.44478">
        <ele>415.8</ele>
        <time>2017-05-07T06:48:00Z</time>
      </trkpt>
      <trkpt lat="43.71916" lon="3.44486">
        <ele>416.4</ele>
        <time>2017-05-07T06:48:04Z</time>
      </trkpt>
      <trkpt lat="43.71909" lon="3.44492">
        <ele>416.9</ele>
        <time>2017-05-07T06:48:07Z</time>
      </trkpt>
      <trkpt lat="43.719" lon="3.44495">
        <ele>417.5</ele>
        <time>2017-05-07T06:48:10Z</time>
      </trkpt>
      <trkpt lat="43.71893" lon="3.44498">
        <ele>418</ele>
        <time>2017-05-07T06:48:13Z</time>
      </trkpt>
      <trkpt lat="43.71884" lon="3.44501">
        <ele>418.5</ele>
        <time>2017-05-07T06:48:16Z</time>
      </trkpt>
      <trkpt lat="43.71877" lon="3.44503">
        <ele>418.9</ele>
        <time>2017-05-07T06:48:18Z</time>
      </trkpt>
      <trkpt lat="43.7187" lon="3.44509">
        <ele>419.3</ele>
        <time>2017-05-07T06:48:21Z</time>
      </trkpt>
      <trkpt lat="43.71862" lon="3.44519">
        <ele>419.9</ele>
        <time>2017-05-07T06:48:24Z</time>
      </trkpt>
      <trkpt lat="43.71855" lon="3.44527">
        <ele>420.5</ele>
        <time>2017-05-07T06:48:27Z</time>
      </trkpt>
      <trkpt lat="43.7185" lon="3.44537">
        <ele>421.1</ele>
        <time>2017-05-07T06:48:30Z</time>
      </trkpt>
      <trkpt lat="43.71845" lon="3.44546">
        <ele>421.6</ele>
        <time>2017-05-07T06:48:33Z</time>
      </trkpt>
      <trkpt lat="43.7184" lon="3.44556">
        <ele>422</ele>
        <time>2017-05-07T06:48:36Z</time>
      </trkpt>
      <trkpt lat="43.71836" lon="3.44566">
        <ele>422.4</ele>
        <time>2017-05-07T06:48:39Z</time>
      </trkpt>
      <trkpt lat="43.71832" lon="3.44575">
        <ele>422.7</ele>
        <time>2017-05-07T06:48:42Z</time>
      </trkpt>
      <trkpt lat="43.71829" lon="3.44584">
        <ele>423.1</ele>
        <time>2017-05-07T06:48:45Z</time>
      </trkpt>
      <trkpt lat="43.71831" lon="3.44597">
        <ele>423.4</ele>
        <time>2017-05-07T06:48:48Z</time>
      </trkpt>
      <trkpt lat="43.71839" lon="3.44592">
        <ele>423.9</ele>
        <time>2017-05-07T06:48:53Z</time>
      </trkpt>
      <trkpt lat="43.71843" lon="3.44583">
        <ele>424.3</ele>
        <time>2017-05-07T06:48:56Z</time>
      </trkpt>
      <trkpt lat="43.71848" lon="3.44572">
        <ele>425.1</ele>
        <time>2017-05-07T06:49:00Z</time>
      </trkpt>
      <trkpt lat="43.71854" lon="3.44563">
        <ele>426.1</ele>
        <time>2017-05-07T06:49:04Z</time>
      </trkpt>
      <trkpt lat="43.71862" lon="3.44556">
        <ele>427.1</ele>
        <time>2017-05-07T06:49:08Z</time>
      </trkpt>
      <trkpt lat="43.71868" lon="3.44551">
        <ele>427.7</ele>
        <time>2017-05-07T06:49:11Z</time>
      </trkpt>
      <trkpt lat="43.71877" lon="3.44546">
        <ele>428.2</ele>
        <time>2017-05-07T06:49:14Z</time>
      </trkpt>
      <trkpt lat="43.71885" lon="3.44543">
        <ele>428.8</ele>
        <time>2017-05-07T06:49:18Z</time>
      </trkpt>
      <trkpt lat="43.71893" lon="3.44539">
        <ele>429.3</ele>
        <time>2017-05-07T06:49:21Z</time>
      </trkpt>
      <trkpt lat="43.719" lon="3.44536">
        <ele>429.7</ele>
        <time>2017-05-07T06:49:24Z</time>
      </trkpt>
      <trkpt lat="43.71909" lon="3.44533">
        <ele>430.2</ele>
        <time>2017-05-07T06:49:27Z</time>
      </trkpt>
      <trkpt lat="43.71918" lon="3.4453">
        <ele>430.7</ele>
        <time>2017-05-07T06:49:31Z</time>
      </trkpt>
      <trkpt lat="43.71926" lon="3.4453">
        <ele>431.2</ele>
        <time>2017-05-07T06:49:34Z</time>
      </trkpt>
      <trkpt lat="43.71933" lon="3.4453">
        <ele>431.7</ele>
        <time>2017-05-07T06:49:37Z</time>
      </trkpt>
      <trkpt lat="43.7194" lon="3.44532">
        <ele>432.1</ele>
        <time>2017-05-07T06:49:40Z</time>
      </trkpt>
      <trkpt lat="43.71947" lon="3.44534">
        <ele>432.7</ele>
        <time>2017-05-07T06:49:43Z</time>
      </trkpt>
      <trkpt lat="43.71954" lon="3.44538">
        <ele>433.1</ele>
        <time>2017-05-07T06:49:46Z</time>
      </trkpt>
      <trkpt lat="43.71963" lon="3.44542">
        <ele>433.6</ele>
        <time>2017-05-07T06:49:50Z</time>
      </trkpt>
      <trkpt lat="43.71971" lon="3.44547">
        <ele>433.9</ele>
        <time>2017-05-07T06:49:53Z</time>
      </trkpt>
      <trkpt lat="43.7198" lon="3.44551">
        <ele>434.3</ele>
        <time>2017-05-07T06:49:57Z</time>
      </trkpt>
      <trkpt lat="43.71988" lon="3.44555">
        <ele>434.6</ele>
        <time>2017-05-07T06:50:00Z</time>
      </trkpt>
      <trkpt lat="43.71995" lon="3.44557">
        <ele>434.9</ele>
        <time>2017-05-07T06:50:03Z</time>
      </trkpt>
      <trkpt lat="43.72004" lon="3.44561">
        <ele>435.2</ele>
        <time>2017-05-07T06:50:06Z</time>
      </trkpt>
      <trkpt lat="43.72011" lon="3.44563">
        <ele>435.6</ele>
        <time>2017-05-07T06:50:09Z</time>
      </trkpt>
      <trkpt lat="43.7202" lon="3.44565">
        <ele>436.2</ele>
        <time>2017-05-07T06:50:12Z</time>
      </trkpt>
      <trkpt lat="43.72027" lon="3.44566">
        <ele>436.8</ele>
        <time>2017-05-07T06:50:15Z</time>
      </trkpt>
      <trkpt lat="43.72036" lon="3.44566">
        <ele>437.4</ele>
        <time>2017-05-07T06:50:18Z</time>
      </trkpt>
      <trkpt lat="43.72044" lon="3.44564">
        <ele>437.9</ele>
        <time>2017-05-07T06:50:21Z</time>
      </trkpt>
      <trkpt lat="43.72054" lon="3.44563">
        <ele>438.7</ele>
        <time>2017-05-07T06:50:25Z</time>
      </trkpt>
      <trkpt lat="43.72061" lon="3.44561">
        <ele>439.5</ele>
        <time>2017-05-07T06:50:28Z</time>
      </trkpt>
      <trkpt lat="43.7207" lon="3.44559">
        <ele>440.3</ele>
        <time>2017-05-07T06:50:31Z</time>
      </trkpt>
      <trkpt lat="43.72078" lon="3.44556">
        <ele>441.1</ele>
        <time>2017-05-07T06:50:34Z</time>
      </trkpt>
      <trkpt lat="43.72086" lon="3.44552">
        <ele>442.8</ele>
        <time>2017-05-07T06:50:39Z</time>
      </trkpt>
      <trkpt lat="43.72094" lon="3.44545">
        <ele>443.8</ele>
        <time>2017-05-07T06:50:42Z</time>
      </trkpt>
      <trkpt lat="43.72103" lon="3.44539">
        <ele>445.4</ele>
        <time>2017-05-07T06:50:46Z</time>
      </trkpt>
      <trkpt lat="43.72109" lon="3.44532">
        <ele>446.4</ele>
        <time>2017-05-07T06:50:49Z</time>
      </trkpt>
      <trkpt lat="43.72115" lon="3.44525">
        <ele>448.1</ele>
        <time>2017-05-07T06:50:53Z</time>
      </trkpt>
      <trkpt lat="43.72122" lon="3.44518">
        <ele>449.3</ele>
        <time>2017-05-07T06:50:56Z</time>
      </trkpt>
      <trkpt lat="43.72128" lon="3.44511">
        <ele>450.4</ele>
        <time>2017-05-07T06:50:59Z</time>
      </trkpt>
      <trkpt lat="43.72135" lon="3.44502">
        <ele>451.3</ele>
        <time>2017-05-07T06:51:02Z</time>
      </trkpt>
      <trkpt lat="43.72141" lon="3.44492">
        <ele>451.8</ele>
        <time>2017-05-07T06:51:05Z</time>
      </trkpt>
      <trkpt lat="43.72146" lon="3.44483">
        <ele>452.5</ele>
        <time>2017-05-07T06:51:09Z</time>
      </trkpt>
      <trkpt lat="43.72151" lon="3.44474">
        <ele>452.7</ele>
        <time>2017-05-07T06:51:12Z</time>
      </trkpt>
      <trkpt lat="43.72155" lon="3.44465">
        <ele>452.8</ele>
        <time>2017-05-07T06:51:14Z</time>
      </trkpt>
      <trkpt lat="43.72158" lon="3.44455">
        <ele>452.7</ele>
        <time>2017-05-07T06:51:16Z</time>
      </trkpt>
      <trkpt lat="43.72162" lon="3.4444">
        <ele>452.7</ele>
        <time>2017-05-07T06:51:18Z</time>
      </trkpt>
      <trkpt lat="43.72164" lon="3.44424">
        <ele>453</ele>
        <time>2017-05-07T06:51:20Z</time>
      </trkpt>
      <trkpt lat="43.72167" lon="3.44414">
        <ele>453.3</ele>
        <time>2017-05-07T06:51:21Z</time>
      </trkpt>
      <trkpt lat="43.7217" lon="3.44404">
        <ele>453.1</ele>
        <time>2017-05-07T06:51:22Z</time>
      </trkpt>
      <trkpt lat="43.72173" lon="3.44394">
        <ele>452.5</ele>
        <time>2017-05-07T06:51:23Z</time>
      </trkpt>
      <trkpt lat="43.72179" lon="3.44386">
        <ele>451.9</ele>
        <time>2017-05-07T06:51:24Z</time>
      </trkpt>
      <trkpt lat="43.72189" lon="3.44375">
        <ele>452.2</ele>
        <time>2017-05-07T06:51:26Z</time>
      </trkpt>
      <trkpt lat="43.72196" lon="3.4437">
        <ele>452.2</ele>
        <time>2017-05-07T06:51:27Z</time>
      </trkpt>
      <trkpt lat="43.72203" lon="3.44367">
        <ele>452.1</ele>
        <time>2017-05-07T06:51:28Z</time>
      </trkpt>
      <trkpt lat="43.72215" lon="3.44362">
        <ele>451.1</ele>
        <time>2017-05-07T06:51:30Z</time>
      </trkpt>
      <trkpt lat="43.72223" lon="3.4436">
        <ele>450.1</ele>
        <time>2017-05-07T06:51:32Z</time>
      </trkpt>
      <trkpt lat="43.72232" lon="3.4436">
        <ele>450.3</ele>
        <time>2017-05-07T06:51:34Z</time>
      </trkpt>
      <trkpt lat="43.72241" lon="3.44359">
        <ele>451.5</ele>
        <time>2017-05-07T06:51:36Z</time>
      </trkpt>
      <trkpt lat="43.72249" lon="3.44354">
        <ele>453.4</ele>
        <time>2017-05-07T06:51:38Z</time>
      </trkpt>
      <trkpt lat="43.72258" lon="3.4435">
        <ele>453.6</ele>
        <time>2017-05-07T06:51:40Z</time>
      </trkpt>
      <trkpt lat="43.72265" lon="3.44344">
        <ele>453.7</ele>
        <time>2017-05-07T06:51:42Z</time>
      </trkpt>
      <trkpt lat="43.72272" lon="3.44337">
        <ele>453.7</ele>
        <time>2017-05-07T06:51:44Z</time>
      </trkpt>
      <trkpt lat="43.72279" lon="3.44331">
        <ele>453.7</ele>
        <time>2017-05-07T06:51:46Z</time>
      </trkpt>
      <trkpt lat="43.72287" lon="3.44324">
        <ele>453.6</ele>
        <time>2017-05-07T06:51:48Z</time>
      </trkpt>
      <trkpt lat="43.72294" lon="3.44317">
        <ele>453.1</ele>
        <time>2017-05-07T06:51:50Z</time>
      </trkpt>
      <trkpt lat="43.723" lon="3.44309">
        <ele>452.7</ele>
        <time>2017-05-07T06:51:52Z</time>
      </trkpt>
      <trkpt lat="43.72306" lon="3.44302">
        <ele>452.6</ele>
        <time>2017-05-07T06:51:54Z</time>
      </trkpt>
      <trkpt lat="43.72311" lon="3.44292">
        <ele>452.4</ele>
        <time>2017-05-07T06:51:57Z</time>
      </trkpt>
      <trkpt lat="43.72317" lon="3.44282">
        <ele>452</ele>
        <time>2017-05-07T06:52:00Z</time>
      </trkpt>
      <trkpt lat="43.72324" lon="3.4427">
        <ele>451.6</ele>
        <time>2017-05-07T06:52:03Z</time>
      </trkpt>
      <trkpt lat="43.72332" lon="3.44261">
        <ele>451.2</ele>
        <time>2017-05-07T06:52:06Z</time>
      </trkpt>
      <trkpt lat="43.72338" lon="3.44256">
        <ele>450.8</ele>
        <time>2017-05-07T06:52:08Z</time>
      </trkpt>
      <trkpt lat="43.72346" lon="3.44255">
        <ele>450.5</ele>
        <time>2017-05-07T06:52:11Z</time>
      </trkpt>
      <trkpt lat="43.72355" lon="3.44257">
        <ele>450.4</ele>
        <time>2017-05-07T06:52:14Z</time>
      </trkpt>
      <trkpt lat="43.72365" lon="3.44264">
        <ele>449.1</ele>
        <time>2017-05-07T06:52:17Z</time>
      </trkpt>
      <trkpt lat="43.7237" lon="3.4427">
        <ele>448.7</ele>
        <time>2017-05-07T06:52:19Z</time>
      </trkpt>
      <trkpt lat="43.72379" lon="3.44279">
        <ele>448.5</ele>
        <time>2017-05-07T06:52:21Z</time>
      </trkpt>
      <trkpt lat="43.72386" lon="3.44287">
        <ele>448.5</ele>
        <time>2017-05-07T06:52:23Z</time>
      </trkpt>
      <trkpt lat="43.72395" lon="3.44297">
        <ele>449.2</ele>
        <time>2017-05-07T06:52:25Z</time>
      </trkpt>
      <trkpt lat="43.72404" lon="3.44305">
        <ele>448.6</ele>
        <time>2017-05-07T06:52:27Z</time>
      </trkpt>
      <trkpt lat="43.72413" lon="3.44312">
        <ele>447.4</ele>
        <time>2017-05-07T06:52:29Z</time>
      </trkpt>
      <trkpt lat="43.72422" lon="3.44321">
        <ele>445.6</ele>
        <time>2017-05-07T06:52:31Z</time>
      </trkpt>
      <trkpt lat="43.72431" lon="3.44333">
        <ele>444.4</ele>
        <time>2017-05-07T06:52:33Z</time>
      </trkpt>
      <trkpt lat="43.7244" lon="3.44347">
        <ele>443.6</ele>
        <time>2017-05-07T06:52:35Z</time>
      </trkpt>
      <trkpt lat="43.72448" lon="3.44359">
        <ele>442.7</ele>
        <time>2017-05-07T06:52:37Z</time>
      </trkpt>
      <trkpt lat="43.72455" lon="3.4437">
        <ele>441.9</ele>
        <time>2017-05-07T06:52:39Z</time>
      </trkpt>
      <trkpt lat="43.72462" lon="3.44379">
        <ele>441</ele>
        <time>2017-05-07T06:52:41Z</time>
      </trkpt>
      <trkpt lat="43.7247" lon="3.44389">
        <ele>442</ele>
        <time>2017-05-07T06:52:43Z</time>
      </trkpt>
      <trkpt lat="43.72478" lon="3.44392">
        <ele>443.5</ele>
        <time>2017-05-07T06:52:45Z</time>
      </trkpt>
      <trkpt lat="43.72487" lon="3.44392">
        <ele>444.2</ele>
        <time>2017-05-07T06:52:47Z</time>
      </trkpt>
      <trkpt lat="43.72495" lon="3.4439">
        <ele>444.6</ele>
        <time>2017-05-07T06:52:49Z</time>
      </trkpt>
      <trkpt lat="43.72503" lon="3.44386">
        <ele>446.2</ele>
        <time>2017-05-07T06:52:51Z</time>
      </trkpt>
      <trkpt lat="43.72512" lon="3.44385">
        <ele>447.2</ele>
        <time>2017-05-07T06:52:53Z</time>
      </trkpt>
      <trkpt lat="43.72521" lon="3.44382">
        <ele>447.9</ele>
        <time>2017-05-07T06:52:55Z</time>
      </trkpt>
      <trkpt lat="43.72526" lon="3.44384">
        <ele>447.5</ele>
        <time>2017-05-07T06:53:02Z</time>
      </trkpt>
      <trkpt lat="43.72518" lon="3.44388">
        <ele>446</ele>
        <time>2017-05-07T06:53:05Z</time>
      </trkpt>
      <trkpt lat="43.72511" lon="3.44392">
        <ele>445.5</ele>
        <time>2017-05-07T06:53:08Z</time>
      </trkpt>
      <trkpt lat="43.72504" lon="3.44398">
        <ele>445.3</ele>
        <time>2017-05-07T06:53:11Z</time>
      </trkpt>
      <trkpt lat="43.72507" lon="3.44406">
        <ele>445.1</ele>
        <time>2017-05-07T06:53:16Z</time>
      </trkpt>
      <trkpt lat="43.72516" lon="3.44405">
        <ele>445.1</ele>
        <time>2017-05-07T06:53:20Z</time>
      </trkpt>
      <trkpt lat="43.72525" lon="3.44408">
        <ele>445.1</ele>
        <time>2017-05-07T06:53:23Z</time>
      </trkpt>
      <trkpt lat="43.72534" lon="3.44413">
        <ele>445.2</ele>
        <time>2017-05-07T06:53:26Z</time>
      </trkpt>
      <trkpt lat="43.72541" lon="3.44417">
        <ele>445.4</ele>
        <time>2017-05-07T06:53:29Z</time>
      </trkpt>
      <trkpt lat="43.72549" lon="3.44421">
        <ele>445.6</ele>
        <time>2017-05-07T06:53:32Z</time>
      </trkpt>
      <trkpt lat="43.72557" lon="3.44428">
        <ele>445.8</ele>
        <time>2017-05-07T06:53:35Z</time>
      </trkpt>
      <trkpt lat="43.72563" lon="3.44433">
        <ele>446.1</ele>
        <time>2017-05-07T06:53:38Z</time>
      </trkpt>
      <trkpt lat="43.72571" lon="3.44441">
        <ele>446.9</ele>
        <time>2017-05-07T06:53:42Z</time>
      </trkpt>
      <trkpt lat="43.72576" lon="3.44449">
        <ele>447.3</ele>
        <time>2017-05-07T06:53:45Z</time>
      </trkpt>
      <trkpt lat="43.72582" lon="3.44457">
        <ele>447.5</ele>
        <time>2017-05-07T06:53:48Z</time>
      </trkpt>
      <trkpt lat="43.72589" lon="3.44463">
        <ele>448</ele>
        <time>2017-05-07T06:53:51Z</time>
      </trkpt>
      <trkpt lat="43.72595" lon="3.44468">
        <ele>448.4</ele>
        <time>2017-05-07T06:53:54Z</time>
      </trkpt>
      <trkpt lat="43.72601" lon="3.44476">
        <ele>448.8</ele>
        <time>2017-05-07T06:53:58Z</time>
      </trkpt>
      <trkpt lat="43.72605" lon="3.44484">
        <ele>449.1</ele>
        <time>2017-05-07T06:54:01Z</time>
      </trkpt>
      <trkpt lat="43.72609" lon="3.44495">
        <ele>449.6</ele>
        <time>2017-05-07T06:54:05Z</time>
      </trkpt>
      <trkpt lat="43.72609" lon="3.44508">
        <ele>450.2</ele>
        <time>2017-05-07T06:54:09Z</time>
      </trkpt>
      <trkpt lat="43.72605" lon="3.44518">
        <ele>450.7</ele>
        <time>2017-05-07T06:54:13Z</time>
      </trkpt>
      <trkpt lat="43.72604" lon="3.4453">
        <ele>451.5</ele>
        <time>2017-05-07T06:54:17Z</time>
      </trkpt>
      <trkpt lat="43.72603" lon="3.44542">
        <ele>452</ele>
        <time>2017-05-07T06:54:21Z</time>
      </trkpt>
      <trkpt lat="43.72605" lon="3.44552">
        <ele>452.4</ele>
        <time>2017-05-07T06:54:24Z</time>
      </trkpt>
      <trkpt lat="43.72612" lon="3.4456">
        <ele>452.9</ele>
        <time>2017-05-07T06:54:27Z</time>
      </trkpt>
      <trkpt lat="43.72618" lon="3.44566">
        <ele>453.4</ele>
        <time>2017-05-07T06:54:30Z</time>
      </trkpt>
      <trkpt lat="43.72624" lon="3.44572">
        <ele>454</ele>
        <time>2017-05-07T06:54:33Z</time>
      </trkpt>
      <trkpt lat="43.72631" lon="3.44581">
        <ele>455</ele>
        <time>2017-05-07T06:54:37Z</time>
      </trkpt>
      <trkpt lat="43.72641" lon="3.44587">
        <ele>456.1</ele>
        <time>2017-05-07T06:54:41Z</time>
      </trkpt>
      <trkpt lat="43.72648" lon="3.44594">
        <ele>457.2</ele>
        <time>2017-05-07T06:54:45Z</time>
      </trkpt>
      <trkpt lat="43.72655" lon="3.446">
        <ele>458</ele>
        <time>2017-05-07T06:54:49Z</time>
      </trkpt>
      <trkpt lat="43.72662" lon="3.44607">
        <ele>458.7</ele>
        <time>2017-05-07T06:54:52Z</time>
      </trkpt>
      <trkpt lat="43.72669" lon="3.44615">
        <ele>459.5</ele>
        <time>2017-05-07T06:54:56Z</time>
      </trkpt>
      <trkpt lat="43.72675" lon="3.44624">
        <ele>460.1</ele>
        <time>2017-05-07T06:55:00Z</time>
      </trkpt>
      <trkpt lat="43.7268" lon="3.44632">
        <ele>460.7</ele>
        <time>2017-05-07T06:55:03Z</time>
      </trkpt>
      <trkpt lat="43.72687" lon="3.44638">
        <ele>461.5</ele>
        <time>2017-05-07T06:55:07Z</time>
      </trkpt>
      <trkpt lat="43.72693" lon="3.44644">
        <ele>462.1</ele>
        <time>2017-05-07T06:55:10Z</time>
      </trkpt>
      <trkpt lat="43.72701" lon="3.44651">
        <ele>462.7</ele>
        <time>2017-05-07T06:55:14Z</time>
      </trkpt>
      <trkpt lat="43.72708" lon="3.44655">
        <ele>463.1</ele>
        <time>2017-05-07T06:55:17Z</time>
      </trkpt>
      <trkpt lat="43.72716" lon="3.4466">
        <ele>463.9</ele>
        <time>2017-05-07T06:55:21Z</time>
      </trkpt>
      <trkpt lat="43.72724" lon="3.44665">
        <ele>464.9</ele>
        <time>2017-05-07T06:55:25Z</time>
      </trkpt>
      <trkpt lat="43.72732" lon="3.44668">
        <ele>465.7</ele>
        <time>2017-05-07T06:55:28Z</time>
      </trkpt>
      <trkpt lat="43.72739" lon="3.44668">
        <ele>466.5</ele>
        <time>2017-05-07T06:55:31Z</time>
      </trkpt>
      <trkpt lat="43.72748" lon="3.44665">
        <ele>467.6</ele>
        <time>2017-05-07T06:55:35Z</time>
      </trkpt>
      <trkpt lat="43.72757" lon="3.44664">
        <ele>468.6</ele>
        <time>2017-05-07T06:55:39Z</time>
      </trkpt>
      <trkpt lat="43.72766" lon="3.44663">
        <ele>469.1</ele>
        <time>2017-05-07T06:55:42Z</time>
      </trkpt>
      <trkpt lat="43.72773" lon="3.44663">
        <ele>469.7</ele>
        <time>2017-05-07T06:55:45Z</time>
      </trkpt>
      <trkpt lat="43.72782" lon="3.44661">
        <ele>470.1</ele>
        <time>2017-05-07T06:55:48Z</time>
      </trkpt>
      <trkpt lat="43.72789" lon="3.4466">
        <ele>470.6</ele>
        <time>2017-05-07T06:55:51Z</time>
      </trkpt>
      <trkpt lat="43.72797" lon="3.44659">
        <ele>471.3</ele>
        <time>2017-05-07T06:55:55Z</time>
      </trkpt>
      <trkpt lat="43.72805" lon="3.44656">
        <ele>472.1</ele>
        <time>2017-05-07T06:55:59Z</time>
      </trkpt>
      <trkpt lat="43.72813" lon="3.44655">
        <ele>472.8</ele>
        <time>2017-05-07T06:56:02Z</time>
      </trkpt>
      <trkpt lat="43.72822" lon="3.4465">
        <ele>473.4</ele>
        <time>2017-05-07T06:56:06Z</time>
      </trkpt>
      <trkpt lat="43.7283" lon="3.44644">
        <ele>473.7</ele>
        <time>2017-05-07T06:56:09Z</time>
      </trkpt>
      <trkpt lat="43.72837" lon="3.4464">
        <ele>474.3</ele>
        <time>2017-05-07T06:56:13Z</time>
      </trkpt>
      <trkpt lat="43.72844" lon="3.44635">
        <ele>474.7</ele>
        <time>2017-05-07T06:56:16Z</time>
      </trkpt>
      <trkpt lat="43.72851" lon="3.44629">
        <ele>475.3</ele>
        <time>2017-05-07T06:56:19Z</time>
      </trkpt>
      <trkpt lat="43.72858" lon="3.44625">
        <ele>476</ele>
        <time>2017-05-07T06:56:22Z</time>
      </trkpt>
      <trkpt lat="43.72865" lon="3.44622">
        <ele>477.1</ele>
        <time>2017-05-07T06:56:25Z</time>
      </trkpt>
      <trkpt lat="43.72873" lon="3.44619">
        <ele>478.3</ele>
        <time>2017-05-07T06:56:28Z</time>
      </trkpt>
      <trkpt lat="43.72883" lon="3.44616">
        <ele>479.9</ele>
        <time>2017-05-07T06:56:32Z</time>
      </trkpt>
      <trkpt lat="43.72891" lon="3.44614">
        <ele>480.7</ele>
        <time>2017-05-07T06:56:34Z</time>
      </trkpt>
      <trkpt lat="43.72899" lon="3.44609">
        <ele>482.3</ele>
        <time>2017-05-07T06:56:38Z</time>
      </trkpt>
      <trkpt lat="43.72906" lon="3.44605">
        <ele>483.5</ele>
        <time>2017-05-07T06:56:41Z</time>
      </trkpt>
      <trkpt lat="43.72914" lon="3.44602">
        <ele>485.1</ele>
        <time>2017-05-07T06:56:45Z</time>
      </trkpt>
      <trkpt lat="43.72923" lon="3.44601">
        <ele>486.5</ele>
        <time>2017-05-07T06:56:48Z</time>
      </trkpt>
      <trkpt lat="43.72931" lon="3.44599">
        <ele>487.8</ele>
        <time>2017-05-07T06:56:51Z</time>
      </trkpt>
      <trkpt lat="43.72938" lon="3.44595">
        <ele>489.1</ele>
        <time>2017-05-07T06:56:54Z</time>
      </trkpt>
      <trkpt lat="43.72946" lon="3.44591">
        <ele>490.1</ele>
        <time>2017-05-07T06:56:57Z</time>
      </trkpt>
      <trkpt lat="43.72954" lon="3.44584">
        <ele>491.1</ele>
        <time>2017-05-07T06:57:00Z</time>
      </trkpt>
      <trkpt lat="43.72961" lon="3.4458">
        <ele>492.2</ele>
        <time>2017-05-07T06:57:04Z</time>
      </trkpt>
      <trkpt lat="43.72969" lon="3.44576">
        <ele>493.1</ele>
        <time>2017-05-07T06:57:07Z</time>
      </trkpt>
      <trkpt lat="43.72976" lon="3.44573">
        <ele>494.1</ele>
        <time>2017-05-07T06:57:10Z</time>
      </trkpt>
      <trkpt lat="43.72984" lon="3.44567">
        <ele>495</ele>
        <time>2017-05-07T06:57:13Z</time>
      </trkpt>
      <trkpt lat="43.72993" lon="3.44565">
        <ele>495.8</ele>
        <time>2017-05-07T06:57:16Z</time>
      </trkpt>
      <trkpt lat="43.73001" lon="3.44563">
        <ele>496.6</ele>
        <time>2017-05-07T06:57:20Z</time>
      </trkpt>
      <trkpt lat="43.73008" lon="3.44562">
        <ele>497.1</ele>
        <time>2017-05-07T06:57:23Z</time>
      </trkpt>
      <trkpt lat="43.73019" lon="3.44564">
        <ele>497.4</ele>
        <time>2017-05-07T06:57:26Z</time>
      </trkpt>
      <trkpt lat="43.73026" lon="3.44568">
        <ele>497.5</ele>
        <time>2017-05-07T06:57:29Z</time>
      </trkpt>
      <trkpt lat="43.73032" lon="3.44575">
        <ele>497.3</ele>
        <time>2017-05-07T06:57:32Z</time>
      </trkpt>
      <trkpt lat="43.73037" lon="3.44583">
        <ele>497.1</ele>
        <time>2017-05-07T06:57:35Z</time>
      </trkpt>
      <trkpt lat="43.73042" lon="3.44591">
        <ele>497</ele>
        <time>2017-05-07T06:57:38Z</time>
      </trkpt>
      <trkpt lat="43.73048" lon="3.44597">
        <ele>496.9</ele>
        <time>2017-05-07T06:57:41Z</time>
      </trkpt>
      <trkpt lat="43.73053" lon="3.44607">
        <ele>496.7</ele>
        <time>2017-05-07T06:57:45Z</time>
      </trkpt>
      <trkpt lat="43.73059" lon="3.44617">
        <ele>496.4</ele>
        <time>2017-05-07T06:57:49Z</time>
      </trkpt>
      <trkpt lat="43.73065" lon="3.44627">
        <ele>496.2</ele>
        <time>2017-05-07T06:57:53Z</time>
      </trkpt>
      <trkpt lat="43.73071" lon="3.44637">
        <ele>496.2</ele>
        <time>2017-05-07T06:57:56Z</time>
      </trkpt>
      <trkpt lat="43.73075" lon="3.44646">
        <ele>496</ele>
        <time>2017-05-07T06:57:59Z</time>
      </trkpt>
      <trkpt lat="43.73079" lon="3.44659">
        <ele>495.9</ele>
        <time>2017-05-07T06:58:03Z</time>
      </trkpt>
      <trkpt lat="43.73082" lon="3.4467">
        <ele>495.8</ele>
        <time>2017-05-07T06:58:06Z</time>
      </trkpt>
      <trkpt lat="43.73084" lon="3.44681">
        <ele>495.8</ele>
        <time>2017-05-07T06:58:10Z</time>
      </trkpt>
      <trkpt lat="43.73086" lon="3.44691">
        <ele>495.7</ele>
        <time>2017-05-07T06:58:13Z</time>
      </trkpt>
      <trkpt lat="43.73088" lon="3.44703">
        <ele>495.5</ele>
        <time>2017-05-07T06:58:17Z</time>
      </trkpt>
      <trkpt lat="43.7309" lon="3.44714">
        <ele>495.5</ele>
        <time>2017-05-07T06:58:20Z</time>
      </trkpt>
      <trkpt lat="43.73094" lon="3.44726">
        <ele>495.5</ele>
        <time>2017-05-07T06:58:24Z</time>
      </trkpt>
      <trkpt lat="43.73097" lon="3.44737">
        <ele>495.6</ele>
        <time>2017-05-07T06:58:28Z</time>
      </trkpt>
      <trkpt lat="43.73096" lon="3.44748">
        <ele>495.9</ele>
        <time>2017-05-07T06:58:31Z</time>
      </trkpt>
      <trkpt lat="43.73097" lon="3.44759">
        <ele>496.3</ele>
        <time>2017-05-07T06:58:34Z</time>
      </trkpt>
      <trkpt lat="43.73098" lon="3.44771">
        <ele>496.7</ele>
        <time>2017-05-07T06:58:37Z</time>
      </trkpt>
      <trkpt lat="43.73099" lon="3.44784">
        <ele>497.1</ele>
        <time>2017-05-07T06:58:40Z</time>
      </trkpt>
      <trkpt lat="43.73102" lon="3.44795">
        <ele>497.4</ele>
        <time>2017-05-07T06:58:43Z</time>
      </trkpt>
      <trkpt lat="43.73106" lon="3.44806">
        <ele>497.7</ele>
        <time>2017-05-07T06:58:46Z</time>
      </trkpt>
      <trkpt lat="43.73111" lon="3.44815">
        <ele>497.9</ele>
        <time>2017-05-07T06:58:49Z</time>
      </trkpt>
      <trkpt lat="43.73117" lon="3.44823">
        <ele>498.1</ele>
        <time>2017-05-07T06:58:53Z</time>
      </trkpt>
      <trkpt lat="43.73123" lon="3.4483">
        <ele>498.3</ele>
        <time>2017-05-07T06:58:56Z</time>
      </trkpt>
      <trkpt lat="43.73131" lon="3.44839">
        <ele>498.8</ele>
        <time>2017-05-07T06:58:59Z</time>
      </trkpt>
      <trkpt lat="43.73136" lon="3.44847">
        <ele>499</ele>
        <time>2017-05-07T06:59:01Z</time>
      </trkpt>
      <trkpt lat="43.73144" lon="3.44857">
        <ele>500.2</ele>
        <time>2017-05-07T06:59:03Z</time>
      </trkpt>
      <trkpt lat="43.73153" lon="3.44864">
        <ele>501.2</ele>
        <time>2017-05-07T06:59:05Z</time>
      </trkpt>
      <trkpt lat="43.73162" lon="3.44865">
        <ele>502.1</ele>
        <time>2017-05-07T06:59:07Z</time>
      </trkpt>
      <trkpt lat="43.73173" lon="3.44866">
        <ele>502.8</ele>
        <time>2017-05-07T06:59:09Z</time>
      </trkpt>
      <trkpt lat="43.73183" lon="3.44868">
        <ele>503</ele>
        <time>2017-05-07T06:59:11Z</time>
      </trkpt>
      <trkpt lat="43.73192" lon="3.44872">
        <ele>502.7</ele>
        <time>2017-05-07T06:59:13Z</time>
      </trkpt>
      <trkpt lat="43.73201" lon="3.44875">
        <ele>502.4</ele>
        <time>2017-05-07T06:59:15Z</time>
      </trkpt>
      <trkpt lat="43.7321" lon="3.44879">
        <ele>501.8</ele>
        <time>2017-05-07T06:59:17Z</time>
      </trkpt>
      <trkpt lat="43.73222" lon="3.44884">
        <ele>501.4</ele>
        <time>2017-05-07T06:59:19Z</time>
      </trkpt>
      <trkpt lat="43.73234" lon="3.44886">
        <ele>501</ele>
        <time>2017-05-07T06:59:21Z</time>
      </trkpt>
      <trkpt lat="43.73248" lon="3.44887">
        <ele>501.4</ele>
        <time>2017-05-07T06:59:23Z</time>
      </trkpt>
      <trkpt lat="43.73256" lon="3.44888">
        <ele>501.5</ele>
        <time>2017-05-07T06:59:24Z</time>
      </trkpt>
      <trkpt lat="43.73263" lon="3.44888">
        <ele>501.4</ele>
        <time>2017-05-07T06:59:25Z</time>
      </trkpt>
      <trkpt lat="43.73271" lon="3.44888">
        <ele>501.2</ele>
        <time>2017-05-07T06:59:26Z</time>
      </trkpt>
      <trkpt lat="43.73279" lon="3.44887">
        <ele>500.6</ele>
        <time>2017-05-07T06:59:27Z</time>
      </trkpt>
      <trkpt lat="43.73287" lon="3.44886">
        <ele>500.4</ele>
        <time>2017-05-07T06:59:28Z</time>
      </trkpt>
      <trkpt lat="43.73296" lon="3.44884">
        <ele>500.5</ele>
        <time>2017-05-07T06:59:29Z</time>
      </trkpt>
      <trkpt lat="43.73305" lon="3.44882">
        <ele>500.6</ele>
        <time>2017-05-07T06:59:30Z</time>
      </trkpt>
      <trkpt lat="43.73315" lon="3.44879">
        <ele>500.4</ele>
        <time>2017-05-07T06:59:31Z</time>
      </trkpt>
      <trkpt lat="43.73324" lon="3.44873">
        <ele>499.9</ele>
        <time>2017-05-07T06:59:32Z</time>
      </trkpt>
      <trkpt lat="43.73332" lon="3.44868">
        <ele>499.3</ele>
        <time>2017-05-07T06:59:33Z</time>
      </trkpt>
      <trkpt lat="43.7334" lon="3.44862">
        <ele>498.7</ele>
        <time>2017-05-07T06:59:34Z</time>
      </trkpt>
      <trkpt lat="43.73347" lon="3.44857">
        <ele>497.9</ele>
        <time>2017-05-07T06:59:35Z</time>
      </trkpt>
      <trkpt lat="43.73354" lon="3.44852">
        <ele>497.9</ele>
        <time>2017-05-07T06:59:36Z</time>
      </trkpt>
      <trkpt lat="43.73361" lon="3.44848">
        <ele>497.7</ele>
        <time>2017-05-07T06:59:37Z</time>
      </trkpt>
      <trkpt lat="43.73373" lon="3.4484">
        <ele>496.6</ele>
        <time>2017-05-07T06:59:39Z</time>
      </trkpt>
      <trkpt lat="43.73383" lon="3.44834">
        <ele>496.1</ele>
        <time>2017-05-07T06:59:41Z</time>
      </trkpt>
      <trkpt lat="43.73395" lon="3.44829">
        <ele>495.1</ele>
        <time>2017-05-07T06:59:43Z</time>
      </trkpt>
      <trkpt lat="43.73402" lon="3.44826">
        <ele>494.8</ele>
        <time>2017-05-07T06:59:44Z</time>
      </trkpt>
      <trkpt lat="43.73415" lon="3.44822">
        <ele>494.1</ele>
        <time>2017-05-07T06:59:46Z</time>
      </trkpt>
      <trkpt lat="43.73422" lon="3.4482">
        <ele>493.9</ele>
        <time>2017-05-07T06:59:47Z</time>
      </trkpt>
      <trkpt lat="43.73429" lon="3.44819">
        <ele>493.3</ele>
        <time>2017-05-07T06:59:48Z</time>
      </trkpt>
      <trkpt lat="43.73437" lon="3.44817">
        <ele>492.9</ele>
        <time>2017-05-07T06:59:49Z</time>
      </trkpt>
      <trkpt lat="43.73445" lon="3.44816">
        <ele>492.6</ele>
        <time>2017-05-07T06:59:50Z</time>
      </trkpt>
      <trkpt lat="43.73452" lon="3.44814">
        <ele>492.1</ele>
        <time>2017-05-07T06:59:51Z</time>
      </trkpt>
      <trkpt lat="43.73461" lon="3.44812">
        <ele>491.8</ele>
        <time>2017-05-07T06:59:52Z</time>
      </trkpt>
      <trkpt lat="43.73475" lon="3.4481">
        <ele>490.6</ele>
        <time>2017-05-07T06:59:54Z</time>
      </trkpt>
      <trkpt lat="43.73483" lon="3.44808">
        <ele>489.9</ele>
        <time>2017-05-07T06:59:55Z</time>
      </trkpt>
      <trkpt lat="43.73497" lon="3.44802">
        <ele>488.5</ele>
        <time>2017-05-07T06:59:57Z</time>
      </trkpt>
      <trkpt lat="43.73505" lon="3.44797">
        <ele>488.3</ele>
        <time>2017-05-07T06:59:58Z</time>
      </trkpt>
      <trkpt lat="43.73511" lon="3.44788">
        <ele>487.9</ele>
        <time>2017-05-07T06:59:59Z</time>
      </trkpt>
      <trkpt lat="43.73518" lon="3.44779">
        <ele>487.5</ele>
        <time>2017-05-07T07:00:00Z</time>
      </trkpt>
      <trkpt lat="43.73523" lon="3.44769">
        <ele>487.3</ele>
        <time>2017-05-07T07:00:01Z</time>
      </trkpt>
      <trkpt lat="43.7353" lon="3.44761">
        <ele>486.6</ele>
        <time>2017-05-07T07:00:02Z</time>
      </trkpt>
      <trkpt lat="43.73535" lon="3.44754">
        <ele>485.7</ele>
        <time>2017-05-07T07:00:03Z</time>
      </trkpt>
      <trkpt lat="43.7354" lon="3.44746">
        <ele>484.8</ele>
        <time>2017-05-07T07:00:04Z</time>
      </trkpt>
      <trkpt lat="43.73545" lon="3.44738">
        <ele>484</ele>
        <time>2017-05-07T07:00:05Z</time>
      </trkpt>
      <trkpt lat="43.73552" lon="3.44733">
        <ele>483.3</ele>
        <time>2017-05-07T07:00:06Z</time>
      </trkpt>
      <trkpt lat="43.7356" lon="3.4473">
        <ele>482.5</ele>
        <time>2017-05-07T07:00:07Z</time>
      </trkpt>
      <trkpt lat="43.73568" lon="3.44727">
        <ele>481.4</ele>
        <time>2017-05-07T07:00:08Z</time>
      </trkpt>
      <trkpt lat="43.73576" lon="3.44726">
        <ele>480.9</ele>
        <time>2017-05-07T07:00:09Z</time>
      </trkpt>
      <trkpt lat="43.73586" lon="3.44726">
        <ele>480.5</ele>
        <time>2017-05-07T07:00:10Z</time>
      </trkpt>
      <trkpt lat="43.73595" lon="3.44726">
        <ele>480.2</ele>
        <time>2017-05-07T07:00:11Z</time>
      </trkpt>
      <trkpt lat="43.73604" lon="3.44726">
        <ele>479.4</ele>
        <time>2017-05-07T07:00:12Z</time>
      </trkpt>
      <trkpt lat="43.73613" lon="3.44726">
        <ele>478.4</ele>
        <time>2017-05-07T07:00:13Z</time>
      </trkpt>
      <trkpt lat="43.73622" lon="3.44723">
        <ele>477.8</ele>
        <time>2017-05-07T07:00:14Z</time>
      </trkpt>
      <trkpt lat="43.73632" lon="3.44718">
        <ele>476.8</ele>
        <time>2017-05-07T07:00:15Z</time>
      </trkpt>
      <trkpt lat="43.73641" lon="3.4471">
        <ele>475.7</ele>
        <time>2017-05-07T07:00:16Z</time>
      </trkpt>
      <trkpt lat="43.73648" lon="3.44703">
        <ele>475.2</ele>
        <time>2017-05-07T07:00:17Z</time>
      </trkpt>
      <trkpt lat="43.73655" lon="3.44694">
        <ele>474.5</ele>
        <time>2017-05-07T07:00:18Z</time>
      </trkpt>
      <trkpt lat="43.73662" lon="3.44686">
        <ele>473.5</ele>
        <time>2017-05-07T07:00:19Z</time>
      </trkpt>
      <trkpt lat="43.73669" lon="3.44678">
        <ele>472.6</ele>
        <time>2017-05-07T07:00:20Z</time>
      </trkpt>
      <trkpt lat="43.73675" lon="3.4467">
        <ele>471.1</ele>
        <time>2017-05-07T07:00:21Z</time>
      </trkpt>
      <trkpt lat="43.73682" lon="3.44663">
        <ele>470.6</ele>
        <time>2017-05-07T07:00:22Z</time>
      </trkpt>
      <trkpt lat="43.73691" lon="3.44657">
        <ele>470</ele>
        <time>2017-05-07T07:00:23Z</time>
      </trkpt>
      <trkpt lat="43.73699" lon="3.44652">
        <ele>469.3</ele>
        <time>2017-05-07T07:00:24Z</time>
      </trkpt>
      <trkpt lat="43.73706" lon="3.44648">
        <ele>469.3</ele>
        <time>2017-05-07T07:00:25Z</time>
      </trkpt>
      <trkpt lat="43.73715" lon="3.44644">
        <ele>468.9</ele>
        <time>2017-05-07T07:00:27Z</time>
      </trkpt>
      <trkpt lat="43.73723" lon="3.4464">
        <ele>467.9</ele>
        <time>2017-05-07T07:00:27Z</time>
      </trkpt>
      <trkpt lat="43.73731" lon="3.44637">
        <ele>467.2</ele>
        <time>2017-05-07T07:00:28Z</time>
      </trkpt>
      <trkpt lat="43.7374" lon="3.44635">
        <ele>466.6</ele>
        <time>2017-05-07T07:00:29Z</time>
      </trkpt>
      <trkpt lat="43.73748" lon="3.44633">
        <ele>465.7</ele>
        <time>2017-05-07T07:00:30Z</time>
      </trkpt>
      <trkpt lat="43.73755" lon="3.44629">
        <ele>465.3</ele>
        <time>2017-05-07T07:00:31Z</time>
      </trkpt>
      <trkpt lat="43.73763" lon="3.44626">
        <ele>465</ele>
        <time>2017-05-07T07:00:32Z</time>
      </trkpt>
      <trkpt lat="43.73772" lon="3.44619">
        <ele>464.4</ele>
        <time>2017-05-07T07:00:33Z</time>
      </trkpt>
      <trkpt lat="43.73779" lon="3.44615">
        <ele>463.9</ele>
        <time>2017-05-07T07:00:34Z</time>
      </trkpt>
      <trkpt lat="43.73787" lon="3.4461">
        <ele>463.5</ele>
        <time>2017-05-07T07:00:35Z</time>
      </trkpt>
      <trkpt lat="43.73794" lon="3.44605">
        <ele>463.2</ele>
        <time>2017-05-07T07:00:36Z</time>
      </trkpt>
      <trkpt lat="43.73801" lon="3.44601">
        <ele>462.5</ele>
        <time>2017-05-07T07:00:37Z</time>
      </trkpt>
      <trkpt lat="43.73809" lon="3.44596">
        <ele>462.1</ele>
        <time>2017-05-07T07:00:38Z</time>
      </trkpt>
      <trkpt lat="43.73816" lon="3.44592">
        <ele>460.9</ele>
        <time>2017-05-07T07:00:39Z</time>
      </trkpt>
      <trkpt lat="43.73823" lon="3.44592">
        <ele>459.5</ele>
        <time>2017-05-07T07:00:40Z</time>
      </trkpt>
      <trkpt lat="43.73831" lon="3.44591">
        <ele>458</ele>
        <time>2017-05-07T07:00:41Z</time>
      </trkpt>
      <trkpt lat="43.73839" lon="3.44591">
        <ele>456.5</ele>
        <time>2017-05-07T07:00:42Z</time>
      </trkpt>
      <trkpt lat="43.73847" lon="3.44591">
        <ele>455</ele>
        <time>2017-05-07T07:00:43Z</time>
      </trkpt>
      <trkpt lat="43.73855" lon="3.44591">
        <ele>453.7</ele>
        <time>2017-05-07T07:00:44Z</time>
      </trkpt>
      <trkpt lat="43.73863" lon="3.44592">
        <ele>452.3</ele>
        <time>2017-05-07T07:00:45Z</time>
      </trkpt>
      <trkpt lat="43.73872" lon="3.44594">
        <ele>451</ele>
        <time>2017-05-07T07:00:46Z</time>
      </trkpt>
      <trkpt lat="43.73879" lon="3.44596">
        <ele>450</ele>
        <time>2017-05-07T07:00:47Z</time>
      </trkpt>
      <trkpt lat="43.73888" lon="3.44598">
        <ele>449.1</ele>
        <time>2017-05-07T07:00:48Z</time>
      </trkpt>
      <trkpt lat="43.73895" lon="3.44601">
        <ele>448.4</ele>
        <time>2017-05-07T07:00:49Z</time>
      </trkpt>
      <trkpt lat="43.73908" lon="3.44605">
        <ele>447.5</ele>
        <time>2017-05-07T07:00:51Z</time>
      </trkpt>
      <trkpt lat="43.73922" lon="3.44608">
        <ele>447</ele>
        <time>2017-05-07T07:00:53Z</time>
      </trkpt>
      <trkpt lat="43.73935" lon="3.44611">
        <ele>447.1</ele>
        <time>2017-05-07T07:00:56Z</time>
      </trkpt>
      <trkpt lat="43.73946" lon="3.44615">
        <ele>447.2</ele>
        <time>2017-05-07T07:00:57Z</time>
      </trkpt>
      <trkpt lat="43.7396" lon="3.44617">
        <ele>447.5</ele>
        <time>2017-05-07T07:00:59Z</time>
      </trkpt>
      <trkpt lat="43.73971" lon="3.44621">
        <ele>447.8</ele>
        <time>2017-05-07T07:01:01Z</time>
      </trkpt>
      <trkpt lat="43.73984" lon="3.44624">
        <ele>448.2</ele>
        <time>2017-05-07T07:01:03Z</time>
      </trkpt>
      <trkpt lat="43.73996" lon="3.44627">
        <ele>448.8</ele>
        <time>2017-05-07T07:01:05Z</time>
      </trkpt>
      <trkpt lat="43.74008" lon="3.44629">
        <ele>449.1</ele>
        <time>2017-05-07T07:01:07Z</time>
      </trkpt>
      <trkpt lat="43.74021" lon="3.44633">
        <ele>449.3</ele>
        <time>2017-05-07T07:01:09Z</time>
      </trkpt>
      <trkpt lat="43.74035" lon="3.44637">
        <ele>449.3</ele>
        <time>2017-05-07T07:01:11Z</time>
      </trkpt>
      <trkpt lat="43.74042" lon="3.44642">
        <ele>449.7</ele>
        <time>2017-05-07T07:01:12Z</time>
      </trkpt>
      <trkpt lat="43.74049" lon="3.44646">
        <ele>449.8</ele>
        <time>2017-05-07T07:01:13Z</time>
      </trkpt>
      <trkpt lat="43.74057" lon="3.44653">
        <ele>449.5</ele>
        <time>2017-05-07T07:01:14Z</time>
      </trkpt>
      <trkpt lat="43.74064" lon="3.44658">
        <ele>448.9</ele>
        <time>2017-05-07T07:01:15Z</time>
      </trkpt>
      <trkpt lat="43.74072" lon="3.44661">
        <ele>448.3</ele>
        <time>2017-05-07T07:01:16Z</time>
      </trkpt>
      <trkpt lat="43.7408" lon="3.44663">
        <ele>447.5</ele>
        <time>2017-05-07T07:01:17Z</time>
      </trkpt>
      <trkpt lat="43.74088" lon="3.44662">
        <ele>446.4</ele>
        <time>2017-05-07T07:01:18Z</time>
      </trkpt>
      <trkpt lat="43.74096" lon="3.44661">
        <ele>445.4</ele>
        <time>2017-05-07T07:01:19Z</time>
      </trkpt>
      <trkpt lat="43.74105" lon="3.4466">
        <ele>444.2</ele>
        <time>2017-05-07T07:01:20Z</time>
      </trkpt>
      <trkpt lat="43.74114" lon="3.4466">
        <ele>443.1</ele>
        <time>2017-05-07T07:01:21Z</time>
      </trkpt>
      <trkpt lat="43.74124" lon="3.4466">
        <ele>442</ele>
        <time>2017-05-07T07:01:22Z</time>
      </trkpt>
      <trkpt lat="43.74133" lon="3.44664">
        <ele>441</ele>
        <time>2017-05-07T07:01:23Z</time>
      </trkpt>
      <trkpt lat="43.74143" lon="3.44667">
        <ele>440.1</ele>
        <time>2017-05-07T07:01:24Z</time>
      </trkpt>
      <trkpt lat="43.74152" lon="3.44671">
        <ele>439.7</ele>
        <time>2017-05-07T07:01:25Z</time>
      </trkpt>
      <trkpt lat="43.74159" lon="3.44678">
        <ele>439.5</ele>
        <time>2017-05-07T07:01:26Z</time>
      </trkpt>
      <trkpt lat="43.74167" lon="3.44685">
        <ele>439.2</ele>
        <time>2017-05-07T07:01:27Z</time>
      </trkpt>
      <trkpt lat="43.74173" lon="3.44692">
        <ele>439.3</ele>
        <time>2017-05-07T07:01:28Z</time>
      </trkpt>
      <trkpt lat="43.7418" lon="3.447">
        <ele>439.1</ele>
        <time>2017-05-07T07:01:29Z</time>
      </trkpt>
      <trkpt lat="43.74185" lon="3.44709">
        <ele>438.5</ele>
        <time>2017-05-07T07:01:30Z</time>
      </trkpt>
      <trkpt lat="43.7419" lon="3.44723">
        <ele>437.2</ele>
        <time>2017-05-07T07:01:32Z</time>
      </trkpt>
      <trkpt lat="43.74198" lon="3.44732">
        <ele>436.9</ele>
        <time>2017-05-07T07:01:36Z</time>
      </trkpt>
      <trkpt lat="43.74203" lon="3.44735">
        <ele>437</ele>
        <time>2017-05-07T07:01:43Z</time>
      </trkpt>
      <trkpt lat="43.74211" lon="3.4474">
        <ele>437.4</ele>
        <time>2017-05-07T07:01:46Z</time>
      </trkpt>
      <trkpt lat="43.74219" lon="3.44741">
        <ele>438</ele>
        <time>2017-05-07T07:01:49Z</time>
      </trkpt>
      <trkpt lat="43.74226" lon="3.44742">
        <ele>438.7</ele>
        <time>2017-05-07T07:01:53Z</time>
      </trkpt>
      <trkpt lat="43.74234" lon="3.44746">
        <ele>439.7</ele>
        <time>2017-05-07T07:01:57Z</time>
      </trkpt>
      <trkpt lat="43.74241" lon="3.44749">
        <ele>440.9</ele>
        <time>2017-05-07T07:02:02Z</time>
      </trkpt>
      <trkpt lat="43.74248" lon="3.44754">
        <ele>441.7</ele>
        <time>2017-05-07T07:02:06Z</time>
      </trkpt>
      <trkpt lat="43.74255" lon="3.44758">
        <ele>442.5</ele>
        <time>2017-05-07T07:02:10Z</time>
      </trkpt>
      <trkpt lat="43.74261" lon="3.44765">
        <ele>443.5</ele>
        <time>2017-05-07T07:02:15Z</time>
      </trkpt>
      <trkpt lat="43.74267" lon="3.4477">
        <ele>444.5</ele>
        <time>2017-05-07T07:02:20Z</time>
      </trkpt>
      <trkpt lat="43.74275" lon="3.44779">
        <ele>445.5</ele>
        <time>2017-05-07T07:02:25Z</time>
      </trkpt>
      <trkpt lat="43.74279" lon="3.44787">
        <ele>446.5</ele>
        <time>2017-05-07T07:02:29Z</time>
      </trkpt>
      <trkpt lat="43.74285" lon="3.44795">
        <ele>447.8</ele>
        <time>2017-05-07T07:02:33Z</time>
      </trkpt>
      <trkpt lat="43.74289" lon="3.44803">
        <ele>448.6</ele>
        <time>2017-05-07T07:02:38Z</time>
      </trkpt>
      <trkpt lat="43.74294" lon="3.44815">
        <ele>450</ele>
        <time>2017-05-07T07:02:45Z</time>
      </trkpt>
      <trkpt lat="43.74301" lon="3.44824">
        <ele>451.3</ele>
        <time>2017-05-07T07:02:51Z</time>
      </trkpt>
      <trkpt lat="43.74306" lon="3.44832">
        <ele>452.7</ele>
        <time>2017-05-07T07:02:56Z</time>
      </trkpt>
      <trkpt lat="43.74311" lon="3.44841">
        <ele>453.9</ele>
        <time>2017-05-07T07:03:03Z</time>
      </trkpt>
      <trkpt lat="43.74318" lon="3.4485">
        <ele>454.6</ele>
        <time>2017-05-07T07:03:07Z</time>
      </trkpt>
      <trkpt lat="43.7432" lon="3.44855">
        <ele>455.8</ele>
        <time>2017-05-07T07:03:14Z</time>
      </trkpt>
      <trkpt lat="43.7431" lon="3.44853">
        <ele>456.9</ele>
        <time>2017-05-07T07:03:19Z</time>
      </trkpt>
      <trkpt lat="43.7431" lon="3.44873">
        <ele>459.9</ele>
        <time>2017-05-07T07:03:39Z</time>
      </trkpt>
      <trkpt lat="43.74315" lon="3.44884">
        <ele>460.6</ele>
        <time>2017-05-07T07:03:43Z</time>
      </trkpt>
      <trkpt lat="43.74318" lon="3.44894">
        <ele>461.1</ele>
        <time>2017-05-07T07:03:49Z</time>
      </trkpt>
      <trkpt lat="43.74323" lon="3.44903">
        <ele>461.3</ele>
        <time>2017-05-07T07:03:52Z</time>
      </trkpt>
      <trkpt lat="43.74326" lon="3.4491">
        <ele>461.9</ele>
        <time>2017-05-07T07:03:59Z</time>
      </trkpt>
      <trkpt lat="43.7433" lon="3.4492">
        <ele>462.3</ele>
        <time>2017-05-07T07:04:03Z</time>
      </trkpt>
      <trkpt lat="43.74336" lon="3.44927">
        <ele>463.1</ele>
        <time>2017-05-07T07:04:08Z</time>
      </trkpt>
      <trkpt lat="43.74343" lon="3.44933">
        <ele>464.3</ele>
        <time>2017-05-07T07:04:13Z</time>
      </trkpt>
      <trkpt lat="43.74348" lon="3.44941">
        <ele>465.7</ele>
        <time>2017-05-07T07:04:18Z</time>
      </trkpt>
      <trkpt lat="43.74346" lon="3.4495">
        <ele>467.4</ele>
        <time>2017-05-07T07:04:25Z</time>
      </trkpt>
      <trkpt lat="43.7434" lon="3.44942">
        <ele>468.5</ele>
        <time>2017-05-07T07:04:30Z</time>
      </trkpt>
      <trkpt lat="43.74333" lon="3.44932">
        <ele>469</ele>
        <time>2017-05-07T07:04:33Z</time>
      </trkpt>
      <trkpt lat="43.74325" lon="3.44923">
        <ele>470.3</ele>
        <time>2017-05-07T07:04:39Z</time>
      </trkpt>
      <trkpt lat="43.74318" lon="3.44916">
        <ele>470.6</ele>
        <time>2017-05-07T07:04:41Z</time>
      </trkpt>
      <trkpt lat="43.74311" lon="3.44912">
        <ele>471.4</ele>
        <time>2017-05-07T07:04:45Z</time>
      </trkpt>
      <trkpt lat="43.74302" lon="3.44907">
        <ele>472.3</ele>
        <time>2017-05-07T07:04:50Z</time>
      </trkpt>
      <trkpt lat="43.74295" lon="3.449">
        <ele>472.9</ele>
        <time>2017-05-07T07:04:54Z</time>
      </trkpt>
      <trkpt lat="43.74287" lon="3.44895">
        <ele>473.3</ele>
        <time>2017-05-07T07:04:57Z</time>
      </trkpt>
      <trkpt lat="43.7428" lon="3.44894">
        <ele>473.7</ele>
        <time>2017-05-07T07:05:01Z</time>
      </trkpt>
      <trkpt lat="43.74273" lon="3.449">
        <ele>474.5</ele>
        <time>2017-05-07T07:05:07Z</time>
      </trkpt>
      <trkpt lat="43.74278" lon="3.44908">
        <ele>475.2</ele>
        <time>2017-05-07T07:05:12Z</time>
      </trkpt>
      <trkpt lat="43.74283" lon="3.44916">
        <ele>476</ele>
        <time>2017-05-07T07:05:18Z</time>
      </trkpt>
      <trkpt lat="43.7429" lon="3.44923">
        <ele>477.5</ele>
        <time>2017-05-07T07:05:23Z</time>
      </trkpt>
      <trkpt lat="43.74297" lon="3.44928">
        <ele>478.3</ele>
        <time>2017-05-07T07:05:27Z</time>
      </trkpt>
      <trkpt lat="43.74305" lon="3.44935">
        <ele>478.9</ele>
        <time>2017-05-07T07:05:31Z</time>
      </trkpt>
      <trkpt lat="43.74311" lon="3.44943">
        <ele>479.4</ele>
        <time>2017-05-07T07:05:34Z</time>
      </trkpt>
      <trkpt lat="43.74316" lon="3.44951">
        <ele>480.6</ele>
        <time>2017-05-07T07:05:39Z</time>
      </trkpt>
      <trkpt lat="43.74321" lon="3.4496">
        <ele>481.3</ele>
        <time>2017-05-07T07:05:43Z</time>
      </trkpt>
      <trkpt lat="43.74325" lon="3.44969">
        <ele>482.1</ele>
        <time>2017-05-07T07:05:49Z</time>
      </trkpt>
      <trkpt lat="43.74331" lon="3.44977">
        <ele>482.6</ele>
        <time>2017-05-07T07:05:53Z</time>
      </trkpt>
      <trkpt lat="43.74335" lon="3.44986">
        <ele>483.3</ele>
        <time>2017-05-07T07:05:57Z</time>
      </trkpt>
      <trkpt lat="43.74338" lon="3.44995">
        <ele>483.9</ele>
        <time>2017-05-07T07:06:00Z</time>
      </trkpt>
      <trkpt lat="43.74345" lon="3.45003">
        <ele>484.4</ele>
        <time>2017-05-07T07:06:03Z</time>
      </trkpt>
      <trkpt lat="43.74351" lon="3.45009">
        <ele>485.4</ele>
        <time>2017-05-07T07:06:08Z</time>
      </trkpt>
      <trkpt lat="43.74356" lon="3.45018">
        <ele>486.5</ele>
        <time>2017-05-07T07:06:13Z</time>
      </trkpt>
      <trkpt lat="43.74362" lon="3.45024">
        <ele>487.4</ele>
        <time>2017-05-07T07:06:17Z</time>
      </trkpt>
      <trkpt lat="43.74367" lon="3.45034">
        <ele>488.3</ele>
        <time>2017-05-07T07:06:21Z</time>
      </trkpt>
      <trkpt lat="43.74373" lon="3.45042">
        <ele>488.7</ele>
        <time>2017-05-07T07:06:24Z</time>
      </trkpt>
      <trkpt lat="43.74378" lon="3.45051">
        <ele>489.8</ele>
        <time>2017-05-07T07:06:29Z</time>
      </trkpt>
      <trkpt lat="43.74385" lon="3.45059">
        <ele>491.3</ele>
        <time>2017-05-07T07:06:34Z</time>
      </trkpt>
      <trkpt lat="43.74391" lon="3.45067">
        <ele>492.9</ele>
        <time>2017-05-07T07:06:40Z</time>
      </trkpt>
      <trkpt lat="43.74398" lon="3.45073">
        <ele>494.1</ele>
        <time>2017-05-07T07:06:44Z</time>
      </trkpt>
      <trkpt lat="43.74407" lon="3.45076">
        <ele>495.8</ele>
        <time>2017-05-07T07:06:49Z</time>
      </trkpt>
      <trkpt lat="43.74415" lon="3.45077">
        <ele>496.9</ele>
        <time>2017-05-07T07:06:53Z</time>
      </trkpt>
      <trkpt lat="43.74422" lon="3.45074">
        <ele>498.2</ele>
        <time>2017-05-07T07:06:57Z</time>
      </trkpt>
      <trkpt lat="43.74425" lon="3.45064">
        <ele>499.3</ele>
        <time>2017-05-07T07:07:01Z</time>
      </trkpt>
      <trkpt lat="43.74424" lon="3.45054">
        <ele>500.4</ele>
        <time>2017-05-07T07:07:06Z</time>
      </trkpt>
      <trkpt lat="43.7442" lon="3.45045">
        <ele>501.4</ele>
        <time>2017-05-07T07:07:10Z</time>
      </trkpt>
      <trkpt lat="43.74416" lon="3.45035">
        <ele>502.7</ele>
        <time>2017-05-07T07:07:15Z</time>
      </trkpt>
      <trkpt lat="43.74413" lon="3.45023">
        <ele>504.4</ele>
        <time>2017-05-07T07:07:20Z</time>
      </trkpt>
      <trkpt lat="43.74414" lon="3.4501">
        <ele>505.2</ele>
        <time>2017-05-07T07:07:23Z</time>
      </trkpt>
      <trkpt lat="43.74413" lon="3.45">
        <ele>506.2</ele>
        <time>2017-05-07T07:07:26Z</time>
      </trkpt>
      <trkpt lat="43.74412" lon="3.44989">
        <ele>506.9</ele>
        <time>2017-05-07T07:07:29Z</time>
      </trkpt>
      <trkpt lat="43.74411" lon="3.44978">
        <ele>507.6</ele>
        <time>2017-05-07T07:07:33Z</time>
      </trkpt>
      <trkpt lat="43.74409" lon="3.44966">
        <ele>508.5</ele>
        <time>2017-05-07T07:07:37Z</time>
      </trkpt>
      <trkpt lat="43.7441" lon="3.44956">
        <ele>509.2</ele>
        <time>2017-05-07T07:07:40Z</time>
      </trkpt>
      <trkpt lat="43.74409" lon="3.44942">
        <ele>510.1</ele>
        <time>2017-05-07T07:07:44Z</time>
      </trkpt>
      <trkpt lat="43.74408" lon="3.44933">
        <ele>510.7</ele>
        <time>2017-05-07T07:07:47Z</time>
      </trkpt>
      <trkpt lat="43.74408" lon="3.4492">
        <ele>511.6</ele>
        <time>2017-05-07T07:07:51Z</time>
      </trkpt>
      <trkpt lat="43.74408" lon="3.44909">
        <ele>512.1</ele>
        <time>2017-05-07T07:07:54Z</time>
      </trkpt>
      <trkpt lat="43.74408" lon="3.44899">
        <ele>512.6</ele>
        <time>2017-05-07T07:07:57Z</time>
      </trkpt>
      <trkpt lat="43.74408" lon="3.44887">
        <ele>513</ele>
        <time>2017-05-07T07:08:00Z</time>
      </trkpt>
      <trkpt lat="43.74408" lon="3.44876">
        <ele>513.5</ele>
        <time>2017-05-07T07:08:03Z</time>
      </trkpt>
      <trkpt lat="43.7441" lon="3.44864">
        <ele>513.8</ele>
        <time>2017-05-07T07:08:06Z</time>
      </trkpt>
      <trkpt lat="43.74411" lon="3.44851">
        <ele>514.3</ele>
        <time>2017-05-07T07:08:09Z</time>
      </trkpt>
      <trkpt lat="43.74412" lon="3.4484">
        <ele>514.6</ele>
        <time>2017-05-07T07:08:12Z</time>
      </trkpt>
      <trkpt lat="43.74411" lon="3.44826">
        <ele>515.1</ele>
        <time>2017-05-07T07:08:16Z</time>
      </trkpt>
      <trkpt lat="43.7441" lon="3.44815">
        <ele>515.7</ele>
        <time>2017-05-07T07:08:20Z</time>
      </trkpt>
      <trkpt lat="43.74406" lon="3.44803">
        <ele>516.3</ele>
        <time>2017-05-07T07:08:25Z</time>
      </trkpt>
      <trkpt lat="43.74404" lon="3.44792">
        <ele>516.8</ele>
        <time>2017-05-07T07:08:29Z</time>
      </trkpt>
      <trkpt lat="43.74401" lon="3.44781">
        <ele>517.1</ele>
        <time>2017-05-07T07:08:33Z</time>
      </trkpt>
      <trkpt lat="43.74398" lon="3.44769">
        <ele>517.3</ele>
        <time>2017-05-07T07:08:37Z</time>
      </trkpt>
      <trkpt lat="43.74396" lon="3.44759">
        <ele>517.2</ele>
        <time>2017-05-07T07:08:40Z</time>
      </trkpt>
      <trkpt lat="43.74393" lon="3.44746">
        <ele>517.6</ele>
        <time>2017-05-07T07:08:44Z</time>
      </trkpt>
      <trkpt lat="43.74391" lon="3.44737">
        <ele>518</ele>
        <time>2017-05-07T07:08:47Z</time>
      </trkpt>
      <trkpt lat="43.74389" lon="3.44727">
        <ele>518.1</ele>
        <time>2017-05-07T07:08:50Z</time>
      </trkpt>
      <trkpt lat="43.74387" lon="3.44715">
        <ele>518.4</ele>
        <time>2017-05-07T07:08:54Z</time>
      </trkpt>
      <trkpt lat="43.74387" lon="3.447">
        <ele>518.5</ele>
        <time>2017-05-07T07:08:58Z</time>
      </trkpt>
      <trkpt lat="43.74387" lon="3.44691">
        <ele>518.7</ele>
        <time>2017-05-07T07:09:01Z</time>
      </trkpt>
      <trkpt lat="43.74387" lon="3.44678">
        <ele>519.1</ele>
        <time>2017-05-07T07:09:05Z</time>
      </trkpt>
      <trkpt lat="43.74388" lon="3.44667">
        <ele>519.7</ele>
        <time>2017-05-07T07:09:08Z</time>
      </trkpt>
      <trkpt lat="43.74387" lon="3.44653">
        <ele>520.4</ele>
        <time>2017-05-07T07:09:11Z</time>
      </trkpt>
      <trkpt lat="43.74386" lon="3.44641">
        <ele>521.2</ele>
        <time>2017-05-07T07:09:14Z</time>
      </trkpt>
      <trkpt lat="43.74384" lon="3.44629">
        <ele>521.8</ele>
        <time>2017-05-07T07:09:17Z</time>
      </trkpt>
      <trkpt lat="43.74382" lon="3.44618">
        <ele>522.2</ele>
        <time>2017-05-07T07:09:20Z</time>
      </trkpt>
      <trkpt lat="43.74378" lon="3.44607">
        <ele>522.9</ele>
        <time>2017-05-07T07:09:24Z</time>
      </trkpt>
      <trkpt lat="43.74377" lon="3.44595">
        <ele>523.5</ele>
        <time>2017-05-07T07:09:28Z</time>
      </trkpt>
      <trkpt lat="43.74376" lon="3.44582">
        <ele>524.3</ele>
        <time>2017-05-07T07:09:31Z</time>
      </trkpt>
      <trkpt lat="43.74377" lon="3.44572">
        <ele>524.9</ele>
        <time>2017-05-07T07:09:34Z</time>
      </trkpt>
      <trkpt lat="43.74378" lon="3.44561">
        <ele>525.3</ele>
        <time>2017-05-07T07:09:37Z</time>
      </trkpt>
      <trkpt lat="43.7438" lon="3.44549">
        <ele>525.6</ele>
        <time>2017-05-07T07:09:40Z</time>
      </trkpt>
      <trkpt lat="43.7438" lon="3.44537">
        <ele>525.9</ele>
        <time>2017-05-07T07:09:43Z</time>
      </trkpt>
      <trkpt lat="43.7438" lon="3.44525">
        <ele>526.1</ele>
        <time>2017-05-07T07:09:46Z</time>
      </trkpt>
      <trkpt lat="43.7438" lon="3.44514">
        <ele>526.1</ele>
        <time>2017-05-07T07:09:49Z</time>
      </trkpt>
      <trkpt lat="43.74378" lon="3.44503">
        <ele>526.2</ele>
        <time>2017-05-07T07:09:52Z</time>
      </trkpt>
      <trkpt lat="43.74378" lon="3.44494">
        <ele>526.3</ele>
        <time>2017-05-07T07:09:55Z</time>
      </trkpt>
      <trkpt lat="43.74383" lon="3.44485">
        <ele>526.7</ele>
        <time>2017-05-07T07:09:59Z</time>
      </trkpt>
      <trkpt lat="43.74391" lon="3.44487">
        <ele>527.3</ele>
        <time>2017-05-07T07:10:04Z</time>
      </trkpt>
      <trkpt lat="43.74393" lon="3.445">
        <ele>527.5</ele>
        <time>2017-05-07T07:10:08Z</time>
      </trkpt>
      <trkpt lat="43.74393" lon="3.4451">
        <ele>527.8</ele>
        <time>2017-05-07T07:10:11Z</time>
      </trkpt>
      <trkpt lat="43.74394" lon="3.44522">
        <ele>528.3</ele>
        <time>2017-05-07T07:10:15Z</time>
      </trkpt>
      <trkpt lat="43.74394" lon="3.44534">
        <ele>528.6</ele>
        <time>2017-05-07T07:10:18Z</time>
      </trkpt>
      <trkpt lat="43.74394" lon="3.44544">
        <ele>528.9</ele>
        <time>2017-05-07T07:10:21Z</time>
      </trkpt>
      <trkpt lat="43.74395" lon="3.44557">
        <ele>529.3</ele>
        <time>2017-05-07T07:10:24Z</time>
      </trkpt>
      <trkpt lat="43.74394" lon="3.44571">
        <ele>529.6</ele>
        <time>2017-05-07T07:10:27Z</time>
      </trkpt>
      <trkpt lat="43.74396" lon="3.44583">
        <ele>529.9</ele>
        <time>2017-05-07T07:10:30Z</time>
      </trkpt>
      <trkpt lat="43.74398" lon="3.44598">
        <ele>530.2</ele>
        <time>2017-05-07T07:10:33Z</time>
      </trkpt>
      <trkpt lat="43.74402" lon="3.44609">
        <ele>530.4</ele>
        <time>2017-05-07T07:10:36Z</time>
      </trkpt>
      <trkpt lat="43.74407" lon="3.44619">
        <ele>530.9</ele>
        <time>2017-05-07T07:10:40Z</time>
      </trkpt>
      <trkpt lat="43.74411" lon="3.44629">
        <ele>531.4</ele>
        <time>2017-05-07T07:10:44Z</time>
      </trkpt>
      <trkpt lat="43.74416" lon="3.4463">
        <ele>532.4</ele>
        <time>2017-05-07T07:10:51Z</time>
      </trkpt>
      <trkpt lat="43.74412" lon="3.44619">
        <ele>533.1</ele>
        <time>2017-05-07T07:10:55Z</time>
      </trkpt>
      <trkpt lat="43.7441" lon="3.4461">
        <ele>534</ele>
        <time>2017-05-07T07:10:59Z</time>
      </trkpt>
      <trkpt lat="43.74407" lon="3.44599">
        <ele>535</ele>
        <time>2017-05-07T07:11:03Z</time>
      </trkpt>
      <trkpt lat="43.74406" lon="3.44587">
        <ele>535.6</ele>
        <time>2017-05-07T07:11:07Z</time>
      </trkpt>
      <trkpt lat="43.74407" lon="3.44577">
        <ele>536.1</ele>
        <time>2017-05-07T07:11:10Z</time>
      </trkpt>
      <trkpt lat="43.74408" lon="3.44564">
        <ele>536.9</ele>
        <time>2017-05-07T07:11:14Z</time>
      </trkpt>
      <trkpt lat="43.7441" lon="3.44555">
        <ele>537.2</ele>
        <time>2017-05-07T07:11:17Z</time>
      </trkpt>
      <trkpt lat="43.74413" lon="3.44543">
        <ele>537.7</ele>
        <time>2017-05-07T07:11:21Z</time>
      </trkpt>
      <trkpt lat="43.74415" lon="3.4453">
        <ele>538.1</ele>
        <time>2017-05-07T07:11:25Z</time>
      </trkpt>
      <trkpt lat="43.74416" lon="3.4452">
        <ele>538.9</ele>
        <time>2017-05-07T07:11:29Z</time>
      </trkpt>
      <trkpt lat="43.74418" lon="3.44509">
        <ele>539.4</ele>
        <time>2017-05-07T07:11:33Z</time>
      </trkpt>
      <trkpt lat="43.7442" lon="3.44498">
        <ele>539.7</ele>
        <time>2017-05-07T07:11:37Z</time>
      </trkpt>
      <trkpt lat="43.74423" lon="3.44486">
        <ele>540</ele>
        <time>2017-05-07T07:11:41Z</time>
      </trkpt>
      <trkpt lat="43.74427" lon="3.44476">
        <ele>540.4</ele>
        <time>2017-05-07T07:11:45Z</time>
      </trkpt>
      <trkpt lat="43.74432" lon="3.44466">
        <ele>541.5</ele>
        <time>2017-05-07T07:11:51Z</time>
      </trkpt>
      <trkpt lat="43.74439" lon="3.44459">
        <ele>542.3</ele>
        <time>2017-05-07T07:11:54Z</time>
      </trkpt>
      <trkpt lat="43.74443" lon="3.44449">
        <ele>543.1</ele>
        <time>2017-05-07T07:11:59Z</time>
      </trkpt>
      <trkpt lat="43.74442" lon="3.44437">
        <ele>544.1</ele>
        <time>2017-05-07T07:12:05Z</time>
      </trkpt>
      <trkpt lat="43.74438" lon="3.44425">
        <ele>544.9</ele>
        <time>2017-05-07T07:12:09Z</time>
      </trkpt>
      <trkpt lat="43.74438" lon="3.44415">
        <ele>545.3</ele>
        <time>2017-05-07T07:12:13Z</time>
      </trkpt>
      <trkpt lat="43.74437" lon="3.44404">
        <ele>546.3</ele>
        <time>2017-05-07T07:12:19Z</time>
      </trkpt>
      <trkpt lat="43.74439" lon="3.44392">
        <ele>547.9</ele>
        <time>2017-05-07T07:12:24Z</time>
      </trkpt>
      <trkpt lat="43.74446" lon="3.44386">
        <ele>548.5</ele>
        <time>2017-05-07T07:12:27Z</time>
      </trkpt>
      <trkpt lat="43.74454" lon="3.44392">
        <ele>549.3</ele>
        <time>2017-05-07T07:12:32Z</time>
      </trkpt>
      <trkpt lat="43.74461" lon="3.44399">
        <ele>549.9</ele>
        <time>2017-05-07T07:12:36Z</time>
      </trkpt>
      <trkpt lat="43.74469" lon="3.44403">
        <ele>550.7</ele>
        <time>2017-05-07T07:12:40Z</time>
      </trkpt>
      <trkpt lat="43.74477" lon="3.44403">
        <ele>551.6</ele>
        <time>2017-05-07T07:12:44Z</time>
      </trkpt>
      <trkpt lat="43.74486" lon="3.44402">
        <ele>552.5</ele>
        <time>2017-05-07T07:12:48Z</time>
      </trkpt>
      <trkpt lat="43.74494" lon="3.44401">
        <ele>553.3</ele>
        <time>2017-05-07T07:12:52Z</time>
      </trkpt>
      <trkpt lat="43.74503" lon="3.444">
        <ele>554.1</ele>
        <time>2017-05-07T07:12:56Z</time>
      </trkpt>
      <trkpt lat="43.74509" lon="3.44397">
        <ele>554.6</ele>
        <time>2017-05-07T07:12:59Z</time>
      </trkpt>
      <trkpt lat="43.74517" lon="3.44391">
        <ele>555.2</ele>
        <time>2017-05-07T07:13:03Z</time>
      </trkpt>
      <trkpt lat="43.74525" lon="3.44389">
        <ele>555.6</ele>
        <time>2017-05-07T07:13:07Z</time>
      </trkpt>
      <trkpt lat="43.74534" lon="3.44389">
        <ele>556.3</ele>
        <time>2017-05-07T07:13:11Z</time>
      </trkpt>
      <trkpt lat="43.74542" lon="3.44388">
        <ele>557.6</ele>
        <time>2017-05-07T07:13:15Z</time>
      </trkpt>
      <trkpt lat="43.74551" lon="3.44386">
        <ele>558.9</ele>
        <time>2017-05-07T07:13:19Z</time>
      </trkpt>
      <trkpt lat="43.74559" lon="3.44386">
        <ele>560.3</ele>
        <time>2017-05-07T07:13:23Z</time>
      </trkpt>
      <trkpt lat="43.74567" lon="3.44382">
        <ele>561.2</ele>
        <time>2017-05-07T07:13:26Z</time>
      </trkpt>
      <trkpt lat="43.74574" lon="3.44378">
        <ele>562.1</ele>
        <time>2017-05-07T07:13:30Z</time>
      </trkpt>
      <trkpt lat="43.74581" lon="3.44373">
        <ele>562.6</ele>
        <time>2017-05-07T07:13:33Z</time>
      </trkpt>
      <trkpt lat="43.74589" lon="3.44365">
        <ele>563.2</ele>
        <time>2017-05-07T07:13:37Z</time>
      </trkpt>
      <trkpt lat="43.74594" lon="3.44357">
        <ele>563.8</ele>
        <time>2017-05-07T07:13:41Z</time>
      </trkpt>
      <trkpt lat="43.74599" lon="3.44349">
        <ele>564.4</ele>
        <time>2017-05-07T07:13:46Z</time>
      </trkpt>
      <trkpt lat="43.74604" lon="3.44343">
        <ele>564.9</ele>
        <time>2017-05-07T07:13:53Z</time>
      </trkpt>
      <trkpt lat="43.74607" lon="3.44341">
        <ele>565.4</ele>
        <time>2017-05-07T07:14:00Z</time>
      </trkpt>
      <trkpt lat="43.74607" lon="3.44351">
        <ele>565.5</ele>
        <time>2017-05-07T07:14:05Z</time>
      </trkpt>
      <trkpt lat="43.74609" lon="3.44364">
        <ele>565.9</ele>
        <time>2017-05-07T07:14:11Z</time>
      </trkpt>
      <trkpt lat="43.74612" lon="3.44372">
        <ele>566.8</ele>
        <time>2017-05-07T07:14:17Z</time>
      </trkpt>
      <trkpt lat="43.74613" lon="3.44381">
        <ele>568.3</ele>
        <time>2017-05-07T07:14:24Z</time>
      </trkpt>
      <trkpt lat="43.74613" lon="3.4439">
        <ele>569.3</ele>
        <time>2017-05-07T07:14:38Z</time>
      </trkpt>
      <trkpt lat="43.74613" lon="3.44398">
        <ele>570.3</ele>
        <time>2017-05-07T07:14:45Z</time>
      </trkpt>
      <trkpt lat="43.74611" lon="3.44409">
        <ele>571</ele>
        <time>2017-05-07T07:14:51Z</time>
      </trkpt>
      <trkpt lat="43.74605" lon="3.44417">
        <ele>571.4</ele>
        <time>2017-05-07T07:14:55Z</time>
      </trkpt>
      <trkpt lat="43.74598" lon="3.44425">
        <ele>571.6</ele>
        <time>2017-05-07T07:14:59Z</time>
      </trkpt>
      <trkpt lat="43.74595" lon="3.44436">
        <ele>571.6</ele>
        <time>2017-05-07T07:15:04Z</time>
      </trkpt>
      <trkpt lat="43.74589" lon="3.44443">
        <ele>572.2</ele>
        <time>2017-05-07T07:15:09Z</time>
      </trkpt>
      <trkpt lat="43.74583" lon="3.44452">
        <ele>572.4</ele>
        <time>2017-05-07T07:15:14Z</time>
      </trkpt>
      <trkpt lat="43.74575" lon="3.44458">
        <ele>572.6</ele>
        <time>2017-05-07T07:15:18Z</time>
      </trkpt>
      <trkpt lat="43.74568" lon="3.44464">
        <ele>572.7</ele>
        <time>2017-05-07T07:15:23Z</time>
      </trkpt>
      <trkpt lat="43.7456" lon="3.44468">
        <ele>572.8</ele>
        <time>2017-05-07T07:15:28Z</time>
      </trkpt>
      <trkpt lat="43.74553" lon="3.44473">
        <ele>573.2</ele>
        <time>2017-05-07T07:15:33Z</time>
      </trkpt>
      <trkpt lat="43.74545" lon="3.44476">
        <ele>573.5</ele>
        <time>2017-05-07T07:15:38Z</time>
      </trkpt>
      <trkpt lat="43.74537" lon="3.4448">
        <ele>573.9</ele>
        <time>2017-05-07T07:15:43Z</time>
      </trkpt>
      <trkpt lat="43.7453" lon="3.44486">
        <ele>574.5</ele>
        <time>2017-05-07T07:15:48Z</time>
      </trkpt>
      <trkpt lat="43.74524" lon="3.44492">
        <ele>575.1</ele>
        <time>2017-05-07T07:15:52Z</time>
      </trkpt>
      <trkpt lat="43.74518" lon="3.44499">
        <ele>576</ele>
        <time>2017-05-07T07:15:57Z</time>
      </trkpt>
      <trkpt lat="43.74514" lon="3.44508">
        <ele>576.9</ele>
        <time>2017-05-07T07:16:02Z</time>
      </trkpt>
      <trkpt lat="43.7451" lon="3.44519">
        <ele>577.5</ele>
        <time>2017-05-07T07:16:07Z</time>
      </trkpt>
      <trkpt lat="43.74508" lon="3.44529">
        <ele>577.9</ele>
        <time>2017-05-07T07:16:12Z</time>
      </trkpt>
      <trkpt lat="43.74505" lon="3.4454">
        <ele>578.6</ele>
        <time>2017-05-07T07:16:17Z</time>
      </trkpt>
      <trkpt lat="43.74503" lon="3.44551">
        <ele>579.3</ele>
        <time>2017-05-07T07:16:22Z</time>
      </trkpt>
      <trkpt lat="43.74499" lon="3.44559">
        <ele>579.9</ele>
        <time>2017-05-07T07:16:27Z</time>
      </trkpt>
      <trkpt lat="43.74495" lon="3.44568">
        <ele>580.4</ele>
        <time>2017-05-07T07:16:32Z</time>
      </trkpt>
      <trkpt lat="43.74492" lon="3.44579">
        <ele>581.2</ele>
        <time>2017-05-07T07:16:36Z</time>
      </trkpt>
      <trkpt lat="43.74492" lon="3.44592">
        <ele>581.8</ele>
        <time>2017-05-07T07:16:41Z</time>
      </trkpt>
      <trkpt lat="43.74492" lon="3.44604">
        <ele>582</ele>
        <time>2017-05-07T07:16:47Z</time>
      </trkpt>
      <trkpt lat="43.74496" lon="3.44614">
        <ele>582.4</ele>
        <time>2017-05-07T07:16:52Z</time>
      </trkpt>
      <trkpt lat="43.74497" lon="3.44625">
        <ele>583</ele>
        <time>2017-05-07T07:16:57Z</time>
      </trkpt>
      <trkpt lat="43.74499" lon="3.44635">
        <ele>583.8</ele>
        <time>2017-05-07T07:17:01Z</time>
      </trkpt>
      <trkpt lat="43.74499" lon="3.44644">
        <ele>584.5</ele>
        <time>2017-05-07T07:17:05Z</time>
      </trkpt>
      <trkpt lat="43.74503" lon="3.44655">
        <ele>585.4</ele>
        <time>2017-05-07T07:17:10Z</time>
      </trkpt>
      <trkpt lat="43.74507" lon="3.44666">
        <ele>586.2</ele>
        <time>2017-05-07T07:17:15Z</time>
      </trkpt>
      <trkpt lat="43.7451" lon="3.44676">
        <ele>587.3</ele>
        <time>2017-05-07T07:17:21Z</time>
      </trkpt>
      <trkpt lat="43.74512" lon="3.44687">
        <ele>588.2</ele>
        <time>2017-05-07T07:17:26Z</time>
      </trkpt>
      <trkpt lat="43.74514" lon="3.44697">
        <ele>589</ele>
        <time>2017-05-07T07:17:31Z</time>
      </trkpt>
      <trkpt lat="43.74516" lon="3.44708">
        <ele>589.6</ele>
        <time>2017-05-07T07:17:35Z</time>
      </trkpt>
      <trkpt lat="43.74519" lon="3.44718">
        <ele>590.7</ele>
        <time>2017-05-07T07:17:41Z</time>
      </trkpt>
      <trkpt lat="43.7452" lon="3.4473">
        <ele>592.2</ele>
        <time>2017-05-07T07:17:48Z</time>
      </trkpt>
      <trkpt lat="43.74521" lon="3.44741">
        <ele>593</ele>
        <time>2017-05-07T07:17:53Z</time>
      </trkpt>
      <trkpt lat="43.74521" lon="3.44753">
        <ele>593.2</ele>
        <time>2017-05-07T07:17:58Z</time>
      </trkpt>
      <trkpt lat="43.7452" lon="3.44763">
        <ele>593.4</ele>
        <time>2017-05-07T07:18:03Z</time>
      </trkpt>
      <trkpt lat="43.74519" lon="3.44776">
        <ele>594</ele>
        <time>2017-05-07T07:18:09Z</time>
      </trkpt>
      <trkpt lat="43.74521" lon="3.44787">
        <ele>594.6</ele>
        <time>2017-05-07T07:18:14Z</time>
      </trkpt>
      <trkpt lat="43.74524" lon="3.44796">
        <ele>596.2</ele>
        <time>2017-05-07T07:18:21Z</time>
      </trkpt>
      <trkpt lat="43.74525" lon="3.44808">
        <ele>597.4</ele>
        <time>2017-05-07T07:18:26Z</time>
      </trkpt>
      <trkpt lat="43.74527" lon="3.44819">
        <ele>597.8</ele>
        <time>2017-05-07T07:18:29Z</time>
      </trkpt>
      <trkpt lat="43.7453" lon="3.44829">
        <ele>598.4</ele>
        <time>2017-05-07T07:18:33Z</time>
      </trkpt>
      <trkpt lat="43.74534" lon="3.44839">
        <ele>599</ele>
        <time>2017-05-07T07:18:38Z</time>
      </trkpt>
      <trkpt lat="43.74537" lon="3.44849">
        <ele>599.6</ele>
        <time>2017-05-07T07:18:45Z</time>
      </trkpt>
      <trkpt lat="43.74539" lon="3.44859">
        <ele>600.2</ele>
        <time>2017-05-07T07:18:51Z</time>
      </trkpt>
      <trkpt lat="43.74541" lon="3.4487">
        <ele>600.7</ele>
        <time>2017-05-07T07:18:56Z</time>
      </trkpt>
      <trkpt lat="43.74544" lon="3.4488">
        <ele>601.7</ele>
        <time>2017-05-07T07:19:03Z</time>
      </trkpt>
      <trkpt lat="43.74548" lon="3.44891">
        <ele>602.6</ele>
        <time>2017-05-07T07:19:09Z</time>
      </trkpt>
      <trkpt lat="43.74553" lon="3.449">
        <ele>602.8</ele>
        <time>2017-05-07T07:19:13Z</time>
      </trkpt>
      <trkpt lat="43.74558" lon="3.44908">
        <ele>603.2</ele>
        <time>2017-05-07T07:19:18Z</time>
      </trkpt>
      <trkpt lat="43.74564" lon="3.44916">
        <ele>604.1</ele>
        <time>2017-05-07T07:19:24Z</time>
      </trkpt>
      <trkpt lat="43.7457" lon="3.44924">
        <ele>605</ele>
        <time>2017-05-07T07:19:29Z</time>
      </trkpt>
      <trkpt lat="43.74575" lon="3.44929">
        <ele>605.9</ele>
        <time>2017-05-07T07:19:33Z</time>
      </trkpt>
      <trkpt lat="43.74584" lon="3.44934">
        <ele>607</ele>
        <time>2017-05-07T07:19:39Z</time>
      </trkpt>
      <trkpt lat="43.74591" lon="3.44939">
        <ele>607.7</ele>
        <time>2017-05-07T07:19:44Z</time>
      </trkpt>
      <trkpt lat="43.74598" lon="3.44938">
        <ele>608.2</ele>
        <time>2017-05-07T07:19:48Z</time>
      </trkpt>
      <trkpt lat="43.74607" lon="3.44935">
        <ele>608.9</ele>
        <time>2017-05-07T07:19:53Z</time>
      </trkpt>
      <trkpt lat="43.74615" lon="3.44934">
        <ele>609.4</ele>
        <time>2017-05-07T07:19:58Z</time>
      </trkpt>
      <trkpt lat="43.74623" lon="3.44933">
        <ele>609.7</ele>
        <time>2017-05-07T07:20:02Z</time>
      </trkpt>
      <trkpt lat="43.74631" lon="3.44931">
        <ele>610.4</ele>
        <time>2017-05-07T07:20:07Z</time>
      </trkpt>
      <trkpt lat="43.74639" lon="3.44931">
        <ele>611.2</ele>
        <time>2017-05-07T07:20:13Z</time>
      </trkpt>
      <trkpt lat="43.74647" lon="3.44931">
        <ele>611.8</ele>
        <time>2017-05-07T07:20:18Z</time>
      </trkpt>
      <trkpt lat="43.74655" lon="3.44932">
        <ele>612.4</ele>
        <time>2017-05-07T07:20:23Z</time>
      </trkpt>
      <trkpt lat="43.74662" lon="3.44934">
        <ele>613.2</ele>
        <time>2017-05-07T07:20:27Z</time>
      </trkpt>
      <trkpt lat="43.7467" lon="3.44937">
        <ele>614.1</ele>
        <time>2017-05-07T07:20:33Z</time>
      </trkpt>
      <trkpt lat="43.74679" lon="3.44937">
        <ele>614.9</ele>
        <time>2017-05-07T07:20:38Z</time>
      </trkpt>
      <trkpt lat="43.74686" lon="3.44939">
        <ele>615.9</ele>
        <time>2017-05-07T07:20:43Z</time>
      </trkpt>
      <trkpt lat="43.74693" lon="3.44942">
        <ele>617.3</ele>
        <time>2017-05-07T07:20:48Z</time>
      </trkpt>
      <trkpt lat="43.747" lon="3.44946">
        <ele>618.3</ele>
        <time>2017-05-07T07:20:53Z</time>
      </trkpt>
      <trkpt lat="43.74709" lon="3.44951">
        <ele>619.1</ele>
        <time>2017-05-07T07:20:57Z</time>
      </trkpt>
      <trkpt lat="43.74715" lon="3.44957">
        <ele>620.1</ele>
        <time>2017-05-07T07:21:02Z</time>
      </trkpt>
      <trkpt lat="43.74722" lon="3.44962">
        <ele>621.4</ele>
        <time>2017-05-07T07:21:07Z</time>
      </trkpt>
      <trkpt lat="43.74727" lon="3.44969">
        <ele>622.6</ele>
        <time>2017-05-07T07:21:12Z</time>
      </trkpt>
      <trkpt lat="43.74734" lon="3.44977">
        <ele>623.9</ele>
        <time>2017-05-07T07:21:17Z</time>
      </trkpt>
      <trkpt lat="43.74739" lon="3.44986">
        <ele>625.2</ele>
        <time>2017-05-07T07:21:23Z</time>
      </trkpt>
      <trkpt lat="43.74743" lon="3.44995">
        <ele>626.1</ele>
        <time>2017-05-07T07:21:27Z</time>
      </trkpt>
      <trkpt lat="43.74748" lon="3.45">
        <ele>627</ele>
        <time>2017-05-07T07:21:34Z</time>
      </trkpt>
      <trkpt lat="43.74746" lon="3.44992">
        <ele>629</ele>
        <time>2017-05-07T07:21:49Z</time>
      </trkpt>
      <trkpt lat="43.74743" lon="3.44981">
        <ele>629.7</ele>
        <time>2017-05-07T07:21:54Z</time>
      </trkpt>
      <trkpt lat="43.74741" lon="3.44971">
        <ele>630.3</ele>
        <time>2017-05-07T07:21:59Z</time>
      </trkpt>
      <trkpt lat="43.74739" lon="3.44961">
        <ele>630.7</ele>
        <time>2017-05-07T07:22:05Z</time>
      </trkpt>
      <trkpt lat="43.74743" lon="3.44964">
        <ele>632.1</ele>
        <time>2017-05-07T07:22:19Z</time>
      </trkpt>
      <trkpt lat="43.74748" lon="3.4497">
        <ele>632.7</ele>
        <time>2017-05-07T07:22:25Z</time>
      </trkpt>
      <trkpt lat="43.74753" lon="3.4498">
        <ele>633.4</ele>
        <time>2017-05-07T07:22:31Z</time>
      </trkpt>
      <trkpt lat="43.74756" lon="3.44989">
        <ele>634.6</ele>
        <time>2017-05-07T07:22:38Z</time>
      </trkpt>
      <trkpt lat="43.74758" lon="3.45">
        <ele>635.4</ele>
        <time>2017-05-07T07:22:42Z</time>
      </trkpt>
      <trkpt lat="43.74763" lon="3.4501">
        <ele>636.3</ele>
        <time>2017-05-07T07:22:47Z</time>
      </trkpt>
      <trkpt lat="43.74767" lon="3.45019">
        <ele>637.3</ele>
        <time>2017-05-07T07:22:52Z</time>
      </trkpt>
      <trkpt lat="43.74769" lon="3.4503">
        <ele>638.5</ele>
        <time>2017-05-07T07:22:58Z</time>
      </trkpt>
      <trkpt lat="43.74768" lon="3.4504">
        <ele>639.5</ele>
        <time>2017-05-07T07:23:03Z</time>
      </trkpt>
      <trkpt lat="43.74764" lon="3.45048">
        <ele>640.3</ele>
        <time>2017-05-07T07:23:10Z</time>
      </trkpt>
      <trkpt lat="43.74765" lon="3.4505">
        <ele>641.3</ele>
        <time>2017-05-07T07:23:17Z</time>
      </trkpt>
      <trkpt lat="43.74771" lon="3.45055">
        <ele>642.2</ele>
        <time>2017-05-07T07:23:24Z</time>
      </trkpt>
      <trkpt lat="43.74776" lon="3.45058">
        <ele>643.4</ele>
        <time>2017-05-07T07:23:31Z</time>
      </trkpt>
      <trkpt lat="43.74777" lon="3.45059">
        <ele>644.6</ele>
        <time>2017-05-07T07:23:38Z</time>
      </trkpt>
      <trkpt lat="43.74775" lon="3.45064">
        <ele>645.5</ele>
        <time>2017-05-07T07:23:45Z</time>
      </trkpt>
      <trkpt lat="43.74776" lon="3.45067">
        <ele>646.3</ele>
        <time>2017-05-07T07:23:52Z</time>
      </trkpt>
      <trkpt lat="43.74777" lon="3.45069">
        <ele>647.2</ele>
        <time>2017-05-07T07:24:00Z</time>
      </trkpt>
      <trkpt lat="43.74784" lon="3.4507">
        <ele>648.2</ele>
        <time>2017-05-07T07:24:06Z</time>
      </trkpt>
      <trkpt lat="43.74792" lon="3.45073">
        <ele>649.5</ele>
        <time>2017-05-07T07:24:13Z</time>
      </trkpt>
      <trkpt lat="43.74799" lon="3.45074">
        <ele>650.8</ele>
        <time>2017-05-07T07:24:19Z</time>
      </trkpt>
      <trkpt lat="43.74806" lon="3.45073">
        <ele>652.1</ele>
        <time>2017-05-07T07:24:24Z</time>
      </trkpt>
      <trkpt lat="43.74814" lon="3.45072">
        <ele>654</ele>
        <time>2017-05-07T07:24:31Z</time>
      </trkpt>
      <trkpt lat="43.74822" lon="3.45067">
        <ele>655.3</ele>
        <time>2017-05-07T07:24:36Z</time>
      </trkpt>
      <trkpt lat="43.74829" lon="3.45064">
        <ele>656.4</ele>
        <time>2017-05-07T07:24:40Z</time>
      </trkpt>
      <trkpt lat="43.74837" lon="3.45066">
        <ele>657.6</ele>
        <time>2017-05-07T07:24:46Z</time>
      </trkpt>
      <trkpt lat="43.74842" lon="3.45075">
        <ele>658.5</ele>
        <time>2017-05-07T07:24:51Z</time>
      </trkpt>
      <trkpt lat="43.74847" lon="3.45083">
        <ele>659.4</ele>
        <time>2017-05-07T07:24:56Z</time>
      </trkpt>
      <trkpt lat="43.74848" lon="3.45093">
        <ele>660.4</ele>
        <time>2017-05-07T07:25:02Z</time>
      </trkpt>
      <trkpt lat="43.74851" lon="3.45103">
        <ele>661.3</ele>
        <time>2017-05-07T07:25:08Z</time>
      </trkpt>
      <trkpt lat="43.74847" lon="3.45111">
        <ele>662.3</ele>
        <time>2017-05-07T07:25:13Z</time>
      </trkpt>
      <trkpt lat="43.7484" lon="3.45116">
        <ele>663.5</ele>
        <time>2017-05-07T07:25:19Z</time>
      </trkpt>
      <trkpt lat="43.74833" lon="3.45118">
        <ele>664.6</ele>
        <time>2017-05-07T07:25:26Z</time>
      </trkpt>
      <trkpt lat="43.74825" lon="3.45119">
        <ele>665.4</ele>
        <time>2017-05-07T07:25:32Z</time>
      </trkpt>
      <trkpt lat="43.74817" lon="3.4512">
        <ele>665.8</ele>
        <time>2017-05-07T07:25:38Z</time>
      </trkpt>
      <trkpt lat="43.74808" lon="3.45123">
        <ele>666.5</ele>
        <time>2017-05-07T07:25:44Z</time>
      </trkpt>
      <trkpt lat="43.74801" lon="3.45127">
        <ele>667.1</ele>
        <time>2017-05-07T07:25:50Z</time>
      </trkpt>
      <trkpt lat="43.74795" lon="3.45131">
        <ele>667.7</ele>
        <time>2017-05-07T07:25:55Z</time>
      </trkpt>
      <trkpt lat="43.74789" lon="3.4514">
        <ele>668.4</ele>
        <time>2017-05-07T07:26:00Z</time>
      </trkpt>
      <trkpt lat="43.74786" lon="3.4515">
        <ele>669</ele>
        <time>2017-05-07T07:26:07Z</time>
      </trkpt>
      <trkpt lat="43.74785" lon="3.45161">
        <ele>669.7</ele>
        <time>2017-05-07T07:26:13Z</time>
      </trkpt>
      <trkpt lat="43.74783" lon="3.45173">
        <ele>670.5</ele>
        <time>2017-05-07T07:26:20Z</time>
      </trkpt>
      <trkpt lat="43.74782" lon="3.45183">
        <ele>671</ele>
        <time>2017-05-07T07:26:23Z</time>
      </trkpt>
      <trkpt lat="43.7478" lon="3.45196">
        <ele>671.8</ele>
        <time>2017-05-07T07:26:28Z</time>
      </trkpt>
      <trkpt lat="43.74779" lon="3.45207">
        <ele>672.6</ele>
        <time>2017-05-07T07:26:32Z</time>
      </trkpt>
      <trkpt lat="43.74778" lon="3.45217">
        <ele>673.1</ele>
        <time>2017-05-07T07:26:35Z</time>
      </trkpt>
      <trkpt lat="43.74779" lon="3.45229">
        <ele>673.6</ele>
        <time>2017-05-07T07:26:39Z</time>
      </trkpt>
      <trkpt lat="43.74781" lon="3.4524">
        <ele>673.9</ele>
        <time>2017-05-07T07:26:43Z</time>
      </trkpt>
      <trkpt lat="43.74782" lon="3.45251">
        <ele>674.1</ele>
        <time>2017-05-07T07:26:47Z</time>
      </trkpt>
      <trkpt lat="43.74782" lon="3.45263">
        <ele>674.5</ele>
        <time>2017-05-07T07:26:52Z</time>
      </trkpt>
      <trkpt lat="43.74783" lon="3.45274">
        <ele>674.8</ele>
        <time>2017-05-07T07:26:57Z</time>
      </trkpt>
      <trkpt lat="43.74784" lon="3.45285">
        <ele>675</ele>
        <time>2017-05-07T07:27:01Z</time>
      </trkpt>
      <trkpt lat="43.74785" lon="3.45296">
        <ele>675.9</ele>
        <time>2017-05-07T07:27:07Z</time>
      </trkpt>
      <trkpt lat="43.74785" lon="3.45307">
        <ele>676.3</ele>
        <time>2017-05-07T07:27:11Z</time>
      </trkpt>
      <trkpt lat="43.74787" lon="3.45319">
        <ele>677</ele>
        <time>2017-05-07T07:27:16Z</time>
      </trkpt>
      <trkpt lat="43.74787" lon="3.4533">
        <ele>677.6</ele>
        <time>2017-05-07T07:27:20Z</time>
      </trkpt>
      <trkpt lat="43.74788" lon="3.45342">
        <ele>678</ele>
        <time>2017-05-07T07:27:24Z</time>
      </trkpt>
      <trkpt lat="43.74792" lon="3.45354">
        <ele>678.1</ele>
        <time>2017-05-07T07:27:27Z</time>
      </trkpt>
      <trkpt lat="43.74795" lon="3.45367">
        <ele>678.2</ele>
        <time>2017-05-07T07:27:31Z</time>
      </trkpt>
      <trkpt lat="43.748" lon="3.45375">
        <ele>678.1</ele>
        <time>2017-05-07T07:27:33Z</time>
      </trkpt>
      <trkpt lat="43.74803" lon="3.45385">
        <ele>677.9</ele>
        <time>2017-05-07T07:27:36Z</time>
      </trkpt>
      <trkpt lat="43.74805" lon="3.45397">
        <ele>677.7</ele>
        <time>2017-05-07T07:27:40Z</time>
      </trkpt>
      <trkpt lat="43.74802" lon="3.45409">
        <ele>677.9</ele>
        <time>2017-05-07T07:27:44Z</time>
      </trkpt>
      <trkpt lat="43.74799" lon="3.4542">
        <ele>678.3</ele>
        <time>2017-05-07T07:27:47Z</time>
      </trkpt>
      <trkpt lat="43.74799" lon="3.45434">
        <ele>678.6</ele>
        <time>2017-05-07T07:27:50Z</time>
      </trkpt>
      <trkpt lat="43.74802" lon="3.45443">
        <ele>678.8</ele>
        <time>2017-05-07T07:27:54Z</time>
      </trkpt>
      <trkpt lat="43.74805" lon="3.45454">
        <ele>679</ele>
        <time>2017-05-07T07:27:58Z</time>
      </trkpt>
      <trkpt lat="43.74806" lon="3.45464">
        <ele>679.2</ele>
        <time>2017-05-07T07:28:02Z</time>
      </trkpt>
      <trkpt lat="43.74808" lon="3.45475">
        <ele>679.4</ele>
        <time>2017-05-07T07:28:06Z</time>
      </trkpt>
      <trkpt lat="43.7481" lon="3.45485">
        <ele>679.7</ele>
        <time>2017-05-07T07:28:10Z</time>
      </trkpt>
      <trkpt lat="43.7481" lon="3.45495">
        <ele>680.2</ele>
        <time>2017-05-07T07:28:14Z</time>
      </trkpt>
      <trkpt lat="43.74809" lon="3.45505">
        <ele>680.7</ele>
        <time>2017-05-07T07:28:18Z</time>
      </trkpt>
      <trkpt lat="43.74806" lon="3.45515">
        <ele>681.2</ele>
        <time>2017-05-07T07:28:22Z</time>
      </trkpt>
      <trkpt lat="43.748" lon="3.45526">
        <ele>681.8</ele>
        <time>2017-05-07T07:28:26Z</time>
      </trkpt>
      <trkpt lat="43.74795" lon="3.45537">
        <ele>682.1</ele>
        <time>2017-05-07T07:28:29Z</time>
      </trkpt>
      <trkpt lat="43.74791" lon="3.45547">
        <ele>682.2</ele>
        <time>2017-05-07T07:28:32Z</time>
      </trkpt>
      <trkpt lat="43.74785" lon="3.45552">
        <ele>682.5</ele>
        <time>2017-05-07T07:28:36Z</time>
      </trkpt>
      <trkpt lat="43.74778" lon="3.45561">
        <ele>683</ele>
        <time>2017-05-07T07:28:40Z</time>
      </trkpt>
      <trkpt lat="43.74775" lon="3.45571">
        <ele>683.3</ele>
        <time>2017-05-07T07:28:43Z</time>
      </trkpt>
      <trkpt lat="43.74772" lon="3.45584">
        <ele>683.8</ele>
        <time>2017-05-07T07:28:47Z</time>
      </trkpt>
      <trkpt lat="43.74772" lon="3.45596">
        <ele>684.2</ele>
        <time>2017-05-07T07:28:51Z</time>
      </trkpt>
      <trkpt lat="43.7477" lon="3.45607">
        <ele>684.7</ele>
        <time>2017-05-07T07:28:55Z</time>
      </trkpt>
      <trkpt lat="43.74765" lon="3.45618">
        <ele>685.2</ele>
        <time>2017-05-07T07:28:59Z</time>
      </trkpt>
      <trkpt lat="43.74757" lon="3.45625">
        <ele>685.7</ele>
        <time>2017-05-07T07:29:03Z</time>
      </trkpt>
      <trkpt lat="43.74752" lon="3.45633">
        <ele>685.8</ele>
        <time>2017-05-07T07:29:06Z</time>
      </trkpt>
      <trkpt lat="43.74747" lon="3.45641">
        <ele>686.1</ele>
        <time>2017-05-07T07:29:10Z</time>
      </trkpt>
      <trkpt lat="43.74743" lon="3.45649">
        <ele>686.3</ele>
        <time>2017-05-07T07:29:13Z</time>
      </trkpt>
      <trkpt lat="43.74737" lon="3.45658">
        <ele>686.7</ele>
        <time>2017-05-07T07:29:17Z</time>
      </trkpt>
      <trkpt lat="43.7473" lon="3.45664">
        <ele>687.2</ele>
        <time>2017-05-07T07:29:21Z</time>
      </trkpt>
      <trkpt lat="43.74724" lon="3.45671">
        <ele>687.6</ele>
        <time>2017-05-07T07:29:25Z</time>
      </trkpt>
      <trkpt lat="43.74718" lon="3.4568">
        <ele>687.9</ele>
        <time>2017-05-07T07:29:29Z</time>
      </trkpt>
      <trkpt lat="43.74711" lon="3.45686">
        <ele>688.4</ele>
        <time>2017-05-07T07:29:33Z</time>
      </trkpt>
      <trkpt lat="43.74703" lon="3.45691">
        <ele>689.1</ele>
        <time>2017-05-07T07:29:37Z</time>
      </trkpt>
      <trkpt lat="43.74696" lon="3.45694">
        <ele>689.4</ele>
        <time>2017-05-07T07:29:41Z</time>
      </trkpt>
      <trkpt lat="43.74688" lon="3.45696">
        <ele>689.6</ele>
        <time>2017-05-07T07:29:45Z</time>
      </trkpt>
      <trkpt lat="43.7468" lon="3.45699">
        <ele>689.9</ele>
        <time>2017-05-07T07:29:49Z</time>
      </trkpt>
      <trkpt lat="43.74673" lon="3.45703">
        <ele>690.2</ele>
        <time>2017-05-07T07:29:53Z</time>
      </trkpt>
      <trkpt lat="43.74665" lon="3.45707">
        <ele>690.5</ele>
        <time>2017-05-07T07:29:58Z</time>
      </trkpt>
      <trkpt lat="43.74657" lon="3.45711">
        <ele>690.8</ele>
        <time>2017-05-07T07:30:03Z</time>
      </trkpt>
      <trkpt lat="43.7465" lon="3.45712">
        <ele>691.2</ele>
        <time>2017-05-07T07:30:07Z</time>
      </trkpt>
      <trkpt lat="43.74642" lon="3.4571">
        <ele>691.7</ele>
        <time>2017-05-07T07:30:12Z</time>
      </trkpt>
      <trkpt lat="43.74634" lon="3.45712">
        <ele>692.1</ele>
        <time>2017-05-07T07:30:16Z</time>
      </trkpt>
      <trkpt lat="43.74627" lon="3.45715">
        <ele>692.5</ele>
        <time>2017-05-07T07:30:21Z</time>
      </trkpt>
      <trkpt lat="43.7462" lon="3.45718">
        <ele>692.7</ele>
        <time>2017-05-07T07:30:25Z</time>
      </trkpt>
      <trkpt lat="43.7461" lon="3.45722">
        <ele>692.9</ele>
        <time>2017-05-07T07:30:30Z</time>
      </trkpt>
      <trkpt lat="43.74603" lon="3.45725">
        <ele>693.1</ele>
        <time>2017-05-07T07:30:34Z</time>
      </trkpt>
      <trkpt lat="43.74596" lon="3.45729">
        <ele>693.2</ele>
        <time>2017-05-07T07:30:39Z</time>
      </trkpt>
      <trkpt lat="43.74588" lon="3.45728">
        <ele>693.1</ele>
        <time>2017-05-07T07:30:45Z</time>
      </trkpt>
      <trkpt lat="43.74579" lon="3.4573">
        <ele>693.6</ele>
        <time>2017-05-07T07:30:49Z</time>
      </trkpt>
      <trkpt lat="43.74572" lon="3.45732">
        <ele>694</ele>
        <time>2017-05-07T07:30:52Z</time>
      </trkpt>
      <trkpt lat="43.74563" lon="3.45731">
        <ele>694.5</ele>
        <time>2017-05-07T07:30:56Z</time>
      </trkpt>
      <trkpt lat="43.74555" lon="3.45729">
        <ele>695.2</ele>
        <time>2017-05-07T07:31:01Z</time>
      </trkpt>
      <trkpt lat="43.74547" lon="3.45727">
        <ele>695.8</ele>
        <time>2017-05-07T07:31:05Z</time>
      </trkpt>
      <trkpt lat="43.74539" lon="3.45727">
        <ele>696.3</ele>
        <time>2017-05-07T07:31:10Z</time>
      </trkpt>
      <trkpt lat="43.7453" lon="3.45723">
        <ele>696.8</ele>
        <time>2017-05-07T07:31:16Z</time>
      </trkpt>
      <trkpt lat="43.74521" lon="3.45721">
        <ele>697.5</ele>
        <time>2017-05-07T07:31:20Z</time>
      </trkpt>
      <trkpt lat="43.74514" lon="3.45717">
        <ele>698.2</ele>
        <time>2017-05-07T07:31:25Z</time>
      </trkpt>
      <trkpt lat="43.74505" lon="3.45716">
        <ele>698.7</ele>
        <time>2017-05-07T07:31:29Z</time>
      </trkpt>
      <trkpt lat="43.74497" lon="3.45715">
        <ele>699.1</ele>
        <time>2017-05-07T07:31:33Z</time>
      </trkpt>
      <trkpt lat="43.74489" lon="3.45714">
        <ele>699.1</ele>
        <time>2017-05-07T07:31:38Z</time>
      </trkpt>
      <trkpt lat="43.74481" lon="3.45712">
        <ele>699.7</ele>
        <time>2017-05-07T07:31:42Z</time>
      </trkpt>
      <trkpt lat="43.74473" lon="3.45707">
        <ele>700.3</ele>
        <time>2017-05-07T07:31:47Z</time>
      </trkpt>
      <trkpt lat="43.74466" lon="3.45703">
        <ele>700.9</ele>
        <time>2017-05-07T07:31:51Z</time>
      </trkpt>
      <trkpt lat="43.7446" lon="3.45698">
        <ele>701.4</ele>
        <time>2017-05-07T07:31:54Z</time>
      </trkpt>
      <trkpt lat="43.74453" lon="3.45692">
        <ele>701.9</ele>
        <time>2017-05-07T07:31:59Z</time>
      </trkpt>
      <trkpt lat="43.74446" lon="3.45686">
        <ele>702.4</ele>
        <time>2017-05-07T07:32:03Z</time>
      </trkpt>
      <trkpt lat="43.74439" lon="3.45683">
        <ele>702.7</ele>
        <time>2017-05-07T07:32:06Z</time>
      </trkpt>
      <trkpt lat="43.74435" lon="3.4568">
        <ele>703.6</ele>
        <time>2017-05-07T07:32:13Z</time>
      </trkpt>
      <trkpt lat="43.74429" lon="3.45686">
        <ele>704.5</ele>
        <time>2017-05-07T07:32:20Z</time>
      </trkpt>
      <trkpt lat="43.74425" lon="3.45691">
        <ele>705</ele>
        <time>2017-05-07T07:32:27Z</time>
      </trkpt>
      <trkpt lat="43.74423" lon="3.45693">
        <ele>705.6</ele>
        <time>2017-05-07T07:32:34Z</time>
      </trkpt>
      <trkpt lat="43.74426" lon="3.45695">
        <ele>707.4</ele>
        <time>2017-05-07T07:32:19Z</time>
      </trkpt>
      <trkpt lat="43.74425" lon="3.45691">
        <ele>708.2</ele>
        <time>2017-05-07T07:33:42Z</time>
      </trkpt>
      <trkpt lat="43.74425" lon="3.45691">
        <ele>711.2</ele>
        <time>2017-05-07T07:34:59Z</time>
      </trkpt>
      <trkpt lat="43.74422" lon="3.45691">
        <ele>710</ele>
        <time>2017-05-07T07:34:27Z</time>
      </trkpt>
      <trkpt lat="43.7442" lon="3.45691">
        <ele>710.3</ele>
        <time>2017-05-07T07:35:39Z</time>
      </trkpt>
      <trkpt lat="43.74424" lon="3.45695">
        <ele>711.2</ele>
        <time>2017-05-07T07:35:56Z</time>
      </trkpt>
      <trkpt lat="43.74416" lon="3.45698">
        <ele>711.2</ele>
        <time>2017-05-07T07:36:07Z</time>
      </trkpt>
      <trkpt lat="43.74416" lon="3.45695">
        <ele>711.7</ele>
        <time>2017-05-07T07:36:14Z</time>
      </trkpt>
      <trkpt lat="43.74421" lon="3.45691">
        <ele>713.5</ele>
        <time>2017-05-07T07:35:54Z</time>
      </trkpt>
      <trkpt lat="43.74422" lon="3.45691">
        <ele>712.3</ele>
        <time>2017-05-07T07:38:30Z</time>
      </trkpt>
      <trkpt lat="43.7442" lon="3.45687">
        <ele>713.2</ele>
        <time>2017-05-07T07:38:37Z</time>
      </trkpt>
      <trkpt lat="43.74422" lon="3.45693">
        <ele>713.8</ele>
        <time>2017-05-07T07:38:48Z</time>
      </trkpt>
      <trkpt lat="43.7442" lon="3.45696">
        <ele>713.7</ele>
        <time>2017-05-07T07:39:02Z</time>
      </trkpt>
      <trkpt lat="43.74413" lon="3.45704">
        <ele>713.4</ele>
        <time>2017-05-07T07:39:06Z</time>
      </trkpt>
      <trkpt lat="43.74408" lon="3.45711">
        <ele>713.2</ele>
        <time>2017-05-07T07:39:09Z</time>
      </trkpt>
      <trkpt lat="43.74399" lon="3.45718">
        <ele>712.9</ele>
        <time>2017-05-07T07:39:13Z</time>
      </trkpt>
      <trkpt lat="43.74392" lon="3.45723">
        <ele>712.7</ele>
        <time>2017-05-07T07:39:16Z</time>
      </trkpt>
      <trkpt lat="43.74384" lon="3.45728">
        <ele>712.6</ele>
        <time>2017-05-07T07:39:19Z</time>
      </trkpt>
      <trkpt lat="43.74376" lon="3.45731">
        <ele>712.6</ele>
        <time>2017-05-07T07:39:22Z</time>
      </trkpt>
      <trkpt lat="43.74366" lon="3.45735">
        <ele>712.7</ele>
        <time>2017-05-07T07:39:25Z</time>
      </trkpt>
      <trkpt lat="43.74359" lon="3.45736">
        <ele>712.8</ele>
        <time>2017-05-07T07:39:29Z</time>
      </trkpt>
      <trkpt lat="43.74352" lon="3.45731">
        <ele>712.7</ele>
        <time>2017-05-07T07:39:35Z</time>
      </trkpt>
      <trkpt lat="43.74344" lon="3.45725">
        <ele>712.5</ele>
        <time>2017-05-07T07:39:38Z</time>
      </trkpt>
      <trkpt lat="43.74336" lon="3.45718">
        <ele>712.4</ele>
        <time>2017-05-07T07:39:41Z</time>
      </trkpt>
      <trkpt lat="43.7433" lon="3.4571">
        <ele>712.4</ele>
        <time>2017-05-07T07:39:44Z</time>
      </trkpt>
      <trkpt lat="43.74324" lon="3.45702">
        <ele>712.6</ele>
        <time>2017-05-07T07:39:47Z</time>
      </trkpt>
      <trkpt lat="43.74318" lon="3.45696">
        <ele>712.6</ele>
        <time>2017-05-07T07:39:50Z</time>
      </trkpt>
      <trkpt lat="43.7431" lon="3.45688">
        <ele>712.5</ele>
        <time>2017-05-07T07:39:53Z</time>
      </trkpt>
      <trkpt lat="43.74302" lon="3.45681">
        <ele>712.4</ele>
        <time>2017-05-07T07:39:56Z</time>
      </trkpt>
      <trkpt lat="43.74295" lon="3.45672">
        <ele>712.5</ele>
        <time>2017-05-07T07:39:59Z</time>
      </trkpt>
      <trkpt lat="43.7429" lon="3.45663">
        <ele>712.5</ele>
        <time>2017-05-07T07:40:02Z</time>
      </trkpt>
      <trkpt lat="43.74284" lon="3.45655">
        <ele>712.5</ele>
        <time>2017-05-07T07:40:06Z</time>
      </trkpt>
      <trkpt lat="43.74279" lon="3.45648">
        <ele>712.5</ele>
        <time>2017-05-07T07:40:08Z</time>
      </trkpt>
      <trkpt lat="43.74273" lon="3.45642">
        <ele>712.6</ele>
        <time>2017-05-07T07:40:10Z</time>
      </trkpt>
      <trkpt lat="43.74264" lon="3.45633">
        <ele>712.9</ele>
        <time>2017-05-07T07:40:13Z</time>
      </trkpt>
      <trkpt lat="43.74257" lon="3.4563">
        <ele>713.3</ele>
        <time>2017-05-07T07:40:16Z</time>
      </trkpt>
      <trkpt lat="43.74248" lon="3.45626">
        <ele>713.6</ele>
        <time>2017-05-07T07:40:19Z</time>
      </trkpt>
      <trkpt lat="43.7424" lon="3.45623">
        <ele>714.1</ele>
        <time>2017-05-07T07:40:23Z</time>
      </trkpt>
      <trkpt lat="43.74232" lon="3.45615">
        <ele>714.9</ele>
        <time>2017-05-07T07:40:27Z</time>
      </trkpt>
      <trkpt lat="43.74224" lon="3.45609">
        <ele>715.7</ele>
        <time>2017-05-07T07:40:30Z</time>
      </trkpt>
      <trkpt lat="43.74215" lon="3.45603">
        <ele>716.3</ele>
        <time>2017-05-07T07:40:34Z</time>
      </trkpt>
      <trkpt lat="43.74206" lon="3.45601">
        <ele>716.6</ele>
        <time>2017-05-07T07:40:37Z</time>
      </trkpt>
      <trkpt lat="43.74197" lon="3.45601">
        <ele>716.8</ele>
        <time>2017-05-07T07:40:40Z</time>
      </trkpt>
      <trkpt lat="43.7419" lon="3.45604">
        <ele>717</ele>
        <time>2017-05-07T07:40:44Z</time>
      </trkpt>
      <trkpt lat="43.7418" lon="3.45607">
        <ele>717.2</ele>
        <time>2017-05-07T07:40:48Z</time>
      </trkpt>
      <trkpt lat="43.74172" lon="3.45612">
        <ele>717.4</ele>
        <time>2017-05-07T07:40:52Z</time>
      </trkpt>
      <trkpt lat="43.74163" lon="3.45615">
        <ele>717.8</ele>
        <time>2017-05-07T07:40:55Z</time>
      </trkpt>
      <trkpt lat="43.74156" lon="3.45619">
        <ele>718.2</ele>
        <time>2017-05-07T07:40:58Z</time>
      </trkpt>
      <trkpt lat="43.74147" lon="3.45623">
        <ele>718.8</ele>
        <time>2017-05-07T07:41:02Z</time>
      </trkpt>
      <trkpt lat="43.7414" lon="3.45627">
        <ele>719.3</ele>
        <time>2017-05-07T07:41:05Z</time>
      </trkpt>
      <trkpt lat="43.74131" lon="3.45631">
        <ele>719.7</ele>
        <time>2017-05-07T07:41:08Z</time>
      </trkpt>
      <trkpt lat="43.74123" lon="3.45634">
        <ele>720</ele>
        <time>2017-05-07T07:41:11Z</time>
      </trkpt>
      <trkpt lat="43.74116" lon="3.45636">
        <ele>720.3</ele>
        <time>2017-05-07T07:41:14Z</time>
      </trkpt>
      <trkpt lat="43.74108" lon="3.45638">
        <ele>720.6</ele>
        <time>2017-05-07T07:41:17Z</time>
      </trkpt>
      <trkpt lat="43.74101" lon="3.45641">
        <ele>720.6</ele>
        <time>2017-05-07T07:41:20Z</time>
      </trkpt>
      <trkpt lat="43.74096" lon="3.45649">
        <ele>720.9</ele>
        <time>2017-05-07T07:41:24Z</time>
      </trkpt>
      <trkpt lat="43.74105" lon="3.45651">
        <ele>721.7</ele>
        <time>2017-05-07T07:41:30Z</time>
      </trkpt>
      <trkpt lat="43.74113" lon="3.45652">
        <ele>722.1</ele>
        <time>2017-05-07T07:41:33Z</time>
      </trkpt>
      <trkpt lat="43.74122" lon="3.45652">
        <ele>722.6</ele>
        <time>2017-05-07T07:41:37Z</time>
      </trkpt>
      <trkpt lat="43.74131" lon="3.45652">
        <ele>723.3</ele>
        <time>2017-05-07T07:41:41Z</time>
      </trkpt>
      <trkpt lat="43.74138" lon="3.45651">
        <ele>723.7</ele>
        <time>2017-05-07T07:41:44Z</time>
      </trkpt>
      <trkpt lat="43.74147" lon="3.45649">
        <ele>723.9</ele>
        <time>2017-05-07T07:41:48Z</time>
      </trkpt>
      <trkpt lat="43.74155" lon="3.45645">
        <ele>724.5</ele>
        <time>2017-05-07T07:41:52Z</time>
      </trkpt>
      <trkpt lat="43.74163" lon="3.45642">
        <ele>724.8</ele>
        <time>2017-05-07T07:41:55Z</time>
      </trkpt>
      <trkpt lat="43.74171" lon="3.45641">
        <ele>725.2</ele>
        <time>2017-05-07T07:41:59Z</time>
      </trkpt>
      <trkpt lat="43.74178" lon="3.4564">
        <ele>725.6</ele>
        <time>2017-05-07T07:42:01Z</time>
      </trkpt>
      <trkpt lat="43.74188" lon="3.45641">
        <ele>726.2</ele>
        <time>2017-05-07T07:42:06Z</time>
      </trkpt>
      <trkpt lat="43.74195" lon="3.45645">
        <ele>727.1</ele>
        <time>2017-05-07T07:42:09Z</time>
      </trkpt>
      <trkpt lat="43.74203" lon="3.4565">
        <ele>728.2</ele>
        <time>2017-05-07T07:42:13Z</time>
      </trkpt>
      <trkpt lat="43.74211" lon="3.45653">
        <ele>729.2</ele>
        <time>2017-05-07T07:42:17Z</time>
      </trkpt>
      <trkpt lat="43.74218" lon="3.45657">
        <ele>729.7</ele>
        <time>2017-05-07T07:42:20Z</time>
      </trkpt>
      <trkpt lat="43.74225" lon="3.45663">
        <ele>730.5</ele>
        <time>2017-05-07T07:42:24Z</time>
      </trkpt>
      <trkpt lat="43.74234" lon="3.45671">
        <ele>731.6</ele>
        <time>2017-05-07T07:42:28Z</time>
      </trkpt>
      <trkpt lat="43.7424" lon="3.45678">
        <ele>732.4</ele>
        <time>2017-05-07T07:42:31Z</time>
      </trkpt>
      <trkpt lat="43.74247" lon="3.45685">
        <ele>733.3</ele>
        <time>2017-05-07T07:42:35Z</time>
      </trkpt>
      <trkpt lat="43.74253" lon="3.45695">
        <ele>734.4</ele>
        <time>2017-05-07T07:42:39Z</time>
      </trkpt>
      <trkpt lat="43.74259" lon="3.45702">
        <ele>735.1</ele>
        <time>2017-05-07T07:42:42Z</time>
      </trkpt>
      <trkpt lat="43.74266" lon="3.45711">
        <ele>736</ele>
        <time>2017-05-07T07:42:46Z</time>
      </trkpt>
      <trkpt lat="43.74273" lon="3.4572">
        <ele>736.8</ele>
        <time>2017-05-07T07:42:49Z</time>
      </trkpt>
      <trkpt lat="43.74279" lon="3.45727">
        <ele>737.5</ele>
        <time>2017-05-07T07:42:52Z</time>
      </trkpt>
      <trkpt lat="43.74283" lon="3.45734">
        <ele>738.1</ele>
        <time>2017-05-07T07:42:55Z</time>
      </trkpt>
      <trkpt lat="43.74289" lon="3.45741">
        <ele>738.6</ele>
        <time>2017-05-07T07:42:58Z</time>
      </trkpt>
      <trkpt lat="43.74295" lon="3.45749">
        <ele>739.2</ele>
        <time>2017-05-07T07:43:01Z</time>
      </trkpt>
      <trkpt lat="43.743" lon="3.45757">
        <ele>739.8</ele>
        <time>2017-05-07T07:43:04Z</time>
      </trkpt>
      <trkpt lat="43.74306" lon="3.45765">
        <ele>740.5</ele>
        <time>2017-05-07T07:43:08Z</time>
      </trkpt>
      <trkpt lat="43.74313" lon="3.45773">
        <ele>741.2</ele>
        <time>2017-05-07T07:43:12Z</time>
      </trkpt>
      <trkpt lat="43.7432" lon="3.45779">
        <ele>741.8</ele>
        <time>2017-05-07T07:43:15Z</time>
      </trkpt>
      <trkpt lat="43.74327" lon="3.45783">
        <ele>742.7</ele>
        <time>2017-05-07T07:43:19Z</time>
      </trkpt>
      <trkpt lat="43.74336" lon="3.45789">
        <ele>743.7</ele>
        <time>2017-05-07T07:43:24Z</time>
      </trkpt>
      <trkpt lat="43.74345" lon="3.45795">
        <ele>744.5</ele>
        <time>2017-05-07T07:43:28Z</time>
      </trkpt>
      <trkpt lat="43.74352" lon="3.45799">
        <ele>744.9</ele>
        <time>2017-05-07T07:43:31Z</time>
      </trkpt>
      <trkpt lat="43.74361" lon="3.45803">
        <ele>745.3</ele>
        <time>2017-05-07T07:43:35Z</time>
      </trkpt>
      <trkpt lat="43.7437" lon="3.45807">
        <ele>746</ele>
        <time>2017-05-07T07:43:38Z</time>
      </trkpt>
      <trkpt lat="43.74378" lon="3.45809">
        <ele>746.5</ele>
        <time>2017-05-07T07:43:41Z</time>
      </trkpt>
      <trkpt lat="43.74386" lon="3.4581">
        <ele>747</ele>
        <time>2017-05-07T07:43:44Z</time>
      </trkpt>
      <trkpt lat="43.74394" lon="3.4581">
        <ele>747.5</ele>
        <time>2017-05-07T07:43:47Z</time>
      </trkpt>
      <trkpt lat="43.74402" lon="3.4581">
        <ele>748</ele>
        <time>2017-05-07T07:43:50Z</time>
      </trkpt>
      <trkpt lat="43.7441" lon="3.45809">
        <ele>748.7</ele>
        <time>2017-05-07T07:43:53Z</time>
      </trkpt>
      <trkpt lat="43.74418" lon="3.45808">
        <ele>749.3</ele>
        <time>2017-05-07T07:43:56Z</time>
      </trkpt>
      <trkpt lat="43.74425" lon="3.4581">
        <ele>749.9</ele>
        <time>2017-05-07T07:43:59Z</time>
      </trkpt>
      <trkpt lat="43.74433" lon="3.45812">
        <ele>750.2</ele>
        <time>2017-05-07T07:44:02Z</time>
      </trkpt>
      <trkpt lat="43.74442" lon="3.45818">
        <ele>750.7</ele>
        <time>2017-05-07T07:44:06Z</time>
      </trkpt>
      <trkpt lat="43.7445" lon="3.45824">
        <ele>751.3</ele>
        <time>2017-05-07T07:44:10Z</time>
      </trkpt>
      <trkpt lat="43.74457" lon="3.45829">
        <ele>751.5</ele>
        <time>2017-05-07T07:44:13Z</time>
      </trkpt>
      <trkpt lat="43.74465" lon="3.45834">
        <ele>751.8</ele>
        <time>2017-05-07T07:44:16Z</time>
      </trkpt>
      <trkpt lat="43.74473" lon="3.45838">
        <ele>751.8</ele>
        <time>2017-05-07T07:44:19Z</time>
      </trkpt>
      <trkpt lat="43.74479" lon="3.45844">
        <ele>751.7</ele>
        <time>2017-05-07T07:44:22Z</time>
      </trkpt>
      <trkpt lat="43.74484" lon="3.45854">
        <ele>751.7</ele>
        <time>2017-05-07T07:44:26Z</time>
      </trkpt>
      <trkpt lat="43.74488" lon="3.45866">
        <ele>751.8</ele>
        <time>2017-05-07T07:44:30Z</time>
      </trkpt>
      <trkpt lat="43.74491" lon="3.45877">
        <ele>752</ele>
        <time>2017-05-07T07:44:33Z</time>
      </trkpt>
      <trkpt lat="43.74492" lon="3.45887">
        <ele>752.3</ele>
        <time>2017-05-07T07:44:36Z</time>
      </trkpt>
      <trkpt lat="43.74496" lon="3.45896">
        <ele>752.5</ele>
        <time>2017-05-07T07:44:39Z</time>
      </trkpt>
      <trkpt lat="43.74498" lon="3.45907">
        <ele>752.6</ele>
        <time>2017-05-07T07:44:43Z</time>
      </trkpt>
      <trkpt lat="43.74499" lon="3.45919">
        <ele>752.8</ele>
        <time>2017-05-07T07:44:47Z</time>
      </trkpt>
      <trkpt lat="43.74501" lon="3.4593">
        <ele>753.3</ele>
        <time>2017-05-07T07:44:51Z</time>
      </trkpt>
      <trkpt lat="43.74503" lon="3.45941">
        <ele>753.7</ele>
        <time>2017-05-07T07:44:55Z</time>
      </trkpt>
      <trkpt lat="43.74504" lon="3.45951">
        <ele>754.4</ele>
        <time>2017-05-07T07:44:59Z</time>
      </trkpt>
      <trkpt lat="43.74505" lon="3.45962">
        <ele>755.2</ele>
        <time>2017-05-07T07:45:04Z</time>
      </trkpt>
      <trkpt lat="43.74508" lon="3.45968">
        <ele>756.2</ele>
        <time>2017-05-07T07:45:11Z</time>
      </trkpt>
      <trkpt lat="43.74515" lon="3.45961">
        <ele>756.5</ele>
        <time>2017-05-07T07:45:15Z</time>
      </trkpt>
      <trkpt lat="43.7452" lon="3.4596">
        <ele>757.1</ele>
        <time>2017-05-07T07:45:22Z</time>
      </trkpt>
      <trkpt lat="43.74524" lon="3.4595">
        <ele>759.4</ele>
        <time>2017-05-07T07:45:36Z</time>
      </trkpt>
      <trkpt lat="43.74521" lon="3.45944">
        <ele>760.5</ele>
        <time>2017-05-07T07:45:43Z</time>
      </trkpt>
      <trkpt lat="43.74518" lon="3.45935">
        <ele>762</ele>
        <time>2017-05-07T07:45:50Z</time>
      </trkpt>
      <trkpt lat="43.74516" lon="3.45934">
        <ele>762.8</ele>
        <time>2017-05-07T07:45:57Z</time>
      </trkpt>
      <trkpt lat="43.74515" lon="3.45923">
        <ele>763.2</ele>
        <time>2017-05-07T07:46:03Z</time>
      </trkpt>
      <trkpt lat="43.74514" lon="3.45912">
        <ele>763.4</ele>
        <time>2017-05-07T07:46:07Z</time>
      </trkpt>
      <trkpt lat="43.74514" lon="3.45904">
        <ele>763.7</ele>
        <time>2017-05-07T07:46:14Z</time>
      </trkpt>
      <trkpt lat="43.74521" lon="3.45898">
        <ele>764.3</ele>
        <time>2017-05-07T07:46:19Z</time>
      </trkpt>
      <trkpt lat="43.74527" lon="3.45889">
        <ele>765</ele>
        <time>2017-05-07T07:46:24Z</time>
      </trkpt>
      <trkpt lat="43.74528" lon="3.45879">
        <ele>766.1</ele>
        <time>2017-05-07T07:46:30Z</time>
      </trkpt>
      <trkpt lat="43.74534" lon="3.45871">
        <ele>766.9</ele>
        <time>2017-05-07T07:46:33Z</time>
      </trkpt>
      <trkpt lat="43.74541" lon="3.45866">
        <ele>767.6</ele>
        <time>2017-05-07T07:46:39Z</time>
      </trkpt>
      <trkpt lat="43.74548" lon="3.45869">
        <ele>768.2</ele>
        <time>2017-05-07T07:46:44Z</time>
      </trkpt>
      <trkpt lat="43.74553" lon="3.45876">
        <ele>768.7</ele>
        <time>2017-05-07T07:46:48Z</time>
      </trkpt>
      <trkpt lat="43.7456" lon="3.45876">
        <ele>769.5</ele>
        <time>2017-05-07T07:46:53Z</time>
      </trkpt>
      <trkpt lat="43.74568" lon="3.45879">
        <ele>770.6</ele>
        <time>2017-05-07T07:47:00Z</time>
      </trkpt>
      <trkpt lat="43.74577" lon="3.45881">
        <ele>771.5</ele>
        <time>2017-05-07T07:47:06Z</time>
      </trkpt>
      <trkpt lat="43.74584" lon="3.45881">
        <ele>771.9</ele>
        <time>2017-05-07T07:47:08Z</time>
      </trkpt>
      <trkpt lat="43.74593" lon="3.45883">
        <ele>772.9</ele>
        <time>2017-05-07T07:47:12Z</time>
      </trkpt>
      <trkpt lat="43.74601" lon="3.45885">
        <ele>774</ele>
        <time>2017-05-07T07:47:17Z</time>
      </trkpt>
      <trkpt lat="43.7461" lon="3.45887">
        <ele>775.3</ele>
        <time>2017-05-07T07:47:23Z</time>
      </trkpt>
      <trkpt lat="43.74618" lon="3.45889">
        <ele>776.1</ele>
        <time>2017-05-07T07:47:28Z</time>
      </trkpt>
      <trkpt lat="43.74627" lon="3.4589">
        <ele>776.6</ele>
        <time>2017-05-07T07:47:35Z</time>
      </trkpt>
      <trkpt lat="43.74634" lon="3.45892">
        <ele>778.2</ele>
        <time>2017-05-07T07:47:42Z</time>
      </trkpt>
      <trkpt lat="43.74641" lon="3.45891">
        <ele>780</ele>
        <time>2017-05-07T07:47:48Z</time>
      </trkpt>
      <trkpt lat="43.74647" lon="3.45892">
        <ele>781.7</ele>
        <time>2017-05-07T07:47:55Z</time>
      </trkpt>
      <trkpt lat="43.74651" lon="3.45892">
        <ele>783</ele>
        <time>2017-05-07T07:48:02Z</time>
      </trkpt>
      <trkpt lat="43.74657" lon="3.45893">
        <ele>784.7</ele>
        <time>2017-05-07T07:48:09Z</time>
      </trkpt>
      <trkpt lat="43.74662" lon="3.45893">
        <ele>785.8</ele>
        <time>2017-05-07T07:48:16Z</time>
      </trkpt>
      <trkpt lat="43.74666" lon="3.45895">
        <ele>786.4</ele>
        <time>2017-05-07T07:48:23Z</time>
      </trkpt>
      <trkpt lat="43.74668" lon="3.45896">
        <ele>786.9</ele>
        <time>2017-05-07T07:48:30Z</time>
      </trkpt>
      <trkpt lat="43.74671" lon="3.45891">
        <ele>787.2</ele>
        <time>2017-05-07T07:48:37Z</time>
      </trkpt>
      <trkpt lat="43.74673" lon="3.45887">
        <ele>787.2</ele>
        <time>2017-05-07T07:48:44Z</time>
      </trkpt>
      <trkpt lat="43.74676" lon="3.45884">
        <ele>787.3</ele>
        <time>2017-05-07T07:48:51Z</time>
      </trkpt>
      <trkpt lat="43.74687" lon="3.45877">
        <ele>788.4</ele>
        <time>2017-05-07T07:49:04Z</time>
      </trkpt>
      <trkpt lat="43.74694" lon="3.45879">
        <ele>789.3</ele>
        <time>2017-05-07T07:49:11Z</time>
      </trkpt>
      <trkpt lat="43.74702" lon="3.45884">
        <ele>789.8</ele>
        <time>2017-05-07T07:49:16Z</time>
      </trkpt>
      <trkpt lat="43.74709" lon="3.45891">
        <ele>790</ele>
        <time>2017-05-07T07:49:20Z</time>
      </trkpt>
      <trkpt lat="43.74713" lon="3.45899">
        <ele>790.2</ele>
        <time>2017-05-07T07:49:23Z</time>
      </trkpt>
      <trkpt lat="43.74716" lon="3.45909">
        <ele>790.5</ele>
        <time>2017-05-07T07:49:26Z</time>
      </trkpt>
      <trkpt lat="43.74719" lon="3.45919">
        <ele>790.6</ele>
        <time>2017-05-07T07:49:28Z</time>
      </trkpt>
      <trkpt lat="43.74725" lon="3.45924">
        <ele>791.4</ele>
        <time>2017-05-07T07:49:34Z</time>
      </trkpt>
      <trkpt lat="43.74731" lon="3.45924">
        <ele>792.9</ele>
        <time>2017-05-07T07:49:41Z</time>
      </trkpt>
      <trkpt lat="43.74739" lon="3.45919">
        <ele>793.8</ele>
        <time>2017-05-07T07:49:46Z</time>
      </trkpt>
      <trkpt lat="43.74747" lon="3.45914">
        <ele>794.6</ele>
        <time>2017-05-07T07:49:53Z</time>
      </trkpt>
      <trkpt lat="43.74754" lon="3.45906">
        <ele>795.5</ele>
        <time>2017-05-07T07:49:58Z</time>
      </trkpt>
      <trkpt lat="43.74759" lon="3.45897">
        <ele>796.4</ele>
        <time>2017-05-07T07:50:03Z</time>
      </trkpt>
      <trkpt lat="43.74765" lon="3.45889">
        <ele>797.1</ele>
        <time>2017-05-07T07:50:08Z</time>
      </trkpt>
      <trkpt lat="43.74771" lon="3.45883">
        <ele>797.4</ele>
        <time>2017-05-07T07:50:11Z</time>
      </trkpt>
      <trkpt lat="43.74778" lon="3.45876">
        <ele>797.9</ele>
        <time>2017-05-07T07:50:15Z</time>
      </trkpt>
      <trkpt lat="43.74785" lon="3.45866">
        <ele>798.3</ele>
        <time>2017-05-07T07:50:19Z</time>
      </trkpt>
      <trkpt lat="43.7479" lon="3.45858">
        <ele>798.5</ele>
        <time>2017-05-07T07:50:22Z</time>
      </trkpt>
      <trkpt lat="43.74797" lon="3.45853">
        <ele>799</ele>
        <time>2017-05-07T07:50:26Z</time>
      </trkpt>
      <trkpt lat="43.748" lon="3.45842">
        <ele>799.3</ele>
        <time>2017-05-07T07:50:29Z</time>
      </trkpt>
      <trkpt lat="43.74804" lon="3.45833">
        <ele>799.3</ele>
        <time>2017-05-07T07:50:33Z</time>
      </trkpt>
      <trkpt lat="43.7481" lon="3.45824">
        <ele>799.4</ele>
        <time>2017-05-07T07:50:36Z</time>
      </trkpt>
      <trkpt lat="43.74814" lon="3.45814">
        <ele>799.3</ele>
        <time>2017-05-07T07:50:42Z</time>
      </trkpt>
      <trkpt lat="43.74816" lon="3.45803">
        <ele>799.4</ele>
        <time>2017-05-07T07:50:47Z</time>
      </trkpt>
      <trkpt lat="43.74822" lon="3.45796">
        <ele>799.6</ele>
        <time>2017-05-07T07:50:51Z</time>
      </trkpt>
      <trkpt lat="43.74829" lon="3.45792">
        <ele>799.7</ele>
        <time>2017-05-07T07:50:55Z</time>
      </trkpt>
      <trkpt lat="43.74835" lon="3.45784">
        <ele>799.4</ele>
        <time>2017-05-07T07:51:02Z</time>
      </trkpt>
      <trkpt lat="43.74836" lon="3.45779">
        <ele>799.7</ele>
        <time>2017-05-07T07:51:09Z</time>
      </trkpt>
      <trkpt lat="43.74837" lon="3.45774">
        <ele>800</ele>
        <time>2017-05-07T07:51:16Z</time>
      </trkpt>
      <trkpt lat="43.74839" lon="3.45768">
        <ele>800.1</ele>
        <time>2017-05-07T07:51:23Z</time>
      </trkpt>
      <trkpt lat="43.74845" lon="3.45764">
        <ele>800.1</ele>
        <time>2017-05-07T07:51:30Z</time>
      </trkpt>
      <trkpt lat="43.74851" lon="3.45761">
        <ele>800.7</ele>
        <time>2017-05-07T07:51:37Z</time>
      </trkpt>
      <trkpt lat="43.74853" lon="3.45756">
        <ele>801.2</ele>
        <time>2017-05-07T07:51:44Z</time>
      </trkpt>
      <trkpt lat="43.74859" lon="3.45748">
        <ele>801.3</ele>
        <time>2017-05-07T07:51:51Z</time>
      </trkpt>
      <trkpt lat="43.74864" lon="3.45739">
        <ele>801.5</ele>
        <time>2017-05-07T07:51:54Z</time>
      </trkpt>
      <trkpt lat="43.74871" lon="3.45737">
        <ele>801.6</ele>
        <time>2017-05-07T07:51:58Z</time>
      </trkpt>
      <trkpt lat="43.74878" lon="3.45733">
        <ele>801.7</ele>
        <time>2017-05-07T07:52:02Z</time>
      </trkpt>
      <trkpt lat="43.74885" lon="3.45728">
        <ele>801.8</ele>
        <time>2017-05-07T07:52:06Z</time>
      </trkpt>
      <trkpt lat="43.74893" lon="3.45722">
        <ele>801.9</ele>
        <time>2017-05-07T07:52:11Z</time>
      </trkpt>
      <trkpt lat="43.749" lon="3.45715">
        <ele>802</ele>
        <time>2017-05-07T07:52:16Z</time>
      </trkpt>
      <trkpt lat="43.74908" lon="3.45709">
        <ele>802.2</ele>
        <time>2017-05-07T07:52:21Z</time>
      </trkpt>
      <trkpt lat="43.74915" lon="3.45702">
        <ele>802.4</ele>
        <time>2017-05-07T07:52:26Z</time>
      </trkpt>
      <trkpt lat="43.7492" lon="3.45692">
        <ele>802.6</ele>
        <time>2017-05-07T07:52:30Z</time>
      </trkpt>
      <trkpt lat="43.74923" lon="3.4568">
        <ele>802.8</ele>
        <time>2017-05-07T07:52:34Z</time>
      </trkpt>
      <trkpt lat="43.74929" lon="3.45671">
        <ele>803.1</ele>
        <time>2017-05-07T07:52:38Z</time>
      </trkpt>
      <trkpt lat="43.74935" lon="3.45665">
        <ele>803.2</ele>
        <time>2017-05-07T07:52:42Z</time>
      </trkpt>
      <trkpt lat="43.74944" lon="3.45659">
        <ele>803.3</ele>
        <time>2017-05-07T07:52:46Z</time>
      </trkpt>
      <trkpt lat="43.7495" lon="3.4565">
        <ele>803.3</ele>
        <time>2017-05-07T07:52:49Z</time>
      </trkpt>
      <trkpt lat="43.74958" lon="3.45644">
        <ele>803.2</ele>
        <time>2017-05-07T07:52:52Z</time>
      </trkpt>
      <trkpt lat="43.74965" lon="3.45644">
        <ele>803.2</ele>
        <time>2017-05-07T07:52:54Z</time>
      </trkpt>
      <trkpt lat="43.74974" lon="3.45637">
        <ele>803.1</ele>
        <time>2017-05-07T07:52:57Z</time>
      </trkpt>
      <trkpt lat="43.74979" lon="3.45627">
        <ele>802.8</ele>
        <time>2017-05-07T07:53:00Z</time>
      </trkpt>
      <trkpt lat="43.74983" lon="3.45619">
        <ele>802.7</ele>
        <time>2017-05-07T07:53:04Z</time>
      </trkpt>
      <trkpt lat="43.7499" lon="3.45611">
        <ele>802.6</ele>
        <time>2017-05-07T07:53:07Z</time>
      </trkpt>
      <trkpt lat="43.74992" lon="3.45601">
        <ele>802.5</ele>
        <time>2017-05-07T07:53:10Z</time>
      </trkpt>
      <trkpt lat="43.74995" lon="3.45598">
        <ele>802.2</ele>
        <time>2017-05-07T07:53:17Z</time>
      </trkpt>
      <trkpt lat="43.74991" lon="3.45601">
        <ele>801.7</ele>
        <time>2017-05-07T07:53:44Z</time>
      </trkpt>
      <trkpt lat="43.74996" lon="3.45588">
        <ele>801.1</ele>
        <time>2017-05-07T07:53:12Z</time>
      </trkpt>
      <trkpt lat="43.74993" lon="3.45579">
        <ele>800.8</ele>
        <time>2017-05-07T07:54:20Z</time>
      </trkpt>
      <trkpt lat="43.74989" lon="3.45566">
        <ele>800.6</ele>
        <time>2017-05-07T07:54:23Z</time>
      </trkpt>
      <trkpt lat="43.74979" lon="3.45559">
        <ele>800.4</ele>
        <time>2017-05-07T07:54:26Z</time>
      </trkpt>
      <trkpt lat="43.74971" lon="3.45556">
        <ele>800</ele>
        <time>2017-05-07T07:54:30Z</time>
      </trkpt>
      <trkpt lat="43.74978" lon="3.4555">
        <ele>799.2</ele>
        <time>2017-05-07T07:54:36Z</time>
      </trkpt>
      <trkpt lat="43.74987" lon="3.45552">
        <ele>798.9</ele>
        <time>2017-05-07T07:54:40Z</time>
      </trkpt>
      <trkpt lat="43.74995" lon="3.45553">
        <ele>798.7</ele>
        <time>2017-05-07T07:54:43Z</time>
      </trkpt>
      <trkpt lat="43.75002" lon="3.45557">
        <ele>798.6</ele>
        <time>2017-05-07T07:54:48Z</time>
      </trkpt>
      <trkpt lat="43.75009" lon="3.45559">
        <ele>798.4</ele>
        <time>2017-05-07T07:54:52Z</time>
      </trkpt>
      <trkpt lat="43.75017" lon="3.45555">
        <ele>798.1</ele>
        <time>2017-05-07T07:54:57Z</time>
      </trkpt>
      <trkpt lat="43.75025" lon="3.45553">
        <ele>798</ele>
        <time>2017-05-07T07:55:00Z</time>
      </trkpt>
      <trkpt lat="43.75033" lon="3.45555">
        <ele>798</ele>
        <time>2017-05-07T07:55:04Z</time>
      </trkpt>
      <trkpt lat="43.7504" lon="3.45557">
        <ele>798.3</ele>
        <time>2017-05-07T07:55:08Z</time>
      </trkpt>
      <trkpt lat="43.75047" lon="3.45561">
        <ele>798.5</ele>
        <time>2017-05-07T07:55:12Z</time>
      </trkpt>
      <trkpt lat="43.75055" lon="3.45566">
        <ele>798.6</ele>
        <time>2017-05-07T07:55:15Z</time>
      </trkpt>
      <trkpt lat="43.75061" lon="3.45574">
        <ele>798.6</ele>
        <time>2017-05-07T07:55:18Z</time>
      </trkpt>
      <trkpt lat="43.75068" lon="3.45581">
        <ele>798.7</ele>
        <time>2017-05-07T07:55:22Z</time>
      </trkpt>
      <trkpt lat="43.75075" lon="3.45587">
        <ele>798.9</ele>
        <time>2017-05-07T07:55:25Z</time>
      </trkpt>
      <trkpt lat="43.75085" lon="3.45591">
        <ele>799.1</ele>
        <time>2017-05-07T07:55:29Z</time>
      </trkpt>
      <trkpt lat="43.75095" lon="3.45596">
        <ele>800</ele>
        <time>2017-05-07T07:55:32Z</time>
      </trkpt>
      <trkpt lat="43.75103" lon="3.45596">
        <ele>800</ele>
        <time>2017-05-07T07:55:34Z</time>
      </trkpt>
      <trkpt lat="43.75111" lon="3.45597">
        <ele>800.1</ele>
        <time>2017-05-07T07:55:36Z</time>
      </trkpt>
      <trkpt lat="43.75119" lon="3.45603">
        <ele>800</ele>
        <time>2017-05-07T07:55:38Z</time>
      </trkpt>
      <trkpt lat="43.75126" lon="3.45609">
        <ele>799.8</ele>
        <time>2017-05-07T07:55:40Z</time>
      </trkpt>
      <trkpt lat="43.75136" lon="3.45609">
        <ele>799.3</ele>
        <time>2017-05-07T07:55:42Z</time>
      </trkpt>
      <trkpt lat="43.75147" lon="3.45605">
        <ele>799</ele>
        <time>2017-05-07T07:55:44Z</time>
      </trkpt>
      <trkpt lat="43.75157" lon="3.45601">
        <ele>799.6</ele>
        <time>2017-05-07T07:55:46Z</time>
      </trkpt>
      <trkpt lat="43.75168" lon="3.45601">
        <ele>799.5</ele>
        <time>2017-05-07T07:55:48Z</time>
      </trkpt>
      <trkpt lat="43.75174" lon="3.45598">
        <ele>799.2</ele>
        <time>2017-05-07T07:55:50Z</time>
      </trkpt>
      <trkpt lat="43.75183" lon="3.45588">
        <ele>798.9</ele>
        <time>2017-05-07T07:55:53Z</time>
      </trkpt>
      <trkpt lat="43.75191" lon="3.45588">
        <ele>798.7</ele>
        <time>2017-05-07T07:55:55Z</time>
      </trkpt>
      <trkpt lat="43.75197" lon="3.45587">
        <ele>798.6</ele>
        <time>2017-05-07T07:55:57Z</time>
      </trkpt>
      <trkpt lat="43.75206" lon="3.45584">
        <ele>798.5</ele>
        <time>2017-05-07T07:55:59Z</time>
      </trkpt>
      <trkpt lat="43.75215" lon="3.45586">
        <ele>798.3</ele>
        <time>2017-05-07T07:56:01Z</time>
      </trkpt>
      <trkpt lat="43.75223" lon="3.45591">
        <ele>798.4</ele>
        <time>2017-05-07T07:56:03Z</time>
      </trkpt>
      <trkpt lat="43.75232" lon="3.45595">
        <ele>798.3</ele>
        <time>2017-05-07T07:56:05Z</time>
      </trkpt>
      <trkpt lat="43.75244" lon="3.45599">
        <ele>797.4</ele>
        <time>2017-05-07T07:56:07Z</time>
      </trkpt>
      <trkpt lat="43.75252" lon="3.45605">
        <ele>796</ele>
        <time>2017-05-07T07:56:09Z</time>
      </trkpt>
      <trkpt lat="43.75262" lon="3.45611">
        <ele>795.8</ele>
        <time>2017-05-07T07:56:11Z</time>
      </trkpt>
      <trkpt lat="43.75274" lon="3.45613">
        <ele>794.6</ele>
        <time>2017-05-07T07:56:13Z</time>
      </trkpt>
      <trkpt lat="43.75285" lon="3.45615">
        <ele>793.3</ele>
        <time>2017-05-07T07:56:15Z</time>
      </trkpt>
      <trkpt lat="43.75296" lon="3.4562">
        <ele>793.1</ele>
        <time>2017-05-07T07:56:17Z</time>
      </trkpt>
      <trkpt lat="43.75308" lon="3.45626">
        <ele>791.5</ele>
        <time>2017-05-07T07:56:19Z</time>
      </trkpt>
      <trkpt lat="43.75321" lon="3.45629">
        <ele>789.2</ele>
        <time>2017-05-07T07:56:21Z</time>
      </trkpt>
      <trkpt lat="43.75333" lon="3.45638">
        <ele>786.9</ele>
        <time>2017-05-07T07:56:23Z</time>
      </trkpt>
      <trkpt lat="43.75345" lon="3.45639">
        <ele>783.9</ele>
        <time>2017-05-07T07:56:25Z</time>
      </trkpt>
      <trkpt lat="43.75356" lon="3.45634">
        <ele>781.1</ele>
        <time>2017-05-07T07:56:27Z</time>
      </trkpt>
      <trkpt lat="43.75368" lon="3.45634">
        <ele>779.8</ele>
        <time>2017-05-07T07:56:29Z</time>
      </trkpt>
      <trkpt lat="43.75379" lon="3.45638">
        <ele>778.4</ele>
        <time>2017-05-07T07:56:31Z</time>
      </trkpt>
      <trkpt lat="43.7539" lon="3.45641">
        <ele>778</ele>
        <time>2017-05-07T07:56:33Z</time>
      </trkpt>
      <trkpt lat="43.754" lon="3.45642">
        <ele>778.4</ele>
        <time>2017-05-07T07:56:35Z</time>
      </trkpt>
      <trkpt lat="43.75409" lon="3.45642">
        <ele>779.1</ele>
        <time>2017-05-07T07:56:37Z</time>
      </trkpt>
      <trkpt lat="43.75419" lon="3.45641">
        <ele>779.3</ele>
        <time>2017-05-07T07:56:40Z</time>
      </trkpt>
      <trkpt lat="43.75429" lon="3.45641">
        <ele>779.4</ele>
        <time>2017-05-07T07:56:42Z</time>
      </trkpt>
      <trkpt lat="43.75439" lon="3.45648">
        <ele>779.9</ele>
        <time>2017-05-07T07:56:45Z</time>
      </trkpt>
      <trkpt lat="43.75448" lon="3.45658">
        <ele>780.1</ele>
        <time>2017-05-07T07:56:47Z</time>
      </trkpt>
      <trkpt lat="43.75455" lon="3.45668">
        <ele>782.4</ele>
        <time>2017-05-07T07:56:49Z</time>
      </trkpt>
      <trkpt lat="43.75462" lon="3.45678">
        <ele>783.8</ele>
        <time>2017-05-07T07:56:51Z</time>
      </trkpt>
      <trkpt lat="43.75467" lon="3.45688">
        <ele>783.7</ele>
        <time>2017-05-07T07:56:53Z</time>
      </trkpt>
      <trkpt lat="43.75473" lon="3.45703">
        <ele>782.1</ele>
        <time>2017-05-07T07:56:56Z</time>
      </trkpt>
      <trkpt lat="43.7548" lon="3.45713">
        <ele>780.1</ele>
        <time>2017-05-07T07:56:58Z</time>
      </trkpt>
      <trkpt lat="43.75486" lon="3.45723">
        <ele>778.7</ele>
        <time>2017-05-07T07:57:00Z</time>
      </trkpt>
      <trkpt lat="43.75493" lon="3.45741">
        <ele>776.8</ele>
        <time>2017-05-07T07:57:02Z</time>
      </trkpt>
      <trkpt lat="43.75501" lon="3.45747">
        <ele>775.7</ele>
        <time>2017-05-07T07:57:04Z</time>
      </trkpt>
      <trkpt lat="43.75511" lon="3.45744">
        <ele>773.8</ele>
        <time>2017-05-07T07:57:06Z</time>
      </trkpt>
      <trkpt lat="43.7552" lon="3.45743">
        <ele>773.2</ele>
        <time>2017-05-07T07:57:08Z</time>
      </trkpt>
      <trkpt lat="43.75531" lon="3.45744">
        <ele>773.2</ele>
        <time>2017-05-07T07:57:10Z</time>
      </trkpt>
      <trkpt lat="43.75543" lon="3.45746">
        <ele>774</ele>
        <time>2017-05-07T07:57:12Z</time>
      </trkpt>
      <trkpt lat="43.75555" lon="3.45748">
        <ele>774</ele>
        <time>2017-05-07T07:57:14Z</time>
      </trkpt>
      <trkpt lat="43.75564" lon="3.45749">
        <ele>773.9</ele>
        <time>2017-05-07T07:57:16Z</time>
      </trkpt>
      <trkpt lat="43.75572" lon="3.45755">
        <ele>773.8</ele>
        <time>2017-05-07T07:57:18Z</time>
      </trkpt>
      <trkpt lat="43.75579" lon="3.45757">
        <ele>773.8</ele>
        <time>2017-05-07T07:57:20Z</time>
      </trkpt>
      <trkpt lat="43.75587" lon="3.45758">
        <ele>773.3</ele>
        <time>2017-05-07T07:57:22Z</time>
      </trkpt>
      <trkpt lat="43.75596" lon="3.4576">
        <ele>772.1</ele>
        <time>2017-05-07T07:57:24Z</time>
      </trkpt>
      <trkpt lat="43.75605" lon="3.45758">
        <ele>771.7</ele>
        <time>2017-05-07T07:57:26Z</time>
      </trkpt>
      <trkpt lat="43.75613" lon="3.45752">
        <ele>772.5</ele>
        <time>2017-05-07T07:57:29Z</time>
      </trkpt>
      <trkpt lat="43.75621" lon="3.4575">
        <ele>772.6</ele>
        <time>2017-05-07T07:57:30Z</time>
      </trkpt>
      <trkpt lat="43.75627" lon="3.45756">
        <ele>772.6</ele>
        <time>2017-05-07T07:57:33Z</time>
      </trkpt>
      <trkpt lat="43.75634" lon="3.45765">
        <ele>772.4</ele>
        <time>2017-05-07T07:57:35Z</time>
      </trkpt>
      <trkpt lat="43.75643" lon="3.45775">
        <ele>772.1</ele>
        <time>2017-05-07T07:57:37Z</time>
      </trkpt>
      <trkpt lat="43.75655" lon="3.45777">
        <ele>768.8</ele>
        <time>2017-05-07T07:57:39Z</time>
      </trkpt>
      <trkpt lat="43.75666" lon="3.45787">
        <ele>766.2</ele>
        <time>2017-05-07T07:57:41Z</time>
      </trkpt>
      <trkpt lat="43.75674" lon="3.45793">
        <ele>764.2</ele>
        <time>2017-05-07T07:57:43Z</time>
      </trkpt>
      <trkpt lat="43.75683" lon="3.458">
        <ele>763.8</ele>
        <time>2017-05-07T07:57:46Z</time>
      </trkpt>
      <trkpt lat="43.75694" lon="3.45803">
        <ele>762.9</ele>
        <time>2017-05-07T07:57:48Z</time>
      </trkpt>
      <trkpt lat="43.75705" lon="3.45804">
        <ele>761.1</ele>
        <time>2017-05-07T07:57:50Z</time>
      </trkpt>
      <trkpt lat="43.75718" lon="3.45807">
        <ele>758.9</ele>
        <time>2017-05-07T07:57:52Z</time>
      </trkpt>
      <trkpt lat="43.75733" lon="3.45807">
        <ele>757.3</ele>
        <time>2017-05-07T07:57:55Z</time>
      </trkpt>
      <trkpt lat="43.75744" lon="3.45809">
        <ele>756.2</ele>
        <time>2017-05-07T07:57:57Z</time>
      </trkpt>
      <trkpt lat="43.75754" lon="3.45815">
        <ele>755.4</ele>
        <time>2017-05-07T07:57:58Z</time>
      </trkpt>
      <trkpt lat="43.75766" lon="3.45822">
        <ele>754.2</ele>
        <time>2017-05-07T07:58:01Z</time>
      </trkpt>
      <trkpt lat="43.75779" lon="3.45828">
        <ele>752.5</ele>
        <time>2017-05-07T07:58:02Z</time>
      </trkpt>
      <trkpt lat="43.75788" lon="3.45831">
        <ele>751</ele>
        <time>2017-05-07T07:58:04Z</time>
      </trkpt>
      <trkpt lat="43.758" lon="3.45835">
        <ele>750.4</ele>
        <time>2017-05-07T07:58:06Z</time>
      </trkpt>
      <trkpt lat="43.7581" lon="3.45835">
        <ele>749.3</ele>
        <time>2017-05-07T07:58:08Z</time>
      </trkpt>
      <trkpt lat="43.7582" lon="3.45835">
        <ele>747.7</ele>
        <time>2017-05-07T07:58:10Z</time>
      </trkpt>
      <trkpt lat="43.75828" lon="3.45842">
        <ele>746.3</ele>
        <time>2017-05-07T07:58:12Z</time>
      </trkpt>
      <trkpt lat="43.75837" lon="3.45849">
        <ele>745.9</ele>
        <time>2017-05-07T07:58:14Z</time>
      </trkpt>
      <trkpt lat="43.75847" lon="3.45851">
        <ele>745.8</ele>
        <time>2017-05-07T07:58:16Z</time>
      </trkpt>
      <trkpt lat="43.75855" lon="3.45854">
        <ele>745.7</ele>
        <time>2017-05-07T07:58:18Z</time>
      </trkpt>
      <trkpt lat="43.75863" lon="3.45857">
        <ele>745.6</ele>
        <time>2017-05-07T07:58:20Z</time>
      </trkpt>
      <trkpt lat="43.75871" lon="3.45858">
        <ele>746.6</ele>
        <time>2017-05-07T07:58:22Z</time>
      </trkpt>
      <trkpt lat="43.75878" lon="3.45859">
        <ele>746.8</ele>
        <time>2017-05-07T07:58:24Z</time>
      </trkpt>
      <trkpt lat="43.75887" lon="3.45864">
        <ele>746.8</ele>
        <time>2017-05-07T07:58:26Z</time>
      </trkpt>
      <trkpt lat="43.75894" lon="3.45874">
        <ele>746.7</ele>
        <time>2017-05-07T07:58:29Z</time>
      </trkpt>
      <trkpt lat="43.75901" lon="3.45877">
        <ele>746.7</ele>
        <time>2017-05-07T07:58:31Z</time>
      </trkpt>
      <trkpt lat="43.75911" lon="3.45875">
        <ele>746.6</ele>
        <time>2017-05-07T07:58:34Z</time>
      </trkpt>
      <trkpt lat="43.75916" lon="3.45868">
        <ele>746.3</ele>
        <time>2017-05-07T07:58:37Z</time>
      </trkpt>
      <trkpt lat="43.75923" lon="3.4586">
        <ele>746.1</ele>
        <time>2017-05-07T07:58:40Z</time>
      </trkpt>
      <trkpt lat="43.75931" lon="3.45853">
        <ele>746</ele>
        <time>2017-05-07T07:58:43Z</time>
      </trkpt>
      <trkpt lat="43.75938" lon="3.45846">
        <ele>745.8</ele>
        <time>2017-05-07T07:58:46Z</time>
      </trkpt>
      <trkpt lat="43.75943" lon="3.45837">
        <ele>745.5</ele>
        <time>2017-05-07T07:58:49Z</time>
      </trkpt>
      <trkpt lat="43.75945" lon="3.45822">
        <ele>745.3</ele>
        <time>2017-05-07T07:58:53Z</time>
      </trkpt>
      <trkpt lat="43.75946" lon="3.45809">
        <ele>745.1</ele>
        <time>2017-05-07T07:58:56Z</time>
      </trkpt>
      <trkpt lat="43.75945" lon="3.45796">
        <ele>745</ele>
        <time>2017-05-07T07:58:59Z</time>
      </trkpt>
      <trkpt lat="43.75944" lon="3.45784">
        <ele>744.9</ele>
        <time>2017-05-07T07:59:02Z</time>
      </trkpt>
      <trkpt lat="43.75946" lon="3.45772">
        <ele>744.9</ele>
        <time>2017-05-07T07:59:05Z</time>
      </trkpt>
      <trkpt lat="43.75952" lon="3.45762">
        <ele>744.7</ele>
        <time>2017-05-07T07:59:08Z</time>
      </trkpt>
      <trkpt lat="43.75958" lon="3.45752">
        <ele>744.5</ele>
        <time>2017-05-07T07:59:11Z</time>
      </trkpt>
      <trkpt lat="43.75963" lon="3.45743">
        <ele>744.4</ele>
        <time>2017-05-07T07:59:14Z</time>
      </trkpt>
      <trkpt lat="43.75967" lon="3.45732">
        <ele>744.2</ele>
        <time>2017-05-07T07:59:18Z</time>
      </trkpt>
      <trkpt lat="43.75968" lon="3.45722">
        <ele>744.1</ele>
        <time>2017-05-07T07:59:20Z</time>
      </trkpt>
      <trkpt lat="43.75971" lon="3.45711">
        <ele>743.6</ele>
        <time>2017-05-07T07:59:22Z</time>
      </trkpt>
      <trkpt lat="43.75976" lon="3.457">
        <ele>743.4</ele>
        <time>2017-05-07T07:59:25Z</time>
      </trkpt>
      <trkpt lat="43.75981" lon="3.45691">
        <ele>743.3</ele>
        <time>2017-05-07T07:59:27Z</time>
      </trkpt>
      <trkpt lat="43.75985" lon="3.45685">
        <ele>743.4</ele>
        <time>2017-05-07T07:59:29Z</time>
      </trkpt>
      <trkpt lat="43.75991" lon="3.45672">
        <ele>743.7</ele>
        <time>2017-05-07T07:59:34Z</time>
      </trkpt>
      <trkpt lat="43.75995" lon="3.45663">
        <ele>743.9</ele>
        <time>2017-05-07T07:59:36Z</time>
      </trkpt>
      <trkpt lat="43.76001" lon="3.45654">
        <ele>744.1</ele>
        <time>2017-05-07T07:59:38Z</time>
      </trkpt>
      <trkpt lat="43.76007" lon="3.45648">
        <ele>744.2</ele>
        <time>2017-05-07T07:59:40Z</time>
      </trkpt>
      <trkpt lat="43.76015" lon="3.45642">
        <ele>744.2</ele>
        <time>2017-05-07T07:59:43Z</time>
      </trkpt>
      <trkpt lat="43.76022" lon="3.45638">
        <ele>744.2</ele>
        <time>2017-05-07T07:59:45Z</time>
      </trkpt>
      <trkpt lat="43.76029" lon="3.4563">
        <ele>744.3</ele>
        <time>2017-05-07T07:59:47Z</time>
      </trkpt>
      <trkpt lat="43.76035" lon="3.45625">
        <ele>744.3</ele>
        <time>2017-05-07T07:59:49Z</time>
      </trkpt>
      <trkpt lat="43.76043" lon="3.45617">
        <ele>744.3</ele>
        <time>2017-05-07T07:59:52Z</time>
      </trkpt>
      <trkpt lat="43.76052" lon="3.45608">
        <ele>744.4</ele>
        <time>2017-05-07T07:59:55Z</time>
      </trkpt>
      <trkpt lat="43.76058" lon="3.45602">
        <ele>744.5</ele>
        <time>2017-05-07T07:59:57Z</time>
      </trkpt>
      <trkpt lat="43.76065" lon="3.45597">
        <ele>744.5</ele>
        <time>2017-05-07T07:59:59Z</time>
      </trkpt>
      <trkpt lat="43.76074" lon="3.45591">
        <ele>744.5</ele>
        <time>2017-05-07T08:00:02Z</time>
      </trkpt>
      <trkpt lat="43.76083" lon="3.45584">
        <ele>744.7</ele>
        <time>2017-05-07T08:00:05Z</time>
      </trkpt>
      <trkpt lat="43.7609" lon="3.45578">
        <ele>745</ele>
        <time>2017-05-07T08:00:08Z</time>
      </trkpt>
      <trkpt lat="43.761" lon="3.45575">
        <ele>745.1</ele>
        <time>2017-05-07T08:00:11Z</time>
      </trkpt>
      <trkpt lat="43.76109" lon="3.45573">
        <ele>745.1</ele>
        <time>2017-05-07T08:00:13Z</time>
      </trkpt>
      <trkpt lat="43.76118" lon="3.45571">
        <ele>745.2</ele>
        <time>2017-05-07T08:00:16Z</time>
      </trkpt>
      <trkpt lat="43.76125" lon="3.45566">
        <ele>745.3</ele>
        <time>2017-05-07T08:00:18Z</time>
      </trkpt>
      <trkpt lat="43.76133" lon="3.45561">
        <ele>745.5</ele>
        <time>2017-05-07T08:00:21Z</time>
      </trkpt>
      <trkpt lat="43.76142" lon="3.45554">
        <ele>745.7</ele>
        <time>2017-05-07T08:00:24Z</time>
      </trkpt>
      <trkpt lat="43.76148" lon="3.45549">
        <ele>745.8</ele>
        <time>2017-05-07T08:00:26Z</time>
      </trkpt>
      <trkpt lat="43.76156" lon="3.45544">
        <ele>746</ele>
        <time>2017-05-07T08:00:29Z</time>
      </trkpt>
      <trkpt lat="43.76166" lon="3.4554">
        <ele>746.2</ele>
        <time>2017-05-07T08:00:32Z</time>
      </trkpt>
      <trkpt lat="43.76176" lon="3.4554">
        <ele>746.5</ele>
        <time>2017-05-07T08:00:35Z</time>
      </trkpt>
      <trkpt lat="43.76185" lon="3.4554">
        <ele>746.7</ele>
        <time>2017-05-07T08:00:38Z</time>
      </trkpt>
      <trkpt lat="43.76194" lon="3.4554">
        <ele>746.8</ele>
        <time>2017-05-07T08:00:41Z</time>
      </trkpt>
      <trkpt lat="43.76204" lon="3.4554">
        <ele>746.8</ele>
        <time>2017-05-07T08:00:44Z</time>
      </trkpt>
      <trkpt lat="43.76212" lon="3.4554">
        <ele>746.9</ele>
        <time>2017-05-07T08:00:46Z</time>
      </trkpt>
      <trkpt lat="43.76219" lon="3.45542">
        <ele>747.1</ele>
        <time>2017-05-07T08:00:49Z</time>
      </trkpt>
      <trkpt lat="43.76227" lon="3.45544">
        <ele>747.2</ele>
        <time>2017-05-07T08:00:52Z</time>
      </trkpt>
      <trkpt lat="43.76236" lon="3.45545">
        <ele>747.2</ele>
        <time>2017-05-07T08:00:54Z</time>
      </trkpt>
      <trkpt lat="43.76243" lon="3.45547">
        <ele>747.1</ele>
        <time>2017-05-07T08:00:57Z</time>
      </trkpt>
      <trkpt lat="43.76252" lon="3.45544">
        <ele>747.1</ele>
        <time>2017-05-07T08:01:00Z</time>
      </trkpt>
      <trkpt lat="43.7626" lon="3.45543">
        <ele>747.2</ele>
        <time>2017-05-07T08:01:03Z</time>
      </trkpt>
      <trkpt lat="43.76268" lon="3.45541">
        <ele>747.3</ele>
        <time>2017-05-07T08:01:06Z</time>
      </trkpt>
      <trkpt lat="43.76274" lon="3.45534">
        <ele>747.4</ele>
        <time>2017-05-07T08:01:10Z</time>
      </trkpt>
      <trkpt lat="43.76283" lon="3.45532">
        <ele>747.7</ele>
        <time>2017-05-07T08:01:15Z</time>
      </trkpt>
      <trkpt lat="43.76288" lon="3.45525">
        <ele>748</ele>
        <time>2017-05-07T08:01:19Z</time>
      </trkpt>
      <trkpt lat="43.76291" lon="3.45517">
        <ele>748.1</ele>
        <time>2017-05-07T08:01:26Z</time>
      </trkpt>
      <trkpt lat="43.76288" lon="3.45507">
        <ele>748.1</ele>
        <time>2017-05-07T08:01:29Z</time>
      </trkpt>
      <trkpt lat="43.76291" lon="3.45496">
        <ele>748.3</ele>
        <time>2017-05-07T08:01:32Z</time>
      </trkpt>
      <trkpt lat="43.76299" lon="3.45489">
        <ele>748.5</ele>
        <time>2017-05-07T08:01:34Z</time>
      </trkpt>
      <trkpt lat="43.76308" lon="3.45482">
        <ele>749.1</ele>
        <time>2017-05-07T08:01:36Z</time>
      </trkpt>
      <trkpt lat="43.76316" lon="3.45472">
        <ele>748.9</ele>
        <time>2017-05-07T08:01:38Z</time>
      </trkpt>
      <trkpt lat="43.76326" lon="3.4547">
        <ele>748.9</ele>
        <time>2017-05-07T08:01:40Z</time>
      </trkpt>
      <trkpt lat="43.76337" lon="3.45467">
        <ele>747.8</ele>
        <time>2017-05-07T08:01:42Z</time>
      </trkpt>
      <trkpt lat="43.76346" lon="3.45464">
        <ele>747.3</ele>
        <time>2017-05-07T08:01:44Z</time>
      </trkpt>
      <trkpt lat="43.76355" lon="3.45462">
        <ele>747.1</ele>
        <time>2017-05-07T08:01:46Z</time>
      </trkpt>
      <trkpt lat="43.76363" lon="3.45458">
        <ele>744.8</ele>
        <time>2017-05-07T08:01:48Z</time>
      </trkpt>
      <trkpt lat="43.7637" lon="3.45455">
        <ele>742.8</ele>
        <time>2017-05-07T08:01:50Z</time>
      </trkpt>
      <trkpt lat="43.7637" lon="3.45444">
        <ele>742.2</ele>
        <time>2017-05-07T08:01:56Z</time>
      </trkpt>
      <trkpt lat="43.76363" lon="3.4544">
        <ele>741.3</ele>
        <time>2017-05-07T08:02:01Z</time>
      </trkpt>
      <trkpt lat="43.76369" lon="3.45429">
        <ele>737.5</ele>
        <time>2017-05-07T08:02:05Z</time>
      </trkpt>
      <trkpt lat="43.7637" lon="3.45417">
        <ele>736.8</ele>
        <time>2017-05-07T08:02:08Z</time>
      </trkpt>
      <trkpt lat="43.7637" lon="3.45406">
        <ele>733.4</ele>
        <time>2017-05-07T08:02:10Z</time>
      </trkpt>
      <trkpt lat="43.76369" lon="3.45394">
        <ele>732.5</ele>
        <time>2017-05-07T08:02:13Z</time>
      </trkpt>
      <trkpt lat="43.76362" lon="3.45405">
        <ele>730.9</ele>
        <time>2017-05-07T08:02:18Z</time>
      </trkpt>
      <trkpt lat="43.76354" lon="3.45413">
        <ele>728.4</ele>
        <time>2017-05-07T08:02:25Z</time>
      </trkpt>
      <trkpt lat="43.76347" lon="3.45418">
        <ele>724</ele>
        <time>2017-05-07T08:02:27Z</time>
      </trkpt>
      <trkpt lat="43.76339" lon="3.45421">
        <ele>723.5</ele>
        <time>2017-05-07T08:02:29Z</time>
      </trkpt>
      <trkpt lat="43.76341" lon="3.4541">
        <ele>721.6</ele>
        <time>2017-05-07T08:02:37Z</time>
      </trkpt>
      <trkpt lat="43.76331" lon="3.45413">
        <ele>719.2</ele>
        <time>2017-05-07T08:02:43Z</time>
      </trkpt>
      <trkpt lat="43.76324" lon="3.45409">
        <ele>718.2</ele>
        <time>2017-05-07T08:02:46Z</time>
      </trkpt>
      <trkpt lat="43.76316" lon="3.45406">
        <ele>717</ele>
        <time>2017-05-07T08:02:50Z</time>
      </trkpt>
      <trkpt lat="43.76307" lon="3.45399">
        <ele>715.8</ele>
        <time>2017-05-07T08:02:53Z</time>
      </trkpt>
      <trkpt lat="43.76295" lon="3.45393">
        <ele>704</ele>
        <time>2017-05-07T08:02:56Z</time>
      </trkpt>
      <trkpt lat="43.76286" lon="3.45386">
        <ele>697</ele>
        <time>2017-05-07T08:02:58Z</time>
      </trkpt>
      <trkpt lat="43.76276" lon="3.4538">
        <ele>691.5</ele>
        <time>2017-05-07T08:03:00Z</time>
      </trkpt>
      <trkpt lat="43.76265" lon="3.45376">
        <ele>688.1</ele>
        <time>2017-05-07T08:03:02Z</time>
      </trkpt>
      <trkpt lat="43.76256" lon="3.45368">
        <ele>687.5</ele>
        <time>2017-05-07T08:03:05Z</time>
      </trkpt>
      <trkpt lat="43.7625" lon="3.4536">
        <ele>687.1</ele>
        <time>2017-05-07T08:03:07Z</time>
      </trkpt>
      <trkpt lat="43.76242" lon="3.45353">
        <ele>686.4</ele>
        <time>2017-05-07T08:03:10Z</time>
      </trkpt>
      <trkpt lat="43.76236" lon="3.45345">
        <ele>685.6</ele>
        <time>2017-05-07T08:03:14Z</time>
      </trkpt>
      <trkpt lat="43.76229" lon="3.45339">
        <ele>685</ele>
        <time>2017-05-07T08:03:17Z</time>
      </trkpt>
      <trkpt lat="43.76223" lon="3.45337">
        <ele>683.5</ele>
        <time>2017-05-07T08:03:24Z</time>
      </trkpt>
      <trkpt lat="43.76219" lon="3.45337">
        <ele>682</ele>
        <time>2017-05-07T08:03:31Z</time>
      </trkpt>
      <trkpt lat="43.76214" lon="3.45329">
        <ele>679.9</ele>
        <time>2017-05-07T08:03:38Z</time>
      </trkpt>
      <trkpt lat="43.76205" lon="3.45321">
        <ele>677.7</ele>
        <time>2017-05-07T08:03:48Z</time>
      </trkpt>
      <trkpt lat="43.76196" lon="3.4532">
        <ele>675.5</ele>
        <time>2017-05-07T08:03:50Z</time>
      </trkpt>
      <trkpt lat="43.76188" lon="3.45319">
        <ele>674.9</ele>
        <time>2017-05-07T08:03:53Z</time>
      </trkpt>
      <trkpt lat="43.7618" lon="3.45316">
        <ele>674.6</ele>
        <time>2017-05-07T08:03:55Z</time>
      </trkpt>
      <trkpt lat="43.76171" lon="3.45312">
        <ele>674.2</ele>
        <time>2017-05-07T08:03:58Z</time>
      </trkpt>
      <trkpt lat="43.76162" lon="3.45306">
        <ele>672.1</ele>
        <time>2017-05-07T08:04:00Z</time>
      </trkpt>
      <trkpt lat="43.76151" lon="3.45302">
        <ele>668.5</ele>
        <time>2017-05-07T08:04:02Z</time>
      </trkpt>
      <trkpt lat="43.76142" lon="3.45301">
        <ele>665.1</ele>
        <time>2017-05-07T08:04:04Z</time>
      </trkpt>
      <trkpt lat="43.76134" lon="3.45302">
        <ele>663.5</ele>
        <time>2017-05-07T08:04:06Z</time>
      </trkpt>
      <trkpt lat="43.76126" lon="3.45305">
        <ele>663.1</ele>
        <time>2017-05-07T08:04:10Z</time>
      </trkpt>
      <trkpt lat="43.76118" lon="3.45308">
        <ele>661.3</ele>
        <time>2017-05-07T08:04:13Z</time>
      </trkpt>
      <trkpt lat="43.76108" lon="3.45308">
        <ele>660.9</ele>
        <time>2017-05-07T08:04:16Z</time>
      </trkpt>
      <trkpt lat="43.76101" lon="3.45298">
        <ele>660.3</ele>
        <time>2017-05-07T08:04:20Z</time>
      </trkpt>
      <trkpt lat="43.76097" lon="3.45289">
        <ele>659.6</ele>
        <time>2017-05-07T08:04:23Z</time>
      </trkpt>
      <trkpt lat="43.76106" lon="3.45283">
        <ele>658.7</ele>
        <time>2017-05-07T08:04:27Z</time>
      </trkpt>
      <trkpt lat="43.76109" lon="3.45272">
        <ele>657.9</ele>
        <time>2017-05-07T08:04:30Z</time>
      </trkpt>
      <trkpt lat="43.76106" lon="3.45261">
        <ele>656.7</ele>
        <time>2017-05-07T08:04:35Z</time>
      </trkpt>
      <trkpt lat="43.76112" lon="3.4525">
        <ele>655.4</ele>
        <time>2017-05-07T08:04:40Z</time>
      </trkpt>
      <trkpt lat="43.76119" lon="3.45242">
        <ele>654.6</ele>
        <time>2017-05-07T08:04:43Z</time>
      </trkpt>
      <trkpt lat="43.76129" lon="3.45236">
        <ele>653.7</ele>
        <time>2017-05-07T08:04:46Z</time>
      </trkpt>
      <trkpt lat="43.76136" lon="3.45232">
        <ele>650.9</ele>
        <time>2017-05-07T08:04:48Z</time>
      </trkpt>
      <trkpt lat="43.76144" lon="3.45237">
        <ele>650.4</ele>
        <time>2017-05-07T08:04:51Z</time>
      </trkpt>
      <trkpt lat="43.76154" lon="3.45238">
        <ele>648.9</ele>
        <time>2017-05-07T08:04:54Z</time>
      </trkpt>
      <trkpt lat="43.76167" lon="3.45233">
        <ele>645.9</ele>
        <time>2017-05-07T08:04:56Z</time>
      </trkpt>
      <trkpt lat="43.76174" lon="3.45229">
        <ele>644.7</ele>
        <time>2017-05-07T08:04:57Z</time>
      </trkpt>
      <trkpt lat="43.76186" lon="3.45225">
        <ele>642.1</ele>
        <time>2017-05-07T08:04:59Z</time>
      </trkpt>
      <trkpt lat="43.76195" lon="3.45224">
        <ele>640.8</ele>
        <time>2017-05-07T08:05:01Z</time>
      </trkpt>
      <trkpt lat="43.76203" lon="3.45224">
        <ele>639.9</ele>
        <time>2017-05-07T08:05:03Z</time>
      </trkpt>
      <trkpt lat="43.76212" lon="3.45227">
        <ele>638.5</ele>
        <time>2017-05-07T08:05:05Z</time>
      </trkpt>
      <trkpt lat="43.76219" lon="3.45228">
        <ele>638.3</ele>
        <time>2017-05-07T08:05:07Z</time>
      </trkpt>
      <trkpt lat="43.76227" lon="3.45226">
        <ele>638</ele>
        <time>2017-05-07T08:05:10Z</time>
      </trkpt>
      <trkpt lat="43.76226" lon="3.45213">
        <ele>637.9</ele>
        <time>2017-05-07T08:05:14Z</time>
      </trkpt>
      <trkpt lat="43.76223" lon="3.45201">
        <ele>637.7</ele>
        <time>2017-05-07T08:05:19Z</time>
      </trkpt>
      <trkpt lat="43.76222" lon="3.4519">
        <ele>637.4</ele>
        <time>2017-05-07T08:05:21Z</time>
      </trkpt>
      <trkpt lat="43.76219" lon="3.4518">
        <ele>637.2</ele>
        <time>2017-05-07T08:05:24Z</time>
      </trkpt>
      <trkpt lat="43.76218" lon="3.45167">
        <ele>636.7</ele>
        <time>2017-05-07T08:05:28Z</time>
      </trkpt>
      <trkpt lat="43.76211" lon="3.45155">
        <ele>634.6</ele>
        <time>2017-05-07T08:05:40Z</time>
      </trkpt>
      <trkpt lat="43.76205" lon="3.45147">
        <ele>634.6</ele>
        <time>2017-05-07T08:05:45Z</time>
      </trkpt>
      <trkpt lat="43.76198" lon="3.45142">
        <ele>634.5</ele>
        <time>2017-05-07T08:05:48Z</time>
      </trkpt>
      <trkpt lat="43.76189" lon="3.45134">
        <ele>634.4</ele>
        <time>2017-05-07T08:05:51Z</time>
      </trkpt>
      <trkpt lat="43.76182" lon="3.45126">
        <ele>634.7</ele>
        <time>2017-05-07T08:05:53Z</time>
      </trkpt>
      <trkpt lat="43.76174" lon="3.45118">
        <ele>633.8</ele>
        <time>2017-05-07T08:05:55Z</time>
      </trkpt>
      <trkpt lat="43.76167" lon="3.45105">
        <ele>632.2</ele>
        <time>2017-05-07T08:05:57Z</time>
      </trkpt>
      <trkpt lat="43.76163" lon="3.45091">
        <ele>630.8</ele>
        <time>2017-05-07T08:05:59Z</time>
      </trkpt>
      <trkpt lat="43.76157" lon="3.45081">
        <ele>630</ele>
        <time>2017-05-07T08:06:01Z</time>
      </trkpt>
      <trkpt lat="43.76148" lon="3.45072">
        <ele>629.3</ele>
        <time>2017-05-07T08:06:03Z</time>
      </trkpt>
      <trkpt lat="43.76139" lon="3.45062">
        <ele>628.5</ele>
        <time>2017-05-07T08:06:05Z</time>
      </trkpt>
      <trkpt lat="43.76129" lon="3.45051">
        <ele>626.7</ele>
        <time>2017-05-07T08:06:07Z</time>
      </trkpt>
      <trkpt lat="43.76124" lon="3.45043">
        <ele>625.6</ele>
        <time>2017-05-07T08:06:08Z</time>
      </trkpt>
      <trkpt lat="43.76118" lon="3.45035">
        <ele>624.5</ele>
        <time>2017-05-07T08:06:09Z</time>
      </trkpt>
      <trkpt lat="43.76108" lon="3.45021">
        <ele>621.3</ele>
        <time>2017-05-07T08:06:11Z</time>
      </trkpt>
      <trkpt lat="43.76099" lon="3.45008">
        <ele>619.3</ele>
        <time>2017-05-07T08:06:13Z</time>
      </trkpt>
      <trkpt lat="43.76091" lon="3.45001">
        <ele>617.5</ele>
        <time>2017-05-07T08:06:15Z</time>
      </trkpt>
      <trkpt lat="43.76084" lon="3.44999">
        <ele>617.2</ele>
        <time>2017-05-07T08:06:17Z</time>
      </trkpt>
      <trkpt lat="43.7608" lon="3.44986">
        <ele>613.7</ele>
        <time>2017-05-07T08:06:20Z</time>
      </trkpt>
      <trkpt lat="43.76075" lon="3.4497">
        <ele>610.3</ele>
        <time>2017-05-07T08:06:22Z</time>
      </trkpt>
      <trkpt lat="43.7607" lon="3.44951">
        <ele>606.9</ele>
        <time>2017-05-07T08:06:24Z</time>
      </trkpt>
      <trkpt lat="43.76067" lon="3.44943">
        <ele>605.4</ele>
        <time>2017-05-07T08:06:25Z</time>
      </trkpt>
      <trkpt lat="43.7606" lon="3.44928">
        <ele>602</ele>
        <time>2017-05-07T08:06:27Z</time>
      </trkpt>
      <trkpt lat="43.76056" lon="3.44918">
        <ele>600.3</ele>
        <time>2017-05-07T08:06:28Z</time>
      </trkpt>
      <trkpt lat="43.76053" lon="3.44908">
        <ele>598.6</ele>
        <time>2017-05-07T08:06:29Z</time>
      </trkpt>
      <trkpt lat="43.76048" lon="3.44891">
        <ele>596.2</ele>
        <time>2017-05-07T08:06:31Z</time>
      </trkpt>
      <trkpt lat="43.76043" lon="3.44873">
        <ele>595.1</ele>
        <time>2017-05-07T08:06:33Z</time>
      </trkpt>
      <trkpt lat="43.76032" lon="3.44862">
        <ele>594.7</ele>
        <time>2017-05-07T08:06:35Z</time>
      </trkpt>
      <trkpt lat="43.7602" lon="3.44851">
        <ele>594.1</ele>
        <time>2017-05-07T08:06:37Z</time>
      </trkpt>
      <trkpt lat="43.76009" lon="3.44839">
        <ele>593.4</ele>
        <time>2017-05-07T08:06:39Z</time>
      </trkpt>
      <trkpt lat="43.75999" lon="3.44827">
        <ele>592</ele>
        <time>2017-05-07T08:06:41Z</time>
      </trkpt>
      <trkpt lat="43.75992" lon="3.44819">
        <ele>590.3</ele>
        <time>2017-05-07T08:06:43Z</time>
      </trkpt>
      <trkpt lat="43.75985" lon="3.44813">
        <ele>588.2</ele>
        <time>2017-05-07T08:06:45Z</time>
      </trkpt>
      <trkpt lat="43.75975" lon="3.44808">
        <ele>585.2</ele>
        <time>2017-05-07T08:06:47Z</time>
      </trkpt>
      <trkpt lat="43.75965" lon="3.44798">
        <ele>582.2</ele>
        <time>2017-05-07T08:06:49Z</time>
      </trkpt>
      <trkpt lat="43.75954" lon="3.44785">
        <ele>578.2</ele>
        <time>2017-05-07T08:06:51Z</time>
      </trkpt>
      <trkpt lat="43.75944" lon="3.44773">
        <ele>574.8</ele>
        <time>2017-05-07T08:06:53Z</time>
      </trkpt>
      <trkpt lat="43.75937" lon="3.4477">
        <ele>573.3</ele>
        <time>2017-05-07T08:06:54Z</time>
      </trkpt>
      <trkpt lat="43.7593" lon="3.44766">
        <ele>571.6</ele>
        <time>2017-05-07T08:06:55Z</time>
      </trkpt>
      <trkpt lat="43.75916" lon="3.44759">
        <ele>568.6</ele>
        <time>2017-05-07T08:06:57Z</time>
      </trkpt>
      <trkpt lat="43.75906" lon="3.44754">
        <ele>565.5</ele>
        <time>2017-05-07T08:06:59Z</time>
      </trkpt>
      <trkpt lat="43.75901" lon="3.44744">
        <ele>563.2</ele>
        <time>2017-05-07T08:07:01Z</time>
      </trkpt>
      <trkpt lat="43.75903" lon="3.44733">
        <ele>559.8</ele>
        <time>2017-05-07T08:07:03Z</time>
      </trkpt>
      <trkpt lat="43.75898" lon="3.44722">
        <ele>555.9</ele>
        <time>2017-05-07T08:07:05Z</time>
      </trkpt>
      <trkpt lat="43.75889" lon="3.44711">
        <ele>553</ele>
        <time>2017-05-07T08:07:07Z</time>
      </trkpt>
      <trkpt lat="43.75878" lon="3.44702">
        <ele>551.5</ele>
        <time>2017-05-07T08:07:09Z</time>
      </trkpt>
      <trkpt lat="43.75869" lon="3.44688">
        <ele>550.2</ele>
        <time>2017-05-07T08:07:11Z</time>
      </trkpt>
      <trkpt lat="43.75863" lon="3.4468">
        <ele>549.8</ele>
        <time>2017-05-07T08:07:12Z</time>
      </trkpt>
      <trkpt lat="43.75856" lon="3.44672">
        <ele>549.4</ele>
        <time>2017-05-07T08:07:13Z</time>
      </trkpt>
      <trkpt lat="43.75851" lon="3.44664">
        <ele>549.1</ele>
        <time>2017-05-07T08:07:14Z</time>
      </trkpt>
      <trkpt lat="43.75845" lon="3.44655">
        <ele>548.7</ele>
        <time>2017-05-07T08:07:15Z</time>
      </trkpt>
      <trkpt lat="43.7584" lon="3.44646">
        <ele>548.6</ele>
        <time>2017-05-07T08:07:16Z</time>
      </trkpt>
      <trkpt lat="43.75833" lon="3.44632">
        <ele>547.6</ele>
        <time>2017-05-07T08:07:18Z</time>
      </trkpt>
      <trkpt lat="43.75832" lon="3.44622">
        <ele>546.3</ele>
        <time>2017-05-07T08:07:20Z</time>
      </trkpt>
      <trkpt lat="43.75837" lon="3.4461">
        <ele>546</ele>
        <time>2017-05-07T08:07:23Z</time>
      </trkpt>
      <trkpt lat="43.75841" lon="3.446">
        <ele>545.7</ele>
        <time>2017-05-07T08:07:27Z</time>
      </trkpt>
      <trkpt lat="43.75845" lon="3.4459">
        <ele>545.5</ele>
        <time>2017-05-07T08:07:31Z</time>
      </trkpt>
      <trkpt lat="43.75849" lon="3.4458">
        <ele>545.3</ele>
        <time>2017-05-07T08:07:35Z</time>
      </trkpt>
      <trkpt lat="43.75853" lon="3.44571">
        <ele>545.1</ele>
        <time>2017-05-07T08:07:39Z</time>
      </trkpt>
      <trkpt lat="43.75856" lon="3.44562">
        <ele>545</ele>
        <time>2017-05-07T08:07:43Z</time>
      </trkpt>
      <trkpt lat="43.75859" lon="3.44552">
        <ele>545</ele>
        <time>2017-05-07T08:07:47Z</time>
      </trkpt>
      <trkpt lat="43.75862" lon="3.44543">
        <ele>545</ele>
        <time>2017-05-07T08:07:51Z</time>
      </trkpt>
      <trkpt lat="43.75863" lon="3.44532">
        <ele>545.2</ele>
        <time>2017-05-07T08:07:55Z</time>
      </trkpt>
      <trkpt lat="43.75864" lon="3.4452">
        <ele>545.5</ele>
        <time>2017-05-07T08:08:00Z</time>
      </trkpt>
      <trkpt lat="43.75865" lon="3.4451">
        <ele>545.7</ele>
        <time>2017-05-07T08:08:04Z</time>
      </trkpt>
      <trkpt lat="43.75866" lon="3.44497">
        <ele>546</ele>
        <time>2017-05-07T08:08:09Z</time>
      </trkpt>
      <trkpt lat="43.75868" lon="3.44486">
        <ele>546.4</ele>
        <time>2017-05-07T08:08:14Z</time>
      </trkpt>
      <trkpt lat="43.7587" lon="3.44476">
        <ele>546.6</ele>
        <time>2017-05-07T08:08:18Z</time>
      </trkpt>
      <trkpt lat="43.75874" lon="3.44465">
        <ele>546.9</ele>
        <time>2017-05-07T08:08:23Z</time>
      </trkpt>
      <trkpt lat="43.75878" lon="3.44453">
        <ele>547.1</ele>
        <time>2017-05-07T08:08:28Z</time>
      </trkpt>
      <trkpt lat="43.7588" lon="3.44443">
        <ele>547.4</ele>
        <time>2017-05-07T08:08:33Z</time>
      </trkpt>
      <trkpt lat="43.75883" lon="3.44432">
        <ele>547.8</ele>
        <time>2017-05-07T08:08:38Z</time>
      </trkpt>
      <trkpt lat="43.75887" lon="3.44422">
        <ele>548.3</ele>
        <time>2017-05-07T08:08:43Z</time>
      </trkpt>
      <trkpt lat="43.75891" lon="3.44411">
        <ele>548.8</ele>
        <time>2017-05-07T08:08:48Z</time>
      </trkpt>
      <trkpt lat="43.75896" lon="3.44402">
        <ele>549.2</ele>
        <time>2017-05-07T08:08:52Z</time>
      </trkpt>
      <trkpt lat="43.75901" lon="3.44392">
        <ele>549.8</ele>
        <time>2017-05-07T08:08:57Z</time>
      </trkpt>
      <trkpt lat="43.75908" lon="3.44385">
        <ele>550.5</ele>
        <time>2017-05-07T08:09:02Z</time>
      </trkpt>
      <trkpt lat="43.75914" lon="3.44379">
        <ele>551.3</ele>
        <time>2017-05-07T08:09:07Z</time>
      </trkpt>
      <trkpt lat="43.7592" lon="3.44374">
        <ele>551.9</ele>
        <time>2017-05-07T08:09:11Z</time>
      </trkpt>
      <trkpt lat="43.75927" lon="3.44367">
        <ele>552.8</ele>
        <time>2017-05-07T08:09:16Z</time>
      </trkpt>
      <trkpt lat="43.75933" lon="3.4436">
        <ele>553.4</ele>
        <time>2017-05-07T08:09:20Z</time>
      </trkpt>
      <trkpt lat="43.75939" lon="3.44352">
        <ele>554.3</ele>
        <time>2017-05-07T08:09:25Z</time>
      </trkpt>
      <trkpt lat="43.75947" lon="3.44348">
        <ele>555.1</ele>
        <time>2017-05-07T08:09:30Z</time>
      </trkpt>
      <trkpt lat="43.75956" lon="3.44348">
        <ele>555.8</ele>
        <time>2017-05-07T08:09:35Z</time>
      </trkpt>
      <trkpt lat="43.75965" lon="3.4435">
        <ele>556.7</ele>
        <time>2017-05-07T08:09:40Z</time>
      </trkpt>
      <trkpt lat="43.75973" lon="3.44351">
        <ele>557.6</ele>
        <time>2017-05-07T08:09:45Z</time>
      </trkpt>
      <trkpt lat="43.7598" lon="3.44351">
        <ele>558.3</ele>
        <time>2017-05-07T08:09:49Z</time>
      </trkpt>
      <trkpt lat="43.75989" lon="3.44353">
        <ele>559.2</ele>
        <time>2017-05-07T08:09:54Z</time>
      </trkpt>
      <trkpt lat="43.75996" lon="3.44357">
        <ele>559.9</ele>
        <time>2017-05-07T08:09:58Z</time>
      </trkpt>
      <trkpt lat="43.76003" lon="3.44363">
        <ele>560.6</ele>
        <time>2017-05-07T08:10:02Z</time>
      </trkpt>
      <trkpt lat="43.76008" lon="3.44368">
        <ele>561.4</ele>
        <time>2017-05-07T08:10:07Z</time>
      </trkpt>
      <trkpt lat="43.76015" lon="3.44375">
        <ele>562.2</ele>
        <time>2017-05-07T08:10:11Z</time>
      </trkpt>
      <trkpt lat="43.76024" lon="3.44379">
        <ele>563.1</ele>
        <time>2017-05-07T08:10:15Z</time>
      </trkpt>
      <trkpt lat="43.76032" lon="3.44382">
        <ele>563.7</ele>
        <time>2017-05-07T08:10:19Z</time>
      </trkpt>
      <trkpt lat="43.76041" lon="3.44384">
        <ele>564.3</ele>
        <time>2017-05-07T08:10:23Z</time>
      </trkpt>
      <trkpt lat="43.76048" lon="3.44385">
        <ele>564.9</ele>
        <time>2017-05-07T08:10:27Z</time>
      </trkpt>
      <trkpt lat="43.76056" lon="3.44384">
        <ele>565.5</ele>
        <time>2017-05-07T08:10:31Z</time>
      </trkpt>
      <trkpt lat="43.76063" lon="3.44385">
        <ele>566.1</ele>
        <time>2017-05-07T08:10:35Z</time>
      </trkpt>
      <trkpt lat="43.76072" lon="3.44386">
        <ele>566.7</ele>
        <time>2017-05-07T08:10:39Z</time>
      </trkpt>
      <trkpt lat="43.7608" lon="3.44387">
        <ele>567.2</ele>
        <time>2017-05-07T08:10:43Z</time>
      </trkpt>
      <trkpt lat="43.76088" lon="3.44392">
        <ele>567.8</ele>
        <time>2017-05-07T08:10:47Z</time>
      </trkpt>
      <trkpt lat="43.76095" lon="3.44397">
        <ele>568.4</ele>
        <time>2017-05-07T08:10:51Z</time>
      </trkpt>
      <trkpt lat="43.76103" lon="3.44402">
        <ele>568.9</ele>
        <time>2017-05-07T08:10:55Z</time>
      </trkpt>
      <trkpt lat="43.76111" lon="3.44405">
        <ele>569.4</ele>
        <time>2017-05-07T08:10:59Z</time>
      </trkpt>
      <trkpt lat="43.76119" lon="3.44408">
        <ele>569.8</ele>
        <time>2017-05-07T08:11:03Z</time>
      </trkpt>
      <trkpt lat="43.76127" lon="3.44412">
        <ele>570.3</ele>
        <time>2017-05-07T08:11:07Z</time>
      </trkpt>
      <trkpt lat="43.76135" lon="3.44416">
        <ele>570.8</ele>
        <time>2017-05-07T08:11:11Z</time>
      </trkpt>
      <trkpt lat="43.76141" lon="3.44421">
        <ele>571.4</ele>
        <time>2017-05-07T08:11:15Z</time>
      </trkpt>
      <trkpt lat="43.76148" lon="3.44428">
        <ele>572</ele>
        <time>2017-05-07T08:11:19Z</time>
      </trkpt>
      <trkpt lat="43.76153" lon="3.44436">
        <ele>572.6</ele>
        <time>2017-05-07T08:11:23Z</time>
      </trkpt>
      <trkpt lat="43.76159" lon="3.44443">
        <ele>573.1</ele>
        <time>2017-05-07T08:11:27Z</time>
      </trkpt>
      <trkpt lat="43.76165" lon="3.44452">
        <ele>573.9</ele>
        <time>2017-05-07T08:11:32Z</time>
      </trkpt>
      <trkpt lat="43.76172" lon="3.44457">
        <ele>574.3</ele>
        <time>2017-05-07T08:11:35Z</time>
      </trkpt>
      <trkpt lat="43.7618" lon="3.44457">
        <ele>574.7</ele>
        <time>2017-05-07T08:11:38Z</time>
      </trkpt>
      <trkpt lat="43.76187" lon="3.44454">
        <ele>575.4</ele>
        <time>2017-05-07T08:11:42Z</time>
      </trkpt>
      <trkpt lat="43.76194" lon="3.44448">
        <ele>576.1</ele>
        <time>2017-05-07T08:11:46Z</time>
      </trkpt>
      <trkpt lat="43.762" lon="3.4444">
        <ele>576.9</ele>
        <time>2017-05-07T08:11:50Z</time>
      </trkpt>
      <trkpt lat="43.76206" lon="3.44432">
        <ele>577.5</ele>
        <time>2017-05-07T08:11:54Z</time>
      </trkpt>
      <trkpt lat="43.76214" lon="3.44425">
        <ele>578</ele>
        <time>2017-05-07T08:11:58Z</time>
      </trkpt>
      <trkpt lat="43.7622" lon="3.44424">
        <ele>578.6</ele>
        <time>2017-05-07T08:12:02Z</time>
      </trkpt>
      <trkpt lat="43.76229" lon="3.44425">
        <ele>579.1</ele>
        <time>2017-05-07T08:12:06Z</time>
      </trkpt>
      <trkpt lat="43.76237" lon="3.44425">
        <ele>579.7</ele>
        <time>2017-05-07T08:12:10Z</time>
      </trkpt>
      <trkpt lat="43.76246" lon="3.44425">
        <ele>580.6</ele>
        <time>2017-05-07T08:12:15Z</time>
      </trkpt>
      <trkpt lat="43.76254" lon="3.44424">
        <ele>581.4</ele>
        <time>2017-05-07T08:12:19Z</time>
      </trkpt>
      <trkpt lat="43.76262" lon="3.44419">
        <ele>581.9</ele>
        <time>2017-05-07T08:12:23Z</time>
      </trkpt>
      <trkpt lat="43.76269" lon="3.44413">
        <ele>582.5</ele>
        <time>2017-05-07T08:12:27Z</time>
      </trkpt>
      <trkpt lat="43.76274" lon="3.44405">
        <ele>583.2</ele>
        <time>2017-05-07T08:12:30Z</time>
      </trkpt>
      <trkpt lat="43.7628" lon="3.44397">
        <ele>583.8</ele>
        <time>2017-05-07T08:12:33Z</time>
      </trkpt>
      <trkpt lat="43.76285" lon="3.44387">
        <ele>584.5</ele>
        <time>2017-05-07T08:12:37Z</time>
      </trkpt>
      <trkpt lat="43.76291" lon="3.44377">
        <ele>585.5</ele>
        <time>2017-05-07T08:12:41Z</time>
      </trkpt>
      <trkpt lat="43.76296" lon="3.44366">
        <ele>586.1</ele>
        <time>2017-05-07T08:12:44Z</time>
      </trkpt>
      <trkpt lat="43.76303" lon="3.44356">
        <ele>586.8</ele>
        <time>2017-05-07T08:12:47Z</time>
      </trkpt>
      <trkpt lat="43.76309" lon="3.44348">
        <ele>587.4</ele>
        <time>2017-05-07T08:12:49Z</time>
      </trkpt>
      <trkpt lat="43.76315" lon="3.44341">
        <ele>587.9</ele>
        <time>2017-05-07T08:12:51Z</time>
      </trkpt>
      <trkpt lat="43.76321" lon="3.44336">
        <ele>592.7</ele>
        <time>2017-05-07T08:12:53Z</time>
      </trkpt>
      <trkpt lat="43.76328" lon="3.44325">
        <ele>595.6</ele>
        <time>2017-05-07T08:12:55Z</time>
      </trkpt>
      <trkpt lat="43.76337" lon="3.44312">
        <ele>595.4</ele>
        <time>2017-05-07T08:12:57Z</time>
      </trkpt>
      <trkpt lat="43.76341" lon="3.44297">
        <ele>593.9</ele>
        <time>2017-05-07T08:12:59Z</time>
      </trkpt>
      <trkpt lat="43.76345" lon="3.44287">
        <ele>592.9</ele>
        <time>2017-05-07T08:13:00Z</time>
      </trkpt>
      <trkpt lat="43.76347" lon="3.44276">
        <ele>592.2</ele>
        <time>2017-05-07T08:13:01Z</time>
      </trkpt>
      <trkpt lat="43.76348" lon="3.44264">
        <ele>591.4</ele>
        <time>2017-05-07T08:13:02Z</time>
      </trkpt>
      <trkpt lat="43.7635" lon="3.44244">
        <ele>590.7</ele>
        <time>2017-05-07T08:13:04Z</time>
      </trkpt>
      <trkpt lat="43.76355" lon="3.44236">
        <ele>590.8</ele>
        <time>2017-05-07T08:13:05Z</time>
      </trkpt>
      <trkpt lat="43.76363" lon="3.44224">
        <ele>590.9</ele>
        <time>2017-05-07T08:13:07Z</time>
      </trkpt>
      <trkpt lat="43.76371" lon="3.44221">
        <ele>591</ele>
        <time>2017-05-07T08:13:09Z</time>
      </trkpt>
      <trkpt lat="43.76379" lon="3.44221">
        <ele>591</ele>
        <time>2017-05-07T08:13:12Z</time>
      </trkpt>
      <trkpt lat="43.76388" lon="3.44222">
        <ele>590.1</ele>
        <time>2017-05-07T08:13:14Z</time>
      </trkpt>
      <trkpt lat="43.76398" lon="3.44224">
        <ele>589.2</ele>
        <time>2017-05-07T08:13:16Z</time>
      </trkpt>
      <trkpt lat="43.76412" lon="3.44222">
        <ele>588.8</ele>
        <time>2017-05-07T08:13:18Z</time>
      </trkpt>
      <trkpt lat="43.76416" lon="3.44214">
        <ele>588.5</ele>
        <time>2017-05-07T08:13:19Z</time>
      </trkpt>
      <trkpt lat="43.76419" lon="3.44202">
        <ele>587.5</ele>
        <time>2017-05-07T08:13:21Z</time>
      </trkpt>
      <trkpt lat="43.76416" lon="3.44189">
        <ele>585.4</ele>
        <time>2017-05-07T08:13:23Z</time>
      </trkpt>
      <trkpt lat="43.76414" lon="3.44171">
        <ele>583.4</ele>
        <time>2017-05-07T08:13:25Z</time>
      </trkpt>
      <trkpt lat="43.76413" lon="3.44156">
        <ele>582.1</ele>
        <time>2017-05-07T08:13:27Z</time>
      </trkpt>
      <trkpt lat="43.76415" lon="3.44141">
        <ele>581.4</ele>
        <time>2017-05-07T08:13:29Z</time>
      </trkpt>
      <trkpt lat="43.76419" lon="3.44124">
        <ele>580.4</ele>
        <time>2017-05-07T08:13:31Z</time>
      </trkpt>
      <trkpt lat="43.76423" lon="3.44109">
        <ele>579.5</ele>
        <time>2017-05-07T08:13:33Z</time>
      </trkpt>
      <trkpt lat="43.76426" lon="3.44093">
        <ele>578.5</ele>
        <time>2017-05-07T08:13:35Z</time>
      </trkpt>
      <trkpt lat="43.76428" lon="3.44078">
        <ele>578.1</ele>
        <time>2017-05-07T08:13:37Z</time>
      </trkpt>
      <trkpt lat="43.76429" lon="3.44063">
        <ele>578.9</ele>
        <time>2017-05-07T08:13:39Z</time>
      </trkpt>
      <trkpt lat="43.76431" lon="3.44047">
        <ele>578.9</ele>
        <time>2017-05-07T08:13:41Z</time>
      </trkpt>
      <trkpt lat="43.76432" lon="3.44031">
        <ele>579.1</ele>
        <time>2017-05-07T08:13:43Z</time>
      </trkpt>
      <trkpt lat="43.76432" lon="3.44015">
        <ele>579.2</ele>
        <time>2017-05-07T08:13:45Z</time>
      </trkpt>
      <trkpt lat="43.76431" lon="3.44001">
        <ele>579.4</ele>
        <time>2017-05-07T08:13:47Z</time>
      </trkpt>
      <trkpt lat="43.76429" lon="3.43992">
        <ele>579.2</ele>
        <time>2017-05-07T08:13:49Z</time>
      </trkpt>
      <trkpt lat="43.76429" lon="3.43978">
        <ele>579.3</ele>
        <time>2017-05-07T08:13:51Z</time>
      </trkpt>
      <trkpt lat="43.76428" lon="3.43966">
        <ele>579.5</ele>
        <time>2017-05-07T08:13:54Z</time>
      </trkpt>
      <trkpt lat="43.76428" lon="3.4395">
        <ele>579.7</ele>
        <time>2017-05-07T08:13:57Z</time>
      </trkpt>
      <trkpt lat="43.76428" lon="3.43938">
        <ele>580.7</ele>
        <time>2017-05-07T08:14:00Z</time>
      </trkpt>
      <trkpt lat="43.7643" lon="3.43928">
        <ele>581</ele>
        <time>2017-05-07T08:14:04Z</time>
      </trkpt>
      <trkpt lat="43.76435" lon="3.43912">
        <ele>581.4</ele>
        <time>2017-05-07T08:14:07Z</time>
      </trkpt>
      <trkpt lat="43.76438" lon="3.43902">
        <ele>581.5</ele>
        <time>2017-05-07T08:14:09Z</time>
      </trkpt>
      <trkpt lat="43.76439" lon="3.43891">
        <ele>581.6</ele>
        <time>2017-05-07T08:14:11Z</time>
      </trkpt>
      <trkpt lat="43.7644" lon="3.43878">
        <ele>581.9</ele>
        <time>2017-05-07T08:14:14Z</time>
      </trkpt>
      <trkpt lat="43.7644" lon="3.43868">
        <ele>582.3</ele>
        <time>2017-05-07T08:14:16Z</time>
      </trkpt>
      <trkpt lat="43.76442" lon="3.43852">
        <ele>582.5</ele>
        <time>2017-05-07T08:14:19Z</time>
      </trkpt>
      <trkpt lat="43.76444" lon="3.43838">
        <ele>582.8</ele>
        <time>2017-05-07T08:14:21Z</time>
      </trkpt>
      <trkpt lat="43.76447" lon="3.43824">
        <ele>583.5</ele>
        <time>2017-05-07T08:14:23Z</time>
      </trkpt>
      <trkpt lat="43.76453" lon="3.4381">
        <ele>583.5</ele>
        <time>2017-05-07T08:14:25Z</time>
      </trkpt>
      <trkpt lat="43.76458" lon="3.43792">
        <ele>584.3</ele>
        <time>2017-05-07T08:14:27Z</time>
      </trkpt>
      <trkpt lat="43.7646" lon="3.43774">
        <ele>585.3</ele>
        <time>2017-05-07T08:14:29Z</time>
      </trkpt>
      <trkpt lat="43.76462" lon="3.43758">
        <ele>585.1</ele>
        <time>2017-05-07T08:14:31Z</time>
      </trkpt>
      <trkpt lat="43.76459" lon="3.43746">
        <ele>584.8</ele>
        <time>2017-05-07T08:14:32Z</time>
      </trkpt>
      <trkpt lat="43.76451" lon="3.43731">
        <ele>584.2</ele>
        <time>2017-05-07T08:14:34Z</time>
      </trkpt>
      <trkpt lat="43.76444" lon="3.43723">
        <ele>584.2</ele>
        <time>2017-05-07T08:14:35Z</time>
      </trkpt>
      <trkpt lat="43.76432" lon="3.43714">
        <ele>581.8</ele>
        <time>2017-05-07T08:14:37Z</time>
      </trkpt>
      <trkpt lat="43.76424" lon="3.43709">
        <ele>580.2</ele>
        <time>2017-05-07T08:14:38Z</time>
      </trkpt>
      <trkpt lat="43.76417" lon="3.43704">
        <ele>578.5</ele>
        <time>2017-05-07T08:14:39Z</time>
      </trkpt>
      <trkpt lat="43.76409" lon="3.437">
        <ele>576.9</ele>
        <time>2017-05-07T08:14:40Z</time>
      </trkpt>
      <trkpt lat="43.76402" lon="3.43695">
        <ele>575.5</ele>
        <time>2017-05-07T08:14:41Z</time>
      </trkpt>
      <trkpt lat="43.76397" lon="3.43686">
        <ele>574.8</ele>
        <time>2017-05-07T08:14:42Z</time>
      </trkpt>
      <trkpt lat="43.76393" lon="3.43678">
        <ele>574.2</ele>
        <time>2017-05-07T08:14:43Z</time>
      </trkpt>
      <trkpt lat="43.76386" lon="3.43667">
        <ele>573.7</ele>
        <time>2017-05-07T08:14:44Z</time>
      </trkpt>
      <trkpt lat="43.76382" lon="3.43658">
        <ele>573.2</ele>
        <time>2017-05-07T08:14:45Z</time>
      </trkpt>
      <trkpt lat="43.76376" lon="3.43646">
        <ele>572.5</ele>
        <time>2017-05-07T08:14:46Z</time>
      </trkpt>
      <trkpt lat="43.76371" lon="3.43634">
        <ele>571.8</ele>
        <time>2017-05-07T08:14:47Z</time>
      </trkpt>
      <trkpt lat="43.76366" lon="3.43625">
        <ele>570.6</ele>
        <time>2017-05-07T08:14:48Z</time>
      </trkpt>
      <trkpt lat="43.76363" lon="3.43615">
        <ele>569.3</ele>
        <time>2017-05-07T08:14:49Z</time>
      </trkpt>
      <trkpt lat="43.76362" lon="3.43603">
        <ele>567.8</ele>
        <time>2017-05-07T08:14:50Z</time>
      </trkpt>
      <trkpt lat="43.76364" lon="3.4359">
        <ele>566</ele>
        <time>2017-05-07T08:14:52Z</time>
      </trkpt>
      <trkpt lat="43.76375" lon="3.43588">
        <ele>564.4</ele>
        <time>2017-05-07T08:14:55Z</time>
      </trkpt>
      <trkpt lat="43.76383" lon="3.43593">
        <ele>562.7</ele>
        <time>2017-05-07T08:14:57Z</time>
      </trkpt>
      <trkpt lat="43.76394" lon="3.43598">
        <ele>562.9</ele>
        <time>2017-05-07T08:14:59Z</time>
      </trkpt>
      <trkpt lat="43.76407" lon="3.43601">
        <ele>563.6</ele>
        <time>2017-05-07T08:15:01Z</time>
      </trkpt>
      <trkpt lat="43.76419" lon="3.43599">
        <ele>563.3</ele>
        <time>2017-05-07T08:15:03Z</time>
      </trkpt>
      <trkpt lat="43.76426" lon="3.43596">
        <ele>563</ele>
        <time>2017-05-07T08:15:04Z</time>
      </trkpt>
      <trkpt lat="43.76433" lon="3.43593">
        <ele>562.6</ele>
        <time>2017-05-07T08:15:05Z</time>
      </trkpt>
      <trkpt lat="43.76441" lon="3.4359">
        <ele>562</ele>
        <time>2017-05-07T08:15:06Z</time>
      </trkpt>
      <trkpt lat="43.76449" lon="3.43591">
        <ele>561.3</ele>
        <time>2017-05-07T08:15:07Z</time>
      </trkpt>
      <trkpt lat="43.76457" lon="3.43591">
        <ele>560.6</ele>
        <time>2017-05-07T08:15:08Z</time>
      </trkpt>
      <trkpt lat="43.76465" lon="3.43591">
        <ele>559.7</ele>
        <time>2017-05-07T08:15:09Z</time>
      </trkpt>
      <trkpt lat="43.76471" lon="3.43587">
        <ele>558.9</ele>
        <time>2017-05-07T08:15:10Z</time>
      </trkpt>
      <trkpt lat="43.76477" lon="3.4358">
        <ele>558.1</ele>
        <time>2017-05-07T08:15:11Z</time>
      </trkpt>
      <trkpt lat="43.76485" lon="3.43563">
        <ele>556.8</ele>
        <time>2017-05-07T08:15:13Z</time>
      </trkpt>
      <trkpt lat="43.76489" lon="3.43553">
        <ele>556.2</ele>
        <time>2017-05-07T08:15:14Z</time>
      </trkpt>
      <trkpt lat="43.76493" lon="3.43543">
        <ele>555.9</ele>
        <time>2017-05-07T08:15:15Z</time>
      </trkpt>
      <trkpt lat="43.76497" lon="3.43533">
        <ele>555.5</ele>
        <time>2017-05-07T08:15:16Z</time>
      </trkpt>
      <trkpt lat="43.76502" lon="3.43525">
        <ele>555.1</ele>
        <time>2017-05-07T08:15:17Z</time>
      </trkpt>
      <trkpt lat="43.76515" lon="3.43518">
        <ele>554.2</ele>
        <time>2017-05-07T08:15:19Z</time>
      </trkpt>
      <trkpt lat="43.76528" lon="3.43517">
        <ele>553.1</ele>
        <time>2017-05-07T08:15:21Z</time>
      </trkpt>
      <trkpt lat="43.76536" lon="3.43515">
        <ele>552.3</ele>
        <time>2017-05-07T08:15:22Z</time>
      </trkpt>
      <trkpt lat="43.76545" lon="3.43512">
        <ele>551.4</ele>
        <time>2017-05-07T08:15:23Z</time>
      </trkpt>
      <trkpt lat="43.76553" lon="3.43507">
        <ele>550.5</ele>
        <time>2017-05-07T08:15:24Z</time>
      </trkpt>
      <trkpt lat="43.76561" lon="3.43504">
        <ele>549.6</ele>
        <time>2017-05-07T08:15:25Z</time>
      </trkpt>
      <trkpt lat="43.76569" lon="3.43499">
        <ele>549.1</ele>
        <time>2017-05-07T08:15:26Z</time>
      </trkpt>
      <trkpt lat="43.76578" lon="3.43494">
        <ele>548.6</ele>
        <time>2017-05-07T08:15:27Z</time>
      </trkpt>
      <trkpt lat="43.76585" lon="3.43486">
        <ele>548.2</ele>
        <time>2017-05-07T08:15:28Z</time>
      </trkpt>
      <trkpt lat="43.76592" lon="3.4348">
        <ele>547.6</ele>
        <time>2017-05-07T08:15:29Z</time>
      </trkpt>
      <trkpt lat="43.76599" lon="3.43476">
        <ele>546.8</ele>
        <time>2017-05-07T08:15:30Z</time>
      </trkpt>
      <trkpt lat="43.76613" lon="3.43474">
        <ele>545.1</ele>
        <time>2017-05-07T08:15:32Z</time>
      </trkpt>
      <trkpt lat="43.7662" lon="3.43475">
        <ele>544.3</ele>
        <time>2017-05-07T08:15:33Z</time>
      </trkpt>
      <trkpt lat="43.76635" lon="3.43478">
        <ele>542.7</ele>
        <time>2017-05-07T08:15:35Z</time>
      </trkpt>
      <trkpt lat="43.76648" lon="3.43476">
        <ele>540.8</ele>
        <time>2017-05-07T08:15:37Z</time>
      </trkpt>
      <trkpt lat="43.76653" lon="3.43468">
        <ele>539.5</ele>
        <time>2017-05-07T08:15:39Z</time>
      </trkpt>
      <trkpt lat="43.76655" lon="3.43457">
        <ele>539</ele>
        <time>2017-05-07T08:15:41Z</time>
      </trkpt>
      <trkpt lat="43.76655" lon="3.43445">
        <ele>539.2</ele>
        <time>2017-05-07T08:15:43Z</time>
      </trkpt>
      <trkpt lat="43.76651" lon="3.43431">
        <ele>539</ele>
        <time>2017-05-07T08:15:45Z</time>
      </trkpt>
      <trkpt lat="43.76647" lon="3.43414">
        <ele>537.7</ele>
        <time>2017-05-07T08:15:47Z</time>
      </trkpt>
      <trkpt lat="43.76644" lon="3.43404">
        <ele>536.5</ele>
        <time>2017-05-07T08:15:48Z</time>
      </trkpt>
      <trkpt lat="43.76641" lon="3.43395">
        <ele>535.7</ele>
        <time>2017-05-07T08:15:49Z</time>
      </trkpt>
      <trkpt lat="43.76635" lon="3.43377">
        <ele>533.6</ele>
        <time>2017-05-07T08:15:51Z</time>
      </trkpt>
      <trkpt lat="43.76632" lon="3.43366">
        <ele>533</ele>
        <time>2017-05-07T08:15:52Z</time>
      </trkpt>
      <trkpt lat="43.76626" lon="3.43349">
        <ele>531.3</ele>
        <time>2017-05-07T08:15:54Z</time>
      </trkpt>
      <trkpt lat="43.76613" lon="3.43342">
        <ele>530.8</ele>
        <time>2017-05-07T08:15:56Z</time>
      </trkpt>
      <trkpt lat="43.76603" lon="3.43331">
        <ele>530.4</ele>
        <time>2017-05-07T08:15:58Z</time>
      </trkpt>
      <trkpt lat="43.76594" lon="3.43319">
        <ele>528.9</ele>
        <time>2017-05-07T08:16:00Z</time>
      </trkpt>
      <trkpt lat="43.76589" lon="3.4331">
        <ele>528.3</ele>
        <time>2017-05-07T08:16:01Z</time>
      </trkpt>
      <trkpt lat="43.76583" lon="3.43304">
        <ele>527.5</ele>
        <time>2017-05-07T08:16:02Z</time>
      </trkpt>
      <trkpt lat="43.76576" lon="3.43297">
        <ele>526.4</ele>
        <time>2017-05-07T08:16:03Z</time>
      </trkpt>
      <trkpt lat="43.76569" lon="3.43293">
        <ele>525.1</ele>
        <time>2017-05-07T08:16:04Z</time>
      </trkpt>
      <trkpt lat="43.76561" lon="3.43291">
        <ele>524</ele>
        <time>2017-05-07T08:16:05Z</time>
      </trkpt>
      <trkpt lat="43.76553" lon="3.43288">
        <ele>523</ele>
        <time>2017-05-07T08:16:06Z</time>
      </trkpt>
      <trkpt lat="43.76545" lon="3.43287">
        <ele>522.1</ele>
        <time>2017-05-07T08:16:07Z</time>
      </trkpt>
      <trkpt lat="43.76537" lon="3.43283">
        <ele>521.2</ele>
        <time>2017-05-07T08:16:08Z</time>
      </trkpt>
      <trkpt lat="43.7653" lon="3.43281">
        <ele>520.3</ele>
        <time>2017-05-07T08:16:09Z</time>
      </trkpt>
      <trkpt lat="43.76523" lon="3.43267">
        <ele>518.6</ele>
        <time>2017-05-07T08:16:11Z</time>
      </trkpt>
      <trkpt lat="43.76518" lon="3.43252">
        <ele>517.3</ele>
        <time>2017-05-07T08:16:13Z</time>
      </trkpt>
      <trkpt lat="43.76513" lon="3.43234">
        <ele>516.4</ele>
        <time>2017-05-07T08:16:15Z</time>
      </trkpt>
      <trkpt lat="43.76507" lon="3.43217">
        <ele>515</ele>
        <time>2017-05-07T08:16:17Z</time>
      </trkpt>
      <trkpt lat="43.76502" lon="3.43202">
        <ele>514.2</ele>
        <time>2017-05-07T08:16:19Z</time>
      </trkpt>
      <trkpt lat="43.76495" lon="3.43189">
        <ele>513.6</ele>
        <time>2017-05-07T08:16:21Z</time>
      </trkpt>
      <trkpt lat="43.76489" lon="3.43177">
        <ele>512.8</ele>
        <time>2017-05-07T08:16:23Z</time>
      </trkpt>
      <trkpt lat="43.76483" lon="3.43166">
        <ele>512.7</ele>
        <time>2017-05-07T08:16:25Z</time>
      </trkpt>
      <trkpt lat="43.76476" lon="3.43153">
        <ele>512.8</ele>
        <time>2017-05-07T08:16:27Z</time>
      </trkpt>
      <trkpt lat="43.76472" lon="3.43138">
        <ele>512.8</ele>
        <time>2017-05-07T08:16:29Z</time>
      </trkpt>
      <trkpt lat="43.76469" lon="3.43124">
        <ele>512.9</ele>
        <time>2017-05-07T08:16:31Z</time>
      </trkpt>
      <trkpt lat="43.76464" lon="3.43107">
        <ele>513.2</ele>
        <time>2017-05-07T08:16:33Z</time>
      </trkpt>
      <trkpt lat="43.76459" lon="3.4309">
        <ele>512.5</ele>
        <time>2017-05-07T08:16:35Z</time>
      </trkpt>
      <trkpt lat="43.76452" lon="3.43072">
        <ele>511.7</ele>
        <time>2017-05-07T08:16:37Z</time>
      </trkpt>
      <trkpt lat="43.76447" lon="3.43063">
        <ele>511.1</ele>
        <time>2017-05-07T08:16:38Z</time>
      </trkpt>
      <trkpt lat="43.76443" lon="3.43053">
        <ele>510.4</ele>
        <time>2017-05-07T08:16:39Z</time>
      </trkpt>
      <trkpt lat="43.7644" lon="3.43043">
        <ele>509.6</ele>
        <time>2017-05-07T08:16:40Z</time>
      </trkpt>
      <trkpt lat="43.76439" lon="3.43031">
        <ele>508.6</ele>
        <time>2017-05-07T08:16:41Z</time>
      </trkpt>
      <trkpt lat="43.7644" lon="3.4302">
        <ele>507.7</ele>
        <time>2017-05-07T08:16:42Z</time>
      </trkpt>
      <trkpt lat="43.76444" lon="3.43011">
        <ele>506.9</ele>
        <time>2017-05-07T08:16:43Z</time>
      </trkpt>
      <trkpt lat="43.76453" lon="3.42995">
        <ele>505.7</ele>
        <time>2017-05-07T08:16:45Z</time>
      </trkpt>
      <trkpt lat="43.76457" lon="3.4298">
        <ele>504.6</ele>
        <time>2017-05-07T08:16:47Z</time>
      </trkpt>
      <trkpt lat="43.76451" lon="3.42969">
        <ele>503.9</ele>
        <time>2017-05-07T08:16:49Z</time>
      </trkpt>
      <trkpt lat="43.76441" lon="3.42968">
        <ele>503.2</ele>
        <time>2017-05-07T08:16:51Z</time>
      </trkpt>
      <trkpt lat="43.76429" lon="3.42964">
        <ele>502.4</ele>
        <time>2017-05-07T08:16:53Z</time>
      </trkpt>
      <trkpt lat="43.76416" lon="3.42954">
        <ele>501.2</ele>
        <time>2017-05-07T08:16:55Z</time>
      </trkpt>
      <trkpt lat="43.76409" lon="3.42948">
        <ele>500.9</ele>
        <time>2017-05-07T08:16:56Z</time>
      </trkpt>
      <trkpt lat="43.76403" lon="3.42942">
        <ele>500.5</ele>
        <time>2017-05-07T08:16:57Z</time>
      </trkpt>
      <trkpt lat="43.76396" lon="3.42936">
        <ele>500.2</ele>
        <time>2017-05-07T08:16:58Z</time>
      </trkpt>
      <trkpt lat="43.76388" lon="3.4293">
        <ele>499.8</ele>
        <time>2017-05-07T08:16:59Z</time>
      </trkpt>
      <trkpt lat="43.76382" lon="3.42926">
        <ele>499.3</ele>
        <time>2017-05-07T08:17:00Z</time>
      </trkpt>
      <trkpt lat="43.76374" lon="3.42921">
        <ele>498.7</ele>
        <time>2017-05-07T08:17:01Z</time>
      </trkpt>
      <trkpt lat="43.76366" lon="3.42918">
        <ele>498.3</ele>
        <time>2017-05-07T08:17:02Z</time>
      </trkpt>
      <trkpt lat="43.76358" lon="3.42914">
        <ele>497.3</ele>
        <time>2017-05-07T08:17:03Z</time>
      </trkpt>
      <trkpt lat="43.76348" lon="3.4291">
        <ele>496.4</ele>
        <time>2017-05-07T08:17:04Z</time>
      </trkpt>
      <trkpt lat="43.76341" lon="3.42906">
        <ele>495.7</ele>
        <time>2017-05-07T08:17:05Z</time>
      </trkpt>
      <trkpt lat="43.76333" lon="3.42903">
        <ele>494.7</ele>
        <time>2017-05-07T08:17:06Z</time>
      </trkpt>
      <trkpt lat="43.76325" lon="3.429">
        <ele>493.9</ele>
        <time>2017-05-07T08:17:07Z</time>
      </trkpt>
      <trkpt lat="43.76318" lon="3.42895">
        <ele>492.8</ele>
        <time>2017-05-07T08:17:08Z</time>
      </trkpt>
      <trkpt lat="43.7631" lon="3.42884">
        <ele>490.9</ele>
        <time>2017-05-07T08:17:10Z</time>
      </trkpt>
      <trkpt lat="43.7631" lon="3.4287">
        <ele>489.9</ele>
        <time>2017-05-07T08:17:12Z</time>
      </trkpt>
      <trkpt lat="43.76312" lon="3.42853">
        <ele>488.9</ele>
        <time>2017-05-07T08:17:14Z</time>
      </trkpt>
      <trkpt lat="43.76314" lon="3.42843">
        <ele>488.1</ele>
        <time>2017-05-07T08:17:15Z</time>
      </trkpt>
      <trkpt lat="43.76317" lon="3.42825">
        <ele>487</ele>
        <time>2017-05-07T08:17:17Z</time>
      </trkpt>
      <trkpt lat="43.76318" lon="3.42813">
        <ele>486.2</ele>
        <time>2017-05-07T08:17:18Z</time>
      </trkpt>
      <trkpt lat="43.76319" lon="3.42802">
        <ele>485.2</ele>
        <time>2017-05-07T08:17:19Z</time>
      </trkpt>
      <trkpt lat="43.76319" lon="3.42792">
        <ele>484.3</ele>
        <time>2017-05-07T08:17:20Z</time>
      </trkpt>
      <trkpt lat="43.76319" lon="3.42781">
        <ele>483.6</ele>
        <time>2017-05-07T08:17:21Z</time>
      </trkpt>
      <trkpt lat="43.7632" lon="3.42771">
        <ele>483.2</ele>
        <time>2017-05-07T08:17:22Z</time>
      </trkpt>
      <trkpt lat="43.76321" lon="3.42761">
        <ele>482.8</ele>
        <time>2017-05-07T08:17:23Z</time>
      </trkpt>
      <trkpt lat="43.7632" lon="3.42741">
        <ele>482</ele>
        <time>2017-05-07T08:17:25Z</time>
      </trkpt>
      <trkpt lat="43.76317" lon="3.42731">
        <ele>481.7</ele>
        <time>2017-05-07T08:17:26Z</time>
      </trkpt>
      <trkpt lat="43.76312" lon="3.42722">
        <ele>481.4</ele>
        <time>2017-05-07T08:17:27Z</time>
      </trkpt>
      <trkpt lat="43.76303" lon="3.4271">
        <ele>481.9</ele>
        <time>2017-05-07T08:17:29Z</time>
      </trkpt>
      <trkpt lat="43.76294" lon="3.427">
        <ele>481.6</ele>
        <time>2017-05-07T08:17:31Z</time>
      </trkpt>
      <trkpt lat="43.76283" lon="3.42692">
        <ele>482.1</ele>
        <time>2017-05-07T08:17:33Z</time>
      </trkpt>
      <trkpt lat="43.76272" lon="3.42684">
        <ele>482.6</ele>
        <time>2017-05-07T08:17:35Z</time>
      </trkpt>
      <trkpt lat="43.76262" lon="3.42678">
        <ele>483.2</ele>
        <time>2017-05-07T08:17:37Z</time>
      </trkpt>
      <trkpt lat="43.76251" lon="3.42672">
        <ele>483.6</ele>
        <time>2017-05-07T08:17:39Z</time>
      </trkpt>
      <trkpt lat="43.76241" lon="3.42667">
        <ele>484.4</ele>
        <time>2017-05-07T08:17:41Z</time>
      </trkpt>
      <trkpt lat="43.76233" lon="3.42664">
        <ele>484.3</ele>
        <time>2017-05-07T08:17:43Z</time>
      </trkpt>
      <trkpt lat="43.76224" lon="3.42663">
        <ele>484.5</ele>
        <time>2017-05-07T08:17:46Z</time>
      </trkpt>
      <trkpt lat="43.76215" lon="3.42663">
        <ele>484.5</ele>
        <time>2017-05-07T08:17:49Z</time>
      </trkpt>
      <trkpt lat="43.76206" lon="3.42663">
        <ele>484.7</ele>
        <time>2017-05-07T08:17:52Z</time>
      </trkpt>
      <trkpt lat="43.76196" lon="3.42662">
        <ele>484.9</ele>
        <time>2017-05-07T08:17:55Z</time>
      </trkpt>
      <trkpt lat="43.76187" lon="3.4266">
        <ele>485.4</ele>
        <time>2017-05-07T08:17:58Z</time>
      </trkpt>
      <trkpt lat="43.7618" lon="3.42654">
        <ele>485.9</ele>
        <time>2017-05-07T08:18:01Z</time>
      </trkpt>
      <trkpt lat="43.76173" lon="3.42648">
        <ele>486.6</ele>
        <time>2017-05-07T08:18:05Z</time>
      </trkpt>
      <trkpt lat="43.76167" lon="3.42641">
        <ele>487.2</ele>
        <time>2017-05-07T08:18:09Z</time>
      </trkpt>
      <trkpt lat="43.7616" lon="3.42631">
        <ele>487.7</ele>
        <time>2017-05-07T08:18:13Z</time>
      </trkpt>
      <trkpt lat="43.76153" lon="3.42624">
        <ele>488.2</ele>
        <time>2017-05-07T08:18:17Z</time>
      </trkpt>
      <trkpt lat="43.76146" lon="3.42619">
        <ele>488.7</ele>
        <time>2017-05-07T08:18:21Z</time>
      </trkpt>
      <trkpt lat="43.76138" lon="3.42616">
        <ele>489.2</ele>
        <time>2017-05-07T08:18:25Z</time>
      </trkpt>
      <trkpt lat="43.76131" lon="3.42617">
        <ele>489.4</ele>
        <time>2017-05-07T08:18:28Z</time>
      </trkpt>
      <trkpt lat="43.76122" lon="3.42616">
        <ele>489.8</ele>
        <time>2017-05-07T08:18:32Z</time>
      </trkpt>
      <trkpt lat="43.76115" lon="3.42615">
        <ele>490.1</ele>
        <time>2017-05-07T08:18:36Z</time>
      </trkpt>
      <trkpt lat="43.76108" lon="3.42614">
        <ele>490.4</ele>
        <time>2017-05-07T08:18:39Z</time>
      </trkpt>
      <trkpt lat="43.76099" lon="3.42615">
        <ele>490.8</ele>
        <time>2017-05-07T08:18:43Z</time>
      </trkpt>
      <trkpt lat="43.76091" lon="3.42618">
        <ele>491.3</ele>
        <time>2017-05-07T08:18:47Z</time>
      </trkpt>
      <trkpt lat="43.76084" lon="3.42624">
        <ele>491.9</ele>
        <time>2017-05-07T08:18:51Z</time>
      </trkpt>
      <trkpt lat="43.76075" lon="3.42628">
        <ele>492.6</ele>
        <time>2017-05-07T08:18:57Z</time>
      </trkpt>
      <trkpt lat="43.76068" lon="3.42632">
        <ele>493.1</ele>
        <time>2017-05-07T08:19:01Z</time>
      </trkpt>
      <trkpt lat="43.7606" lon="3.42634">
        <ele>493.8</ele>
        <time>2017-05-07T08:19:06Z</time>
      </trkpt>
      <trkpt lat="43.76052" lon="3.42636">
        <ele>494.6</ele>
        <time>2017-05-07T08:19:11Z</time>
      </trkpt>
      <trkpt lat="43.76044" lon="3.42637">
        <ele>495.3</ele>
        <time>2017-05-07T08:19:16Z</time>
      </trkpt>
      <trkpt lat="43.76035" lon="3.42637">
        <ele>495.9</ele>
        <time>2017-05-07T08:19:21Z</time>
      </trkpt>
      <trkpt lat="43.76027" lon="3.42638">
        <ele>496.5</ele>
        <time>2017-05-07T08:19:25Z</time>
      </trkpt>
      <trkpt lat="43.76018" lon="3.42639">
        <ele>497</ele>
        <time>2017-05-07T08:19:29Z</time>
      </trkpt>
      <trkpt lat="43.76011" lon="3.42637">
        <ele>497.5</ele>
        <time>2017-05-07T08:19:33Z</time>
      </trkpt>
      <trkpt lat="43.76005" lon="3.42631">
        <ele>498</ele>
        <time>2017-05-07T08:19:37Z</time>
      </trkpt>
      <trkpt lat="43.76" lon="3.42623">
        <ele>498.6</ele>
        <time>2017-05-07T08:19:41Z</time>
      </trkpt>
      <trkpt lat="43.75996" lon="3.42615">
        <ele>499.1</ele>
        <time>2017-05-07T08:19:45Z</time>
      </trkpt>
      <trkpt lat="43.75991" lon="3.42606">
        <ele>499.7</ele>
        <time>2017-05-07T08:19:49Z</time>
      </trkpt>
      <trkpt lat="43.75988" lon="3.42596">
        <ele>500.3</ele>
        <time>2017-05-07T08:19:53Z</time>
      </trkpt>
      <trkpt lat="43.75985" lon="3.42585">
        <ele>501</ele>
        <time>2017-05-07T08:19:58Z</time>
      </trkpt>
      <trkpt lat="43.75984" lon="3.42575">
        <ele>501.7</ele>
        <time>2017-05-07T08:20:02Z</time>
      </trkpt>
      <trkpt lat="43.75983" lon="3.42565">
        <ele>502.6</ele>
        <time>2017-05-07T08:20:07Z</time>
      </trkpt>
      <trkpt lat="43.75983" lon="3.42552">
        <ele>503.4</ele>
        <time>2017-05-07T08:20:13Z</time>
      </trkpt>
      <trkpt lat="43.75983" lon="3.42542">
        <ele>503.8</ele>
        <time>2017-05-07T08:20:17Z</time>
      </trkpt>
      <trkpt lat="43.75983" lon="3.42532">
        <ele>504.5</ele>
        <time>2017-05-07T08:20:22Z</time>
      </trkpt>
      <trkpt lat="43.75981" lon="3.4252">
        <ele>505.3</ele>
        <time>2017-05-07T08:20:27Z</time>
      </trkpt>
      <trkpt lat="43.75979" lon="3.42509">
        <ele>506</ele>
        <time>2017-05-07T08:20:31Z</time>
      </trkpt>
      <trkpt lat="43.75976" lon="3.42498">
        <ele>506.9</ele>
        <time>2017-05-07T08:20:36Z</time>
      </trkpt>
      <trkpt lat="43.75974" lon="3.42488">
        <ele>507.7</ele>
        <time>2017-05-07T08:20:40Z</time>
      </trkpt>
      <trkpt lat="43.7597" lon="3.42476">
        <ele>508.7</ele>
        <time>2017-05-07T08:20:45Z</time>
      </trkpt>
      <trkpt lat="43.75969" lon="3.42467">
        <ele>509.4</ele>
        <time>2017-05-07T08:20:49Z</time>
      </trkpt>
      <trkpt lat="43.75966" lon="3.42457">
        <ele>510.4</ele>
        <time>2017-05-07T08:20:54Z</time>
      </trkpt>
      <trkpt lat="43.75963" lon="3.42445">
        <ele>511.1</ele>
        <time>2017-05-07T08:20:59Z</time>
      </trkpt>
      <trkpt lat="43.75958" lon="3.42435">
        <ele>511.6</ele>
        <time>2017-05-07T08:21:03Z</time>
      </trkpt>
      <trkpt lat="43.75952" lon="3.42426">
        <ele>512.1</ele>
        <time>2017-05-07T08:21:07Z</time>
      </trkpt>
      <trkpt lat="43.75947" lon="3.42419">
        <ele>512.6</ele>
        <time>2017-05-07T08:21:11Z</time>
      </trkpt>
      <trkpt lat="43.75941" lon="3.42411">
        <ele>513.1</ele>
        <time>2017-05-07T08:21:15Z</time>
      </trkpt>
      <trkpt lat="43.75936" lon="3.42402">
        <ele>513.5</ele>
        <time>2017-05-07T08:21:19Z</time>
      </trkpt>
      <trkpt lat="43.7593" lon="3.42394">
        <ele>514.1</ele>
        <time>2017-05-07T08:21:24Z</time>
      </trkpt>
      <trkpt lat="43.75927" lon="3.42392">
        <ele>514.4</ele>
        <time>2017-05-07T08:21:31Z</time>
      </trkpt>
      <trkpt lat="43.75924" lon="3.42393">
        <ele>515.3</ele>
        <time>2017-05-07T08:22:48Z</time>
      </trkpt>
      <trkpt lat="43.75927" lon="3.42394">
        <ele>515.4</ele>
        <time>2017-05-07T08:22:58Z</time>
      </trkpt>
      <trkpt lat="43.75929" lon="3.42395">
        <ele>516.7</ele>
        <time>2017-05-07T08:23:31Z</time>
      </trkpt>
      <trkpt lat="43.75921" lon="3.42384">
        <ele>516.6</ele>
        <time>2017-05-07T08:23:50Z</time>
      </trkpt>
      <trkpt lat="43.75914" lon="3.42377">
        <ele>516.5</ele>
        <time>2017-05-07T08:23:52Z</time>
      </trkpt>
      <trkpt lat="43.75906" lon="3.42368">
        <ele>516.3</ele>
        <time>2017-05-07T08:23:54Z</time>
      </trkpt>
      <trkpt lat="43.75896" lon="3.42357">
        <ele>515.3</ele>
        <time>2017-05-07T08:23:56Z</time>
      </trkpt>
      <trkpt lat="43.7589" lon="3.42348">
        <ele>515.4</ele>
        <time>2017-05-07T08:23:57Z</time>
      </trkpt>
      <trkpt lat="43.75885" lon="3.42339">
        <ele>514.9</ele>
        <time>2017-05-07T08:23:58Z</time>
      </trkpt>
      <trkpt lat="43.7588" lon="3.42329">
        <ele>514.5</ele>
        <time>2017-05-07T08:23:59Z</time>
      </trkpt>
      <trkpt lat="43.75877" lon="3.42319">
        <ele>514.2</ele>
        <time>2017-05-07T08:24:00Z</time>
      </trkpt>
      <trkpt lat="43.75873" lon="3.42311">
        <ele>514.2</ele>
        <time>2017-05-07T08:24:01Z</time>
      </trkpt>
      <trkpt lat="43.75866" lon="3.42305">
        <ele>514.2</ele>
        <time>2017-05-07T08:24:02Z</time>
      </trkpt>
      <trkpt lat="43.75858" lon="3.42302">
        <ele>513.9</ele>
        <time>2017-05-07T08:24:03Z</time>
      </trkpt>
      <trkpt lat="43.75849" lon="3.42302">
        <ele>513.1</ele>
        <time>2017-05-07T08:24:04Z</time>
      </trkpt>
      <trkpt lat="43.75841" lon="3.42303">
        <ele>512</ele>
        <time>2017-05-07T08:24:05Z</time>
      </trkpt>
      <trkpt lat="43.75832" lon="3.42303">
        <ele>510.9</ele>
        <time>2017-05-07T08:24:06Z</time>
      </trkpt>
      <trkpt lat="43.75824" lon="3.423">
        <ele>510</ele>
        <time>2017-05-07T08:24:07Z</time>
      </trkpt>
      <trkpt lat="43.75815" lon="3.42295">
        <ele>509.2</ele>
        <time>2017-05-07T08:24:08Z</time>
      </trkpt>
      <trkpt lat="43.75807" lon="3.42291">
        <ele>508.5</ele>
        <time>2017-05-07T08:24:09Z</time>
      </trkpt>
      <trkpt lat="43.75799" lon="3.42286">
        <ele>508.1</ele>
        <time>2017-05-07T08:24:10Z</time>
      </trkpt>
      <trkpt lat="43.75793" lon="3.42281">
        <ele>507.7</ele>
        <time>2017-05-07T08:24:11Z</time>
      </trkpt>
      <trkpt lat="43.75783" lon="3.42271">
        <ele>506.8</ele>
        <time>2017-05-07T08:24:13Z</time>
      </trkpt>
      <trkpt lat="43.75773" lon="3.4226">
        <ele>506.8</ele>
        <time>2017-05-07T08:24:15Z</time>
      </trkpt>
      <trkpt lat="43.75766" lon="3.42252">
        <ele>507.6</ele>
        <time>2017-05-07T08:24:17Z</time>
      </trkpt>
      <trkpt lat="43.75759" lon="3.42244">
        <ele>507.4</ele>
        <time>2017-05-07T08:24:19Z</time>
      </trkpt>
      <trkpt lat="43.75749" lon="3.42236">
        <ele>506.6</ele>
        <time>2017-05-07T08:24:21Z</time>
      </trkpt>
      <trkpt lat="43.75739" lon="3.42225">
        <ele>506</ele>
        <time>2017-05-07T08:24:23Z</time>
      </trkpt>
      <trkpt lat="43.75728" lon="3.42213">
        <ele>505.5</ele>
        <time>2017-05-07T08:24:25Z</time>
      </trkpt>
      <trkpt lat="43.75723" lon="3.42205">
        <ele>505.3</ele>
        <time>2017-05-07T08:24:26Z</time>
      </trkpt>
      <trkpt lat="43.75718" lon="3.42196">
        <ele>505.1</ele>
        <time>2017-05-07T08:24:27Z</time>
      </trkpt>
      <trkpt lat="43.75712" lon="3.42187">
        <ele>504.5</ele>
        <time>2017-05-07T08:24:28Z</time>
      </trkpt>
      <trkpt lat="43.75709" lon="3.42178">
        <ele>504.1</ele>
        <time>2017-05-07T08:24:29Z</time>
      </trkpt>
      <trkpt lat="43.75704" lon="3.42167">
        <ele>503.6</ele>
        <time>2017-05-07T08:24:30Z</time>
      </trkpt>
      <trkpt lat="43.75699" lon="3.42153">
        <ele>503.4</ele>
        <time>2017-05-07T08:24:31Z</time>
      </trkpt>
      <trkpt lat="43.75694" lon="3.42141">
        <ele>503</ele>
        <time>2017-05-07T08:24:32Z</time>
      </trkpt>
      <trkpt lat="43.75689" lon="3.42127">
        <ele>502</ele>
        <time>2017-05-07T08:24:33Z</time>
      </trkpt>
      <trkpt lat="43.75684" lon="3.42114">
        <ele>501.3</ele>
        <time>2017-05-07T08:24:34Z</time>
      </trkpt>
      <trkpt lat="43.7568" lon="3.421">
        <ele>500.7</ele>
        <time>2017-05-07T08:24:35Z</time>
      </trkpt>
      <trkpt lat="43.75674" lon="3.42088">
        <ele>500.1</ele>
        <time>2017-05-07T08:24:36Z</time>
      </trkpt>
      <trkpt lat="43.7567" lon="3.42074">
        <ele>499.3</ele>
        <time>2017-05-07T08:24:37Z</time>
      </trkpt>
      <trkpt lat="43.75664" lon="3.42066">
        <ele>498.7</ele>
        <time>2017-05-07T08:24:38Z</time>
      </trkpt>
      <trkpt lat="43.75657" lon="3.4206">
        <ele>497.5</ele>
        <time>2017-05-07T08:24:39Z</time>
      </trkpt>
      <trkpt lat="43.75643" lon="3.42053">
        <ele>496.1</ele>
        <time>2017-05-07T08:24:41Z</time>
      </trkpt>
      <trkpt lat="43.75634" lon="3.42047">
        <ele>495.4</ele>
        <time>2017-05-07T08:24:42Z</time>
      </trkpt>
      <trkpt lat="43.75627" lon="3.4204">
        <ele>494.6</ele>
        <time>2017-05-07T08:24:43Z</time>
      </trkpt>
      <trkpt lat="43.75621" lon="3.42033">
        <ele>493.7</ele>
        <time>2017-05-07T08:24:44Z</time>
      </trkpt>
      <trkpt lat="43.75613" lon="3.42024">
        <ele>492.7</ele>
        <time>2017-05-07T08:24:45Z</time>
      </trkpt>
      <trkpt lat="43.75605" lon="3.42015">
        <ele>492.1</ele>
        <time>2017-05-07T08:24:46Z</time>
      </trkpt>
      <trkpt lat="43.75596" lon="3.42007">
        <ele>491.3</ele>
        <time>2017-05-07T08:24:47Z</time>
      </trkpt>
      <trkpt lat="43.75587" lon="3.41999">
        <ele>490.3</ele>
        <time>2017-05-07T08:24:48Z</time>
      </trkpt>
      <trkpt lat="43.75576" lon="3.4199">
        <ele>489.2</ele>
        <time>2017-05-07T08:24:49Z</time>
      </trkpt>
      <trkpt lat="43.75566" lon="3.41981">
        <ele>487.6</ele>
        <time>2017-05-07T08:24:50Z</time>
      </trkpt>
      <trkpt lat="43.75553" lon="3.41972">
        <ele>485.9</ele>
        <time>2017-05-07T08:24:51Z</time>
      </trkpt>
      <trkpt lat="43.75542" lon="3.41963">
        <ele>484.3</ele>
        <time>2017-05-07T08:24:52Z</time>
      </trkpt>
      <trkpt lat="43.75532" lon="3.41955">
        <ele>482.5</ele>
        <time>2017-05-07T08:24:53Z</time>
      </trkpt>
      <trkpt lat="43.75522" lon="3.4195">
        <ele>480.7</ele>
        <time>2017-05-07T08:24:54Z</time>
      </trkpt>
      <trkpt lat="43.7551" lon="3.41943">
        <ele>479</ele>
        <time>2017-05-07T08:24:55Z</time>
      </trkpt>
      <trkpt lat="43.75499" lon="3.41937">
        <ele>477</ele>
        <time>2017-05-07T08:24:56Z</time>
      </trkpt>
      <trkpt lat="43.75489" lon="3.41931">
        <ele>475.2</ele>
        <time>2017-05-07T08:24:57Z</time>
      </trkpt>
      <trkpt lat="43.7548" lon="3.41924">
        <ele>473.4</ele>
        <time>2017-05-07T08:24:58Z</time>
      </trkpt>
      <trkpt lat="43.75475" lon="3.41917">
        <ele>471.6</ele>
        <time>2017-05-07T08:24:59Z</time>
      </trkpt>
      <trkpt lat="43.75468" lon="3.41908">
        <ele>470</ele>
        <time>2017-05-07T08:25:00Z</time>
      </trkpt>
      <trkpt lat="43.75462" lon="3.41899">
        <ele>468.2</ele>
        <time>2017-05-07T08:25:01Z</time>
      </trkpt>
      <trkpt lat="43.75455" lon="3.41889">
        <ele>466.6</ele>
        <time>2017-05-07T08:25:02Z</time>
      </trkpt>
      <trkpt lat="43.75448" lon="3.4188">
        <ele>464.7</ele>
        <time>2017-05-07T08:25:03Z</time>
      </trkpt>
      <trkpt lat="43.75439" lon="3.41869">
        <ele>462.7</ele>
        <time>2017-05-07T08:25:04Z</time>
      </trkpt>
      <trkpt lat="43.75433" lon="3.41858">
        <ele>460.7</ele>
        <time>2017-05-07T08:25:05Z</time>
      </trkpt>
      <trkpt lat="43.75426" lon="3.41848">
        <ele>459</ele>
        <time>2017-05-07T08:25:06Z</time>
      </trkpt>
      <trkpt lat="43.75419" lon="3.41838">
        <ele>458.2</ele>
        <time>2017-05-07T08:25:07Z</time>
      </trkpt>
      <trkpt lat="43.75408" lon="3.41829">
        <ele>456.3</ele>
        <time>2017-05-07T08:25:09Z</time>
      </trkpt>
      <trkpt lat="43.75396" lon="3.41832">
        <ele>454</ele>
        <time>2017-05-07T08:25:11Z</time>
      </trkpt>
      <trkpt lat="43.7539" lon="3.41837">
        <ele>452.5</ele>
        <time>2017-05-07T08:25:12Z</time>
      </trkpt>
      <trkpt lat="43.75383" lon="3.41843">
        <ele>450.9</ele>
        <time>2017-05-07T08:25:13Z</time>
      </trkpt>
      <trkpt lat="43.75375" lon="3.41848">
        <ele>449.2</ele>
        <time>2017-05-07T08:25:14Z</time>
      </trkpt>
      <trkpt lat="43.75367" lon="3.4185">
        <ele>447.4</ele>
        <time>2017-05-07T08:25:15Z</time>
      </trkpt>
      <trkpt lat="43.75359" lon="3.41851">
        <ele>445.9</ele>
        <time>2017-05-07T08:25:16Z</time>
      </trkpt>
      <trkpt lat="43.75351" lon="3.41851">
        <ele>444.4</ele>
        <time>2017-05-07T08:25:17Z</time>
      </trkpt>
      <trkpt lat="43.75342" lon="3.41852">
        <ele>443</ele>
        <time>2017-05-07T08:25:18Z</time>
      </trkpt>
      <trkpt lat="43.75332" lon="3.41859">
        <ele>440.4</ele>
        <time>2017-05-07T08:25:20Z</time>
      </trkpt>
      <trkpt lat="43.75324" lon="3.41869">
        <ele>437.5</ele>
        <time>2017-05-07T08:25:22Z</time>
      </trkpt>
      <trkpt lat="43.75317" lon="3.4188">
        <ele>435</ele>
        <time>2017-05-07T08:25:24Z</time>
      </trkpt>
      <trkpt lat="43.7531" lon="3.41897">
        <ele>432.8</ele>
        <time>2017-05-07T08:25:26Z</time>
      </trkpt>
      <trkpt lat="43.75309" lon="3.41908">
        <ele>432</ele>
        <time>2017-05-07T08:25:27Z</time>
      </trkpt>
      <trkpt lat="43.75313" lon="3.41925">
        <ele>430.7</ele>
        <time>2017-05-07T08:25:29Z</time>
      </trkpt>
      <trkpt lat="43.7532" lon="3.41941">
        <ele>429.9</ele>
        <time>2017-05-07T08:25:31Z</time>
      </trkpt>
      <trkpt lat="43.75323" lon="3.4195">
        <ele>429.4</ele>
        <time>2017-05-07T08:25:32Z</time>
      </trkpt>
      <trkpt lat="43.75325" lon="3.41961">
        <ele>428.8</ele>
        <time>2017-05-07T08:25:33Z</time>
      </trkpt>
      <trkpt lat="43.75327" lon="3.41972">
        <ele>428.1</ele>
        <time>2017-05-07T08:25:34Z</time>
      </trkpt>
      <trkpt lat="43.75329" lon="3.41984">
        <ele>427.9</ele>
        <time>2017-05-07T08:25:35Z</time>
      </trkpt>
      <trkpt lat="43.75334" lon="3.41993">
        <ele>427.4</ele>
        <time>2017-05-07T08:25:36Z</time>
      </trkpt>
      <trkpt lat="43.7534" lon="3.42002">
        <ele>426.4</ele>
        <time>2017-05-07T08:25:37Z</time>
      </trkpt>
      <trkpt lat="43.75346" lon="3.42009">
        <ele>425.6</ele>
        <time>2017-05-07T08:25:38Z</time>
      </trkpt>
      <trkpt lat="43.75352" lon="3.42017">
        <ele>424.9</ele>
        <time>2017-05-07T08:25:39Z</time>
      </trkpt>
      <trkpt lat="43.75359" lon="3.42024">
        <ele>424</ele>
        <time>2017-05-07T08:25:40Z</time>
      </trkpt>
      <trkpt lat="43.75363" lon="3.42032">
        <ele>423.1</ele>
        <time>2017-05-07T08:25:41Z</time>
      </trkpt>
      <trkpt lat="43.75367" lon="3.42043">
        <ele>422.3</ele>
        <time>2017-05-07T08:25:42Z</time>
      </trkpt>
      <trkpt lat="43.75369" lon="3.42054">
        <ele>421</ele>
        <time>2017-05-07T08:25:43Z</time>
      </trkpt>
      <trkpt lat="43.75372" lon="3.42065">
        <ele>419.8</ele>
        <time>2017-05-07T08:25:44Z</time>
      </trkpt>
      <trkpt lat="43.75378" lon="3.42074">
        <ele>418.8</ele>
        <time>2017-05-07T08:25:45Z</time>
      </trkpt>
      <trkpt lat="43.75384" lon="3.42085">
        <ele>418.1</ele>
        <time>2017-05-07T08:25:46Z</time>
      </trkpt>
      <trkpt lat="43.75389" lon="3.42095">
        <ele>417.3</ele>
        <time>2017-05-07T08:25:47Z</time>
      </trkpt>
      <trkpt lat="43.75394" lon="3.42103">
        <ele>416.6</ele>
        <time>2017-05-07T08:25:48Z</time>
      </trkpt>
      <trkpt lat="43.75406" lon="3.42113">
        <ele>415.2</ele>
        <time>2017-05-07T08:25:50Z</time>
      </trkpt>
      <trkpt lat="43.75414" lon="3.42116">
        <ele>414.6</ele>
        <time>2017-05-07T08:25:51Z</time>
      </trkpt>
      <trkpt lat="43.75423" lon="3.42119">
        <ele>414.4</ele>
        <time>2017-05-07T08:25:52Z</time>
      </trkpt>
      <trkpt lat="43.75431" lon="3.42122">
        <ele>414</ele>
        <time>2017-05-07T08:25:53Z</time>
      </trkpt>
      <trkpt lat="43.75439" lon="3.42124">
        <ele>413.1</ele>
        <time>2017-05-07T08:25:54Z</time>
      </trkpt>
      <trkpt lat="43.75446" lon="3.42126">
        <ele>412.4</ele>
        <time>2017-05-07T08:25:55Z</time>
      </trkpt>
      <trkpt lat="43.75453" lon="3.42127">
        <ele>412.1</ele>
        <time>2017-05-07T08:25:56Z</time>
      </trkpt>
      <trkpt lat="43.75466" lon="3.42133">
        <ele>411.2</ele>
        <time>2017-05-07T08:25:58Z</time>
      </trkpt>
      <trkpt lat="43.75474" lon="3.42139">
        <ele>410.8</ele>
        <time>2017-05-07T08:25:59Z</time>
      </trkpt>
      <trkpt lat="43.7548" lon="3.42147">
        <ele>410.6</ele>
        <time>2017-05-07T08:26:00Z</time>
      </trkpt>
      <trkpt lat="43.75484" lon="3.42162">
        <ele>409.7</ele>
        <time>2017-05-07T08:26:02Z</time>
      </trkpt>
      <trkpt lat="43.75479" lon="3.42179">
        <ele>409</ele>
        <time>2017-05-07T08:26:04Z</time>
      </trkpt>
      <trkpt lat="43.75474" lon="3.42188">
        <ele>408.6</ele>
        <time>2017-05-07T08:26:05Z</time>
      </trkpt>
      <trkpt lat="43.75469" lon="3.42197">
        <ele>407.9</ele>
        <time>2017-05-07T08:26:06Z</time>
      </trkpt>
      <trkpt lat="43.75465" lon="3.42207">
        <ele>407.6</ele>
        <time>2017-05-07T08:26:07Z</time>
      </trkpt>
      <trkpt lat="43.75461" lon="3.42219">
        <ele>407.5</ele>
        <time>2017-05-07T08:26:08Z</time>
      </trkpt>
      <trkpt lat="43.7546" lon="3.42235">
        <ele>407.1</ele>
        <time>2017-05-07T08:26:09Z</time>
      </trkpt>
      <trkpt lat="43.75459" lon="3.42248">
        <ele>406.4</ele>
        <time>2017-05-07T08:26:10Z</time>
      </trkpt>
      <trkpt lat="43.75458" lon="3.42262">
        <ele>405.4</ele>
        <time>2017-05-07T08:26:11Z</time>
      </trkpt>
      <trkpt lat="43.75458" lon="3.42276">
        <ele>404.1</ele>
        <time>2017-05-07T08:26:12Z</time>
      </trkpt>
      <trkpt lat="43.75459" lon="3.42289">
        <ele>403</ele>
        <time>2017-05-07T08:26:13Z</time>
      </trkpt>
      <trkpt lat="43.75459" lon="3.42302">
        <ele>402.1</ele>
        <time>2017-05-07T08:26:14Z</time>
      </trkpt>
      <trkpt lat="43.7546" lon="3.42317">
        <ele>401.2</ele>
        <time>2017-05-07T08:26:15Z</time>
      </trkpt>
      <trkpt lat="43.7546" lon="3.42329">
        <ele>400.7</ele>
        <time>2017-05-07T08:26:16Z</time>
      </trkpt>
      <trkpt lat="43.75461" lon="3.42343">
        <ele>400.2</ele>
        <time>2017-05-07T08:26:17Z</time>
      </trkpt>
      <trkpt lat="43.7546" lon="3.42357">
        <ele>399.6</ele>
        <time>2017-05-07T08:26:18Z</time>
      </trkpt>
      <trkpt lat="43.75459" lon="3.42371">
        <ele>398.8</ele>
        <time>2017-05-07T08:26:19Z</time>
      </trkpt>
      <trkpt lat="43.75458" lon="3.42385">
        <ele>398.1</ele>
        <time>2017-05-07T08:26:20Z</time>
      </trkpt>
      <trkpt lat="43.75459" lon="3.424">
        <ele>396.6</ele>
        <time>2017-05-07T08:26:21Z</time>
      </trkpt>
      <trkpt lat="43.7546" lon="3.42413">
        <ele>395.2</ele>
        <time>2017-05-07T08:26:22Z</time>
      </trkpt>
      <trkpt lat="43.7546" lon="3.42422">
        <ele>394</ele>
        <time>2017-05-07T08:26:23Z</time>
      </trkpt>
      <trkpt lat="43.75458" lon="3.42439">
        <ele>392.2</ele>
        <time>2017-05-07T08:26:25Z</time>
      </trkpt>
      <trkpt lat="43.7545" lon="3.42444">
        <ele>391</ele>
        <time>2017-05-07T08:26:27Z</time>
      </trkpt>
      <trkpt lat="43.75441" lon="3.42437">
        <ele>389.5</ele>
        <time>2017-05-07T08:26:29Z</time>
      </trkpt>
      <trkpt lat="43.75435" lon="3.42428">
        <ele>388.7</ele>
        <time>2017-05-07T08:26:30Z</time>
      </trkpt>
      <trkpt lat="43.75429" lon="3.4242">
        <ele>388.3</ele>
        <time>2017-05-07T08:26:31Z</time>
      </trkpt>
      <trkpt lat="43.75421" lon="3.4241">
        <ele>387.8</ele>
        <time>2017-05-07T08:26:32Z</time>
      </trkpt>
      <trkpt lat="43.75413" lon="3.424">
        <ele>387.2</ele>
        <time>2017-05-07T08:26:33Z</time>
      </trkpt>
      <trkpt lat="43.75405" lon="3.42392">
        <ele>386.3</ele>
        <time>2017-05-07T08:26:34Z</time>
      </trkpt>
      <trkpt lat="43.75394" lon="3.42383">
        <ele>384.9</ele>
        <time>2017-05-07T08:26:35Z</time>
      </trkpt>
      <trkpt lat="43.75386" lon="3.42376">
        <ele>383.5</ele>
        <time>2017-05-07T08:26:36Z</time>
      </trkpt>
      <trkpt lat="43.75379" lon="3.42371">
        <ele>382</ele>
        <time>2017-05-07T08:26:37Z</time>
      </trkpt>
      <trkpt lat="43.75372" lon="3.42366">
        <ele>380.8</ele>
        <time>2017-05-07T08:26:38Z</time>
      </trkpt>
      <trkpt lat="43.75362" lon="3.42359">
        <ele>378.8</ele>
        <time>2017-05-07T08:26:40Z</time>
      </trkpt>
      <trkpt lat="43.75359" lon="3.42349">
        <ele>377.5</ele>
        <time>2017-05-07T08:26:42Z</time>
      </trkpt>
      <trkpt lat="43.75355" lon="3.42337">
        <ele>377.1</ele>
        <time>2017-05-07T08:26:44Z</time>
      </trkpt>
      <trkpt lat="43.75351" lon="3.42327">
        <ele>377.3</ele>
        <time>2017-05-07T08:26:46Z</time>
      </trkpt>
      <trkpt lat="43.75343" lon="3.42319">
        <ele>377.2</ele>
        <time>2017-05-07T08:26:48Z</time>
      </trkpt>
      <trkpt lat="43.75334" lon="3.42316">
        <ele>377</ele>
        <time>2017-05-07T08:26:51Z</time>
      </trkpt>
      <trkpt lat="43.75323" lon="3.42312">
        <ele>376.8</ele>
        <time>2017-05-07T08:26:54Z</time>
      </trkpt>
      <trkpt lat="43.75313" lon="3.42312">
        <ele>376.8</ele>
        <time>2017-05-07T08:26:57Z</time>
      </trkpt>
      <trkpt lat="43.75303" lon="3.42308">
        <ele>376.8</ele>
        <time>2017-05-07T08:27:00Z</time>
      </trkpt>
      <trkpt lat="43.75294" lon="3.42305">
        <ele>376.7</ele>
        <time>2017-05-07T08:27:03Z</time>
      </trkpt>
      <trkpt lat="43.75284" lon="3.42301">
        <ele>376.7</ele>
        <time>2017-05-07T08:27:06Z</time>
      </trkpt>
      <trkpt lat="43.75275" lon="3.42294">
        <ele>376.7</ele>
        <time>2017-05-07T08:27:09Z</time>
      </trkpt>
      <trkpt lat="43.75269" lon="3.42287">
        <ele>376.6</ele>
        <time>2017-05-07T08:27:11Z</time>
      </trkpt>
      <trkpt lat="43.75263" lon="3.42279">
        <ele>377</ele>
        <time>2017-05-07T08:27:13Z</time>
      </trkpt>
      <trkpt lat="43.75257" lon="3.42271">
        <ele>378.3</ele>
        <time>2017-05-07T08:27:15Z</time>
      </trkpt>
      <trkpt lat="43.75251" lon="3.42262">
        <ele>379</ele>
        <time>2017-05-07T08:27:17Z</time>
      </trkpt>
      <trkpt lat="43.75246" lon="3.42254">
        <ele>379.6</ele>
        <time>2017-05-07T08:27:19Z</time>
      </trkpt>
      <trkpt lat="43.7524" lon="3.42247">
        <ele>380</ele>
        <time>2017-05-07T08:27:21Z</time>
      </trkpt>
      <trkpt lat="43.75233" lon="3.42241">
        <ele>380.2</ele>
        <time>2017-05-07T08:27:23Z</time>
      </trkpt>
      <trkpt lat="43.75226" lon="3.42236">
        <ele>380.4</ele>
        <time>2017-05-07T08:27:25Z</time>
      </trkpt>
      <trkpt lat="43.75217" lon="3.42231">
        <ele>380.2</ele>
        <time>2017-05-07T08:27:27Z</time>
      </trkpt>
      <trkpt lat="43.7521" lon="3.42228">
        <ele>380.2</ele>
        <time>2017-05-07T08:27:29Z</time>
      </trkpt>
      <trkpt lat="43.75203" lon="3.42224">
        <ele>380.1</ele>
        <time>2017-05-07T08:27:31Z</time>
      </trkpt>
      <trkpt lat="43.75195" lon="3.42221">
        <ele>379.6</ele>
        <time>2017-05-07T08:27:33Z</time>
      </trkpt>
      <trkpt lat="43.75187" lon="3.42215">
        <ele>379.4</ele>
        <time>2017-05-07T08:27:35Z</time>
      </trkpt>
      <trkpt lat="43.7518" lon="3.42208">
        <ele>379.7</ele>
        <time>2017-05-07T08:27:37Z</time>
      </trkpt>
      <trkpt lat="43.75174" lon="3.42201">
        <ele>379.6</ele>
        <time>2017-05-07T08:27:39Z</time>
      </trkpt>
      <trkpt lat="43.75168" lon="3.42193">
        <ele>379.8</ele>
        <time>2017-05-07T08:27:41Z</time>
      </trkpt>
      <trkpt lat="43.75164" lon="3.42183">
        <ele>379.8</ele>
        <time>2017-05-07T08:27:43Z</time>
      </trkpt>
      <trkpt lat="43.75161" lon="3.42174">
        <ele>380.5</ele>
        <time>2017-05-07T08:27:45Z</time>
      </trkpt>
      <trkpt lat="43.75158" lon="3.42163">
        <ele>380.8</ele>
        <time>2017-05-07T08:27:47Z</time>
      </trkpt>
      <trkpt lat="43.75155" lon="3.42152">
        <ele>381.7</ele>
        <time>2017-05-07T08:27:49Z</time>
      </trkpt>
      <trkpt lat="43.75153" lon="3.4214">
        <ele>382.2</ele>
        <time>2017-05-07T08:27:51Z</time>
      </trkpt>
      <trkpt lat="43.75151" lon="3.42128">
        <ele>382.9</ele>
        <time>2017-05-07T08:27:53Z</time>
      </trkpt>
      <trkpt lat="43.75148" lon="3.42116">
        <ele>383.3</ele>
        <time>2017-05-07T08:27:55Z</time>
      </trkpt>
      <trkpt lat="43.75144" lon="3.42102">
        <ele>383.6</ele>
        <time>2017-05-07T08:27:57Z</time>
      </trkpt>
      <trkpt lat="43.75142" lon="3.4209">
        <ele>383.9</ele>
        <time>2017-05-07T08:27:59Z</time>
      </trkpt>
      <trkpt lat="43.7514" lon="3.42079">
        <ele>384.2</ele>
        <time>2017-05-07T08:28:01Z</time>
      </trkpt>
      <trkpt lat="43.75138" lon="3.42066">
        <ele>384.5</ele>
        <time>2017-05-07T08:28:03Z</time>
      </trkpt>
      <trkpt lat="43.75137" lon="3.42052">
        <ele>385</ele>
        <time>2017-05-07T08:28:05Z</time>
      </trkpt>
      <trkpt lat="43.75137" lon="3.4204">
        <ele>385.7</ele>
        <time>2017-05-07T08:28:07Z</time>
      </trkpt>
      <trkpt lat="43.75137" lon="3.42029">
        <ele>386.1</ele>
        <time>2017-05-07T08:28:09Z</time>
      </trkpt>
      <trkpt lat="43.7514" lon="3.42014">
        <ele>386.5</ele>
        <time>2017-05-07T08:28:12Z</time>
      </trkpt>
      <trkpt lat="43.75143" lon="3.42003">
        <ele>386.4</ele>
        <time>2017-05-07T08:28:14Z</time>
      </trkpt>
      <trkpt lat="43.75145" lon="3.41993">
        <ele>386.3</ele>
        <time>2017-05-07T08:28:16Z</time>
      </trkpt>
      <trkpt lat="43.75149" lon="3.41982">
        <ele>386.5</ele>
        <time>2017-05-07T08:28:18Z</time>
      </trkpt>
      <trkpt lat="43.75153" lon="3.41974">
        <ele>386.4</ele>
        <time>2017-05-07T08:28:20Z</time>
      </trkpt>
      <trkpt lat="43.75157" lon="3.41966">
        <ele>386.3</ele>
        <time>2017-05-07T08:28:22Z</time>
      </trkpt>
      <trkpt lat="43.75162" lon="3.41959">
        <ele>386.3</ele>
        <time>2017-05-07T08:28:24Z</time>
      </trkpt>
      <trkpt lat="43.75166" lon="3.41952">
        <ele>386.3</ele>
        <time>2017-05-07T08:28:26Z</time>
      </trkpt>
      <trkpt lat="43.75168" lon="3.41937">
        <ele>386.4</ele>
        <time>2017-05-07T08:28:29Z</time>
      </trkpt>
      <trkpt lat="43.75163" lon="3.41928">
        <ele>386.6</ele>
        <time>2017-05-07T08:28:32Z</time>
      </trkpt>
      <trkpt lat="43.75153" lon="3.41922">
        <ele>388</ele>
        <time>2017-05-07T08:28:35Z</time>
      </trkpt>
      <trkpt lat="43.75146" lon="3.41917">
        <ele>388.7</ele>
        <time>2017-05-07T08:28:37Z</time>
      </trkpt>
      <trkpt lat="43.75139" lon="3.41915">
        <ele>389.1</ele>
        <time>2017-05-07T08:28:39Z</time>
      </trkpt>
      <trkpt lat="43.7513" lon="3.41912">
        <ele>389.4</ele>
        <time>2017-05-07T08:28:41Z</time>
      </trkpt>
      <trkpt lat="43.75119" lon="3.41914">
        <ele>388.7</ele>
        <time>2017-05-07T08:28:43Z</time>
      </trkpt>
      <trkpt lat="43.75111" lon="3.41916">
        <ele>388.3</ele>
        <time>2017-05-07T08:28:45Z</time>
      </trkpt>
      <trkpt lat="43.75103" lon="3.41919">
        <ele>388.4</ele>
        <time>2017-05-07T08:28:47Z</time>
      </trkpt>
      <trkpt lat="43.75095" lon="3.4192">
        <ele>388.2</ele>
        <time>2017-05-07T08:28:49Z</time>
      </trkpt>
      <trkpt lat="43.75087" lon="3.41922">
        <ele>388.6</ele>
        <time>2017-05-07T08:28:51Z</time>
      </trkpt>
      <trkpt lat="43.75079" lon="3.41922">
        <ele>388.8</ele>
        <time>2017-05-07T08:28:53Z</time>
      </trkpt>
      <trkpt lat="43.7507" lon="3.41923">
        <ele>388.9</ele>
        <time>2017-05-07T08:28:55Z</time>
      </trkpt>
      <trkpt lat="43.75062" lon="3.41923">
        <ele>389.1</ele>
        <time>2017-05-07T08:28:57Z</time>
      </trkpt>
      <trkpt lat="43.75054" lon="3.41922">
        <ele>389</ele>
        <time>2017-05-07T08:28:59Z</time>
      </trkpt>
      <trkpt lat="43.75045" lon="3.4192">
        <ele>389.2</ele>
        <time>2017-05-07T08:29:01Z</time>
      </trkpt>
      <trkpt lat="43.75036" lon="3.4192">
        <ele>389.6</ele>
        <time>2017-05-07T08:29:03Z</time>
      </trkpt>
      <trkpt lat="43.75028" lon="3.41915">
        <ele>389.7</ele>
        <time>2017-05-07T08:29:05Z</time>
      </trkpt>
      <trkpt lat="43.7502" lon="3.4191">
        <ele>390.1</ele>
        <time>2017-05-07T08:29:07Z</time>
      </trkpt>
      <trkpt lat="43.75012" lon="3.41904">
        <ele>390.9</ele>
        <time>2017-05-07T08:29:09Z</time>
      </trkpt>
      <trkpt lat="43.75004" lon="3.41896">
        <ele>391.8</ele>
        <time>2017-05-07T08:29:11Z</time>
      </trkpt>
      <trkpt lat="43.74997" lon="3.41887">
        <ele>392.6</ele>
        <time>2017-05-07T08:29:13Z</time>
      </trkpt>
      <trkpt lat="43.74992" lon="3.41877">
        <ele>393.1</ele>
        <time>2017-05-07T08:29:15Z</time>
      </trkpt>
      <trkpt lat="43.74988" lon="3.41868">
        <ele>393.5</ele>
        <time>2017-05-07T08:29:17Z</time>
      </trkpt>
      <trkpt lat="43.74984" lon="3.41857">
        <ele>394</ele>
        <time>2017-05-07T08:29:19Z</time>
      </trkpt>
      <trkpt lat="43.7498" lon="3.41847">
        <ele>394.4</ele>
        <time>2017-05-07T08:29:21Z</time>
      </trkpt>
      <trkpt lat="43.74977" lon="3.41835">
        <ele>394.6</ele>
        <time>2017-05-07T08:29:23Z</time>
      </trkpt>
      <trkpt lat="43.74974" lon="3.41823">
        <ele>394.8</ele>
        <time>2017-05-07T08:29:25Z</time>
      </trkpt>
      <trkpt lat="43.74971" lon="3.41812">
        <ele>394.8</ele>
        <time>2017-05-07T08:29:27Z</time>
      </trkpt>
      <trkpt lat="43.74968" lon="3.41802">
        <ele>394.9</ele>
        <time>2017-05-07T08:29:29Z</time>
      </trkpt>
      <trkpt lat="43.74964" lon="3.41789">
        <ele>395.2</ele>
        <time>2017-05-07T08:29:32Z</time>
      </trkpt>
      <trkpt lat="43.7496" lon="3.41779">
        <ele>395.7</ele>
        <time>2017-05-07T08:29:34Z</time>
      </trkpt>
      <trkpt lat="43.74957" lon="3.41769">
        <ele>396.3</ele>
        <time>2017-05-07T08:29:36Z</time>
      </trkpt>
      <trkpt lat="43.74952" lon="3.41758">
        <ele>396.7</ele>
        <time>2017-05-07T08:29:38Z</time>
      </trkpt>
      <trkpt lat="43.74947" lon="3.4175">
        <ele>397.2</ele>
        <time>2017-05-07T08:29:40Z</time>
      </trkpt>
      <trkpt lat="43.74941" lon="3.41741">
        <ele>397.5</ele>
        <time>2017-05-07T08:29:42Z</time>
      </trkpt>
      <trkpt lat="43.74936" lon="3.41734">
        <ele>397.8</ele>
        <time>2017-05-07T08:29:44Z</time>
      </trkpt>
      <trkpt lat="43.74931" lon="3.41725">
        <ele>397.9</ele>
        <time>2017-05-07T08:29:46Z</time>
      </trkpt>
      <trkpt lat="43.74924" lon="3.41715">
        <ele>398.2</ele>
        <time>2017-05-07T08:29:48Z</time>
      </trkpt>
      <trkpt lat="43.74917" lon="3.41706">
        <ele>398.7</ele>
        <time>2017-05-07T08:29:50Z</time>
      </trkpt>
      <trkpt lat="43.74911" lon="3.41697">
        <ele>398.8</ele>
        <time>2017-05-07T08:29:52Z</time>
      </trkpt>
      <trkpt lat="43.74904" lon="3.41689">
        <ele>398.5</ele>
        <time>2017-05-07T08:29:54Z</time>
      </trkpt>
      <trkpt lat="43.74896" lon="3.4168">
        <ele>398.2</ele>
        <time>2017-05-07T08:29:56Z</time>
      </trkpt>
      <trkpt lat="43.74889" lon="3.41673">
        <ele>398.8</ele>
        <time>2017-05-07T08:29:58Z</time>
      </trkpt>
      <trkpt lat="43.74883" lon="3.41666">
        <ele>398.8</ele>
        <time>2017-05-07T08:30:00Z</time>
      </trkpt>
      <trkpt lat="43.74875" lon="3.41658">
        <ele>398.7</ele>
        <time>2017-05-07T08:30:02Z</time>
      </trkpt>
      <trkpt lat="43.74867" lon="3.4165">
        <ele>399.3</ele>
        <time>2017-05-07T08:30:04Z</time>
      </trkpt>
      <trkpt lat="43.7486" lon="3.41641">
        <ele>399.6</ele>
        <time>2017-05-07T08:30:06Z</time>
      </trkpt>
      <trkpt lat="43.74852" lon="3.41632">
        <ele>399.4</ele>
        <time>2017-05-07T08:30:08Z</time>
      </trkpt>
      <trkpt lat="43.74845" lon="3.41621">
        <ele>399.5</ele>
        <time>2017-05-07T08:30:10Z</time>
      </trkpt>
      <trkpt lat="43.74838" lon="3.41608">
        <ele>399.8</ele>
        <time>2017-05-07T08:30:12Z</time>
      </trkpt>
      <trkpt lat="43.74831" lon="3.41595">
        <ele>400.1</ele>
        <time>2017-05-07T08:30:14Z</time>
      </trkpt>
      <trkpt lat="43.74824" lon="3.41581">
        <ele>399.9</ele>
        <time>2017-05-07T08:30:16Z</time>
      </trkpt>
      <trkpt lat="43.74818" lon="3.41569">
        <ele>400.2</ele>
        <time>2017-05-07T08:30:18Z</time>
      </trkpt>
      <trkpt lat="43.74813" lon="3.41556">
        <ele>400.3</ele>
        <time>2017-05-07T08:30:20Z</time>
      </trkpt>
      <trkpt lat="43.7481" lon="3.41543">
        <ele>399.9</ele>
        <time>2017-05-07T08:30:22Z</time>
      </trkpt>
      <trkpt lat="43.74808" lon="3.41528">
        <ele>399.6</ele>
        <time>2017-05-07T08:30:24Z</time>
      </trkpt>
      <trkpt lat="43.74805" lon="3.41514">
        <ele>399.7</ele>
        <time>2017-05-07T08:30:26Z</time>
      </trkpt>
      <trkpt lat="43.74802" lon="3.41501">
        <ele>400</ele>
        <time>2017-05-07T08:30:28Z</time>
      </trkpt>
      <trkpt lat="43.74798" lon="3.41487">
        <ele>400.2</ele>
        <time>2017-05-07T08:30:30Z</time>
      </trkpt>
      <trkpt lat="43.74793" lon="3.41475">
        <ele>400.5</ele>
        <time>2017-05-07T08:30:32Z</time>
      </trkpt>
      <trkpt lat="43.74788" lon="3.41464">
        <ele>400.8</ele>
        <time>2017-05-07T08:30:34Z</time>
      </trkpt>
      <trkpt lat="43.74781" lon="3.41453">
        <ele>401.7</ele>
        <time>2017-05-07T08:30:36Z</time>
      </trkpt>
      <trkpt lat="43.74774" lon="3.41444">
        <ele>401.8</ele>
        <time>2017-05-07T08:30:38Z</time>
      </trkpt>
      <trkpt lat="43.74764" lon="3.41435">
        <ele>401.7</ele>
        <time>2017-05-07T08:30:40Z</time>
      </trkpt>
      <trkpt lat="43.74754" lon="3.41428">
        <ele>401.2</ele>
        <time>2017-05-07T08:30:42Z</time>
      </trkpt>
      <trkpt lat="43.74742" lon="3.41423">
        <ele>400.7</ele>
        <time>2017-05-07T08:30:44Z</time>
      </trkpt>
      <trkpt lat="43.74729" lon="3.41418">
        <ele>400.7</ele>
        <time>2017-05-07T08:30:46Z</time>
      </trkpt>
      <trkpt lat="43.74717" lon="3.41416">
        <ele>401</ele>
        <time>2017-05-07T08:30:48Z</time>
      </trkpt>
      <trkpt lat="43.74705" lon="3.41414">
        <ele>400.7</ele>
        <time>2017-05-07T08:30:50Z</time>
      </trkpt>
      <trkpt lat="43.74694" lon="3.41409">
        <ele>400.6</ele>
        <time>2017-05-07T08:30:52Z</time>
      </trkpt>
      <trkpt lat="43.74683" lon="3.41402">
        <ele>400.5</ele>
        <time>2017-05-07T08:30:54Z</time>
      </trkpt>
      <trkpt lat="43.74674" lon="3.41393">
        <ele>400.8</ele>
        <time>2017-05-07T08:30:56Z</time>
      </trkpt>
      <trkpt lat="43.74666" lon="3.41383">
        <ele>401</ele>
        <time>2017-05-07T08:30:58Z</time>
      </trkpt>
      <trkpt lat="43.74658" lon="3.41372">
        <ele>401.1</ele>
        <time>2017-05-07T08:31:00Z</time>
      </trkpt>
      <trkpt lat="43.74651" lon="3.41362">
        <ele>401.4</ele>
        <time>2017-05-07T08:31:02Z</time>
      </trkpt>
      <trkpt lat="43.74643" lon="3.41352">
        <ele>401.9</ele>
        <time>2017-05-07T08:31:04Z</time>
      </trkpt>
      <trkpt lat="43.74636" lon="3.41342">
        <ele>402.3</ele>
        <time>2017-05-07T08:31:06Z</time>
      </trkpt>
      <trkpt lat="43.74629" lon="3.41332">
        <ele>402.1</ele>
        <time>2017-05-07T08:31:08Z</time>
      </trkpt>
      <trkpt lat="43.74623" lon="3.41319">
        <ele>402.1</ele>
        <time>2017-05-07T08:31:10Z</time>
      </trkpt>
      <trkpt lat="43.74619" lon="3.41304">
        <ele>402.1</ele>
        <time>2017-05-07T08:31:12Z</time>
      </trkpt>
      <trkpt lat="43.74617" lon="3.41291">
        <ele>402.4</ele>
        <time>2017-05-07T08:31:14Z</time>
      </trkpt>
      <trkpt lat="43.74615" lon="3.41279">
        <ele>402.5</ele>
        <time>2017-05-07T08:31:16Z</time>
      </trkpt>
      <trkpt lat="43.7461" lon="3.41267">
        <ele>402.5</ele>
        <time>2017-05-07T08:31:18Z</time>
      </trkpt>
      <trkpt lat="43.74604" lon="3.4126">
        <ele>402.6</ele>
        <time>2017-05-07T08:31:20Z</time>
      </trkpt>
      <trkpt lat="43.74595" lon="3.41254">
        <ele>402.6</ele>
        <time>2017-05-07T08:31:22Z</time>
      </trkpt>
      <trkpt lat="43.74584" lon="3.41248">
        <ele>403.2</ele>
        <time>2017-05-07T08:31:24Z</time>
      </trkpt>
      <trkpt lat="43.74571" lon="3.41245">
        <ele>404.3</ele>
        <time>2017-05-07T08:31:26Z</time>
      </trkpt>
      <trkpt lat="43.74559" lon="3.41242">
        <ele>405</ele>
        <time>2017-05-07T08:31:28Z</time>
      </trkpt>
      <trkpt lat="43.74551" lon="3.41239">
        <ele>405.3</ele>
        <time>2017-05-07T08:31:30Z</time>
      </trkpt>
      <trkpt lat="43.74543" lon="3.41234">
        <ele>405.3</ele>
        <time>2017-05-07T08:31:32Z</time>
      </trkpt>
      <trkpt lat="43.74534" lon="3.41226">
        <ele>405.6</ele>
        <time>2017-05-07T08:31:34Z</time>
      </trkpt>
      <trkpt lat="43.74526" lon="3.41218">
        <ele>406.1</ele>
        <time>2017-05-07T08:31:36Z</time>
      </trkpt>
      <trkpt lat="43.74519" lon="3.41209">
        <ele>406.8</ele>
        <time>2017-05-07T08:31:38Z</time>
      </trkpt>
      <trkpt lat="43.74512" lon="3.412">
        <ele>407.4</ele>
        <time>2017-05-07T08:31:40Z</time>
      </trkpt>
      <trkpt lat="43.74506" lon="3.41192">
        <ele>407.9</ele>
        <time>2017-05-07T08:31:42Z</time>
      </trkpt>
      <trkpt lat="43.74501" lon="3.41184">
        <ele>408.2</ele>
        <time>2017-05-07T08:31:44Z</time>
      </trkpt>
      <trkpt lat="43.74494" lon="3.41174">
        <ele>408.7</ele>
        <time>2017-05-07T08:31:46Z</time>
      </trkpt>
      <trkpt lat="43.74488" lon="3.41163">
        <ele>409.1</ele>
        <time>2017-05-07T08:31:48Z</time>
      </trkpt>
      <trkpt lat="43.74484" lon="3.41153">
        <ele>409.1</ele>
        <time>2017-05-07T08:31:50Z</time>
      </trkpt>
      <trkpt lat="43.74479" lon="3.4114">
        <ele>408.5</ele>
        <time>2017-05-07T08:31:52Z</time>
      </trkpt>
      <trkpt lat="43.74474" lon="3.41128">
        <ele>408.4</ele>
        <time>2017-05-07T08:31:54Z</time>
      </trkpt>
      <trkpt lat="43.7447" lon="3.41115">
        <ele>408.3</ele>
        <time>2017-05-07T08:31:56Z</time>
      </trkpt>
      <trkpt lat="43.74466" lon="3.41101">
        <ele>408.3</ele>
        <time>2017-05-07T08:31:58Z</time>
      </trkpt>
      <trkpt lat="43.74463" lon="3.41086">
        <ele>408.7</ele>
        <time>2017-05-07T08:32:00Z</time>
      </trkpt>
      <trkpt lat="43.74461" lon="3.41074">
        <ele>408.8</ele>
        <time>2017-05-07T08:32:02Z</time>
      </trkpt>
      <trkpt lat="43.7446" lon="3.41059">
        <ele>409.7</ele>
        <time>2017-05-07T08:32:04Z</time>
      </trkpt>
      <trkpt lat="43.74459" lon="3.41047">
        <ele>410.6</ele>
        <time>2017-05-07T08:32:06Z</time>
      </trkpt>
      <trkpt lat="43.74456" lon="3.41032">
        <ele>411.3</ele>
        <time>2017-05-07T08:32:08Z</time>
      </trkpt>
      <trkpt lat="43.74454" lon="3.41021">
        <ele>411.9</ele>
        <time>2017-05-07T08:32:10Z</time>
      </trkpt>
      <trkpt lat="43.7445" lon="3.41009">
        <ele>412.5</ele>
        <time>2017-05-07T08:32:12Z</time>
      </trkpt>
      <trkpt lat="43.74446" lon="3.40996">
        <ele>412.5</ele>
        <time>2017-05-07T08:32:14Z</time>
      </trkpt>
      <trkpt lat="43.74442" lon="3.40984">
        <ele>412.6</ele>
        <time>2017-05-07T08:32:16Z</time>
      </trkpt>
      <trkpt lat="43.74437" lon="3.40973">
        <ele>412.5</ele>
        <time>2017-05-07T08:32:18Z</time>
      </trkpt>
      <trkpt lat="43.74431" lon="3.40962">
        <ele>412.7</ele>
        <time>2017-05-07T08:32:20Z</time>
      </trkpt>
      <trkpt lat="43.74425" lon="3.40953">
        <ele>412.6</ele>
        <time>2017-05-07T08:32:22Z</time>
      </trkpt>
      <trkpt lat="43.74416" lon="3.40942">
        <ele>412.8</ele>
        <time>2017-05-07T08:32:24Z</time>
      </trkpt>
      <trkpt lat="43.74409" lon="3.4093">
        <ele>412.8</ele>
        <time>2017-05-07T08:32:26Z</time>
      </trkpt>
      <trkpt lat="43.74401" lon="3.40919">
        <ele>412.5</ele>
        <time>2017-05-07T08:32:28Z</time>
      </trkpt>
      <trkpt lat="43.74394" lon="3.40906">
        <ele>412.4</ele>
        <time>2017-05-07T08:32:30Z</time>
      </trkpt>
      <trkpt lat="43.74388" lon="3.40891">
        <ele>412.3</ele>
        <time>2017-05-07T08:32:32Z</time>
      </trkpt>
      <trkpt lat="43.74383" lon="3.40876">
        <ele>412.5</ele>
        <time>2017-05-07T08:32:34Z</time>
      </trkpt>
      <trkpt lat="43.74378" lon="3.40859">
        <ele>412.9</ele>
        <time>2017-05-07T08:32:36Z</time>
      </trkpt>
      <trkpt lat="43.74375" lon="3.40842">
        <ele>413.5</ele>
        <time>2017-05-07T08:32:38Z</time>
      </trkpt>
      <trkpt lat="43.74373" lon="3.40825">
        <ele>413.8</ele>
        <time>2017-05-07T08:32:40Z</time>
      </trkpt>
      <trkpt lat="43.74371" lon="3.4081">
        <ele>413.5</ele>
        <time>2017-05-07T08:32:42Z</time>
      </trkpt>
      <trkpt lat="43.7437" lon="3.40792">
        <ele>413.2</ele>
        <time>2017-05-07T08:32:44Z</time>
      </trkpt>
      <trkpt lat="43.7437" lon="3.40777">
        <ele>411.9</ele>
        <time>2017-05-07T08:32:46Z</time>
      </trkpt>
      <trkpt lat="43.74371" lon="3.4076">
        <ele>410.4</ele>
        <time>2017-05-07T08:32:48Z</time>
      </trkpt>
      <trkpt lat="43.74378" lon="3.40745">
        <ele>409.5</ele>
        <time>2017-05-07T08:32:50Z</time>
      </trkpt>
      <trkpt lat="43.74387" lon="3.40732">
        <ele>409.1</ele>
        <time>2017-05-07T08:32:52Z</time>
      </trkpt>
      <trkpt lat="43.74395" lon="3.40718">
        <ele>409.3</ele>
        <time>2017-05-07T08:32:54Z</time>
      </trkpt>
      <trkpt lat="43.74401" lon="3.40705">
        <ele>410</ele>
        <time>2017-05-07T08:32:56Z</time>
      </trkpt>
      <trkpt lat="43.744" lon="3.40691">
        <ele>410.5</ele>
        <time>2017-05-07T08:32:58Z</time>
      </trkpt>
      <trkpt lat="43.74393" lon="3.40678">
        <ele>412.1</ele>
        <time>2017-05-07T08:33:00Z</time>
      </trkpt>
      <trkpt lat="43.74385" lon="3.40668">
        <ele>412.6</ele>
        <time>2017-05-07T08:33:02Z</time>
      </trkpt>
      <trkpt lat="43.74375" lon="3.40663">
        <ele>413.4</ele>
        <time>2017-05-07T08:33:04Z</time>
      </trkpt>
      <trkpt lat="43.74362" lon="3.40662">
        <ele>413.1</ele>
        <time>2017-05-07T08:33:06Z</time>
      </trkpt>
      <trkpt lat="43.74349" lon="3.40661">
        <ele>412.3</ele>
        <time>2017-05-07T08:33:08Z</time>
      </trkpt>
      <trkpt lat="43.74337" lon="3.40662">
        <ele>412.1</ele>
        <time>2017-05-07T08:33:10Z</time>
      </trkpt>
      <trkpt lat="43.74324" lon="3.40664">
        <ele>412.1</ele>
        <time>2017-05-07T08:33:12Z</time>
      </trkpt>
      <trkpt lat="43.74312" lon="3.40665">
        <ele>411.7</ele>
        <time>2017-05-07T08:33:14Z</time>
      </trkpt>
      <trkpt lat="43.74298" lon="3.40665">
        <ele>411.2</ele>
        <time>2017-05-07T08:33:16Z</time>
      </trkpt>
      <trkpt lat="43.74291" lon="3.40665">
        <ele>410.9</ele>
        <time>2017-05-07T08:33:17Z</time>
      </trkpt>
      <trkpt lat="43.74284" lon="3.40664">
        <ele>410.7</ele>
        <time>2017-05-07T08:33:18Z</time>
      </trkpt>
      <trkpt lat="43.74271" lon="3.40662">
        <ele>410.6</ele>
        <time>2017-05-07T08:33:20Z</time>
      </trkpt>
      <trkpt lat="43.74257" lon="3.40658">
        <ele>410.5</ele>
        <time>2017-05-07T08:33:22Z</time>
      </trkpt>
      <trkpt lat="43.74246" lon="3.40655">
        <ele>410.2</ele>
        <time>2017-05-07T08:33:24Z</time>
      </trkpt>
      <trkpt lat="43.74234" lon="3.4065">
        <ele>409.9</ele>
        <time>2017-05-07T08:33:26Z</time>
      </trkpt>
      <trkpt lat="43.74221" lon="3.40645">
        <ele>409.9</ele>
        <time>2017-05-07T08:33:28Z</time>
      </trkpt>
      <trkpt lat="43.74209" lon="3.4064">
        <ele>410.1</ele>
        <time>2017-05-07T08:33:30Z</time>
      </trkpt>
      <trkpt lat="43.74196" lon="3.40634">
        <ele>410.2</ele>
        <time>2017-05-07T08:33:32Z</time>
      </trkpt>
      <trkpt lat="43.74185" lon="3.40625">
        <ele>410</ele>
        <time>2017-05-07T08:33:34Z</time>
      </trkpt>
      <trkpt lat="43.74173" lon="3.40614">
        <ele>409.9</ele>
        <time>2017-05-07T08:33:36Z</time>
      </trkpt>
      <trkpt lat="43.74163" lon="3.40602">
        <ele>409.9</ele>
        <time>2017-05-07T08:33:38Z</time>
      </trkpt>
      <trkpt lat="43.74154" lon="3.40589">
        <ele>410</ele>
        <time>2017-05-07T08:33:40Z</time>
      </trkpt>
      <trkpt lat="43.74145" lon="3.40576">
        <ele>410.2</ele>
        <time>2017-05-07T08:33:42Z</time>
      </trkpt>
      <trkpt lat="43.74139" lon="3.40562">
        <ele>410.5</ele>
        <time>2017-05-07T08:33:44Z</time>
      </trkpt>
      <trkpt lat="43.74134" lon="3.40547">
        <ele>410.5</ele>
        <time>2017-05-07T08:33:46Z</time>
      </trkpt>
      <trkpt lat="43.74131" lon="3.40533">
        <ele>410.5</ele>
        <time>2017-05-07T08:33:48Z</time>
      </trkpt>
      <trkpt lat="43.74129" lon="3.4052">
        <ele>410.6</ele>
        <time>2017-05-07T08:33:50Z</time>
      </trkpt>
      <trkpt lat="43.74124" lon="3.4051">
        <ele>410.6</ele>
        <time>2017-05-07T08:33:52Z</time>
      </trkpt>
      <trkpt lat="43.74116" lon="3.4051">
        <ele>410</ele>
        <time>2017-05-07T08:33:54Z</time>
      </trkpt>
      <trkpt lat="43.74105" lon="3.40514">
        <ele>410.1</ele>
        <time>2017-05-07T08:33:56Z</time>
      </trkpt>
      <trkpt lat="43.74095" lon="3.40521">
        <ele>410.2</ele>
        <time>2017-05-07T08:33:58Z</time>
      </trkpt>
      <trkpt lat="43.74083" lon="3.40531">
        <ele>410.3</ele>
        <time>2017-05-07T08:34:00Z</time>
      </trkpt>
      <trkpt lat="43.74073" lon="3.40541">
        <ele>410.4</ele>
        <time>2017-05-07T08:34:02Z</time>
      </trkpt>
      <trkpt lat="43.74062" lon="3.40549">
        <ele>410.6</ele>
        <time>2017-05-07T08:34:04Z</time>
      </trkpt>
      <trkpt lat="43.74051" lon="3.4056">
        <ele>410.6</ele>
        <time>2017-05-07T08:34:06Z</time>
      </trkpt>
      <trkpt lat="43.74043" lon="3.40568">
        <ele>410.8</ele>
        <time>2017-05-07T08:34:08Z</time>
      </trkpt>
      <trkpt lat="43.74035" lon="3.40576">
        <ele>411.3</ele>
        <time>2017-05-07T08:34:10Z</time>
      </trkpt>
      <trkpt lat="43.74028" lon="3.40584">
        <ele>411.1</ele>
        <time>2017-05-07T08:34:12Z</time>
      </trkpt>
      <trkpt lat="43.7402" lon="3.40592">
        <ele>410.8</ele>
        <time>2017-05-07T08:34:14Z</time>
      </trkpt>
      <trkpt lat="43.74012" lon="3.40599">
        <ele>410.1</ele>
        <time>2017-05-07T08:34:16Z</time>
      </trkpt>
      <trkpt lat="43.74004" lon="3.40602">
        <ele>409.8</ele>
        <time>2017-05-07T08:34:18Z</time>
      </trkpt>
      <trkpt lat="43.73997" lon="3.40597">
        <ele>409.9</ele>
        <time>2017-05-07T08:34:20Z</time>
      </trkpt>
      <trkpt lat="43.73988" lon="3.40588">
        <ele>411.9</ele>
        <time>2017-05-07T08:34:23Z</time>
      </trkpt>
      <trkpt lat="43.73981" lon="3.40577">
        <ele>412</ele>
        <time>2017-05-07T08:34:26Z</time>
      </trkpt>
      <trkpt lat="43.73975" lon="3.40565">
        <ele>412.1</ele>
        <time>2017-05-07T08:34:29Z</time>
      </trkpt>
      <trkpt lat="43.73969" lon="3.40559">
        <ele>412.3</ele>
        <time>2017-05-07T08:34:32Z</time>
      </trkpt>
      <trkpt lat="43.73964" lon="3.40551">
        <ele>412.5</ele>
        <time>2017-05-07T08:34:35Z</time>
      </trkpt>
      <trkpt lat="43.73958" lon="3.40543">
        <ele>412.8</ele>
        <time>2017-05-07T08:34:38Z</time>
      </trkpt>
      <trkpt lat="43.73953" lon="3.40536">
        <ele>413</ele>
        <time>2017-05-07T08:34:41Z</time>
      </trkpt>
      <trkpt lat="43.73945" lon="3.40527">
        <ele>413.2</ele>
        <time>2017-05-07T08:34:44Z</time>
      </trkpt>
      <trkpt lat="43.73938" lon="3.40519">
        <ele>413.4</ele>
        <time>2017-05-07T08:34:47Z</time>
      </trkpt>
      <trkpt lat="43.73933" lon="3.40511">
        <ele>413.6</ele>
        <time>2017-05-07T08:34:50Z</time>
      </trkpt>
      <trkpt lat="43.73927" lon="3.40503">
        <ele>413.8</ele>
        <time>2017-05-07T08:34:53Z</time>
      </trkpt>
      <trkpt lat="43.73922" lon="3.40496">
        <ele>414</ele>
        <time>2017-05-07T08:34:56Z</time>
      </trkpt>
      <trkpt lat="43.73916" lon="3.4049">
        <ele>414.3</ele>
        <time>2017-05-07T08:34:59Z</time>
      </trkpt>
      <trkpt lat="43.7391" lon="3.40482">
        <ele>414.6</ele>
        <time>2017-05-07T08:35:02Z</time>
      </trkpt>
      <trkpt lat="43.73905" lon="3.40474">
        <ele>415.1</ele>
        <time>2017-05-07T08:35:06Z</time>
      </trkpt>
      <trkpt lat="43.73898" lon="3.40465">
        <ele>415.5</ele>
        <time>2017-05-07T08:35:10Z</time>
      </trkpt>
      <trkpt lat="43.73892" lon="3.4046">
        <ele>415.9</ele>
        <time>2017-05-07T08:35:13Z</time>
      </trkpt>
      <trkpt lat="43.73885" lon="3.40453">
        <ele>416.4</ele>
        <time>2017-05-07T08:35:17Z</time>
      </trkpt>
      <trkpt lat="43.73881" lon="3.40443">
        <ele>416.9</ele>
        <time>2017-05-07T08:35:21Z</time>
      </trkpt>
      <trkpt lat="43.73877" lon="3.40433">
        <ele>417.6</ele>
        <time>2017-05-07T08:35:26Z</time>
      </trkpt>
      <trkpt lat="43.7387" lon="3.40428">
        <ele>418.2</ele>
        <time>2017-05-07T08:35:31Z</time>
      </trkpt>
      <trkpt lat="43.73863" lon="3.40422">
        <ele>418.7</ele>
        <time>2017-05-07T08:35:35Z</time>
      </trkpt>
      <trkpt lat="43.7386" lon="3.40413">
        <ele>419.2</ele>
        <time>2017-05-07T08:35:39Z</time>
      </trkpt>
      <trkpt lat="43.73853" lon="3.40405">
        <ele>419.9</ele>
        <time>2017-05-07T08:35:44Z</time>
      </trkpt>
      <trkpt lat="43.73847" lon="3.40398">
        <ele>420.6</ele>
        <time>2017-05-07T08:35:49Z</time>
      </trkpt>
      <trkpt lat="43.73841" lon="3.40391">
        <ele>421.2</ele>
        <time>2017-05-07T08:35:53Z</time>
      </trkpt>
      <trkpt lat="43.73834" lon="3.40383">
        <ele>421.9</ele>
        <time>2017-05-07T08:35:58Z</time>
      </trkpt>
      <trkpt lat="43.73827" lon="3.40382">
        <ele>422.6</ele>
        <time>2017-05-07T08:36:04Z</time>
      </trkpt>
      <trkpt lat="43.73821" lon="3.40387">
        <ele>423.1</ele>
        <time>2017-05-07T08:36:09Z</time>
      </trkpt>
      <trkpt lat="43.73815" lon="3.40393">
        <ele>423.6</ele>
        <time>2017-05-07T08:36:13Z</time>
      </trkpt>
      <trkpt lat="43.73813" lon="3.40395">
        <ele>424.2</ele>
        <time>2017-05-07T08:36:20Z</time>
      </trkpt>
      <trkpt lat="43.73807" lon="3.40402">
        <ele>425.6</ele>
        <time>2017-05-07T08:36:28Z</time>
      </trkpt>
      <trkpt lat="43.73803" lon="3.40407">
        <ele>426.5</ele>
        <time>2017-05-07T08:36:35Z</time>
      </trkpt>
      <trkpt lat="43.73799" lon="3.40411">
        <ele>427.7</ele>
        <time>2017-05-07T08:36:42Z</time>
      </trkpt>
      <trkpt lat="43.73794" lon="3.40418">
        <ele>429</ele>
        <time>2017-05-07T08:36:49Z</time>
      </trkpt>
      <trkpt lat="43.73787" lon="3.40431">
        <ele>430.4</ele>
        <time>2017-05-07T08:36:57Z</time>
      </trkpt>
      <trkpt lat="43.73783" lon="3.40437">
        <ele>431.7</ele>
        <time>2017-05-07T08:37:05Z</time>
      </trkpt>
      <trkpt lat="43.73775" lon="3.40429">
        <ele>435.1</ele>
        <time>2017-05-07T08:37:22Z</time>
      </trkpt>
      <trkpt lat="43.73768" lon="3.40413">
        <ele>438.3</ele>
        <time>2017-05-07T08:37:37Z</time>
      </trkpt>
      <trkpt lat="43.73762" lon="3.40409">
        <ele>440.6</ele>
        <time>2017-05-07T08:37:51Z</time>
      </trkpt>
      <trkpt lat="43.73755" lon="3.40407">
        <ele>441.5</ele>
        <time>2017-05-07T08:38:00Z</time>
      </trkpt>
      <trkpt lat="43.73749" lon="3.40412">
        <ele>442.7</ele>
        <time>2017-05-07T08:38:12Z</time>
      </trkpt>
      <trkpt lat="43.73744" lon="3.40417">
        <ele>444.5</ele>
        <time>2017-05-07T08:38:25Z</time>
      </trkpt>
      <trkpt lat="43.73737" lon="3.40417">
        <ele>444.6</ele>
        <time>2017-05-07T08:38:26Z</time>
      </trkpt>
      <trkpt lat="43.73732" lon="3.40416">
        <ele>446</ele>
        <time>2017-05-07T08:38:43Z</time>
      </trkpt>
      <trkpt lat="43.73723" lon="3.40416">
        <ele>446.6</ele>
        <time>2017-05-07T08:38:48Z</time>
      </trkpt>
      <trkpt lat="43.73715" lon="3.40419">
        <ele>447</ele>
        <time>2017-05-07T08:38:52Z</time>
      </trkpt>
      <trkpt lat="43.73707" lon="3.40422">
        <ele>447.4</ele>
        <time>2017-05-07T08:38:56Z</time>
      </trkpt>
      <trkpt lat="43.73702" lon="3.4043">
        <ele>447.7</ele>
        <time>2017-05-07T08:39:00Z</time>
      </trkpt>
      <trkpt lat="43.73696" lon="3.40437">
        <ele>448</ele>
        <time>2017-05-07T08:39:04Z</time>
      </trkpt>
      <trkpt lat="43.73692" lon="3.40448">
        <ele>448.1</ele>
        <time>2017-05-07T08:39:07Z</time>
      </trkpt>
      <trkpt lat="43.73689" lon="3.40457">
        <ele>448.2</ele>
        <time>2017-05-07T08:39:10Z</time>
      </trkpt>
      <trkpt lat="43.73684" lon="3.40465">
        <ele>448.4</ele>
        <time>2017-05-07T08:39:14Z</time>
      </trkpt>
      <trkpt lat="43.73681" lon="3.40475">
        <ele>448.5</ele>
        <time>2017-05-07T08:39:20Z</time>
      </trkpt>
      <trkpt lat="43.73687" lon="3.40484">
        <ele>448.8</ele>
        <time>2017-05-07T08:39:25Z</time>
      </trkpt>
      <trkpt lat="43.73689" lon="3.40495">
        <ele>448.9</ele>
        <time>2017-05-07T08:39:29Z</time>
      </trkpt>
      <trkpt lat="43.73689" lon="3.40507">
        <ele>449</ele>
        <time>2017-05-07T08:39:32Z</time>
      </trkpt>
      <trkpt lat="43.73684" lon="3.40516">
        <ele>449.3</ele>
        <time>2017-05-07T08:39:38Z</time>
      </trkpt>
      <trkpt lat="43.73676" lon="3.40522">
        <ele>449.6</ele>
        <time>2017-05-07T08:39:43Z</time>
      </trkpt>
      <trkpt lat="43.73668" lon="3.40525">
        <ele>449.9</ele>
        <time>2017-05-07T08:39:48Z</time>
      </trkpt>
      <trkpt lat="43.73663" lon="3.40533">
        <ele>450.1</ele>
        <time>2017-05-07T08:39:53Z</time>
      </trkpt>
      <trkpt lat="43.73658" lon="3.40545">
        <ele>450.5</ele>
        <time>2017-05-07T08:39:58Z</time>
      </trkpt>
      <trkpt lat="43.73653" lon="3.40552">
        <ele>450.7</ele>
        <time>2017-05-07T08:40:01Z</time>
      </trkpt>
      <trkpt lat="43.73646" lon="3.40554">
        <ele>450.8</ele>
        <time>2017-05-07T08:40:04Z</time>
      </trkpt>
      <trkpt lat="43.73638" lon="3.40551">
        <ele>451</ele>
        <time>2017-05-07T08:40:08Z</time>
      </trkpt>
      <trkpt lat="43.73632" lon="3.40556">
        <ele>451.3</ele>
        <time>2017-05-07T08:40:12Z</time>
      </trkpt>
      <trkpt lat="43.73628" lon="3.40565">
        <ele>451.3</ele>
        <time>2017-05-07T08:40:15Z</time>
      </trkpt>
      <trkpt lat="43.73622" lon="3.40572">
        <ele>451.2</ele>
        <time>2017-05-07T08:40:19Z</time>
      </trkpt>
      <trkpt lat="43.73615" lon="3.40575">
        <ele>451.2</ele>
        <time>2017-05-07T08:40:23Z</time>
      </trkpt>
      <trkpt lat="43.73609" lon="3.40583">
        <ele>451.1</ele>
        <time>2017-05-07T08:40:27Z</time>
      </trkpt>
      <trkpt lat="43.73601" lon="3.40588">
        <ele>451.1</ele>
        <time>2017-05-07T08:40:32Z</time>
      </trkpt>
      <trkpt lat="43.73592" lon="3.4059">
        <ele>451.3</ele>
        <time>2017-05-07T08:40:36Z</time>
      </trkpt>
      <trkpt lat="43.73582" lon="3.40592">
        <ele>451.5</ele>
        <time>2017-05-07T08:40:40Z</time>
      </trkpt>
      <trkpt lat="43.73575" lon="3.40592">
        <ele>451.6</ele>
        <time>2017-05-07T08:40:44Z</time>
      </trkpt>
      <trkpt lat="43.73568" lon="3.40596">
        <ele>451.6</ele>
        <time>2017-05-07T08:40:47Z</time>
      </trkpt>
      <trkpt lat="43.73559" lon="3.40597">
        <ele>451.6</ele>
        <time>2017-05-07T08:40:51Z</time>
      </trkpt>
      <trkpt lat="43.7355" lon="3.40594">
        <ele>451.5</ele>
        <time>2017-05-07T08:40:54Z</time>
      </trkpt>
      <trkpt lat="43.73541" lon="3.40597">
        <ele>451.5</ele>
        <time>2017-05-07T08:40:58Z</time>
      </trkpt>
      <trkpt lat="43.73535" lon="3.40605">
        <ele>451.3</ele>
        <time>2017-05-07T08:41:02Z</time>
      </trkpt>
      <trkpt lat="43.73527" lon="3.40613">
        <ele>451.1</ele>
        <time>2017-05-07T08:41:06Z</time>
      </trkpt>
      <trkpt lat="43.7352" lon="3.40619">
        <ele>451.1</ele>
        <time>2017-05-07T08:41:09Z</time>
      </trkpt>
      <trkpt lat="43.73513" lon="3.40625">
        <ele>451.1</ele>
        <time>2017-05-07T08:41:13Z</time>
      </trkpt>
      <trkpt lat="43.73506" lon="3.40629">
        <ele>450.7</ele>
        <time>2017-05-07T08:41:17Z</time>
      </trkpt>
      <trkpt lat="43.73499" lon="3.40625">
        <ele>450.3</ele>
        <time>2017-05-07T08:41:24Z</time>
      </trkpt>
      <trkpt lat="43.73499" lon="3.40609">
        <ele>449.4</ele>
        <time>2017-05-07T08:41:46Z</time>
      </trkpt>
      <trkpt lat="43.73492" lon="3.40605">
        <ele>445.7</ele>
        <time>2017-05-07T08:43:25Z</time>
      </trkpt>
      <trkpt lat="43.73481" lon="3.40609">
        <ele>444.4</ele>
        <time>2017-05-07T08:43:27Z</time>
      </trkpt>
      <trkpt lat="43.73469" lon="3.40614">
        <ele>443.2</ele>
        <time>2017-05-07T08:43:29Z</time>
      </trkpt>
      <trkpt lat="43.73456" lon="3.40619">
        <ele>441.6</ele>
        <time>2017-05-07T08:43:31Z</time>
      </trkpt>
      <trkpt lat="43.73447" lon="3.40621">
        <ele>440.5</ele>
        <time>2017-05-07T08:43:32Z</time>
      </trkpt>
      <trkpt lat="43.7344" lon="3.40622">
        <ele>439.5</ele>
        <time>2017-05-07T08:43:33Z</time>
      </trkpt>
      <trkpt lat="43.73431" lon="3.40623">
        <ele>438.5</ele>
        <time>2017-05-07T08:43:34Z</time>
      </trkpt>
      <trkpt lat="43.73418" lon="3.40626">
        <ele>436.7</ele>
        <time>2017-05-07T08:43:36Z</time>
      </trkpt>
      <trkpt lat="43.73411" lon="3.40628">
        <ele>436.1</ele>
        <time>2017-05-07T08:43:37Z</time>
      </trkpt>
      <trkpt lat="43.73395" lon="3.4063">
        <ele>434.6</ele>
        <time>2017-05-07T08:43:39Z</time>
      </trkpt>
      <trkpt lat="43.73389" lon="3.40633">
        <ele>433.6</ele>
        <time>2017-05-07T08:43:40Z</time>
      </trkpt>
      <trkpt lat="43.73381" lon="3.40636">
        <ele>432.6</ele>
        <time>2017-05-07T08:43:41Z</time>
      </trkpt>
      <trkpt lat="43.73374" lon="3.40638">
        <ele>431.9</ele>
        <time>2017-05-07T08:43:42Z</time>
      </trkpt>
      <trkpt lat="43.73366" lon="3.40641">
        <ele>431.2</ele>
        <time>2017-05-07T08:43:43Z</time>
      </trkpt>
      <trkpt lat="43.73359" lon="3.40644">
        <ele>430.3</ele>
        <time>2017-05-07T08:43:44Z</time>
      </trkpt>
      <trkpt lat="43.73351" lon="3.40646">
        <ele>429.1</ele>
        <time>2017-05-07T08:43:45Z</time>
      </trkpt>
      <trkpt lat="43.73343" lon="3.40649">
        <ele>427.9</ele>
        <time>2017-05-07T08:43:46Z</time>
      </trkpt>
      <trkpt lat="43.7333" lon="3.40653">
        <ele>426</ele>
        <time>2017-05-07T08:43:48Z</time>
      </trkpt>
      <trkpt lat="43.73317" lon="3.40656">
        <ele>424.2</ele>
        <time>2017-05-07T08:43:50Z</time>
      </trkpt>
      <trkpt lat="43.73306" lon="3.40657">
        <ele>422.8</ele>
        <time>2017-05-07T08:43:53Z</time>
      </trkpt>
      <trkpt lat="43.73295" lon="3.40662">
        <ele>420.8</ele>
        <time>2017-05-07T08:43:55Z</time>
      </trkpt>
      <trkpt lat="43.73288" lon="3.40665">
        <ele>417.9</ele>
        <time>2017-05-07T08:43:57Z</time>
      </trkpt>
      <trkpt lat="43.73279" lon="3.40668">
        <ele>415.4</ele>
        <time>2017-05-07T08:43:59Z</time>
      </trkpt>
      <trkpt lat="43.73271" lon="3.4067">
        <ele>413.1</ele>
        <time>2017-05-07T08:44:01Z</time>
      </trkpt>
      <trkpt lat="43.73262" lon="3.40671">
        <ele>410.6</ele>
        <time>2017-05-07T08:44:03Z</time>
      </trkpt>
      <trkpt lat="43.73252" lon="3.40673">
        <ele>408.4</ele>
        <time>2017-05-07T08:44:05Z</time>
      </trkpt>
      <trkpt lat="43.73244" lon="3.40677">
        <ele>406.3</ele>
        <time>2017-05-07T08:44:07Z</time>
      </trkpt>
      <trkpt lat="43.73234" lon="3.40681">
        <ele>404.4</ele>
        <time>2017-05-07T08:44:09Z</time>
      </trkpt>
      <trkpt lat="43.73223" lon="3.40685">
        <ele>402.4</ele>
        <time>2017-05-07T08:44:11Z</time>
      </trkpt>
      <trkpt lat="43.73209" lon="3.40689">
        <ele>399.9</ele>
        <time>2017-05-07T08:44:13Z</time>
      </trkpt>
      <trkpt lat="43.73195" lon="3.40691">
        <ele>397.1</ele>
        <time>2017-05-07T08:44:15Z</time>
      </trkpt>
      <trkpt lat="43.73186" lon="3.40694">
        <ele>394.6</ele>
        <time>2017-05-07T08:44:17Z</time>
      </trkpt>
      <trkpt lat="43.73176" lon="3.40697">
        <ele>392.8</ele>
        <time>2017-05-07T08:44:19Z</time>
      </trkpt>
      <trkpt lat="43.73164" lon="3.40698">
        <ele>391.5</ele>
        <time>2017-05-07T08:44:21Z</time>
      </trkpt>
      <trkpt lat="43.73153" lon="3.407">
        <ele>389.7</ele>
        <time>2017-05-07T08:44:23Z</time>
      </trkpt>
      <trkpt lat="43.73141" lon="3.40705">
        <ele>387.8</ele>
        <time>2017-05-07T08:44:25Z</time>
      </trkpt>
      <trkpt lat="43.73129" lon="3.40708">
        <ele>385.6</ele>
        <time>2017-05-07T08:44:27Z</time>
      </trkpt>
      <trkpt lat="43.7312" lon="3.4071">
        <ele>383.5</ele>
        <time>2017-05-07T08:44:29Z</time>
      </trkpt>
      <trkpt lat="43.73107" lon="3.40713">
        <ele>381.9</ele>
        <time>2017-05-07T08:44:31Z</time>
      </trkpt>
      <trkpt lat="43.73094" lon="3.40718">
        <ele>380.6</ele>
        <time>2017-05-07T08:44:33Z</time>
      </trkpt>
      <trkpt lat="43.73086" lon="3.40721">
        <ele>379.8</ele>
        <time>2017-05-07T08:44:34Z</time>
      </trkpt>
      <trkpt lat="43.73078" lon="3.40722">
        <ele>379.6</ele>
        <time>2017-05-07T08:44:35Z</time>
      </trkpt>
      <trkpt lat="43.73071" lon="3.40724">
        <ele>378.8</ele>
        <time>2017-05-07T08:44:36Z</time>
      </trkpt>
      <trkpt lat="43.73057" lon="3.40727">
        <ele>376.7</ele>
        <time>2017-05-07T08:44:38Z</time>
      </trkpt>
      <trkpt lat="43.73044" lon="3.40731">
        <ele>375.2</ele>
        <time>2017-05-07T08:44:40Z</time>
      </trkpt>
      <trkpt lat="43.73031" lon="3.40736">
        <ele>373.3</ele>
        <time>2017-05-07T08:44:42Z</time>
      </trkpt>
      <trkpt lat="43.73022" lon="3.40739">
        <ele>372.4</ele>
        <time>2017-05-07T08:44:43Z</time>
      </trkpt>
      <trkpt lat="43.73013" lon="3.40742">
        <ele>371.3</ele>
        <time>2017-05-07T08:44:44Z</time>
      </trkpt>
      <trkpt lat="43.73003" lon="3.40745">
        <ele>370.2</ele>
        <time>2017-05-07T08:44:45Z</time>
      </trkpt>
      <trkpt lat="43.72994" lon="3.40748">
        <ele>369.4</ele>
        <time>2017-05-07T08:44:46Z</time>
      </trkpt>
      <trkpt lat="43.72984" lon="3.40751">
        <ele>368.4</ele>
        <time>2017-05-07T08:44:47Z</time>
      </trkpt>
      <trkpt lat="43.72976" lon="3.40754">
        <ele>367.1</ele>
        <time>2017-05-07T08:44:48Z</time>
      </trkpt>
      <trkpt lat="43.72967" lon="3.40757">
        <ele>365.7</ele>
        <time>2017-05-07T08:44:49Z</time>
      </trkpt>
      <trkpt lat="43.72958" lon="3.4076">
        <ele>364.1</ele>
        <time>2017-05-07T08:44:50Z</time>
      </trkpt>
      <trkpt lat="43.72949" lon="3.40762">
        <ele>362.5</ele>
        <time>2017-05-07T08:44:51Z</time>
      </trkpt>
      <trkpt lat="43.72938" lon="3.40765">
        <ele>361</ele>
        <time>2017-05-07T08:44:52Z</time>
      </trkpt>
      <trkpt lat="43.72929" lon="3.40769">
        <ele>359.4</ele>
        <time>2017-05-07T08:44:53Z</time>
      </trkpt>
      <trkpt lat="43.72921" lon="3.40772">
        <ele>357.6</ele>
        <time>2017-05-07T08:44:54Z</time>
      </trkpt>
      <trkpt lat="43.72913" lon="3.40774">
        <ele>355.8</ele>
        <time>2017-05-07T08:44:55Z</time>
      </trkpt>
      <trkpt lat="43.72906" lon="3.40776">
        <ele>354.3</ele>
        <time>2017-05-07T08:44:56Z</time>
      </trkpt>
      <trkpt lat="43.72898" lon="3.40779">
        <ele>352.9</ele>
        <time>2017-05-07T08:44:57Z</time>
      </trkpt>
      <trkpt lat="43.72891" lon="3.40781">
        <ele>351.6</ele>
        <time>2017-05-07T08:44:58Z</time>
      </trkpt>
      <trkpt lat="43.72883" lon="3.40784">
        <ele>350.2</ele>
        <time>2017-05-07T08:44:59Z</time>
      </trkpt>
      <trkpt lat="43.72871" lon="3.40787">
        <ele>347.3</ele>
        <time>2017-05-07T08:45:01Z</time>
      </trkpt>
      <trkpt lat="43.72862" lon="3.40781">
        <ele>345</ele>
        <time>2017-05-07T08:45:03Z</time>
      </trkpt>
      <trkpt lat="43.72854" lon="3.40772">
        <ele>343.6</ele>
        <time>2017-05-07T08:45:05Z</time>
      </trkpt>
      <trkpt lat="43.72847" lon="3.40759">
        <ele>343.3</ele>
        <time>2017-05-07T08:45:08Z</time>
      </trkpt>
      <trkpt lat="43.72843" lon="3.40748">
        <ele>343.7</ele>
        <time>2017-05-07T08:45:10Z</time>
      </trkpt>
      <trkpt lat="43.72838" lon="3.40738">
        <ele>344.3</ele>
        <time>2017-05-07T08:45:12Z</time>
      </trkpt>
      <trkpt lat="43.72832" lon="3.40727">
        <ele>345.1</ele>
        <time>2017-05-07T08:45:14Z</time>
      </trkpt>
      <trkpt lat="43.72826" lon="3.40717">
        <ele>345.6</ele>
        <time>2017-05-07T08:45:16Z</time>
      </trkpt>
      <trkpt lat="43.72819" lon="3.40709">
        <ele>345.2</ele>
        <time>2017-05-07T08:45:18Z</time>
      </trkpt>
      <trkpt lat="43.72809" lon="3.407">
        <ele>344</ele>
        <time>2017-05-07T08:45:20Z</time>
      </trkpt>
      <trkpt lat="43.72798" lon="3.40694">
        <ele>342.5</ele>
        <time>2017-05-07T08:45:22Z</time>
      </trkpt>
      <trkpt lat="43.72785" lon="3.40687">
        <ele>341</ele>
        <time>2017-05-07T08:45:24Z</time>
      </trkpt>
      <trkpt lat="43.72775" lon="3.40675">
        <ele>339.6</ele>
        <time>2017-05-07T08:45:26Z</time>
      </trkpt>
      <trkpt lat="43.7277" lon="3.40661">
        <ele>338</ele>
        <time>2017-05-07T08:45:28Z</time>
      </trkpt>
      <trkpt lat="43.72768" lon="3.40651">
        <ele>337</ele>
        <time>2017-05-07T08:45:29Z</time>
      </trkpt>
      <trkpt lat="43.72764" lon="3.40632">
        <ele>335.4</ele>
        <time>2017-05-07T08:45:31Z</time>
      </trkpt>
      <trkpt lat="43.7276" lon="3.40617">
        <ele>333.8</ele>
        <time>2017-05-07T08:45:33Z</time>
      </trkpt>
      <trkpt lat="43.72759" lon="3.40611">
        <ele>333.5</ele>
        <time>2017-05-07T08:45:40Z</time>
      </trkpt>
      <trkpt lat="43.72766" lon="3.40608">
        <ele>332.8</ele>
        <time>2017-05-07T08:45:09Z</time>
      </trkpt>
      <trkpt lat="43.72773" lon="3.40605">
        <ele>332.4</ele>
        <time>2017-05-07T08:46:17Z</time>
      </trkpt>
      <trkpt lat="43.72782" lon="3.40599">
        <ele>331.2</ele>
        <time>2017-05-07T08:46:20Z</time>
      </trkpt>
      <trkpt lat="43.7279" lon="3.40592">
        <ele>329</ele>
        <time>2017-05-07T08:46:22Z</time>
      </trkpt>
      <trkpt lat="43.72797" lon="3.40587">
        <ele>327.1</ele>
        <time>2017-05-07T08:46:24Z</time>
      </trkpt>
      <trkpt lat="43.72806" lon="3.40579">
        <ele>326.1</ele>
        <time>2017-05-07T08:46:26Z</time>
      </trkpt>
      <trkpt lat="43.72815" lon="3.40571">
        <ele>325.5</ele>
        <time>2017-05-07T08:46:28Z</time>
      </trkpt>
      <trkpt lat="43.72823" lon="3.40563">
        <ele>325.8</ele>
        <time>2017-05-07T08:46:30Z</time>
      </trkpt>
      <trkpt lat="43.72832" lon="3.40556">
        <ele>325.9</ele>
        <time>2017-05-07T08:46:32Z</time>
      </trkpt>
      <trkpt lat="43.7284" lon="3.40548">
        <ele>326</ele>
        <time>2017-05-07T08:46:34Z</time>
      </trkpt>
      <trkpt lat="43.72847" lon="3.40541">
        <ele>326.2</ele>
        <time>2017-05-07T08:46:36Z</time>
      </trkpt>
      <trkpt lat="43.72856" lon="3.40534">
        <ele>326.3</ele>
        <time>2017-05-07T08:46:38Z</time>
      </trkpt>
      <trkpt lat="43.72866" lon="3.40526">
        <ele>326</ele>
        <time>2017-05-07T08:46:40Z</time>
      </trkpt>
      <trkpt lat="43.72874" lon="3.40521">
        <ele>325.2</ele>
        <time>2017-05-07T08:46:42Z</time>
      </trkpt>
      <trkpt lat="43.72884" lon="3.40516">
        <ele>325.1</ele>
        <time>2017-05-07T08:46:44Z</time>
      </trkpt>
      <trkpt lat="43.72894" lon="3.4051">
        <ele>324.5</ele>
        <time>2017-05-07T08:46:46Z</time>
      </trkpt>
      <trkpt lat="43.72905" lon="3.40502">
        <ele>324</ele>
        <time>2017-05-07T08:46:48Z</time>
      </trkpt>
      <trkpt lat="43.72915" lon="3.40494">
        <ele>323.3</ele>
        <time>2017-05-07T08:46:50Z</time>
      </trkpt>
      <trkpt lat="43.72923" lon="3.40486">
        <ele>322.2</ele>
        <time>2017-05-07T08:46:52Z</time>
      </trkpt>
      <trkpt lat="43.72932" lon="3.40478">
        <ele>321.8</ele>
        <time>2017-05-07T08:46:54Z</time>
      </trkpt>
      <trkpt lat="43.72941" lon="3.40472">
        <ele>321.2</ele>
        <time>2017-05-07T08:46:56Z</time>
      </trkpt>
      <trkpt lat="43.72949" lon="3.40466">
        <ele>320.9</ele>
        <time>2017-05-07T08:46:58Z</time>
      </trkpt>
      <trkpt lat="43.72956" lon="3.40461">
        <ele>320.9</ele>
        <time>2017-05-07T08:47:03Z</time>
      </trkpt>
      <trkpt lat="43.7295" lon="3.40455">
        <ele>320.7</ele>
        <time>2017-05-07T08:47:08Z</time>
      </trkpt>
      <trkpt lat="43.72941" lon="3.40459">
        <ele>321.1</ele>
        <time>2017-05-07T08:47:10Z</time>
      </trkpt>
      <trkpt lat="43.72931" lon="3.40462">
        <ele>320.6</ele>
        <time>2017-05-07T08:47:12Z</time>
      </trkpt>
      <trkpt lat="43.72919" lon="3.40465">
        <ele>318.3</ele>
        <time>2017-05-07T08:47:14Z</time>
      </trkpt>
      <trkpt lat="43.72911" lon="3.40466">
        <ele>317.1</ele>
        <time>2017-05-07T08:47:15Z</time>
      </trkpt>
      <trkpt lat="43.72903" lon="3.40467">
        <ele>316.2</ele>
        <time>2017-05-07T08:47:16Z</time>
      </trkpt>
      <trkpt lat="43.72894" lon="3.40471">
        <ele>315.5</ele>
        <time>2017-05-07T08:47:17Z</time>
      </trkpt>
      <trkpt lat="43.72885" lon="3.40474">
        <ele>315</ele>
        <time>2017-05-07T08:47:18Z</time>
      </trkpt>
      <trkpt lat="43.72878" lon="3.40478">
        <ele>314.3</ele>
        <time>2017-05-07T08:47:19Z</time>
      </trkpt>
      <trkpt lat="43.72869" lon="3.40481">
        <ele>313.7</ele>
        <time>2017-05-07T08:47:20Z</time>
      </trkpt>
      <trkpt lat="43.7286" lon="3.40483">
        <ele>313.2</ele>
        <time>2017-05-07T08:47:21Z</time>
      </trkpt>
      <trkpt lat="43.7285" lon="3.40484">
        <ele>312.4</ele>
        <time>2017-05-07T08:47:22Z</time>
      </trkpt>
      <trkpt lat="43.7284" lon="3.40488">
        <ele>311.4</ele>
        <time>2017-05-07T08:47:23Z</time>
      </trkpt>
      <trkpt lat="43.7283" lon="3.40492">
        <ele>310.3</ele>
        <time>2017-05-07T08:47:24Z</time>
      </trkpt>
      <trkpt lat="43.72818" lon="3.40495">
        <ele>309</ele>
        <time>2017-05-07T08:47:25Z</time>
      </trkpt>
      <trkpt lat="43.72807" lon="3.40499">
        <ele>307.7</ele>
        <time>2017-05-07T08:47:26Z</time>
      </trkpt>
      <trkpt lat="43.72797" lon="3.40503">
        <ele>306.9</ele>
        <time>2017-05-07T08:47:27Z</time>
      </trkpt>
      <trkpt lat="43.72786" lon="3.40507">
        <ele>306.1</ele>
        <time>2017-05-07T08:47:28Z</time>
      </trkpt>
      <trkpt lat="43.72776" lon="3.40511">
        <ele>304.7</ele>
        <time>2017-05-07T08:47:29Z</time>
      </trkpt>
      <trkpt lat="43.72766" lon="3.40515">
        <ele>303.4</ele>
        <time>2017-05-07T08:47:30Z</time>
      </trkpt>
      <trkpt lat="43.72755" lon="3.40519">
        <ele>302.4</ele>
        <time>2017-05-07T08:47:31Z</time>
      </trkpt>
      <trkpt lat="43.72745" lon="3.40521">
        <ele>301.2</ele>
        <time>2017-05-07T08:47:32Z</time>
      </trkpt>
      <trkpt lat="43.72734" lon="3.40524">
        <ele>299.6</ele>
        <time>2017-05-07T08:47:33Z</time>
      </trkpt>
      <trkpt lat="43.72723" lon="3.40525">
        <ele>298.3</ele>
        <time>2017-05-07T08:47:34Z</time>
      </trkpt>
      <trkpt lat="43.72711" lon="3.40526">
        <ele>296.9</ele>
        <time>2017-05-07T08:47:35Z</time>
      </trkpt>
      <trkpt lat="43.72699" lon="3.40527">
        <ele>295.7</ele>
        <time>2017-05-07T08:47:36Z</time>
      </trkpt>
      <trkpt lat="43.72687" lon="3.40529">
        <ele>294</ele>
        <time>2017-05-07T08:47:37Z</time>
      </trkpt>
      <trkpt lat="43.72676" lon="3.4053">
        <ele>292.3</ele>
        <time>2017-05-07T08:47:38Z</time>
      </trkpt>
      <trkpt lat="43.72666" lon="3.40532">
        <ele>290.7</ele>
        <time>2017-05-07T08:47:39Z</time>
      </trkpt>
      <trkpt lat="43.72657" lon="3.40534">
        <ele>289.4</ele>
        <time>2017-05-07T08:47:40Z</time>
      </trkpt>
      <trkpt lat="43.7265" lon="3.40536">
        <ele>288.2</ele>
        <time>2017-05-07T08:47:41Z</time>
      </trkpt>
      <trkpt lat="43.7264" lon="3.40541">
        <ele>286</ele>
        <time>2017-05-07T08:47:43Z</time>
      </trkpt>
      <trkpt lat="43.72633" lon="3.40549">
        <ele>285.3</ele>
        <time>2017-05-07T08:47:45Z</time>
      </trkpt>
      <trkpt lat="43.72628" lon="3.40559">
        <ele>284.5</ele>
        <time>2017-05-07T08:47:47Z</time>
      </trkpt>
      <trkpt lat="43.72623" lon="3.40567">
        <ele>284.2</ele>
        <time>2017-05-07T08:47:49Z</time>
      </trkpt>
      <trkpt lat="43.72618" lon="3.40574">
        <ele>284.1</ele>
        <time>2017-05-07T08:47:51Z</time>
      </trkpt>
      <trkpt lat="43.72611" lon="3.40582">
        <ele>284.2</ele>
        <time>2017-05-07T08:47:53Z</time>
      </trkpt>
      <trkpt lat="43.72605" lon="3.4059">
        <ele>284.2</ele>
        <time>2017-05-07T08:47:55Z</time>
      </trkpt>
      <trkpt lat="43.72601" lon="3.40599">
        <ele>284.4</ele>
        <time>2017-05-07T08:47:57Z</time>
      </trkpt>
      <trkpt lat="43.72596" lon="3.40608">
        <ele>284.4</ele>
        <time>2017-05-07T08:48:00Z</time>
      </trkpt>
      <trkpt lat="43.7259" lon="3.40617">
        <ele>285.3</ele>
        <time>2017-05-07T08:48:02Z</time>
      </trkpt>
      <trkpt lat="43.72583" lon="3.40626">
        <ele>285.6</ele>
        <time>2017-05-07T08:48:04Z</time>
      </trkpt>
      <trkpt lat="43.72578" lon="3.40633">
        <ele>285.6</ele>
        <time>2017-05-07T08:48:06Z</time>
      </trkpt>
      <trkpt lat="43.72572" lon="3.40638">
        <ele>285.6</ele>
        <time>2017-05-07T08:48:08Z</time>
      </trkpt>
      <trkpt lat="43.72565" lon="3.40645">
        <ele>285.6</ele>
        <time>2017-05-07T08:48:11Z</time>
      </trkpt>
      <trkpt lat="43.72556" lon="3.4065">
        <ele>285.6</ele>
        <time>2017-05-07T08:48:15Z</time>
      </trkpt>
      <trkpt lat="43.72548" lon="3.40657">
        <ele>285.8</ele>
        <time>2017-05-07T08:48:17Z</time>
      </trkpt>
      <trkpt lat="43.72541" lon="3.40665">
        <ele>286</ele>
        <time>2017-05-07T08:48:20Z</time>
      </trkpt>
      <trkpt lat="43.72534" lon="3.40673">
        <ele>286.2</ele>
        <time>2017-05-07T08:48:23Z</time>
      </trkpt>
      <trkpt lat="43.72528" lon="3.40685">
        <ele>286.4</ele>
        <time>2017-05-07T08:48:26Z</time>
      </trkpt>
      <trkpt lat="43.72522" lon="3.40697">
        <ele>286.6</ele>
        <time>2017-05-07T08:48:29Z</time>
      </trkpt>
      <trkpt lat="43.72517" lon="3.40706">
        <ele>287.1</ele>
        <time>2017-05-07T08:48:31Z</time>
      </trkpt>
      <trkpt lat="43.72513" lon="3.40715">
        <ele>287.8</ele>
        <time>2017-05-07T08:48:33Z</time>
      </trkpt>
      <trkpt lat="43.72511" lon="3.40729">
        <ele>288</ele>
        <time>2017-05-07T08:48:35Z</time>
      </trkpt>
      <trkpt lat="43.7251" lon="3.40742">
        <ele>287.5</ele>
        <time>2017-05-07T08:48:37Z</time>
      </trkpt>
      <trkpt lat="43.72511" lon="3.40753">
        <ele>286.7</ele>
        <time>2017-05-07T08:48:39Z</time>
      </trkpt>
      <trkpt lat="43.72512" lon="3.40768">
        <ele>285.9</ele>
        <time>2017-05-07T08:48:41Z</time>
      </trkpt>
      <trkpt lat="43.72509" lon="3.40785">
        <ele>284.9</ele>
        <time>2017-05-07T08:48:43Z</time>
      </trkpt>
      <trkpt lat="43.72504" lon="3.40798">
        <ele>283.7</ele>
        <time>2017-05-07T08:48:45Z</time>
      </trkpt>
      <trkpt lat="43.72494" lon="3.40805">
        <ele>282.1</ele>
        <time>2017-05-07T08:48:47Z</time>
      </trkpt>
      <trkpt lat="43.72483" lon="3.40812">
        <ele>280.7</ele>
        <time>2017-05-07T08:48:49Z</time>
      </trkpt>
      <trkpt lat="43.72475" lon="3.40816">
        <ele>279.5</ele>
        <time>2017-05-07T08:48:50Z</time>
      </trkpt>
      <trkpt lat="43.72467" lon="3.40822">
        <ele>278.4</ele>
        <time>2017-05-07T08:48:51Z</time>
      </trkpt>
      <trkpt lat="43.7246" lon="3.40827">
        <ele>277</ele>
        <time>2017-05-07T08:48:52Z</time>
      </trkpt>
      <trkpt lat="43.72453" lon="3.40833">
        <ele>276.2</ele>
        <time>2017-05-07T08:48:53Z</time>
      </trkpt>
      <trkpt lat="43.72445" lon="3.40838">
        <ele>276</ele>
        <time>2017-05-07T08:48:54Z</time>
      </trkpt>
      <trkpt lat="43.72437" lon="3.40843">
        <ele>275.8</ele>
        <time>2017-05-07T08:48:55Z</time>
      </trkpt>
      <trkpt lat="43.7243" lon="3.40847">
        <ele>275.5</ele>
        <time>2017-05-07T08:48:56Z</time>
      </trkpt>
      <trkpt lat="43.72423" lon="3.40852">
        <ele>275.2</ele>
        <time>2017-05-07T08:48:57Z</time>
      </trkpt>
      <trkpt lat="43.72415" lon="3.40856">
        <ele>275.1</ele>
        <time>2017-05-07T08:48:58Z</time>
      </trkpt>
      <trkpt lat="43.72404" lon="3.40863">
        <ele>275.1</ele>
        <time>2017-05-07T08:49:00Z</time>
      </trkpt>
      <trkpt lat="43.7239" lon="3.4087">
        <ele>274.2</ele>
        <time>2017-05-07T08:49:02Z</time>
      </trkpt>
      <trkpt lat="43.72383" lon="3.40873">
        <ele>273.4</ele>
        <time>2017-05-07T08:49:03Z</time>
      </trkpt>
      <trkpt lat="43.7237" lon="3.4088">
        <ele>272.8</ele>
        <time>2017-05-07T08:49:05Z</time>
      </trkpt>
      <trkpt lat="43.72362" lon="3.40884">
        <ele>272.3</ele>
        <time>2017-05-07T08:49:06Z</time>
      </trkpt>
      <trkpt lat="43.72354" lon="3.40887">
        <ele>271.9</ele>
        <time>2017-05-07T08:49:07Z</time>
      </trkpt>
      <trkpt lat="43.72346" lon="3.40888">
        <ele>270.9</ele>
        <time>2017-05-07T08:49:08Z</time>
      </trkpt>
      <trkpt lat="43.72338" lon="3.40887">
        <ele>270.1</ele>
        <time>2017-05-07T08:49:09Z</time>
      </trkpt>
      <trkpt lat="43.72329" lon="3.40885">
        <ele>269.2</ele>
        <time>2017-05-07T08:49:10Z</time>
      </trkpt>
      <trkpt lat="43.72322" lon="3.40883">
        <ele>268.5</ele>
        <time>2017-05-07T08:49:11Z</time>
      </trkpt>
      <trkpt lat="43.72314" lon="3.4088">
        <ele>267.9</ele>
        <time>2017-05-07T08:49:12Z</time>
      </trkpt>
      <trkpt lat="43.72306" lon="3.40879">
        <ele>267.6</ele>
        <time>2017-05-07T08:49:13Z</time>
      </trkpt>
      <trkpt lat="43.72298" lon="3.40877">
        <ele>267.3</ele>
        <time>2017-05-07T08:49:14Z</time>
      </trkpt>
      <trkpt lat="43.7229" lon="3.40876">
        <ele>267</ele>
        <time>2017-05-07T08:49:15Z</time>
      </trkpt>
      <trkpt lat="43.72281" lon="3.40878">
        <ele>266.3</ele>
        <time>2017-05-07T08:49:16Z</time>
      </trkpt>
      <trkpt lat="43.72273" lon="3.4088">
        <ele>265.8</ele>
        <time>2017-05-07T08:49:17Z</time>
      </trkpt>
      <trkpt lat="43.72265" lon="3.40881">
        <ele>264.9</ele>
        <time>2017-05-07T08:49:18Z</time>
      </trkpt>
      <trkpt lat="43.72256" lon="3.40883">
        <ele>263.8</ele>
        <time>2017-05-07T08:49:19Z</time>
      </trkpt>
      <trkpt lat="43.72241" lon="3.40888">
        <ele>261.7</ele>
        <time>2017-05-07T08:49:21Z</time>
      </trkpt>
      <trkpt lat="43.72234" lon="3.4089">
        <ele>261</ele>
        <time>2017-05-07T08:49:22Z</time>
      </trkpt>
      <trkpt lat="43.7222" lon="3.40896">
        <ele>259.5</ele>
        <time>2017-05-07T08:49:24Z</time>
      </trkpt>
      <trkpt lat="43.72211" lon="3.40899">
        <ele>258.5</ele>
        <time>2017-05-07T08:49:25Z</time>
      </trkpt>
      <trkpt lat="43.72204" lon="3.40902">
        <ele>257.8</ele>
        <time>2017-05-07T08:49:26Z</time>
      </trkpt>
      <trkpt lat="43.72196" lon="3.40905">
        <ele>256.9</ele>
        <time>2017-05-07T08:49:27Z</time>
      </trkpt>
      <trkpt lat="43.72187" lon="3.40909">
        <ele>255.7</ele>
        <time>2017-05-07T08:49:28Z</time>
      </trkpt>
      <trkpt lat="43.72178" lon="3.40913">
        <ele>254.6</ele>
        <time>2017-05-07T08:49:29Z</time>
      </trkpt>
      <trkpt lat="43.72169" lon="3.40918">
        <ele>253.2</ele>
        <time>2017-05-07T08:49:30Z</time>
      </trkpt>
      <trkpt lat="43.72161" lon="3.40922">
        <ele>252.1</ele>
        <time>2017-05-07T08:49:31Z</time>
      </trkpt>
      <trkpt lat="43.72151" lon="3.40927">
        <ele>250.9</ele>
        <time>2017-05-07T08:49:32Z</time>
      </trkpt>
      <trkpt lat="43.72144" lon="3.40931">
        <ele>249.8</ele>
        <time>2017-05-07T08:49:33Z</time>
      </trkpt>
      <trkpt lat="43.72135" lon="3.40935">
        <ele>248.6</ele>
        <time>2017-05-07T08:49:34Z</time>
      </trkpt>
      <trkpt lat="43.72128" lon="3.40941">
        <ele>247.6</ele>
        <time>2017-05-07T08:49:35Z</time>
      </trkpt>
      <trkpt lat="43.72121" lon="3.40949">
        <ele>246.5</ele>
        <time>2017-05-07T08:49:36Z</time>
      </trkpt>
      <trkpt lat="43.72115" lon="3.40956">
        <ele>245.4</ele>
        <time>2017-05-07T08:49:37Z</time>
      </trkpt>
      <trkpt lat="43.72108" lon="3.40962">
        <ele>244.2</ele>
        <time>2017-05-07T08:49:38Z</time>
      </trkpt>
      <trkpt lat="43.72097" lon="3.40973">
        <ele>242.3</ele>
        <time>2017-05-07T08:49:40Z</time>
      </trkpt>
      <trkpt lat="43.72086" lon="3.40984">
        <ele>240.9</ele>
        <time>2017-05-07T08:49:42Z</time>
      </trkpt>
      <trkpt lat="43.7208" lon="3.40989">
        <ele>240</ele>
        <time>2017-05-07T08:49:43Z</time>
      </trkpt>
      <trkpt lat="43.72073" lon="3.40995">
        <ele>239.1</ele>
        <time>2017-05-07T08:49:44Z</time>
      </trkpt>
      <trkpt lat="43.72066" lon="3.41002">
        <ele>238.2</ele>
        <time>2017-05-07T08:49:45Z</time>
      </trkpt>
      <trkpt lat="43.72059" lon="3.41009">
        <ele>237.3</ele>
        <time>2017-05-07T08:49:46Z</time>
      </trkpt>
      <trkpt lat="43.7205" lon="3.41017">
        <ele>236.4</ele>
        <time>2017-05-07T08:49:47Z</time>
      </trkpt>
      <trkpt lat="43.72043" lon="3.41026">
        <ele>235.3</ele>
        <time>2017-05-07T08:49:48Z</time>
      </trkpt>
      <trkpt lat="43.72036" lon="3.41037">
        <ele>234.7</ele>
        <time>2017-05-07T08:49:49Z</time>
      </trkpt>
      <trkpt lat="43.7203" lon="3.41046">
        <ele>234.1</ele>
        <time>2017-05-07T08:49:50Z</time>
      </trkpt>
      <trkpt lat="43.72023" lon="3.41055">
        <ele>233.1</ele>
        <time>2017-05-07T08:49:51Z</time>
      </trkpt>
      <trkpt lat="43.72018" lon="3.41063">
        <ele>232.1</ele>
        <time>2017-05-07T08:49:52Z</time>
      </trkpt>
      <trkpt lat="43.72012" lon="3.41071">
        <ele>231</ele>
        <time>2017-05-07T08:49:53Z</time>
      </trkpt>
      <trkpt lat="43.72008" lon="3.4108">
        <ele>230.2</ele>
        <time>2017-05-07T08:49:54Z</time>
      </trkpt>
      <trkpt lat="43.72002" lon="3.41094">
        <ele>229.6</ele>
        <time>2017-05-07T08:49:56Z</time>
      </trkpt>
      <trkpt lat="43.71996" lon="3.41111">
        <ele>229.5</ele>
        <time>2017-05-07T08:49:58Z</time>
      </trkpt>
      <trkpt lat="43.71992" lon="3.41121">
        <ele>229.5</ele>
        <time>2017-05-07T08:49:59Z</time>
      </trkpt>
      <trkpt lat="43.71987" lon="3.41131">
        <ele>229.3</ele>
        <time>2017-05-07T08:50:00Z</time>
      </trkpt>
      <trkpt lat="43.71982" lon="3.41141">
        <ele>228.7</ele>
        <time>2017-05-07T08:50:01Z</time>
      </trkpt>
      <trkpt lat="43.71976" lon="3.41148">
        <ele>228.6</ele>
        <time>2017-05-07T08:50:02Z</time>
      </trkpt>
      <trkpt lat="43.71969" lon="3.41154">
        <ele>228</ele>
        <time>2017-05-07T08:50:03Z</time>
      </trkpt>
      <trkpt lat="43.71963" lon="3.41161">
        <ele>227.2</ele>
        <time>2017-05-07T08:50:04Z</time>
      </trkpt>
      <trkpt lat="43.71957" lon="3.41168">
        <ele>226.6</ele>
        <time>2017-05-07T08:50:05Z</time>
      </trkpt>
      <trkpt lat="43.71947" lon="3.4118">
        <ele>224.8</ele>
        <time>2017-05-07T08:50:07Z</time>
      </trkpt>
      <trkpt lat="43.71935" lon="3.41193">
        <ele>224.5</ele>
        <time>2017-05-07T08:50:09Z</time>
      </trkpt>
      <trkpt lat="43.71929" lon="3.41201">
        <ele>224.9</ele>
        <time>2017-05-07T08:50:10Z</time>
      </trkpt>
      <trkpt lat="43.71916" lon="3.41213">
        <ele>225.5</ele>
        <time>2017-05-07T08:50:12Z</time>
      </trkpt>
      <trkpt lat="43.71909" lon="3.41219">
        <ele>225.5</ele>
        <time>2017-05-07T08:50:13Z</time>
      </trkpt>
      <trkpt lat="43.71902" lon="3.41225">
        <ele>225.3</ele>
        <time>2017-05-07T08:50:14Z</time>
      </trkpt>
      <trkpt lat="43.71893" lon="3.41228">
        <ele>224.9</ele>
        <time>2017-05-07T08:50:15Z</time>
      </trkpt>
      <trkpt lat="43.71884" lon="3.41229">
        <ele>223.8</ele>
        <time>2017-05-07T08:50:16Z</time>
      </trkpt>
      <trkpt lat="43.71876" lon="3.41232">
        <ele>222.7</ele>
        <time>2017-05-07T08:50:17Z</time>
      </trkpt>
      <trkpt lat="43.71869" lon="3.41232">
        <ele>221.6</ele>
        <time>2017-05-07T08:50:18Z</time>
      </trkpt>
      <trkpt lat="43.71861" lon="3.41233">
        <ele>221</ele>
        <time>2017-05-07T08:50:19Z</time>
      </trkpt>
      <trkpt lat="43.71854" lon="3.41233">
        <ele>220.3</ele>
        <time>2017-05-07T08:50:20Z</time>
      </trkpt>
      <trkpt lat="43.7184" lon="3.41237">
        <ele>218.9</ele>
        <time>2017-05-07T08:50:22Z</time>
      </trkpt>
      <trkpt lat="43.71828" lon="3.41243">
        <ele>218.4</ele>
        <time>2017-05-07T08:50:24Z</time>
      </trkpt>
      <trkpt lat="43.71815" lon="3.41251">
        <ele>218.9</ele>
        <time>2017-05-07T08:50:26Z</time>
      </trkpt>
      <trkpt lat="43.71807" lon="3.41255">
        <ele>218.8</ele>
        <time>2017-05-07T08:50:27Z</time>
      </trkpt>
      <trkpt lat="43.718" lon="3.41258">
        <ele>219</ele>
        <time>2017-05-07T08:50:28Z</time>
      </trkpt>
      <trkpt lat="43.71788" lon="3.41261">
        <ele>218.5</ele>
        <time>2017-05-07T08:50:30Z</time>
      </trkpt>
      <trkpt lat="43.71781" lon="3.41264">
        <ele>218.6</ele>
        <time>2017-05-07T08:50:32Z</time>
      </trkpt>
      <trkpt lat="43.71773" lon="3.41269">
        <ele>218.9</ele>
        <time>2017-05-07T08:50:35Z</time>
      </trkpt>
      <trkpt lat="43.71764" lon="3.41274">
        <ele>219.2</ele>
        <time>2017-05-07T08:50:38Z</time>
      </trkpt>
      <trkpt lat="43.71757" lon="3.41278">
        <ele>219.6</ele>
        <time>2017-05-07T08:50:41Z</time>
      </trkpt>
      <trkpt lat="43.71749" lon="3.41283">
        <ele>219.9</ele>
        <time>2017-05-07T08:50:44Z</time>
      </trkpt>
      <trkpt lat="43.71741" lon="3.41287">
        <ele>220.1</ele>
        <time>2017-05-07T08:50:46Z</time>
      </trkpt>
      <trkpt lat="43.71733" lon="3.4129">
        <ele>220.5</ele>
        <time>2017-05-07T08:50:49Z</time>
      </trkpt>
      <trkpt lat="43.71723" lon="3.41292">
        <ele>220.9</ele>
        <time>2017-05-07T08:50:52Z</time>
      </trkpt>
      <trkpt lat="43.71711" lon="3.41292">
        <ele>223.5</ele>
        <time>2017-05-07T08:50:54Z</time>
      </trkpt>
      <trkpt lat="43.71699" lon="3.41292">
        <ele>224.9</ele>
        <time>2017-05-07T08:50:56Z</time>
      </trkpt>
      <trkpt lat="43.71686" lon="3.41297">
        <ele>225.4</ele>
        <time>2017-05-07T08:50:58Z</time>
      </trkpt>
      <trkpt lat="43.71674" lon="3.41301">
        <ele>224.9</ele>
        <time>2017-05-07T08:51:00Z</time>
      </trkpt>
      <trkpt lat="43.71661" lon="3.41306">
        <ele>224.1</ele>
        <time>2017-05-07T08:51:02Z</time>
      </trkpt>
      <trkpt lat="43.71653" lon="3.41308">
        <ele>223.2</ele>
        <time>2017-05-07T08:51:03Z</time>
      </trkpt>
      <trkpt lat="43.71645" lon="3.4131">
        <ele>222.3</ele>
        <time>2017-05-07T08:51:04Z</time>
      </trkpt>
      <trkpt lat="43.71636" lon="3.41312">
        <ele>221.7</ele>
        <time>2017-05-07T08:51:05Z</time>
      </trkpt>
      <trkpt lat="43.71627" lon="3.41313">
        <ele>221.2</ele>
        <time>2017-05-07T08:51:06Z</time>
      </trkpt>
      <trkpt lat="43.7162" lon="3.41313">
        <ele>220.6</ele>
        <time>2017-05-07T08:51:07Z</time>
      </trkpt>
      <trkpt lat="43.71612" lon="3.41313">
        <ele>220.3</ele>
        <time>2017-05-07T08:51:08Z</time>
      </trkpt>
      <trkpt lat="43.71599" lon="3.4131">
        <ele>220</ele>
        <time>2017-05-07T08:51:10Z</time>
      </trkpt>
      <trkpt lat="43.71589" lon="3.41308">
        <ele>219.4</ele>
        <time>2017-05-07T08:51:12Z</time>
      </trkpt>
      <trkpt lat="43.71577" lon="3.41307">
        <ele>220.1</ele>
        <time>2017-05-07T08:51:14Z</time>
      </trkpt>
      <trkpt lat="43.71565" lon="3.41306">
        <ele>219.8</ele>
        <time>2017-05-07T08:51:16Z</time>
      </trkpt>
      <trkpt lat="43.71551" lon="3.41307">
        <ele>219.6</ele>
        <time>2017-05-07T08:51:18Z</time>
      </trkpt>
      <trkpt lat="43.71537" lon="3.41307">
        <ele>219.8</ele>
        <time>2017-05-07T08:51:20Z</time>
      </trkpt>
      <trkpt lat="43.71525" lon="3.41304">
        <ele>219.3</ele>
        <time>2017-05-07T08:51:22Z</time>
      </trkpt>
      <trkpt lat="43.71514" lon="3.41297">
        <ele>219.3</ele>
        <time>2017-05-07T08:51:24Z</time>
      </trkpt>
      <trkpt lat="43.71506" lon="3.4129">
        <ele>220.4</ele>
        <time>2017-05-07T08:51:26Z</time>
      </trkpt>
      <trkpt lat="43.71499" lon="3.41286">
        <ele>221.4</ele>
        <time>2017-05-07T08:51:28Z</time>
      </trkpt>
      <trkpt lat="43.7149" lon="3.41283">
        <ele>222</ele>
        <time>2017-05-07T08:51:30Z</time>
      </trkpt>
      <trkpt lat="43.71479" lon="3.41282">
        <ele>222.1</ele>
        <time>2017-05-07T08:51:32Z</time>
      </trkpt>
      <trkpt lat="43.71468" lon="3.4128">
        <ele>221.3</ele>
        <time>2017-05-07T08:51:34Z</time>
      </trkpt>
      <trkpt lat="43.71457" lon="3.41279">
        <ele>221.3</ele>
        <time>2017-05-07T08:51:36Z</time>
      </trkpt>
      <trkpt lat="43.71445" lon="3.41279">
        <ele>220.9</ele>
        <time>2017-05-07T08:51:38Z</time>
      </trkpt>
      <trkpt lat="43.71432" lon="3.41279">
        <ele>221</ele>
        <time>2017-05-07T08:51:40Z</time>
      </trkpt>
      <trkpt lat="43.71422" lon="3.41278">
        <ele>220.3</ele>
        <time>2017-05-07T08:51:42Z</time>
      </trkpt>
      <trkpt lat="43.71411" lon="3.41273">
        <ele>219.6</ele>
        <time>2017-05-07T08:51:44Z</time>
      </trkpt>
      <trkpt lat="43.71401" lon="3.41261">
        <ele>219.4</ele>
        <time>2017-05-07T08:51:46Z</time>
      </trkpt>
      <trkpt lat="43.71398" lon="3.41251">
        <ele>219</ele>
        <time>2017-05-07T08:51:47Z</time>
      </trkpt>
      <trkpt lat="43.71395" lon="3.41241">
        <ele>218.7</ele>
        <time>2017-05-07T08:51:48Z</time>
      </trkpt>
      <trkpt lat="43.71395" lon="3.41231">
        <ele>218</ele>
        <time>2017-05-07T08:51:49Z</time>
      </trkpt>
      <trkpt lat="43.71395" lon="3.4122">
        <ele>217.7</ele>
        <time>2017-05-07T08:51:50Z</time>
      </trkpt>
      <trkpt lat="43.71392" lon="3.41205">
        <ele>216.7</ele>
        <time>2017-05-07T08:51:52Z</time>
      </trkpt>
      <trkpt lat="43.71385" lon="3.412">
        <ele>216</ele>
        <time>2017-05-07T08:51:54Z</time>
      </trkpt>
      <trkpt lat="43.71377" lon="3.41202">
        <ele>216</ele>
        <time>2017-05-07T08:51:56Z</time>
      </trkpt>
      <trkpt lat="43.7137" lon="3.4121">
        <ele>216.1</ele>
        <time>2017-05-07T08:51:58Z</time>
      </trkpt>
      <trkpt lat="43.71365" lon="3.41218">
        <ele>216.8</ele>
        <time>2017-05-07T08:52:00Z</time>
      </trkpt>
      <trkpt lat="43.71356" lon="3.41229">
        <ele>216.9</ele>
        <time>2017-05-07T08:52:02Z</time>
      </trkpt>
      <trkpt lat="43.71347" lon="3.41238">
        <ele>217.4</ele>
        <time>2017-05-07T08:52:04Z</time>
      </trkpt>
      <trkpt lat="43.71339" lon="3.41246">
        <ele>217.7</ele>
        <time>2017-05-07T08:52:06Z</time>
      </trkpt>
      <trkpt lat="43.7133" lon="3.41254">
        <ele>217.5</ele>
        <time>2017-05-07T08:52:08Z</time>
      </trkpt>
      <trkpt lat="43.7132" lon="3.41261">
        <ele>217.5</ele>
        <time>2017-05-07T08:52:10Z</time>
      </trkpt>
      <trkpt lat="43.71311" lon="3.41268">
        <ele>217.8</ele>
        <time>2017-05-07T08:52:12Z</time>
      </trkpt>
      <trkpt lat="43.71302" lon="3.41277">
        <ele>218.3</ele>
        <time>2017-05-07T08:52:14Z</time>
      </trkpt>
      <trkpt lat="43.71292" lon="3.41283">
        <ele>218.5</ele>
        <time>2017-05-07T08:52:16Z</time>
      </trkpt>
      <trkpt lat="43.71282" lon="3.41291">
        <ele>218.3</ele>
        <time>2017-05-07T08:52:18Z</time>
      </trkpt>
      <trkpt lat="43.71271" lon="3.41296">
        <ele>217.7</ele>
        <time>2017-05-07T08:52:20Z</time>
      </trkpt>
      <trkpt lat="43.7126" lon="3.41302">
        <ele>216.3</ele>
        <time>2017-05-07T08:52:22Z</time>
      </trkpt>
      <trkpt lat="43.71247" lon="3.41303">
        <ele>215.3</ele>
        <time>2017-05-07T08:52:24Z</time>
      </trkpt>
      <trkpt lat="43.71233" lon="3.413">
        <ele>214.7</ele>
        <time>2017-05-07T08:52:26Z</time>
      </trkpt>
      <trkpt lat="43.71222" lon="3.41298">
        <ele>214.2</ele>
        <time>2017-05-07T08:52:28Z</time>
      </trkpt>
      <trkpt lat="43.7121" lon="3.41299">
        <ele>214.4</ele>
        <time>2017-05-07T08:52:30Z</time>
      </trkpt>
      <trkpt lat="43.71197" lon="3.41304">
        <ele>214.2</ele>
        <time>2017-05-07T08:52:32Z</time>
      </trkpt>
      <trkpt lat="43.71188" lon="3.41307">
        <ele>213.8</ele>
        <time>2017-05-07T08:52:33Z</time>
      </trkpt>
      <trkpt lat="43.71181" lon="3.4131">
        <ele>213.3</ele>
        <time>2017-05-07T08:52:34Z</time>
      </trkpt>
      <trkpt lat="43.71173" lon="3.41315">
        <ele>213</ele>
        <time>2017-05-07T08:52:35Z</time>
      </trkpt>
      <trkpt lat="43.71161" lon="3.41321">
        <ele>212.9</ele>
        <time>2017-05-07T08:52:37Z</time>
      </trkpt>
      <trkpt lat="43.71152" lon="3.41325">
        <ele>212.5</ele>
        <time>2017-05-07T08:52:38Z</time>
      </trkpt>
      <trkpt lat="43.71143" lon="3.41327">
        <ele>212.4</ele>
        <time>2017-05-07T08:52:39Z</time>
      </trkpt>
      <trkpt lat="43.71137" lon="3.41328">
        <ele>211.9</ele>
        <time>2017-05-07T08:52:40Z</time>
      </trkpt>
      <trkpt lat="43.7113" lon="3.4133">
        <ele>211.1</ele>
        <time>2017-05-07T08:52:41Z</time>
      </trkpt>
      <trkpt lat="43.71119" lon="3.41328">
        <ele>209.5</ele>
        <time>2017-05-07T08:52:43Z</time>
      </trkpt>
      <trkpt lat="43.71114" lon="3.41336">
        <ele>208.9</ele>
        <time>2017-05-07T08:52:46Z</time>
      </trkpt>
      <trkpt lat="43.71116" lon="3.41348">
        <ele>207.5</ele>
        <time>2017-05-07T08:52:48Z</time>
      </trkpt>
      <trkpt lat="43.7112" lon="3.41362">
        <ele>206.7</ele>
        <time>2017-05-07T08:52:50Z</time>
      </trkpt>
      <trkpt lat="43.71125" lon="3.41375">
        <ele>206</ele>
        <time>2017-05-07T08:52:52Z</time>
      </trkpt>
      <trkpt lat="43.71132" lon="3.4139">
        <ele>205.4</ele>
        <time>2017-05-07T08:52:54Z</time>
      </trkpt>
      <trkpt lat="43.71137" lon="3.41405">
        <ele>204.8</ele>
        <time>2017-05-07T08:52:56Z</time>
      </trkpt>
      <trkpt lat="43.71142" lon="3.41417">
        <ele>204.6</ele>
        <time>2017-05-07T08:52:58Z</time>
      </trkpt>
      <trkpt lat="43.71148" lon="3.41433">
        <ele>204.5</ele>
        <time>2017-05-07T08:53:00Z</time>
      </trkpt>
      <trkpt lat="43.71155" lon="3.41448">
        <ele>204</ele>
        <time>2017-05-07T08:53:02Z</time>
      </trkpt>
      <trkpt lat="43.71159" lon="3.41457">
        <ele>203.8</ele>
        <time>2017-05-07T08:53:03Z</time>
      </trkpt>
      <trkpt lat="43.71164" lon="3.41466">
        <ele>203.2</ele>
        <time>2017-05-07T08:53:04Z</time>
      </trkpt>
      <trkpt lat="43.71172" lon="3.41472">
        <ele>202.5</ele>
        <time>2017-05-07T08:53:05Z</time>
      </trkpt>
      <trkpt lat="43.71183" lon="3.41478">
        <ele>202.3</ele>
        <time>2017-05-07T08:53:07Z</time>
      </trkpt>
      <trkpt lat="43.71191" lon="3.41482">
        <ele>203.1</ele>
        <time>2017-05-07T08:53:09Z</time>
      </trkpt>
      <trkpt lat="43.712" lon="3.41487">
        <ele>203.3</ele>
        <time>2017-05-07T08:53:12Z</time>
      </trkpt>
      <trkpt lat="43.71207" lon="3.4149">
        <ele>203.6</ele>
        <time>2017-05-07T08:53:15Z</time>
      </trkpt>
      <trkpt lat="43.71214" lon="3.41495">
        <ele>203.9</ele>
        <time>2017-05-07T08:53:18Z</time>
      </trkpt>
      <trkpt lat="43.71219" lon="3.41503">
        <ele>204.2</ele>
        <time>2017-05-07T08:53:22Z</time>
      </trkpt>
      <trkpt lat="43.71226" lon="3.41511">
        <ele>204.4</ele>
        <time>2017-05-07T08:53:26Z</time>
      </trkpt>
      <trkpt lat="43.71233" lon="3.41519">
        <ele>204.6</ele>
        <time>2017-05-07T08:53:30Z</time>
      </trkpt>
      <trkpt lat="43.71239" lon="3.41528">
        <ele>204.8</ele>
        <time>2017-05-07T08:53:33Z</time>
      </trkpt>
      <trkpt lat="43.71244" lon="3.41536">
        <ele>205.2</ele>
        <time>2017-05-07T08:53:37Z</time>
      </trkpt>
      <trkpt lat="43.71247" lon="3.41545">
        <ele>205.4</ele>
        <time>2017-05-07T08:53:41Z</time>
      </trkpt>
      <trkpt lat="43.71249" lon="3.41556">
        <ele>205.6</ele>
        <time>2017-05-07T08:53:45Z</time>
      </trkpt>
      <trkpt lat="43.71252" lon="3.41567">
        <ele>206</ele>
        <time>2017-05-07T08:53:50Z</time>
      </trkpt>
      <trkpt lat="43.71255" lon="3.41576">
        <ele>206.5</ele>
        <time>2017-05-07T08:53:55Z</time>
      </trkpt>
      <trkpt lat="43.71256" lon="3.41586">
        <ele>207</ele>
        <time>2017-05-07T08:53:59Z</time>
      </trkpt>
      <trkpt lat="43.71258" lon="3.41597">
        <ele>207.3</ele>
        <time>2017-05-07T08:54:02Z</time>
      </trkpt>
      <trkpt lat="43.71259" lon="3.41607">
        <ele>207.8</ele>
        <time>2017-05-07T08:54:06Z</time>
      </trkpt>
      <trkpt lat="43.71258" lon="3.4162">
        <ele>208.3</ele>
        <time>2017-05-07T08:54:10Z</time>
      </trkpt>
      <trkpt lat="43.71257" lon="3.41631">
        <ele>208.5</ele>
        <time>2017-05-07T08:54:14Z</time>
      </trkpt>
      <trkpt lat="43.71256" lon="3.41642">
        <ele>208.8</ele>
        <time>2017-05-07T08:54:17Z</time>
      </trkpt>
      <trkpt lat="43.71255" lon="3.41653">
        <ele>209</ele>
        <time>2017-05-07T08:54:20Z</time>
      </trkpt>
      <trkpt lat="43.71254" lon="3.41668">
        <ele>210.4</ele>
        <time>2017-05-07T08:54:23Z</time>
      </trkpt>
      <trkpt lat="43.71254" lon="3.41677">
        <ele>210.2</ele>
        <time>2017-05-07T08:54:25Z</time>
      </trkpt>
      <trkpt lat="43.71255" lon="3.41689">
        <ele>210.1</ele>
        <time>2017-05-07T08:54:27Z</time>
      </trkpt>
      <trkpt lat="43.71257" lon="3.41702">
        <ele>210.1</ele>
        <time>2017-05-07T08:54:30Z</time>
      </trkpt>
      <trkpt lat="43.71261" lon="3.4171">
        <ele>210.3</ele>
        <time>2017-05-07T08:54:34Z</time>
      </trkpt>
      <trkpt lat="43.71267" lon="3.4172">
        <ele>210.4</ele>
        <time>2017-05-07T08:54:37Z</time>
      </trkpt>
      <trkpt lat="43.71271" lon="3.41731">
        <ele>210.6</ele>
        <time>2017-05-07T08:54:40Z</time>
      </trkpt>
      <trkpt lat="43.71277" lon="3.4174">
        <ele>210.7</ele>
        <time>2017-05-07T08:54:43Z</time>
      </trkpt>
      <trkpt lat="43.71285" lon="3.41748">
        <ele>210.7</ele>
        <time>2017-05-07T08:54:47Z</time>
      </trkpt>
      <trkpt lat="43.7129" lon="3.41756">
        <ele>211</ele>
        <time>2017-05-07T08:54:53Z</time>
      </trkpt>
      <trkpt lat="43.71294" lon="3.41766">
        <ele>211.5</ele>
        <time>2017-05-07T08:54:57Z</time>
      </trkpt>
      <trkpt lat="43.71297" lon="3.41776">
        <ele>212.2</ele>
        <time>2017-05-07T08:55:03Z</time>
      </trkpt>
      <trkpt lat="43.71301" lon="3.41787">
        <ele>212.5</ele>
        <time>2017-05-07T08:55:08Z</time>
      </trkpt>
      <trkpt lat="43.71306" lon="3.41795">
        <ele>213</ele>
        <time>2017-05-07T08:55:13Z</time>
      </trkpt>
      <trkpt lat="43.71311" lon="3.41802">
        <ele>213.6</ele>
        <time>2017-05-07T08:55:19Z</time>
      </trkpt>
      <trkpt lat="43.71315" lon="3.41811">
        <ele>213.8</ele>
        <time>2017-05-07T08:55:23Z</time>
      </trkpt>
      <trkpt lat="43.7132" lon="3.4182">
        <ele>214.2</ele>
        <time>2017-05-07T08:55:28Z</time>
      </trkpt>
      <trkpt lat="43.71325" lon="3.41827">
        <ele>214.6</ele>
        <time>2017-05-07T08:55:34Z</time>
      </trkpt>
      <trkpt lat="43.71328" lon="3.41834">
        <ele>215.1</ele>
        <time>2017-05-07T08:55:41Z</time>
      </trkpt>
      <trkpt lat="43.71327" lon="3.41847">
        <ele>216</ele>
        <time>2017-05-07T08:55:51Z</time>
      </trkpt>
      <trkpt lat="43.71321" lon="3.41856">
        <ele>216.1</ele>
        <time>2017-05-07T08:55:55Z</time>
      </trkpt>
      <trkpt lat="43.71315" lon="3.41864">
        <ele>216.2</ele>
        <time>2017-05-07T08:55:59Z</time>
      </trkpt>
      <trkpt lat="43.71308" lon="3.41871">
        <ele>216.4</ele>
        <time>2017-05-07T08:56:03Z</time>
      </trkpt>
      <trkpt lat="43.71305" lon="3.41881">
        <ele>216.9</ele>
        <time>2017-05-07T08:56:09Z</time>
      </trkpt>
      <trkpt lat="43.71309" lon="3.4189">
        <ele>217.2</ele>
        <time>2017-05-07T08:56:12Z</time>
      </trkpt>
      <trkpt lat="43.71314" lon="3.419">
        <ele>217.5</ele>
        <time>2017-05-07T08:56:15Z</time>
      </trkpt>
      <trkpt lat="43.7132" lon="3.4191">
        <ele>217.8</ele>
        <time>2017-05-07T08:56:18Z</time>
      </trkpt>
      <trkpt lat="43.71326" lon="3.4192">
        <ele>218</ele>
        <time>2017-05-07T08:56:21Z</time>
      </trkpt>
      <trkpt lat="43.71333" lon="3.41931">
        <ele>219.7</ele>
        <time>2017-05-07T08:56:24Z</time>
      </trkpt>
      <trkpt lat="43.71338" lon="3.41939">
        <ele>221.1</ele>
        <time>2017-05-07T08:56:26Z</time>
      </trkpt>
      <trkpt lat="43.71344" lon="3.41949">
        <ele>221.5</ele>
        <time>2017-05-07T08:56:28Z</time>
      </trkpt>
      <trkpt lat="43.71349" lon="3.41957">
        <ele>221.9</ele>
        <time>2017-05-07T08:56:30Z</time>
      </trkpt>
      <trkpt lat="43.71356" lon="3.41966">
        <ele>221.7</ele>
        <time>2017-05-07T08:56:32Z</time>
      </trkpt>
      <trkpt lat="43.71361" lon="3.41976">
        <ele>221.3</ele>
        <time>2017-05-07T08:56:34Z</time>
      </trkpt>
      <trkpt lat="43.71366" lon="3.41985">
        <ele>221.6</ele>
        <time>2017-05-07T08:56:36Z</time>
      </trkpt>
      <trkpt lat="43.7137" lon="3.41995">
        <ele>221.8</ele>
        <time>2017-05-07T08:56:38Z</time>
      </trkpt>
      <trkpt lat="43.71375" lon="3.42004">
        <ele>221.6</ele>
        <time>2017-05-07T08:56:40Z</time>
      </trkpt>
      <trkpt lat="43.7138" lon="3.42014">
        <ele>221.6</ele>
        <time>2017-05-07T08:56:42Z</time>
      </trkpt>
      <trkpt lat="43.71385" lon="3.42026">
        <ele>221.4</ele>
        <time>2017-05-07T08:56:45Z</time>
      </trkpt>
      <trkpt lat="43.71392" lon="3.42038">
        <ele>221.3</ele>
        <time>2017-05-07T08:56:48Z</time>
      </trkpt>
      <trkpt lat="43.71394" lon="3.42049">
        <ele>221</ele>
        <time>2017-05-07T08:56:52Z</time>
      </trkpt>
      <trkpt lat="43.71394" lon="3.42053">
        <ele>221</ele>
        <time>2017-05-07T08:56:59Z</time>
      </trkpt>
      <trkpt lat="43.7139" lon="3.42048">
        <ele>222.1</ele>
        <time>2017-05-07T08:58:14Z</time>
      </trkpt>
      <trkpt lat="43.71389" lon="3.42047">
        <ele>222.7</ele>
        <time>2017-05-07T08:58:21Z</time>
      </trkpt>
      <trkpt lat="43.71389" lon="3.42047">
        <ele>224.3</ele>
        <time>2017-05-07T08:58:41Z</time>
      </trkpt>
      <trkpt lat="43.71387" lon="3.42046">
        <ele>225.4</ele>
        <time>2017-05-07T08:58:48Z</time>
      </trkpt>
      <trkpt lat="43.71389" lon="3.42052">
        <ele>227</ele>
        <time>2017-05-07T08:58:59Z</time>
      </trkpt>
      <trkpt lat="43.71394" lon="3.42054">
        <ele>226.7</ele>
        <time>2017-05-07T08:59:06Z</time>
      </trkpt>
      <trkpt lat="43.71396" lon="3.42057">
        <ele>226.2</ele>
        <time>2017-05-07T08:59:13Z</time>
      </trkpt>
    </trkseg>
  </trk>
</gpx>